<?xml version="1.0" encoding="UTF-8" standalone="no" ?>
<gpx xmlns="http://www.topografix.com/GPX/1/1" xmlns:xsi="http://www.w3.org/2001/XMLSchema-instance" xsi:schemaLocation="http://www.topografix.com/GPX/1/1 http://www.topografix.com/GPX/1/1/gpx.xsd" version="1.1" creator="VisuGPX - https://www.visugpx.com">
  <metadata>
    <name>CCFM 331</name>
    <desc><![CDATA[⛳️CS.Mons, Lexhy, Haneffe, Les Waleffes, Tourinne, Abolens, Bertrée, Avernas-le-Bauduin, Grand-Hallet, Wansin, [b]HANNUT[/b], Abolens, Geers, Ligney, Omal, Les Waleffes, Borlez, Viemme, Haneffe, Lexhy, Mons.]]></desc>
  </metadata>
  <trk>
    <name><![CDATA[CCFM 331]]></name>
    <desc><![CDATA[]]></desc>
    <extensions>
      <line xmlns="http://www.topografix.com/GPX/gpx_style/0/2">
        <color>0000FF</color>
        <opacity>1</opacity>
        <width>4</width>
          <extensions>
            <sens>1</sens>
          </extensions>
      </line>
    </extensions>
    <trkseg>
      <trkpt lat="50.62259" lon="5.44821">
        <ele>190</ele>
        <time>2021-09-05T10:34:22.000Z</time>
      </trkpt>
      <trkpt lat="50.62325" lon="5.4483">
        <ele>190.7</ele>
      </trkpt>
      <trkpt lat="50.62349" lon="5.44637">
        <ele>192</ele>
      </trkpt>
      <trkpt lat="50.62353" lon="5.44583">
        <ele>192.3</ele>
      </trkpt>
      <trkpt lat="50.62351" lon="5.44473">
        <ele>191.6</ele>
      </trkpt>
      <trkpt lat="50.62346" lon="5.44416">
        <ele>190.4</ele>
      </trkpt>
      <trkpt lat="50.62335" lon="5.44335">
        <ele>189.1</ele>
      </trkpt>
      <trkpt lat="50.6232" lon="5.4426">
        <ele>188.8</ele>
      </trkpt>
      <trkpt lat="50.62307" lon="5.44209">
        <ele>187.6</ele>
      </trkpt>
      <trkpt lat="50.62302" lon="5.44165">
        <ele>187</ele>
      </trkpt>
      <trkpt lat="50.62303" lon="5.44148">
        <ele>186.9</ele>
      </trkpt>
      <trkpt lat="50.62312" lon="5.44116">
        <ele>186.4</ele>
      </trkpt>
      <trkpt lat="50.62373" lon="5.44003">
        <ele>186.4</ele>
      </trkpt>
      <trkpt lat="50.62352" lon="5.43882">
        <ele>184.7</ele>
      </trkpt>
      <trkpt lat="50.62343" lon="5.43836">
        <ele>184.3</ele>
      </trkpt>
      <trkpt lat="50.62332" lon="5.43791">
        <ele>182.9</ele>
      </trkpt>
      <trkpt lat="50.62306" lon="5.43713">
        <ele>184.7</ele>
      </trkpt>
      <trkpt lat="50.62258" lon="5.4359">
        <ele>188.3</ele>
      </trkpt>
      <trkpt lat="50.62237" lon="5.43532">
        <ele>190.5</ele>
      </trkpt>
      <trkpt lat="50.62226" lon="5.43508">
        <ele>190.8</ele>
      </trkpt>
      <trkpt lat="50.6223" lon="5.435">
        <ele>191</ele>
      </trkpt>
      <trkpt lat="50.62231" lon="5.43491">
        <ele>191.5</ele>
      </trkpt>
      <trkpt lat="50.62228" lon="5.43481">
        <ele>192</ele>
      </trkpt>
      <trkpt lat="50.62225" lon="5.43477">
        <ele>192</ele>
      </trkpt>
      <trkpt lat="50.62215" lon="5.43469">
        <ele>191.7</ele>
      </trkpt>
      <trkpt lat="50.62193" lon="5.43409">
        <ele>191.5</ele>
      </trkpt>
      <trkpt lat="50.62157" lon="5.43324">
        <ele>193.5</ele>
      </trkpt>
      <trkpt lat="50.61957" lon="5.43132">
        <ele>192.6</ele>
      </trkpt>
      <trkpt lat="50.61774" lon="5.42902">
        <ele>190.1</ele>
      </trkpt>
      <trkpt lat="50.61794" lon="5.42759">
        <ele>184.6</ele>
      </trkpt>
      <trkpt lat="50.61811" lon="5.42568">
        <ele>191.2</ele>
      </trkpt>
      <trkpt lat="50.61821" lon="5.42477">
        <ele>193.5</ele>
      </trkpt>
      <trkpt lat="50.61905" lon="5.42267">
        <ele>189.8</ele>
      </trkpt>
      <trkpt lat="50.6189" lon="5.41867">
        <ele>188</ele>
      </trkpt>
      <trkpt lat="50.61923" lon="5.417">
        <ele>187</ele>
      </trkpt>
      <trkpt lat="50.62017" lon="5.41554">
        <ele>186</ele>
      </trkpt>
      <trkpt lat="50.61917" lon="5.41236">
        <ele>183</ele>
      </trkpt>
      <trkpt lat="50.62077" lon="5.41126">
        <ele>181.1</ele>
      </trkpt>
      <trkpt lat="50.62227" lon="5.41087">
        <ele>178</ele>
      </trkpt>
      <trkpt lat="50.62306" lon="5.41187">
        <ele>177</ele>
      </trkpt>
      <trkpt lat="50.62766" lon="5.40589">
        <ele>158.5</ele>
      </trkpt>
      <trkpt lat="50.63522" lon="5.39621">
        <ele>165</ele>
      </trkpt>
      <trkpt lat="50.63321" lon="5.37223">
        <ele>178</ele>
        <extensions>
          <visugpx:TrkExtension xmlns:visugpx="https://www.visugpx.com/editgpx/">
            <visugpx:node>6</visugpx:node>
            </visugpx:TrkExtension>
        </extensions>
      </trkpt>
      <trkpt lat="50.63332" lon="5.37222">
        <ele>175</ele>
        <time>2021-09-05T07:17:57.000Z</time>
        <extensions>
          <visugpx:TrkExtension xmlns:visugpx="https://www.visugpx.com/editgpx/">
            <visugpx:node>7</visugpx:node>
            </visugpx:TrkExtension>
        </extensions>
      </trkpt>
      <trkpt lat="50.6333" lon="5.37194">
        <ele>175.19999694824</ele>
        <time>2021-09-05T07:18:00.000Z</time>
      </trkpt>
      <trkpt lat="50.63327" lon="5.37158">
        <ele>175.39999389648</ele>
        <time>2021-09-05T07:18:04.000Z</time>
      </trkpt>
      <trkpt lat="50.63324" lon="5.37122">
        <ele>175.39999389648</ele>
        <time>2021-09-05T07:18:08.000Z</time>
      </trkpt>
      <trkpt lat="50.63319" lon="5.37048">
        <ele>176.80000305176</ele>
        <time>2021-09-05T07:18:16.000Z</time>
      </trkpt>
      <trkpt lat="50.63312" lon="5.36961">
        <ele>177.80000305176</ele>
        <time>2021-09-05T07:18:25.000Z</time>
      </trkpt>
      <trkpt lat="50.63309" lon="5.36931">
        <ele>177.80000305176</ele>
        <time>2021-09-05T07:18:28.000Z</time>
      </trkpt>
      <trkpt lat="50.63307" lon="5.369">
        <ele>177.80000305176</ele>
        <time>2021-09-05T07:18:31.000Z</time>
      </trkpt>
      <trkpt lat="50.63299" lon="5.36807">
        <ele>177.39999389648</ele>
        <time>2021-09-05T07:18:40.000Z</time>
      </trkpt>
      <trkpt lat="50.63298" lon="5.36786">
        <ele>177.19999694824</ele>
        <time>2021-09-05T07:18:42.000Z</time>
      </trkpt>
      <trkpt lat="50.63297" lon="5.36695">
        <ele>177</ele>
        <time>2021-09-05T07:18:51.000Z</time>
      </trkpt>
      <trkpt lat="50.63297" lon="5.36608">
        <ele>177.19999694824</ele>
        <time>2021-09-05T07:19:00.000Z</time>
      </trkpt>
      <trkpt lat="50.63297" lon="5.36589">
        <ele>177.19999694824</ele>
        <time>2021-09-05T07:19:02.000Z</time>
      </trkpt>
      <trkpt lat="50.63297" lon="5.36552">
        <ele>177.39999389648</ele>
        <time>2021-09-05T07:19:06.000Z</time>
      </trkpt>
      <trkpt lat="50.63297" lon="5.36486">
        <ele>177.80000305176</ele>
        <time>2021-09-05T07:19:13.000Z</time>
      </trkpt>
      <trkpt lat="50.63297" lon="5.36393">
        <ele>178.80000305176</ele>
        <time>2021-09-05T07:19:23.000Z</time>
      </trkpt>
      <trkpt lat="50.63297" lon="5.36376">
        <ele>179</ele>
        <time>2021-09-05T07:19:25.000Z</time>
      </trkpt>
      <trkpt lat="50.63298" lon="5.36344">
        <ele>179</ele>
        <time>2021-09-05T07:19:30.000Z</time>
      </trkpt>
      <trkpt lat="50.63296" lon="5.36322">
        <ele>179</ele>
        <time>2021-09-05T07:19:35.000Z</time>
      </trkpt>
      <trkpt lat="50.63291" lon="5.3628">
        <ele>178.80000305176</ele>
        <time>2021-09-05T07:19:41.000Z</time>
      </trkpt>
      <trkpt lat="50.63281" lon="5.36199">
        <ele>178.80000305176</ele>
        <time>2021-09-05T07:19:50.000Z</time>
      </trkpt>
      <trkpt lat="50.6327" lon="5.36109">
        <ele>178.80000305176</ele>
        <time>2021-09-05T07:19:59.000Z</time>
      </trkpt>
      <trkpt lat="50.63269" lon="5.36099">
        <ele>178.80000305176</ele>
        <time>2021-09-05T07:20:00.000Z</time>
      </trkpt>
      <trkpt lat="50.63266" lon="5.36027">
        <ele>178.39999389648</ele>
        <time>2021-09-05T07:20:07.000Z</time>
      </trkpt>
      <trkpt lat="50.63269" lon="5.35995">
        <ele>178.19999694824</ele>
        <time>2021-09-05T07:20:10.000Z</time>
      </trkpt>
      <trkpt lat="50.63274" lon="5.35953">
        <ele>178</ele>
        <time>2021-09-05T07:20:14.000Z</time>
      </trkpt>
      <trkpt lat="50.63283" lon="5.35868">
        <ele>177.19999694824</ele>
        <time>2021-09-05T07:20:22.000Z</time>
      </trkpt>
      <trkpt lat="50.63284" lon="5.35857">
        <ele>177.19999694824</ele>
        <time>2021-09-05T07:20:23.000Z</time>
      </trkpt>
      <trkpt lat="50.63288" lon="5.35825">
        <ele>176.80000305176</ele>
        <time>2021-09-05T07:20:26.000Z</time>
      </trkpt>
      <trkpt lat="50.63293" lon="5.35771">
        <ele>176.19999694824</ele>
        <time>2021-09-05T07:20:31.000Z</time>
      </trkpt>
      <trkpt lat="50.63301" lon="5.35696">
        <ele>175.39999389648</ele>
        <time>2021-09-05T07:20:38.000Z</time>
      </trkpt>
      <trkpt lat="50.63303" lon="5.35674">
        <ele>175.19999694824</ele>
        <time>2021-09-05T07:20:40.000Z</time>
      </trkpt>
      <trkpt lat="50.63313" lon="5.35587">
        <ele>174.19999694824</ele>
        <time>2021-09-05T07:20:48.000Z</time>
      </trkpt>
      <trkpt lat="50.63318" lon="5.35542">
        <ele>173.60000610352</ele>
        <time>2021-09-05T07:20:52.000Z</time>
      </trkpt>
      <trkpt lat="50.63319" lon="5.35531">
        <ele>173.60000610352</ele>
        <time>2021-09-05T07:20:53.000Z</time>
      </trkpt>
      <trkpt lat="50.63326" lon="5.35453">
        <ele>172.80000305176</ele>
        <time>2021-09-05T07:21:00.000Z</time>
      </trkpt>
      <trkpt lat="50.63327" lon="5.35409">
        <ele>172.39999389648</ele>
        <time>2021-09-05T07:21:04.000Z</time>
      </trkpt>
      <trkpt lat="50.63329" lon="5.35321">
        <ele>171.39999389648</ele>
        <time>2021-09-05T07:21:12.000Z</time>
      </trkpt>
      <trkpt lat="50.6333" lon="5.35277">
        <ele>171</ele>
        <time>2021-09-05T07:21:16.000Z</time>
      </trkpt>
      <trkpt lat="50.63332" lon="5.35194">
        <ele>171.19999694824</ele>
        <time>2021-09-05T07:21:24.000Z</time>
      </trkpt>
      <trkpt lat="50.63334" lon="5.35154">
        <ele>171.39999389648</ele>
        <time>2021-09-05T07:21:28.000Z</time>
      </trkpt>
      <trkpt lat="50.63338" lon="5.35097">
        <ele>172</ele>
        <time>2021-09-05T07:21:34.000Z</time>
      </trkpt>
      <trkpt lat="50.63343" lon="5.35021">
        <ele>172.80000305176</ele>
        <time>2021-09-05T07:21:42.000Z</time>
      </trkpt>
      <trkpt lat="50.63345" lon="5.34993">
        <ele>173.19999694824</ele>
        <time>2021-09-05T07:21:45.000Z</time>
      </trkpt>
      <trkpt lat="50.63346" lon="5.34974">
        <ele>173.19999694824</ele>
        <time>2021-09-05T07:21:47.000Z</time>
      </trkpt>
      <trkpt lat="50.6335" lon="5.34928">
        <ele>174.19999694824</ele>
        <time>2021-09-05T07:21:52.000Z</time>
      </trkpt>
      <trkpt lat="50.63352" lon="5.34892">
        <ele>174.39999389648</ele>
        <time>2021-09-05T07:21:56.000Z</time>
      </trkpt>
      <trkpt lat="50.63356" lon="5.34855">
        <ele>175.39999389648</ele>
        <time>2021-09-05T07:22:00.000Z</time>
      </trkpt>
      <trkpt lat="50.63363" lon="5.34809">
        <ele>175.80000305176</ele>
        <time>2021-09-05T07:22:05.000Z</time>
      </trkpt>
      <trkpt lat="50.63373" lon="5.34751">
        <ele>176.19999694824</ele>
        <time>2021-09-05T07:22:11.000Z</time>
      </trkpt>
      <trkpt lat="50.63381" lon="5.34709">
        <ele>176.19999694824</ele>
        <time>2021-09-05T07:22:15.000Z</time>
      </trkpt>
      <trkpt lat="50.63385" lon="5.34689">
        <ele>176.19999694824</ele>
        <time>2021-09-05T07:22:17.000Z</time>
      </trkpt>
      <trkpt lat="50.634" lon="5.34605">
        <ele>175.19999694824</ele>
        <time>2021-09-05T07:22:25.000Z</time>
      </trkpt>
      <trkpt lat="50.63405" lon="5.34573">
        <ele>174.60000610352</ele>
        <time>2021-09-05T07:22:28.000Z</time>
      </trkpt>
      <trkpt lat="50.63421" lon="5.34488">
        <ele>173.80000305176</ele>
        <time>2021-09-05T07:22:36.000Z</time>
      </trkpt>
      <trkpt lat="50.6343" lon="5.34436">
        <ele>173</ele>
        <time>2021-09-05T07:22:41.000Z</time>
      </trkpt>
      <trkpt lat="50.63432" lon="5.34426">
        <ele>173</ele>
        <time>2021-09-05T07:22:42.000Z</time>
      </trkpt>
      <trkpt lat="50.63448" lon="5.34336">
        <ele>172.60000610352</ele>
        <time>2021-09-05T07:22:51.000Z</time>
      </trkpt>
      <trkpt lat="50.63451" lon="5.34316">
        <ele>172.80000305176</ele>
        <time>2021-09-05T07:22:53.000Z</time>
      </trkpt>
      <trkpt lat="50.63463" lon="5.3425">
        <ele>173</ele>
        <time>2021-09-05T07:23:00.000Z</time>
      </trkpt>
      <trkpt lat="50.63474" lon="5.34185">
        <ele>173.60000610352</ele>
        <time>2021-09-05T07:23:07.000Z</time>
      </trkpt>
      <trkpt lat="50.63482" lon="5.34107">
        <ele>174.39999389648</ele>
        <time>2021-09-05T07:23:15.000Z</time>
      </trkpt>
      <trkpt lat="50.63484" lon="5.34047">
        <ele>175</ele>
        <time>2021-09-05T07:23:21.000Z</time>
      </trkpt>
      <trkpt lat="50.63484" lon="5.34006">
        <ele>175</ele>
        <time>2021-09-05T07:23:25.000Z</time>
      </trkpt>
      <trkpt lat="50.63485" lon="5.33922">
        <ele>174.39999389648</ele>
        <time>2021-09-05T07:23:33.000Z</time>
      </trkpt>
      <trkpt lat="50.63485" lon="5.33868">
        <ele>173.80000305176</ele>
        <time>2021-09-05T07:23:38.000Z</time>
      </trkpt>
      <trkpt lat="50.63486" lon="5.33846">
        <ele>173.60000610352</ele>
        <time>2021-09-05T07:23:40.000Z</time>
      </trkpt>
      <trkpt lat="50.63487" lon="5.3376">
        <ele>172.60000610352</ele>
        <time>2021-09-05T07:23:48.000Z</time>
      </trkpt>
      <trkpt lat="50.63487" lon="5.33739">
        <ele>172.39999389648</ele>
        <time>2021-09-05T07:23:50.000Z</time>
      </trkpt>
      <trkpt lat="50.63489" lon="5.33674">
        <ele>171.80000305176</ele>
        <time>2021-09-05T07:23:56.000Z</time>
      </trkpt>
      <trkpt lat="50.63493" lon="5.33631">
        <ele>171.19999694824</ele>
        <time>2021-09-05T07:24:00.000Z</time>
      </trkpt>
      <trkpt lat="50.63499" lon="5.33578">
        <ele>170.80000305176</ele>
        <time>2021-09-05T07:24:05.000Z</time>
      </trkpt>
      <trkpt lat="50.63505" lon="5.33536">
        <ele>170.19999694824</ele>
        <time>2021-09-05T07:24:09.000Z</time>
      </trkpt>
      <trkpt lat="50.63523" lon="5.33446">
        <ele>169.39999389648</ele>
        <time>2021-09-05T07:24:18.000Z</time>
      </trkpt>
      <trkpt lat="50.63524" lon="5.33436">
        <ele>169.39999389648</ele>
        <time>2021-09-05T07:24:19.000Z</time>
      </trkpt>
      <trkpt lat="50.6353" lon="5.3336">
        <ele>168.80000305176</ele>
        <time>2021-09-05T07:24:26.000Z</time>
      </trkpt>
      <trkpt lat="50.63529" lon="5.33338">
        <ele>168.39999389648</ele>
        <time>2021-09-05T07:24:28.000Z</time>
      </trkpt>
      <trkpt lat="50.63524" lon="5.33284">
        <ele>167.60000610352</ele>
        <time>2021-09-05T07:24:33.000Z</time>
      </trkpt>
      <trkpt lat="50.6352" lon="5.3324">
        <ele>167.39999389648</ele>
        <time>2021-09-05T07:24:37.000Z</time>
      </trkpt>
      <trkpt lat="50.63515" lon="5.33187">
        <ele>166.60000610352</ele>
        <time>2021-09-05T07:24:42.000Z</time>
      </trkpt>
      <trkpt lat="50.63506" lon="5.33124">
        <ele>166</ele>
        <time>2021-09-05T07:24:48.000Z</time>
      </trkpt>
      <trkpt lat="50.63504" lon="5.33113">
        <ele>166</ele>
        <time>2021-09-05T07:24:49.000Z</time>
      </trkpt>
      <trkpt lat="50.63486" lon="5.33042">
        <ele>165.19999694824</ele>
        <time>2021-09-05T07:24:56.000Z</time>
      </trkpt>
      <trkpt lat="50.63484" lon="5.33032">
        <ele>165</ele>
        <time>2021-09-05T07:24:57.000Z</time>
      </trkpt>
      <trkpt lat="50.63469" lon="5.32971">
        <ele>164.19999694824</ele>
        <time>2021-09-05T07:25:03.000Z</time>
      </trkpt>
      <trkpt lat="50.63456" lon="5.32898">
        <ele>163.60000610352</ele>
        <time>2021-09-05T07:25:10.000Z</time>
      </trkpt>
      <trkpt lat="50.63453" lon="5.32878">
        <ele>163.39999389648</ele>
        <time>2021-09-05T07:25:12.000Z</time>
      </trkpt>
      <trkpt lat="50.63447" lon="5.32826">
        <ele>162.80000305176</ele>
        <time>2021-09-05T07:25:17.000Z</time>
      </trkpt>
      <trkpt lat="50.63444" lon="5.32805">
        <ele>162.60000610352</ele>
        <time>2021-09-05T07:25:19.000Z</time>
      </trkpt>
      <trkpt lat="50.63432" lon="5.3272">
        <ele>161.60000610352</ele>
        <time>2021-09-05T07:25:27.000Z</time>
      </trkpt>
      <trkpt lat="50.63431" lon="5.32709">
        <ele>161.19999694824</ele>
        <time>2021-09-05T07:25:28.000Z</time>
      </trkpt>
      <trkpt lat="50.6342" lon="5.32623">
        <ele>160.19999694824</ele>
        <time>2021-09-05T07:25:36.000Z</time>
      </trkpt>
      <trkpt lat="50.63417" lon="5.32602">
        <ele>160</ele>
        <time>2021-09-05T07:25:38.000Z</time>
      </trkpt>
      <trkpt lat="50.63416" lon="5.32592">
        <ele>159.80000305176</ele>
        <time>2021-09-05T07:25:39.000Z</time>
      </trkpt>
      <trkpt lat="50.6341" lon="5.32538">
        <ele>159.19999694824</ele>
        <time>2021-09-05T07:25:44.000Z</time>
      </trkpt>
      <trkpt lat="50.63407" lon="5.32515">
        <ele>158.80000305176</ele>
        <time>2021-09-05T07:25:46.000Z</time>
      </trkpt>
      <trkpt lat="50.63407" lon="5.32504">
        <ele>158.80000305176</ele>
        <time>2021-09-05T07:25:47.000Z</time>
      </trkpt>
      <trkpt lat="50.63411" lon="5.32484">
        <ele>158.60000610352</ele>
        <time>2021-09-05T07:25:49.000Z</time>
      </trkpt>
      <trkpt lat="50.63417" lon="5.32478">
        <ele>158.60000610352</ele>
        <time>2021-09-05T07:25:50.000Z</time>
      </trkpt>
      <trkpt lat="50.63424" lon="5.32474">
        <ele>158.19999694824</ele>
        <time>2021-09-05T07:25:51.000Z</time>
      </trkpt>
      <trkpt lat="50.63432" lon="5.32471">
        <ele>158</ele>
        <time>2021-09-05T07:25:52.000Z</time>
      </trkpt>
      <trkpt lat="50.63439" lon="5.32467">
        <ele>157.39999389648</ele>
        <time>2021-09-05T07:25:53.000Z</time>
      </trkpt>
      <trkpt lat="50.63452" lon="5.32453">
        <ele>156.39999389648</ele>
        <time>2021-09-05T07:25:55.000Z</time>
      </trkpt>
      <trkpt lat="50.63461" lon="5.32433">
        <ele>155.80000305176</ele>
        <time>2021-09-05T07:25:57.000Z</time>
      </trkpt>
      <trkpt lat="50.6347" lon="5.32409">
        <ele>155.19999694824</ele>
        <time>2021-09-05T07:25:59.000Z</time>
      </trkpt>
      <trkpt lat="50.63474" lon="5.32397">
        <ele>155</ele>
        <time>2021-09-05T07:26:00.000Z</time>
      </trkpt>
      <trkpt lat="50.63487" lon="5.32359">
        <ele>153.60000610352</ele>
        <time>2021-09-05T07:26:03.000Z</time>
      </trkpt>
      <trkpt lat="50.635" lon="5.32319">
        <ele>152.60000610352</ele>
        <time>2021-09-05T07:26:06.000Z</time>
      </trkpt>
      <trkpt lat="50.63505" lon="5.32305">
        <ele>152</ele>
        <time>2021-09-05T07:26:07.000Z</time>
      </trkpt>
      <trkpt lat="50.63514" lon="5.32277">
        <ele>150.80000305176</ele>
        <time>2021-09-05T07:26:09.000Z</time>
      </trkpt>
      <trkpt lat="50.63523" lon="5.32249">
        <ele>150</ele>
        <time>2021-09-05T07:26:11.000Z</time>
      </trkpt>
      <trkpt lat="50.63528" lon="5.32235">
        <ele>149.39999389648</ele>
        <time>2021-09-05T07:26:12.000Z</time>
      </trkpt>
      <trkpt lat="50.63534" lon="5.32224">
        <ele>148.80000305176</ele>
        <time>2021-09-05T07:26:13.000Z</time>
      </trkpt>
      <trkpt lat="50.63542" lon="5.32216">
        <ele>148.19999694824</ele>
        <time>2021-09-05T07:26:14.000Z</time>
      </trkpt>
      <trkpt lat="50.6355" lon="5.32213">
        <ele>148</ele>
        <time>2021-09-05T07:26:15.000Z</time>
      </trkpt>
      <trkpt lat="50.63591" lon="5.32208">
        <ele>145</ele>
        <time>2021-09-05T07:26:20.000Z</time>
      </trkpt>
      <trkpt lat="50.63634" lon="5.32201">
        <ele>144.39999389648</ele>
        <time>2021-09-05T07:26:26.000Z</time>
      </trkpt>
      <trkpt lat="50.63667" lon="5.32182">
        <ele>143.80000305176</ele>
        <time>2021-09-05T07:26:32.000Z</time>
      </trkpt>
      <trkpt lat="50.63701" lon="5.32147">
        <ele>143.80000305176</ele>
        <time>2021-09-05T07:26:39.000Z</time>
      </trkpt>
      <trkpt lat="50.63745" lon="5.32095">
        <ele>143.60000610352</ele>
        <time>2021-09-05T07:26:48.000Z</time>
      </trkpt>
      <trkpt lat="50.6375" lon="5.32089">
        <ele>143.80000305176</ele>
        <time>2021-09-05T07:26:49.000Z</time>
      </trkpt>
      <trkpt lat="50.63794" lon="5.32039">
        <ele>143.60000610352</ele>
        <time>2021-09-05T07:26:58.000Z</time>
      </trkpt>
      <trkpt lat="50.63826" lon="5.32017">
        <ele>143.80000305176</ele>
        <time>2021-09-05T07:27:04.000Z</time>
      </trkpt>
      <trkpt lat="50.63832" lon="5.32014">
        <ele>143.80000305176</ele>
        <time>2021-09-05T07:27:05.000Z</time>
      </trkpt>
      <trkpt lat="50.63842" lon="5.32004">
        <ele>143.80000305176</ele>
        <time>2021-09-05T07:27:07.000Z</time>
      </trkpt>
      <trkpt lat="50.63847" lon="5.31998">
        <ele>144</ele>
        <time>2021-09-05T07:27:08.000Z</time>
      </trkpt>
      <trkpt lat="50.63886" lon="5.31933">
        <ele>143.80000305176</ele>
        <time>2021-09-05T07:27:17.000Z</time>
      </trkpt>
      <trkpt lat="50.63923" lon="5.31868">
        <ele>144</ele>
        <time>2021-09-05T07:27:26.000Z</time>
      </trkpt>
      <trkpt lat="50.63943" lon="5.31832">
        <ele>144.39999389648</ele>
        <time>2021-09-05T07:27:31.000Z</time>
      </trkpt>
      <trkpt lat="50.63967" lon="5.31788">
        <ele>144.80000305176</ele>
        <time>2021-09-05T07:27:37.000Z</time>
      </trkpt>
      <trkpt lat="50.63994" lon="5.31735">
        <ele>145</ele>
        <time>2021-09-05T07:27:44.000Z</time>
      </trkpt>
      <trkpt lat="50.63999" lon="5.31717">
        <ele>145</ele>
        <time>2021-09-05T07:27:46.000Z</time>
      </trkpt>
      <trkpt lat="50.64002" lon="5.31698">
        <ele>145.19999694824</ele>
        <time>2021-09-05T07:27:48.000Z</time>
      </trkpt>
      <trkpt lat="50.64004" lon="5.31668">
        <ele>145.19999694824</ele>
        <time>2021-09-05T07:27:51.000Z</time>
      </trkpt>
      <trkpt lat="50.64004" lon="5.3162">
        <ele>145.39999389648</ele>
        <time>2021-09-05T07:27:56.000Z</time>
      </trkpt>
      <trkpt lat="50.64005" lon="5.31553">
        <ele>146</ele>
        <time>2021-09-05T07:28:03.000Z</time>
      </trkpt>
      <trkpt lat="50.64005" lon="5.31544">
        <ele>146</ele>
        <time>2021-09-05T07:28:04.000Z</time>
      </trkpt>
      <trkpt lat="50.64009" lon="5.31487">
        <ele>146.60000610352</ele>
        <time>2021-09-05T07:28:10.000Z</time>
      </trkpt>
      <trkpt lat="50.64011" lon="5.31478">
        <ele>146.80000305176</ele>
        <time>2021-09-05T07:28:11.000Z</time>
      </trkpt>
      <trkpt lat="50.64018" lon="5.31443">
        <ele>147</ele>
        <time>2021-09-05T07:28:15.000Z</time>
      </trkpt>
      <trkpt lat="50.6402" lon="5.31434">
        <ele>147.19999694824</ele>
        <time>2021-09-05T07:28:16.000Z</time>
      </trkpt>
      <trkpt lat="50.64034" lon="5.31374">
        <ele>148.19999694824</ele>
        <time>2021-09-05T07:28:23.000Z</time>
      </trkpt>
      <trkpt lat="50.64041" lon="5.3134">
        <ele>148.80000305176</ele>
        <time>2021-09-05T07:28:27.000Z</time>
      </trkpt>
      <trkpt lat="50.64053" lon="5.3129">
        <ele>149.60000610352</ele>
        <time>2021-09-05T07:28:33.000Z</time>
      </trkpt>
      <trkpt lat="50.64063" lon="5.31248">
        <ele>150.39999389648</ele>
        <time>2021-09-05T07:28:38.000Z</time>
      </trkpt>
      <trkpt lat="50.6407" lon="5.31215">
        <ele>151</ele>
        <time>2021-09-05T07:28:42.000Z</time>
      </trkpt>
      <trkpt lat="50.64073" lon="5.31207">
        <ele>151</ele>
        <time>2021-09-05T07:28:43.000Z</time>
      </trkpt>
      <trkpt lat="50.64085" lon="5.31159">
        <ele>152</ele>
        <time>2021-09-05T07:28:49.000Z</time>
      </trkpt>
      <trkpt lat="50.64096" lon="5.31109">
        <ele>153.19999694824</ele>
        <time>2021-09-05T07:28:55.000Z</time>
      </trkpt>
      <trkpt lat="50.64098" lon="5.31101">
        <ele>153.39999389648</ele>
        <time>2021-09-05T07:28:56.000Z</time>
      </trkpt>
      <trkpt lat="50.64112" lon="5.31044">
        <ele>154.19999694824</ele>
        <time>2021-09-05T07:29:03.000Z</time>
      </trkpt>
      <trkpt lat="50.64115" lon="5.31028">
        <ele>154.60000610352</ele>
        <time>2021-09-05T07:29:05.000Z</time>
      </trkpt>
      <trkpt lat="50.64127" lon="5.3097">
        <ele>155.80000305176</ele>
        <time>2021-09-05T07:29:12.000Z</time>
      </trkpt>
      <trkpt lat="50.64129" lon="5.30962">
        <ele>156</ele>
        <time>2021-09-05T07:29:13.000Z</time>
      </trkpt>
      <trkpt lat="50.64138" lon="5.3092">
        <ele>156.60000610352</ele>
        <time>2021-09-05T07:29:18.000Z</time>
      </trkpt>
      <trkpt lat="50.64147" lon="5.30877">
        <ele>157.60000610352</ele>
        <time>2021-09-05T07:29:23.000Z</time>
      </trkpt>
      <trkpt lat="50.64155" lon="5.30801">
        <ele>158.39999389648</ele>
        <time>2021-09-05T07:29:31.000Z</time>
      </trkpt>
      <trkpt lat="50.64162" lon="5.30731">
        <ele>158.39999389648</ele>
        <time>2021-09-05T07:29:38.000Z</time>
      </trkpt>
      <trkpt lat="50.64163" lon="5.3071">
        <ele>158.19999694824</ele>
        <time>2021-09-05T07:29:40.000Z</time>
      </trkpt>
      <trkpt lat="50.64166" lon="5.30669">
        <ele>157.60000610352</ele>
        <time>2021-09-05T07:29:44.000Z</time>
      </trkpt>
      <trkpt lat="50.64172" lon="5.30585">
        <ele>157</ele>
        <time>2021-09-05T07:29:52.000Z</time>
      </trkpt>
      <trkpt lat="50.64176" lon="5.30542">
        <ele>156.39999389648</ele>
        <time>2021-09-05T07:29:56.000Z</time>
      </trkpt>
      <trkpt lat="50.6418" lon="5.30476">
        <ele>156</ele>
        <time>2021-09-05T07:30:02.000Z</time>
      </trkpt>
      <trkpt lat="50.64184" lon="5.30422">
        <ele>155.19999694824</ele>
        <time>2021-09-05T07:30:07.000Z</time>
      </trkpt>
      <trkpt lat="50.64193" lon="5.30334">
        <ele>154.39999389648</ele>
        <time>2021-09-05T07:30:15.000Z</time>
      </trkpt>
      <trkpt lat="50.64206" lon="5.30248">
        <ele>153.80000305176</ele>
        <time>2021-09-05T07:30:23.000Z</time>
      </trkpt>
      <trkpt lat="50.64209" lon="5.30228">
        <ele>153.80000305176</ele>
        <time>2021-09-05T07:30:25.000Z</time>
      </trkpt>
      <trkpt lat="50.64219" lon="5.30171">
        <ele>153.80000305176</ele>
        <time>2021-09-05T07:30:31.000Z</time>
      </trkpt>
      <trkpt lat="50.64226" lon="5.30123">
        <ele>154.19999694824</ele>
        <time>2021-09-05T07:30:36.000Z</time>
      </trkpt>
      <trkpt lat="50.6423" lon="5.30105">
        <ele>154.60000610352</ele>
        <time>2021-09-05T07:30:38.000Z</time>
      </trkpt>
      <trkpt lat="50.64243" lon="5.30023">
        <ele>155.80000305176</ele>
        <time>2021-09-05T07:30:47.000Z</time>
      </trkpt>
      <trkpt lat="50.64245" lon="5.30014">
        <ele>156</ele>
        <time>2021-09-05T07:30:48.000Z</time>
      </trkpt>
      <trkpt lat="50.64255" lon="5.29961">
        <ele>156.60000610352</ele>
        <time>2021-09-05T07:30:54.000Z</time>
      </trkpt>
      <trkpt lat="50.64267" lon="5.29916">
        <ele>159.19999694824</ele>
        <time>2021-09-05T07:30:59.000Z</time>
      </trkpt>
      <trkpt lat="50.64275" lon="5.2989">
        <ele>157.80000305176</ele>
        <time>2021-09-05T07:31:02.000Z</time>
      </trkpt>
      <trkpt lat="50.64296" lon="5.29838">
        <ele>158</ele>
        <time>2021-09-05T07:31:08.000Z</time>
      </trkpt>
      <trkpt lat="50.64307" lon="5.29812">
        <ele>158</ele>
        <time>2021-09-05T07:31:11.000Z</time>
      </trkpt>
      <trkpt lat="50.64333" lon="5.2975">
        <ele>157.60000610352</ele>
        <time>2021-09-05T07:31:18.000Z</time>
      </trkpt>
      <trkpt lat="50.64348" lon="5.29713">
        <ele>157.39999389648</ele>
        <time>2021-09-05T07:31:22.000Z</time>
      </trkpt>
      <trkpt lat="50.64381" lon="5.29634">
        <ele>156.80000305176</ele>
        <time>2021-09-05T07:31:31.000Z</time>
      </trkpt>
      <trkpt lat="50.64387" lon="5.29617">
        <ele>156.80000305176</ele>
        <time>2021-09-05T07:31:33.000Z</time>
      </trkpt>
      <trkpt lat="50.6441" lon="5.29561">
        <ele>157.19999694824</ele>
        <time>2021-09-05T07:31:40.000Z</time>
      </trkpt>
      <trkpt lat="50.64423" lon="5.2953">
        <ele>157.80000305176</ele>
        <time>2021-09-05T07:31:44.000Z</time>
      </trkpt>
      <trkpt lat="50.64433" lon="5.29507">
        <ele>158</ele>
        <time>2021-09-05T07:31:47.000Z</time>
      </trkpt>
      <trkpt lat="50.64452" lon="5.29459">
        <ele>158.80000305176</ele>
        <time>2021-09-05T07:31:53.000Z</time>
      </trkpt>
      <trkpt lat="50.64482" lon="5.29383">
        <ele>160</ele>
        <time>2021-09-05T07:32:02.000Z</time>
      </trkpt>
      <trkpt lat="50.64488" lon="5.29365">
        <ele>160.19999694824</ele>
        <time>2021-09-05T07:32:04.000Z</time>
      </trkpt>
      <trkpt lat="50.64501" lon="5.29327">
        <ele>160.19999694824</ele>
        <time>2021-09-05T07:32:08.000Z</time>
      </trkpt>
      <trkpt lat="50.64515" lon="5.29277">
        <ele>160</ele>
        <time>2021-09-05T07:32:13.000Z</time>
      </trkpt>
      <trkpt lat="50.64543" lon="5.29194">
        <ele>159</ele>
        <time>2021-09-05T07:32:22.000Z</time>
      </trkpt>
      <trkpt lat="50.64571" lon="5.29112">
        <ele>159</ele>
        <time>2021-09-05T07:32:31.000Z</time>
      </trkpt>
      <trkpt lat="50.64581" lon="5.29073">
        <ele>159.19999694824</ele>
        <time>2021-09-05T07:32:35.000Z</time>
      </trkpt>
      <trkpt lat="50.64584" lon="5.29053">
        <ele>159.19999694824</ele>
        <time>2021-09-05T07:32:37.000Z</time>
      </trkpt>
      <trkpt lat="50.64587" lon="5.28977">
        <ele>159.19999694824</ele>
        <time>2021-09-05T07:32:44.000Z</time>
      </trkpt>
      <trkpt lat="50.64588" lon="5.28955">
        <ele>159</ele>
        <time>2021-09-05T07:32:46.000Z</time>
      </trkpt>
      <trkpt lat="50.6459" lon="5.28922">
        <ele>158.80000305176</ele>
        <time>2021-09-05T07:32:49.000Z</time>
      </trkpt>
      <trkpt lat="50.64594" lon="5.28843">
        <ele>157.60000610352</ele>
        <time>2021-09-05T07:32:56.000Z</time>
      </trkpt>
      <trkpt lat="50.64595" lon="5.2882">
        <ele>157.19999694824</ele>
        <time>2021-09-05T07:32:58.000Z</time>
      </trkpt>
      <trkpt lat="50.64598" lon="5.28761">
        <ele>156.60000610352</ele>
        <time>2021-09-05T07:33:03.000Z</time>
      </trkpt>
      <trkpt lat="50.64601" lon="5.28702">
        <ele>155.60000610352</ele>
        <time>2021-09-05T07:33:08.000Z</time>
      </trkpt>
      <trkpt lat="50.64604" lon="5.28629">
        <ele>154.39999389648</ele>
        <time>2021-09-05T07:33:14.000Z</time>
      </trkpt>
      <trkpt lat="50.64607" lon="5.28579">
        <ele>153.80000305176</ele>
        <time>2021-09-05T07:33:18.000Z</time>
      </trkpt>
      <trkpt lat="50.64606" lon="5.28491">
        <ele>152.39999389648</ele>
        <time>2021-09-05T07:33:25.000Z</time>
      </trkpt>
      <trkpt lat="50.64605" lon="5.28479">
        <ele>152.19999694824</ele>
        <time>2021-09-05T07:33:26.000Z</time>
      </trkpt>
      <trkpt lat="50.64592" lon="5.28397">
        <ele>150.60000610352</ele>
        <time>2021-09-05T07:33:33.000Z</time>
      </trkpt>
      <trkpt lat="50.64573" lon="5.28327">
        <ele>150</ele>
        <time>2021-09-05T07:33:40.000Z</time>
      </trkpt>
      <trkpt lat="50.64564" lon="5.2829">
        <ele>150</ele>
        <time>2021-09-05T07:33:44.000Z</time>
      </trkpt>
      <trkpt lat="50.64549" lon="5.28237">
        <ele>150.60000610352</ele>
        <time>2021-09-05T07:33:50.000Z</time>
      </trkpt>
      <trkpt lat="50.64547" lon="5.28228">
        <ele>150.39999389648</ele>
        <time>2021-09-05T07:33:51.000Z</time>
      </trkpt>
      <trkpt lat="50.64527" lon="5.28156">
        <ele>152.19999694824</ele>
        <time>2021-09-05T07:33:59.000Z</time>
      </trkpt>
      <trkpt lat="50.64525" lon="5.28147">
        <ele>152.19999694824</ele>
        <time>2021-09-05T07:34:00.000Z</time>
      </trkpt>
      <trkpt lat="50.64503" lon="5.28066">
        <ele>153.19999694824</ele>
        <time>2021-09-05T07:34:09.000Z</time>
      </trkpt>
      <trkpt lat="50.64493" lon="5.2803">
        <ele>153.60000610352</ele>
        <time>2021-09-05T07:34:13.000Z</time>
      </trkpt>
      <trkpt lat="50.64488" lon="5.28012">
        <ele>153.80000305176</ele>
        <time>2021-09-05T07:34:15.000Z</time>
      </trkpt>
      <trkpt lat="50.64467" lon="5.27932">
        <ele>154.39999389648</ele>
        <time>2021-09-05T07:34:24.000Z</time>
      </trkpt>
      <trkpt lat="50.64462" lon="5.27914">
        <ele>154.60000610352</ele>
        <time>2021-09-05T07:34:26.000Z</time>
      </trkpt>
      <trkpt lat="50.64457" lon="5.27897">
        <ele>154.60000610352</ele>
        <time>2021-09-05T07:34:28.000Z</time>
      </trkpt>
      <trkpt lat="50.64435" lon="5.27816">
        <ele>155.39999389648</ele>
        <time>2021-09-05T07:34:37.000Z</time>
      </trkpt>
      <trkpt lat="50.64428" lon="5.27799">
        <ele>155.60000610352</ele>
        <time>2021-09-05T07:34:39.000Z</time>
      </trkpt>
      <trkpt lat="50.64397" lon="5.27725">
        <ele>156.19999694824</ele>
        <time>2021-09-05T07:34:48.000Z</time>
      </trkpt>
      <trkpt lat="50.6439" lon="5.27709">
        <ele>156.19999694824</ele>
        <time>2021-09-05T07:34:50.000Z</time>
      </trkpt>
      <trkpt lat="50.64387" lon="5.27701">
        <ele>156.19999694824</ele>
        <time>2021-09-05T07:34:51.000Z</time>
      </trkpt>
      <trkpt lat="50.64355" lon="5.27625">
        <ele>156.39999389648</ele>
        <time>2021-09-05T07:35:00.000Z</time>
      </trkpt>
      <trkpt lat="50.64351" lon="5.27617">
        <ele>156.39999389648</ele>
        <time>2021-09-05T07:35:01.000Z</time>
      </trkpt>
      <trkpt lat="50.64322" lon="5.27549">
        <ele>156.39999389648</ele>
        <time>2021-09-05T07:35:09.000Z</time>
      </trkpt>
      <trkpt lat="50.64311" lon="5.27524">
        <ele>156.19999694824</ele>
        <time>2021-09-05T07:35:12.000Z</time>
      </trkpt>
      <trkpt lat="50.64279" lon="5.27447">
        <ele>156</ele>
        <time>2021-09-05T07:35:21.000Z</time>
      </trkpt>
      <trkpt lat="50.64272" lon="5.2743">
        <ele>155.80000305176</ele>
        <time>2021-09-05T07:35:23.000Z</time>
      </trkpt>
      <trkpt lat="50.64248" lon="5.27374">
        <ele>156</ele>
        <time>2021-09-05T07:35:30.000Z</time>
      </trkpt>
      <trkpt lat="50.64245" lon="5.27366">
        <ele>156</ele>
        <time>2021-09-05T07:35:31.000Z</time>
      </trkpt>
      <trkpt lat="50.64222" lon="5.27311">
        <ele>156.60000610352</ele>
        <time>2021-09-05T07:35:38.000Z</time>
      </trkpt>
      <trkpt lat="50.64211" lon="5.27278">
        <ele>157</ele>
        <time>2021-09-05T07:35:42.000Z</time>
      </trkpt>
      <trkpt lat="50.64195" lon="5.27204">
        <ele>158.19999694824</ele>
        <time>2021-09-05T07:35:50.000Z</time>
      </trkpt>
      <trkpt lat="50.64183" lon="5.27124">
        <ele>158.60000610352</ele>
        <time>2021-09-05T07:35:58.000Z</time>
      </trkpt>
      <trkpt lat="50.64163" lon="5.27035">
        <ele>157.80000305176</ele>
        <time>2021-09-05T07:36:07.000Z</time>
      </trkpt>
      <trkpt lat="50.64161" lon="5.27026">
        <ele>158</ele>
        <time>2021-09-05T07:36:08.000Z</time>
      </trkpt>
      <trkpt lat="50.64142" lon="5.26941">
        <ele>156.80000305176</ele>
        <time>2021-09-05T07:36:17.000Z</time>
      </trkpt>
      <trkpt lat="50.64141" lon="5.26932">
        <ele>156.80000305176</ele>
        <time>2021-09-05T07:36:18.000Z</time>
      </trkpt>
      <trkpt lat="50.64143" lon="5.26914">
        <ele>156.39999389648</ele>
        <time>2021-09-05T07:36:20.000Z</time>
      </trkpt>
      <trkpt lat="50.64145" lon="5.26906">
        <ele>156.39999389648</ele>
        <time>2021-09-05T07:36:21.000Z</time>
      </trkpt>
      <trkpt lat="50.64146" lon="5.26898">
        <ele>156.19999694824</ele>
        <time>2021-09-05T07:36:22.000Z</time>
      </trkpt>
      <trkpt lat="50.64143" lon="5.26881">
        <ele>156.19999694824</ele>
        <time>2021-09-05T07:36:24.000Z</time>
      </trkpt>
      <trkpt lat="50.6414" lon="5.26874">
        <ele>156.19999694824</ele>
        <time>2021-09-05T07:36:25.000Z</time>
      </trkpt>
      <trkpt lat="50.64136" lon="5.26867">
        <ele>156</ele>
        <time>2021-09-05T07:36:26.000Z</time>
      </trkpt>
      <trkpt lat="50.64129" lon="5.2685">
        <ele>156.19999694824</ele>
        <time>2021-09-05T07:36:28.000Z</time>
      </trkpt>
      <trkpt lat="50.64118" lon="5.26809">
        <ele>156</ele>
        <time>2021-09-05T07:36:32.000Z</time>
      </trkpt>
      <trkpt lat="50.64106" lon="5.26753">
        <ele>155.39999389648</ele>
        <time>2021-09-05T07:36:37.000Z</time>
      </trkpt>
      <trkpt lat="50.64103" lon="5.26729">
        <ele>155</ele>
        <time>2021-09-05T07:36:39.000Z</time>
      </trkpt>
      <trkpt lat="50.64103" lon="5.26717">
        <ele>154.60000610352</ele>
        <time>2021-09-05T07:36:40.000Z</time>
      </trkpt>
      <trkpt lat="50.641" lon="5.26645">
        <ele>153.19999694824</ele>
        <time>2021-09-05T07:36:45.000Z</time>
      </trkpt>
      <trkpt lat="50.64097" lon="5.26634">
        <ele>153</ele>
        <time>2021-09-05T07:36:47.000Z</time>
      </trkpt>
      <trkpt lat="50.6409" lon="5.26615">
        <ele>152.39999389648</ele>
        <time>2021-09-05T07:36:49.000Z</time>
      </trkpt>
      <trkpt lat="50.64061" lon="5.2657">
        <ele>151.80000305176</ele>
        <time>2021-09-05T07:36:55.000Z</time>
      </trkpt>
      <trkpt lat="50.64052" lon="5.26554">
        <ele>151.60000610352</ele>
        <time>2021-09-05T07:36:57.000Z</time>
      </trkpt>
      <trkpt lat="50.64045" lon="5.26536">
        <ele>151.60000610352</ele>
        <time>2021-09-05T07:36:59.000Z</time>
      </trkpt>
      <trkpt lat="50.64042" lon="5.26515">
        <ele>151.60000610352</ele>
        <time>2021-09-05T07:37:01.000Z</time>
      </trkpt>
      <trkpt lat="50.64042" lon="5.26504">
        <ele>151.60000610352</ele>
        <time>2021-09-05T07:37:02.000Z</time>
      </trkpt>
      <trkpt lat="50.64042" lon="5.26493">
        <ele>151.39999389648</ele>
        <time>2021-09-05T07:37:03.000Z</time>
      </trkpt>
      <trkpt lat="50.64043" lon="5.26482">
        <ele>151.60000610352</ele>
        <time>2021-09-05T07:37:04.000Z</time>
      </trkpt>
      <trkpt lat="50.64048" lon="5.26449">
        <ele>151.39999389648</ele>
        <time>2021-09-05T07:37:07.000Z</time>
      </trkpt>
      <trkpt lat="50.64062" lon="5.26366">
        <ele>151</ele>
        <time>2021-09-05T07:37:15.000Z</time>
      </trkpt>
      <trkpt lat="50.64066" lon="5.26336">
        <ele>150.80000305176</ele>
        <time>2021-09-05T07:37:18.000Z</time>
      </trkpt>
      <trkpt lat="50.64066" lon="5.26326">
        <ele>150.80000305176</ele>
        <time>2021-09-05T07:37:19.000Z</time>
      </trkpt>
      <trkpt lat="50.64066" lon="5.26316">
        <ele>150.80000305176</ele>
        <time>2021-09-05T07:37:20.000Z</time>
      </trkpt>
      <trkpt lat="50.64065" lon="5.26306">
        <ele>150.80000305176</ele>
        <time>2021-09-05T07:37:21.000Z</time>
      </trkpt>
      <trkpt lat="50.64063" lon="5.26296">
        <ele>151</ele>
        <time>2021-09-05T07:37:22.000Z</time>
      </trkpt>
      <trkpt lat="50.64056" lon="5.26258">
        <ele>151</ele>
        <time>2021-09-05T07:37:26.000Z</time>
      </trkpt>
      <trkpt lat="50.64047" lon="5.26213">
        <ele>151.60000610352</ele>
        <time>2021-09-05T07:37:31.000Z</time>
      </trkpt>
      <trkpt lat="50.64046" lon="5.26205">
        <ele>151.80000305176</ele>
        <time>2021-09-05T07:37:32.000Z</time>
      </trkpt>
      <trkpt lat="50.64035" lon="5.26135">
        <ele>153</ele>
        <time>2021-09-05T07:37:40.000Z</time>
      </trkpt>
      <trkpt lat="50.64033" lon="5.26117">
        <ele>153.60000610352</ele>
        <time>2021-09-05T07:37:42.000Z</time>
      </trkpt>
      <trkpt lat="50.64031" lon="5.26081">
        <ele>154</ele>
        <time>2021-09-05T07:37:46.000Z</time>
      </trkpt>
      <trkpt lat="50.64028" lon="5.26039">
        <ele>155</ele>
        <time>2021-09-05T07:37:51.000Z</time>
      </trkpt>
      <trkpt lat="50.64028" lon="5.2603">
        <ele>155.19999694824</ele>
        <time>2021-09-05T07:37:52.000Z</time>
      </trkpt>
      <trkpt lat="50.64025" lon="5.25989">
        <ele>156.19999694824</ele>
        <time>2021-09-05T07:37:57.000Z</time>
      </trkpt>
      <trkpt lat="50.64022" lon="5.25946">
        <ele>157.39999389648</ele>
        <time>2021-09-05T07:38:02.000Z</time>
      </trkpt>
      <trkpt lat="50.64018" lon="5.25921">
        <ele>157.60000610352</ele>
        <time>2021-09-05T07:38:05.000Z</time>
      </trkpt>
      <trkpt lat="50.64001" lon="5.25858">
        <ele>159.19999694824</ele>
        <time>2021-09-05T07:38:12.000Z</time>
      </trkpt>
      <trkpt lat="50.63971" lon="5.25764">
        <ele>159.60000610352</ele>
        <time>2021-09-05T07:38:21.000Z</time>
      </trkpt>
      <trkpt lat="50.63946" lon="5.25686">
        <ele>159</ele>
        <time>2021-09-05T07:38:29.000Z</time>
      </trkpt>
      <trkpt lat="50.63934" lon="5.25647">
        <ele>158.60000610352</ele>
        <time>2021-09-05T07:38:34.000Z</time>
      </trkpt>
      <trkpt lat="50.63909" lon="5.25569">
        <ele>157.80000305176</ele>
        <time>2021-09-05T07:38:41.000Z</time>
      </trkpt>
      <trkpt lat="50.63894" lon="5.2552">
        <ele>157.19999694824</ele>
        <time>2021-09-05T07:38:47.000Z</time>
      </trkpt>
      <trkpt lat="50.63891" lon="5.2551">
        <ele>157</ele>
        <time>2021-09-05T07:38:48.000Z</time>
      </trkpt>
      <trkpt lat="50.63878" lon="5.25471">
        <ele>156.60000610352</ele>
        <time>2021-09-05T07:38:51.000Z</time>
      </trkpt>
      <trkpt lat="50.63857" lon="5.25403">
        <ele>156</ele>
        <time>2021-09-05T07:38:59.000Z</time>
      </trkpt>
      <trkpt lat="50.63832" lon="5.25325">
        <ele>155.39999389648</ele>
        <time>2021-09-05T07:39:07.000Z</time>
      </trkpt>
      <trkpt lat="50.63826" lon="5.25305">
        <ele>155.19999694824</ele>
        <time>2021-09-05T07:39:08.000Z</time>
      </trkpt>
      <trkpt lat="50.63817" lon="5.25275">
        <ele>154.60000610352</ele>
        <time>2021-09-05T07:39:11.000Z</time>
      </trkpt>
      <trkpt lat="50.63801" lon="5.25226">
        <ele>154</ele>
        <time>2021-09-05T07:39:17.000Z</time>
      </trkpt>
      <trkpt lat="50.63784" lon="5.2517">
        <ele>153.60000610352</ele>
        <time>2021-09-05T07:39:21.000Z</time>
      </trkpt>
      <trkpt lat="50.63764" lon="5.25107">
        <ele>152.60000610352</ele>
        <time>2021-09-05T07:39:28.000Z</time>
      </trkpt>
      <trkpt lat="50.63744" lon="5.25046">
        <ele>151.60000610352</ele>
        <time>2021-09-05T07:39:34.000Z</time>
      </trkpt>
      <trkpt lat="50.63738" lon="5.25026">
        <ele>151.39999389648</ele>
        <time>2021-09-05T07:39:36.000Z</time>
      </trkpt>
      <trkpt lat="50.63712" lon="5.24943">
        <ele>150.39999389648</ele>
        <time>2021-09-05T07:39:44.000Z</time>
      </trkpt>
      <trkpt lat="50.63683" lon="5.24866">
        <ele>150</ele>
        <time>2021-09-05T07:39:53.000Z</time>
      </trkpt>
      <trkpt lat="50.6368" lon="5.24857">
        <ele>150</ele>
        <time>2021-09-05T07:39:54.000Z</time>
      </trkpt>
      <trkpt lat="50.63663" lon="5.24816">
        <ele>150.39999389648</ele>
        <time>2021-09-05T07:40:00.000Z</time>
      </trkpt>
      <trkpt lat="50.63633" lon="5.24741">
        <ele>150.80000305176</ele>
        <time>2021-09-05T07:40:08.000Z</time>
      </trkpt>
      <trkpt lat="50.63623" lon="5.24716">
        <ele>151.19999694824</ele>
        <time>2021-09-05T07:40:12.000Z</time>
      </trkpt>
      <trkpt lat="50.63592" lon="5.2464">
        <ele>151.80000305176</ele>
        <time>2021-09-05T07:40:20.000Z</time>
      </trkpt>
      <trkpt lat="50.63589" lon="5.24632">
        <ele>152</ele>
        <time>2021-09-05T07:40:21.000Z</time>
      </trkpt>
      <trkpt lat="50.63566" lon="5.24577">
        <ele>152.80000305176</ele>
        <time>2021-09-05T07:40:28.000Z</time>
      </trkpt>
      <trkpt lat="50.63555" lon="5.24555">
        <ele>153.39999389648</ele>
        <time>2021-09-05T07:40:31.000Z</time>
      </trkpt>
      <trkpt lat="50.63544" lon="5.24534">
        <ele>153.80000305176</ele>
        <time>2021-09-05T07:40:34.000Z</time>
      </trkpt>
      <trkpt lat="50.63523" lon="5.24503">
        <ele>155</ele>
        <time>2021-09-05T07:40:39.000Z</time>
      </trkpt>
      <trkpt lat="50.63514" lon="5.24491">
        <ele>155.19999694824</ele>
        <time>2021-09-05T07:40:42.000Z</time>
      </trkpt>
      <trkpt lat="50.63479" lon="5.24449">
        <ele>156.39999389648</ele>
        <time>2021-09-05T07:40:49.000Z</time>
      </trkpt>
      <trkpt lat="50.63432" lon="5.24395">
        <ele>156.80000305176</ele>
        <time>2021-09-05T07:40:57.000Z</time>
      </trkpt>
      <trkpt lat="50.63411" lon="5.24371">
        <ele>157</ele>
        <time>2021-09-05T07:41:01.000Z</time>
      </trkpt>
      <trkpt lat="50.63377" lon="5.24345">
        <ele>157</ele>
        <time>2021-09-05T07:41:07.000Z</time>
      </trkpt>
      <trkpt lat="50.63352" lon="5.24336">
        <ele>157</ele>
        <time>2021-09-05T07:41:11.000Z</time>
      </trkpt>
      <trkpt lat="50.63346" lon="5.24335">
        <ele>156.80000305176</ele>
        <time>2021-09-05T07:41:12.000Z</time>
      </trkpt>
      <trkpt lat="50.63328" lon="5.24332">
        <ele>157</ele>
        <time>2021-09-05T07:41:16.000Z</time>
      </trkpt>
      <trkpt lat="50.63318" lon="5.24321">
        <ele>157</ele>
        <time>2021-09-05T07:41:18.000Z</time>
      </trkpt>
      <trkpt lat="50.63314" lon="5.24314">
        <ele>157</ele>
        <time>2021-09-05T07:41:19.000Z</time>
      </trkpt>
      <trkpt lat="50.63297" lon="5.24273">
        <ele>157.19999694824</ele>
        <time>2021-09-05T07:41:23.000Z</time>
      </trkpt>
      <trkpt lat="50.63292" lon="5.24255">
        <ele>157.60000610352</ele>
        <time>2021-09-05T07:41:26.000Z</time>
      </trkpt>
      <trkpt lat="50.6329" lon="5.24237">
        <ele>157.80000305176</ele>
        <time>2021-09-05T07:41:28.000Z</time>
      </trkpt>
      <trkpt lat="50.63291" lon="5.24227">
        <ele>157.60000610352</ele>
        <time>2021-09-05T07:41:29.000Z</time>
      </trkpt>
      <trkpt lat="50.63294" lon="5.24219">
        <ele>157.80000305176</ele>
        <time>2021-09-05T07:41:30.000Z</time>
      </trkpt>
      <trkpt lat="50.63303" lon="5.24206">
        <ele>157.80000305176</ele>
        <time>2021-09-05T07:41:31.000Z</time>
      </trkpt>
      <trkpt lat="50.63339" lon="5.24155">
        <ele>158.60000610352</ele>
        <time>2021-09-05T07:41:40.000Z</time>
      </trkpt>
      <trkpt lat="50.63342" lon="5.24147">
        <ele>159</ele>
        <time>2021-09-05T07:41:41.000Z</time>
      </trkpt>
      <trkpt lat="50.63348" lon="5.2413">
        <ele>158.80000305176</ele>
        <time>2021-09-05T07:41:42.000Z</time>
      </trkpt>
      <trkpt lat="50.63357" lon="5.24104">
        <ele>159</ele>
        <time>2021-09-05T07:41:45.000Z</time>
      </trkpt>
      <trkpt lat="50.63375" lon="5.24047">
        <ele>159.60000610352</ele>
        <time>2021-09-05T07:41:52.000Z</time>
      </trkpt>
      <trkpt lat="50.63387" lon="5.24006">
        <ele>159.60000610352</ele>
        <time>2021-09-05T07:41:56.000Z</time>
      </trkpt>
      <trkpt lat="50.6339" lon="5.23996">
        <ele>159.60000610352</ele>
        <time>2021-09-05T07:41:57.000Z</time>
      </trkpt>
      <trkpt lat="50.63401" lon="5.23962">
        <ele>159.60000610352</ele>
        <time>2021-09-05T07:42:00.000Z</time>
      </trkpt>
      <trkpt lat="50.63416" lon="5.23916">
        <ele>159</ele>
        <time>2021-09-05T07:42:04.000Z</time>
      </trkpt>
      <trkpt lat="50.63434" lon="5.23858">
        <ele>157.19999694824</ele>
        <time>2021-09-05T07:42:09.000Z</time>
      </trkpt>
      <trkpt lat="50.63451" lon="5.23803">
        <ele>155.60000610352</ele>
        <time>2021-09-05T07:42:14.000Z</time>
      </trkpt>
      <trkpt lat="50.63477" lon="5.23721">
        <ele>154.39999389648</ele>
        <time>2021-09-05T07:42:22.000Z</time>
      </trkpt>
      <trkpt lat="50.6348" lon="5.23711">
        <ele>154.39999389648</ele>
        <time>2021-09-05T07:42:23.000Z</time>
      </trkpt>
      <trkpt lat="50.63495" lon="5.23665">
        <ele>154.39999389648</ele>
        <time>2021-09-05T07:42:28.000Z</time>
      </trkpt>
      <trkpt lat="50.63503" lon="5.23639">
        <ele>154.39999389648</ele>
        <time>2021-09-05T07:42:31.000Z</time>
      </trkpt>
      <trkpt lat="50.63505" lon="5.2363">
        <ele>154.60000610352</ele>
        <time>2021-09-05T07:42:32.000Z</time>
      </trkpt>
      <trkpt lat="50.63518" lon="5.23589">
        <ele>155.19999694824</ele>
        <time>2021-09-05T07:42:37.000Z</time>
      </trkpt>
      <trkpt lat="50.63533" lon="5.2354">
        <ele>157</ele>
        <time>2021-09-05T07:42:43.000Z</time>
      </trkpt>
      <trkpt lat="50.63556" lon="5.23464">
        <ele>158</ele>
        <time>2021-09-05T07:42:51.000Z</time>
      </trkpt>
      <trkpt lat="50.63559" lon="5.23454">
        <ele>158</ele>
        <time>2021-09-05T07:42:52.000Z</time>
      </trkpt>
      <trkpt lat="50.63581" lon="5.23395">
        <ele>157.80000305176</ele>
        <time>2021-09-05T07:42:58.000Z</time>
      </trkpt>
      <trkpt lat="50.63585" lon="5.23386">
        <ele>157.60000610352</ele>
        <time>2021-09-05T07:42:59.000Z</time>
      </trkpt>
      <trkpt lat="50.63616" lon="5.2332">
        <ele>156.60000610352</ele>
        <time>2021-09-05T07:43:06.000Z</time>
      </trkpt>
      <trkpt lat="50.63625" lon="5.23302">
        <ele>156</ele>
        <time>2021-09-05T07:43:08.000Z</time>
      </trkpt>
      <trkpt lat="50.63651" lon="5.23248">
        <ele>155</ele>
        <time>2021-09-05T07:43:14.000Z</time>
      </trkpt>
      <trkpt lat="50.6366" lon="5.2323">
        <ele>154</ele>
        <time>2021-09-05T07:43:16.000Z</time>
      </trkpt>
      <trkpt lat="50.63687" lon="5.23169">
        <ele>153.19999694824</ele>
        <time>2021-09-05T07:43:23.000Z</time>
      </trkpt>
      <trkpt lat="50.63689" lon="5.23159">
        <ele>153</ele>
        <time>2021-09-05T07:43:24.000Z</time>
      </trkpt>
      <trkpt lat="50.6369" lon="5.23149">
        <ele>153</ele>
        <time>2021-09-05T07:43:25.000Z</time>
      </trkpt>
      <trkpt lat="50.63686" lon="5.23132">
        <ele>152.80000305176</ele>
        <time>2021-09-05T07:43:27.000Z</time>
      </trkpt>
      <trkpt lat="50.63671" lon="5.23102">
        <ele>152.60000610352</ele>
        <time>2021-09-05T07:43:31.000Z</time>
      </trkpt>
      <trkpt lat="50.63667" lon="5.23095">
        <ele>152.39999389648</ele>
        <time>2021-09-05T07:43:32.000Z</time>
      </trkpt>
      <trkpt lat="50.63649" lon="5.23062">
        <ele>152.60000610352</ele>
        <time>2021-09-05T07:43:35.000Z</time>
      </trkpt>
      <trkpt lat="50.6361" lon="5.2299">
        <ele>152.60000610352</ele>
        <time>2021-09-05T07:43:44.000Z</time>
      </trkpt>
      <trkpt lat="50.63606" lon="5.22982">
        <ele>152.60000610352</ele>
        <time>2021-09-05T07:43:45.000Z</time>
      </trkpt>
      <trkpt lat="50.63594" lon="5.22958">
        <ele>152.60000610352</ele>
        <time>2021-09-05T07:43:48.000Z</time>
      </trkpt>
      <trkpt lat="50.6357" lon="5.2291">
        <ele>153.39999389648</ele>
        <time>2021-09-05T07:43:54.000Z</time>
      </trkpt>
      <trkpt lat="50.63569" lon="5.22891">
        <ele>154</ele>
        <time>2021-09-05T07:43:57.000Z</time>
      </trkpt>
      <trkpt lat="50.63577" lon="5.22875">
        <ele>154</ele>
        <time>2021-09-05T07:43:59.000Z</time>
      </trkpt>
      <trkpt lat="50.63606" lon="5.2285">
        <ele>154.19999694824</ele>
        <time>2021-09-05T07:44:03.000Z</time>
      </trkpt>
      <trkpt lat="50.63629" lon="5.22831">
        <ele>154.60000610352</ele>
        <time>2021-09-05T07:44:08.000Z</time>
      </trkpt>
      <trkpt lat="50.63651" lon="5.22814">
        <ele>154.39999389648</ele>
        <time>2021-09-05T07:44:12.000Z</time>
      </trkpt>
      <trkpt lat="50.63662" lon="5.22805">
        <ele>154.60000610352</ele>
        <time>2021-09-05T07:44:14.000Z</time>
      </trkpt>
      <trkpt lat="50.63678" lon="5.22792">
        <ele>154.80000305176</ele>
        <time>2021-09-05T07:44:17.000Z</time>
      </trkpt>
      <trkpt lat="50.63704" lon="5.22771">
        <ele>155.60000610352</ele>
        <time>2021-09-05T07:44:21.000Z</time>
      </trkpt>
      <trkpt lat="50.63709" lon="5.22767">
        <ele>156</ele>
        <time>2021-09-05T07:44:23.000Z</time>
      </trkpt>
      <trkpt lat="50.63759" lon="5.22728">
        <ele>158.19999694824</ele>
        <time>2021-09-05T07:44:31.000Z</time>
      </trkpt>
      <trkpt lat="50.63787" lon="5.22704">
        <ele>158.80000305176</ele>
        <time>2021-09-05T07:44:37.000Z</time>
      </trkpt>
      <trkpt lat="50.63795" lon="5.2269">
        <ele>159</ele>
        <time>2021-09-05T07:44:39.000Z</time>
      </trkpt>
      <trkpt lat="50.63802" lon="5.22661">
        <ele>159</ele>
        <time>2021-09-05T07:44:41.000Z</time>
      </trkpt>
      <trkpt lat="50.63805" lon="5.22639">
        <ele>159.19999694824</ele>
        <time>2021-09-05T07:44:43.000Z</time>
      </trkpt>
      <trkpt lat="50.6381" lon="5.22605">
        <ele>159.19999694824</ele>
        <time>2021-09-05T07:44:46.000Z</time>
      </trkpt>
      <trkpt lat="50.63817" lon="5.22558">
        <ele>158.60000610352</ele>
        <time>2021-09-05T07:44:51.000Z</time>
      </trkpt>
      <trkpt lat="50.63823" lon="5.22508">
        <ele>157.60000610352</ele>
        <time>2021-09-05T07:44:55.000Z</time>
      </trkpt>
      <trkpt lat="50.6382" lon="5.22483">
        <ele>157.19999694824</ele>
        <time>2021-09-05T07:44:56.000Z</time>
      </trkpt>
      <trkpt lat="50.63807" lon="5.22436">
        <ele>156.19999694824</ele>
        <time>2021-09-05T07:45:00.000Z</time>
      </trkpt>
      <trkpt lat="50.63797" lon="5.22402">
        <ele>155.80000305176</ele>
        <time>2021-09-05T07:45:03.000Z</time>
      </trkpt>
      <trkpt lat="50.63791" lon="5.22379">
        <ele>155</ele>
        <time>2021-09-05T07:45:06.000Z</time>
      </trkpt>
      <trkpt lat="50.63783" lon="5.2235">
        <ele>154.39999389648</ele>
        <time>2021-09-05T07:45:09.000Z</time>
      </trkpt>
      <trkpt lat="50.63782" lon="5.22335">
        <ele>154</ele>
        <time>2021-09-05T07:45:11.000Z</time>
      </trkpt>
      <trkpt lat="50.63783" lon="5.22329">
        <ele>153.60000610352</ele>
        <time>2021-09-05T07:45:12.000Z</time>
      </trkpt>
      <trkpt lat="50.63791" lon="5.22315">
        <ele>153.19999694824</ele>
        <time>2021-09-05T07:45:14.000Z</time>
      </trkpt>
      <trkpt lat="50.63798" lon="5.22305">
        <ele>153</ele>
        <time>2021-09-05T07:45:16.000Z</time>
      </trkpt>
      <trkpt lat="50.63815" lon="5.22278">
        <ele>152.60000610352</ele>
        <time>2021-09-05T07:45:21.000Z</time>
      </trkpt>
      <trkpt lat="50.63849" lon="5.22225">
        <ele>152.19999694824</ele>
        <time>2021-09-05T07:45:28.000Z</time>
      </trkpt>
      <trkpt lat="50.63853" lon="5.22217">
        <ele>152</ele>
        <time>2021-09-05T07:45:29.000Z</time>
      </trkpt>
      <trkpt lat="50.63888" lon="5.22151">
        <ele>152</ele>
        <time>2021-09-05T07:45:36.000Z</time>
      </trkpt>
      <trkpt lat="50.63922" lon="5.22084">
        <ele>151.60000610352</ele>
        <time>2021-09-05T07:45:44.000Z</time>
      </trkpt>
      <trkpt lat="50.63935" lon="5.22059">
        <ele>151.39999389648</ele>
        <time>2021-09-05T07:45:47.000Z</time>
      </trkpt>
      <trkpt lat="50.63959" lon="5.22008">
        <ele>151</ele>
        <time>2021-09-05T07:45:53.000Z</time>
      </trkpt>
      <trkpt lat="50.63967" lon="5.21992">
        <ele>151</ele>
        <time>2021-09-05T07:45:55.000Z</time>
      </trkpt>
      <trkpt lat="50.63976" lon="5.21968">
        <ele>151</ele>
        <time>2021-09-05T07:45:58.000Z</time>
      </trkpt>
      <trkpt lat="50.6398" lon="5.21951">
        <ele>150.80000305176</ele>
        <time>2021-09-05T07:46:00.000Z</time>
      </trkpt>
      <trkpt lat="50.63984" lon="5.21923">
        <ele>150.80000305176</ele>
        <time>2021-09-05T07:46:03.000Z</time>
      </trkpt>
      <trkpt lat="50.63985" lon="5.21914">
        <ele>151</ele>
        <time>2021-09-05T07:46:04.000Z</time>
      </trkpt>
      <trkpt lat="50.63986" lon="5.21904">
        <ele>151</ele>
        <time>2021-09-05T07:46:05.000Z</time>
      </trkpt>
      <trkpt lat="50.63994" lon="5.21867">
        <ele>151</ele>
        <time>2021-09-05T07:46:09.000Z</time>
      </trkpt>
      <trkpt lat="50.64012" lon="5.21805">
        <ele>151.80000305176</ele>
        <time>2021-09-05T07:46:16.000Z</time>
      </trkpt>
      <trkpt lat="50.64024" lon="5.2176">
        <ele>152.19999694824</ele>
        <time>2021-09-05T07:46:22.000Z</time>
      </trkpt>
      <trkpt lat="50.64024" lon="5.21751">
        <ele>152.19999694824</ele>
        <time>2021-09-05T07:46:23.000Z</time>
      </trkpt>
      <trkpt lat="50.64023" lon="5.21742">
        <ele>152.39999389648</ele>
        <time>2021-09-05T07:46:24.000Z</time>
      </trkpt>
      <trkpt lat="50.6402" lon="5.21702">
        <ele>152.39999389648</ele>
        <time>2021-09-05T07:46:27.000Z</time>
      </trkpt>
      <trkpt lat="50.6402" lon="5.21629">
        <ele>153</ele>
        <time>2021-09-05T07:46:34.000Z</time>
      </trkpt>
      <trkpt lat="50.64029" lon="5.21545">
        <ele>153.39999389648</ele>
        <time>2021-09-05T07:46:42.000Z</time>
      </trkpt>
      <trkpt lat="50.64046" lon="5.21465">
        <ele>153.60000610352</ele>
        <time>2021-09-05T07:46:50.000Z</time>
      </trkpt>
      <trkpt lat="50.64066" lon="5.21385">
        <ele>153.60000610352</ele>
        <time>2021-09-05T07:46:58.000Z</time>
      </trkpt>
      <trkpt lat="50.64079" lon="5.21333">
        <ele>153.19999694824</ele>
        <time>2021-09-05T07:47:04.000Z</time>
      </trkpt>
      <trkpt lat="50.64095" lon="5.21249">
        <ele>153</ele>
        <time>2021-09-05T07:47:11.000Z</time>
      </trkpt>
      <trkpt lat="50.64096" lon="5.21238">
        <ele>152.80000305176</ele>
        <time>2021-09-05T07:47:12.000Z</time>
      </trkpt>
      <trkpt lat="50.64106" lon="5.21184">
        <ele>152.60000610352</ele>
        <time>2021-09-05T07:47:17.000Z</time>
      </trkpt>
      <trkpt lat="50.64112" lon="5.2114">
        <ele>152.19999694824</ele>
        <time>2021-09-05T07:47:21.000Z</time>
      </trkpt>
      <trkpt lat="50.64125" lon="5.21064">
        <ele>151.60000610352</ele>
        <time>2021-09-05T07:47:29.000Z</time>
      </trkpt>
      <trkpt lat="50.64131" lon="5.2098">
        <ele>151.19999694824</ele>
        <time>2021-09-05T07:47:36.000Z</time>
      </trkpt>
      <trkpt lat="50.64135" lon="5.20946">
        <ele>151.39999389648</ele>
        <time>2021-09-05T07:47:39.000Z</time>
      </trkpt>
      <trkpt lat="50.64139" lon="5.20912">
        <ele>151.19999694824</ele>
        <time>2021-09-05T07:47:42.000Z</time>
      </trkpt>
      <trkpt lat="50.64146" lon="5.20854">
        <ele>151</ele>
        <time>2021-09-05T07:47:47.000Z</time>
      </trkpt>
      <trkpt lat="50.64153" lon="5.20793">
        <ele>149.80000305176</ele>
        <time>2021-09-05T07:47:52.000Z</time>
      </trkpt>
      <trkpt lat="50.64162" lon="5.2071">
        <ele>148.60000610352</ele>
        <time>2021-09-05T07:47:59.000Z</time>
      </trkpt>
      <trkpt lat="50.64168" lon="5.20651">
        <ele>148.39999389648</ele>
        <time>2021-09-05T07:48:04.000Z</time>
      </trkpt>
      <trkpt lat="50.64169" lon="5.20639">
        <ele>148</ele>
        <time>2021-09-05T07:48:06.000Z</time>
      </trkpt>
      <trkpt lat="50.64177" lon="5.20545">
        <ele>147.39999389648</ele>
        <time>2021-09-05T07:48:13.000Z</time>
      </trkpt>
      <trkpt lat="50.64179" lon="5.20522">
        <ele>147.39999389648</ele>
        <time>2021-09-05T07:48:15.000Z</time>
      </trkpt>
      <trkpt lat="50.6418" lon="5.20488">
        <ele>147</ele>
        <time>2021-09-05T07:48:18.000Z</time>
      </trkpt>
      <trkpt lat="50.64179" lon="5.20455">
        <ele>147</ele>
        <time>2021-09-05T07:48:21.000Z</time>
      </trkpt>
      <trkpt lat="50.64178" lon="5.20444">
        <ele>147</ele>
        <time>2021-09-05T07:48:22.000Z</time>
      </trkpt>
      <trkpt lat="50.64178" lon="5.20434">
        <ele>147</ele>
        <time>2021-09-05T07:48:23.000Z</time>
      </trkpt>
      <trkpt lat="50.64179" lon="5.20413">
        <ele>147</ele>
        <time>2021-09-05T07:48:25.000Z</time>
      </trkpt>
      <trkpt lat="50.64181" lon="5.20392">
        <ele>146.80000305176</ele>
        <time>2021-09-05T07:48:27.000Z</time>
      </trkpt>
      <trkpt lat="50.64185" lon="5.20353">
        <ele>147</ele>
        <time>2021-09-05T07:48:31.000Z</time>
      </trkpt>
      <trkpt lat="50.64188" lon="5.20327">
        <ele>147</ele>
        <time>2021-09-05T07:48:35.000Z</time>
      </trkpt>
      <trkpt lat="50.64192" lon="5.20295">
        <ele>147.60000610352</ele>
        <time>2021-09-05T07:48:40.000Z</time>
      </trkpt>
      <trkpt lat="50.64194" lon="5.20275">
        <ele>148</ele>
        <time>2021-09-05T07:48:45.000Z</time>
      </trkpt>
      <trkpt lat="50.64194" lon="5.20272">
        <ele>148.19999694824</ele>
        <time>2021-09-05T07:48:47.000Z</time>
      </trkpt>
      <trkpt lat="50.64194" lon="5.20271">
        <ele>149</ele>
        <time>2021-09-05T07:51:42.000Z</time>
      </trkpt>
      <trkpt lat="50.64194" lon="5.20267">
        <ele>149</ele>
        <time>2021-09-05T07:51:43.000Z</time>
      </trkpt>
      <trkpt lat="50.64196" lon="5.2025">
        <ele>149.19999694824</ele>
        <time>2021-09-05T07:51:49.000Z</time>
      </trkpt>
      <trkpt lat="50.64201" lon="5.20206">
        <ele>149.39999389648</ele>
        <time>2021-09-05T07:51:56.000Z</time>
      </trkpt>
      <trkpt lat="50.64206" lon="5.20157">
        <ele>150.19999694824</ele>
        <time>2021-09-05T07:52:04.000Z</time>
      </trkpt>
      <trkpt lat="50.64212" lon="5.20087">
        <ele>150.60000610352</ele>
        <time>2021-09-05T07:52:12.000Z</time>
      </trkpt>
      <trkpt lat="50.64212" lon="5.19999">
        <ele>150.60000610352</ele>
        <time>2021-09-05T07:52:20.000Z</time>
      </trkpt>
      <trkpt lat="50.64211" lon="5.1994">
        <ele>150.80000305176</ele>
        <time>2021-09-05T07:52:26.000Z</time>
      </trkpt>
      <trkpt lat="50.6421" lon="5.19899">
        <ele>150.80000305176</ele>
        <time>2021-09-05T07:52:30.000Z</time>
      </trkpt>
      <trkpt lat="50.64209" lon="5.19804">
        <ele>150.60000610352</ele>
        <time>2021-09-05T07:52:39.000Z</time>
      </trkpt>
      <trkpt lat="50.64209" lon="5.19794">
        <ele>150.60000610352</ele>
        <time>2021-09-05T07:52:40.000Z</time>
      </trkpt>
      <trkpt lat="50.64208" lon="5.19762">
        <ele>150.39999389648</ele>
        <time>2021-09-05T07:52:43.000Z</time>
      </trkpt>
      <trkpt lat="50.6421" lon="5.19698">
        <ele>150.39999389648</ele>
        <time>2021-09-05T07:52:49.000Z</time>
      </trkpt>
      <trkpt lat="50.64223" lon="5.19613">
        <ele>149.80000305176</ele>
        <time>2021-09-05T07:52:57.000Z</time>
      </trkpt>
      <trkpt lat="50.64228" lon="5.19582">
        <ele>149.60000610352</ele>
        <time>2021-09-05T07:53:00.000Z</time>
      </trkpt>
      <trkpt lat="50.6423" lon="5.19571">
        <ele>149.39999389648</ele>
        <time>2021-09-05T07:53:01.000Z</time>
      </trkpt>
      <trkpt lat="50.64243" lon="5.19488">
        <ele>148.80000305176</ele>
        <time>2021-09-05T07:53:09.000Z</time>
      </trkpt>
      <trkpt lat="50.64244" lon="5.19477">
        <ele>148.80000305176</ele>
        <time>2021-09-05T07:53:10.000Z</time>
      </trkpt>
      <trkpt lat="50.64246" lon="5.19465">
        <ele>148.60000610352</ele>
        <time>2021-09-05T07:53:11.000Z</time>
      </trkpt>
      <trkpt lat="50.64258" lon="5.19386">
        <ele>147.60000610352</ele>
        <time>2021-09-05T07:53:18.000Z</time>
      </trkpt>
      <trkpt lat="50.64259" lon="5.19374">
        <ele>147.60000610352</ele>
        <time>2021-09-05T07:53:19.000Z</time>
      </trkpt>
      <trkpt lat="50.64262" lon="5.19301">
        <ele>146.60000610352</ele>
        <time>2021-09-05T07:53:25.000Z</time>
      </trkpt>
      <trkpt lat="50.64262" lon="5.19289">
        <ele>146.39999389648</ele>
        <time>2021-09-05T07:53:26.000Z</time>
      </trkpt>
      <trkpt lat="50.64255" lon="5.19216">
        <ele>145.39999389648</ele>
        <time>2021-09-05T07:53:32.000Z</time>
      </trkpt>
      <trkpt lat="50.64253" lon="5.19204">
        <ele>145.39999389648</ele>
        <time>2021-09-05T07:53:33.000Z</time>
      </trkpt>
      <trkpt lat="50.64245" lon="5.19157">
        <ele>144.19999694824</ele>
        <time>2021-09-05T07:53:37.000Z</time>
      </trkpt>
      <trkpt lat="50.64238" lon="5.19123">
        <ele>143.60000610352</ele>
        <time>2021-09-05T07:53:40.000Z</time>
      </trkpt>
      <trkpt lat="50.64221" lon="5.19034">
        <ele>141.80000305176</ele>
        <time>2021-09-05T07:53:48.000Z</time>
      </trkpt>
      <trkpt lat="50.64219" lon="5.19023">
        <ele>141.60000610352</ele>
        <time>2021-09-05T07:53:49.000Z</time>
      </trkpt>
      <trkpt lat="50.64201" lon="5.18933">
        <ele>140.60000610352</ele>
        <time>2021-09-05T07:53:57.000Z</time>
      </trkpt>
      <trkpt lat="50.64197" lon="5.1891">
        <ele>140.60000610352</ele>
        <time>2021-09-05T07:53:59.000Z</time>
      </trkpt>
      <trkpt lat="50.64181" lon="5.18824">
        <ele>140.19999694824</ele>
        <time>2021-09-05T07:54:07.000Z</time>
      </trkpt>
      <trkpt lat="50.64179" lon="5.18813">
        <ele>140.19999694824</ele>
        <time>2021-09-05T07:54:08.000Z</time>
      </trkpt>
      <trkpt lat="50.64164" lon="5.18731">
        <ele>140.39999389648</ele>
        <time>2021-09-05T07:54:16.000Z</time>
      </trkpt>
      <trkpt lat="50.64162" lon="5.18721">
        <ele>140.60000610352</ele>
        <time>2021-09-05T07:54:17.000Z</time>
      </trkpt>
      <trkpt lat="50.64145" lon="5.18629">
        <ele>141.19999694824</ele>
        <time>2021-09-05T07:54:26.000Z</time>
      </trkpt>
      <trkpt lat="50.64139" lon="5.18598">
        <ele>141.39999389648</ele>
        <time>2021-09-05T07:54:29.000Z</time>
      </trkpt>
      <trkpt lat="50.64122" lon="5.18511">
        <ele>141.39999389648</ele>
        <time>2021-09-05T07:54:37.000Z</time>
      </trkpt>
      <trkpt lat="50.64116" lon="5.1848">
        <ele>141.39999389648</ele>
        <time>2021-09-05T07:54:40.000Z</time>
      </trkpt>
      <trkpt lat="50.64104" lon="5.18417">
        <ele>141.19999694824</ele>
        <time>2021-09-05T07:54:46.000Z</time>
      </trkpt>
      <trkpt lat="50.641" lon="5.18386">
        <ele>141.19999694824</ele>
        <time>2021-09-05T07:54:49.000Z</time>
      </trkpt>
      <trkpt lat="50.64091" lon="5.18306">
        <ele>141.39999389648</ele>
        <time>2021-09-05T07:54:57.000Z</time>
      </trkpt>
      <trkpt lat="50.64089" lon="5.18287">
        <ele>141.39999389648</ele>
        <time>2021-09-05T07:54:59.000Z</time>
      </trkpt>
      <trkpt lat="50.64086" lon="5.1825">
        <ele>142</ele>
        <time>2021-09-05T07:55:03.000Z</time>
      </trkpt>
      <trkpt lat="50.64081" lon="5.18204">
        <ele>142.80000305176</ele>
        <time>2021-09-05T07:55:08.000Z</time>
      </trkpt>
      <trkpt lat="50.64078" lon="5.18178">
        <ele>143.39999389648</ele>
        <time>2021-09-05T07:55:11.000Z</time>
      </trkpt>
      <trkpt lat="50.64073" lon="5.18135">
        <ele>144.60000610352</ele>
        <time>2021-09-05T07:55:16.000Z</time>
      </trkpt>
      <trkpt lat="50.64072" lon="5.18117">
        <ele>145</ele>
        <time>2021-09-05T07:55:18.000Z</time>
      </trkpt>
      <trkpt lat="50.64067" lon="5.18073">
        <ele>146</ele>
        <time>2021-09-05T07:55:23.000Z</time>
      </trkpt>
      <trkpt lat="50.64064" lon="5.18045">
        <ele>146.60000610352</ele>
        <time>2021-09-05T07:55:26.000Z</time>
      </trkpt>
      <trkpt lat="50.6406" lon="5.18007">
        <ele>147.19999694824</ele>
        <time>2021-09-05T07:55:30.000Z</time>
      </trkpt>
      <trkpt lat="50.64057" lon="5.17989">
        <ele>147.80000305176</ele>
        <time>2021-09-05T07:55:32.000Z</time>
      </trkpt>
      <trkpt lat="50.64052" lon="5.17972">
        <ele>148</ele>
        <time>2021-09-05T07:55:34.000Z</time>
      </trkpt>
      <trkpt lat="50.64049" lon="5.17963">
        <ele>148.19999694824</ele>
        <time>2021-09-05T07:55:35.000Z</time>
      </trkpt>
      <trkpt lat="50.64037" lon="5.17941">
        <ele>148.80000305176</ele>
        <time>2021-09-05T07:55:38.000Z</time>
      </trkpt>
      <trkpt lat="50.64025" lon="5.1792">
        <ele>149</ele>
        <time>2021-09-05T07:55:41.000Z</time>
      </trkpt>
      <trkpt lat="50.64" lon="5.17873">
        <ele>149.19999694824</ele>
        <time>2021-09-05T07:55:47.000Z</time>
      </trkpt>
      <trkpt lat="50.63967" lon="5.17812">
        <ele>149.60000610352</ele>
        <time>2021-09-05T07:55:55.000Z</time>
      </trkpt>
      <trkpt lat="50.63946" lon="5.17738">
        <ele>149.80000305176</ele>
        <time>2021-09-05T07:56:03.000Z</time>
      </trkpt>
      <trkpt lat="50.63944" lon="5.17729">
        <ele>149.80000305176</ele>
        <time>2021-09-05T07:56:04.000Z</time>
      </trkpt>
      <trkpt lat="50.63934" lon="5.17673">
        <ele>150.19999694824</ele>
        <time>2021-09-05T07:56:10.000Z</time>
      </trkpt>
      <trkpt lat="50.63927" lon="5.17606">
        <ele>150.80000305176</ele>
        <time>2021-09-05T07:56:17.000Z</time>
      </trkpt>
      <trkpt lat="50.63921" lon="5.17589">
        <ele>150.80000305176</ele>
        <time>2021-09-05T07:56:19.000Z</time>
      </trkpt>
      <trkpt lat="50.63911" lon="5.17565">
        <ele>151.19999694824</ele>
        <time>2021-09-05T07:56:22.000Z</time>
      </trkpt>
      <trkpt lat="50.63898" lon="5.17534">
        <ele>151.39999389648</ele>
        <time>2021-09-05T07:56:26.000Z</time>
      </trkpt>
      <trkpt lat="50.63897" lon="5.17515">
        <ele>151.39999389648</ele>
        <time>2021-09-05T07:56:28.000Z</time>
      </trkpt>
      <trkpt lat="50.63898" lon="5.17505">
        <ele>151.39999389648</ele>
        <time>2021-09-05T07:56:29.000Z</time>
      </trkpt>
      <trkpt lat="50.63899" lon="5.17495">
        <ele>151.39999389648</ele>
        <time>2021-09-05T07:56:30.000Z</time>
      </trkpt>
      <trkpt lat="50.63904" lon="5.17475">
        <ele>151.39999389648</ele>
        <time>2021-09-05T07:56:32.000Z</time>
      </trkpt>
      <trkpt lat="50.63924" lon="5.17413">
        <ele>151</ele>
        <time>2021-09-05T07:56:38.000Z</time>
      </trkpt>
      <trkpt lat="50.63929" lon="5.17403">
        <ele>150.60000610352</ele>
        <time>2021-09-05T07:56:39.000Z</time>
      </trkpt>
      <trkpt lat="50.63945" lon="5.17377">
        <ele>149.39999389648</ele>
        <time>2021-09-05T07:56:42.000Z</time>
      </trkpt>
      <trkpt lat="50.63951" lon="5.17369">
        <ele>149</ele>
        <time>2021-09-05T07:56:43.000Z</time>
      </trkpt>
      <trkpt lat="50.63986" lon="5.17325">
        <ele>147.80000305176</ele>
        <time>2021-09-05T07:56:49.000Z</time>
      </trkpt>
      <trkpt lat="50.63998" lon="5.17314">
        <ele>147.19999694824</ele>
        <time>2021-09-05T07:56:51.000Z</time>
      </trkpt>
      <trkpt lat="50.64018" lon="5.173">
        <ele>146.39999389648</ele>
        <time>2021-09-05T07:56:54.000Z</time>
      </trkpt>
      <trkpt lat="50.6407" lon="5.17261">
        <ele>145.39999389648</ele>
        <time>2021-09-05T07:57:02.000Z</time>
      </trkpt>
      <trkpt lat="50.64076" lon="5.17256">
        <ele>145.39999389648</ele>
        <time>2021-09-05T07:57:03.000Z</time>
      </trkpt>
      <trkpt lat="50.64123" lon="5.1722">
        <ele>145.19999694824</ele>
        <time>2021-09-05T07:57:11.000Z</time>
      </trkpt>
      <trkpt lat="50.64175" lon="5.17179">
        <ele>145.39999389648</ele>
        <time>2021-09-05T07:57:20.000Z</time>
      </trkpt>
      <trkpt lat="50.64227" lon="5.17134">
        <ele>145.80000305176</ele>
        <time>2021-09-05T07:57:29.000Z</time>
      </trkpt>
      <trkpt lat="50.64232" lon="5.17129">
        <ele>145.80000305176</ele>
        <time>2021-09-05T07:57:30.000Z</time>
      </trkpt>
      <trkpt lat="50.64244" lon="5.17118">
        <ele>145.80000305176</ele>
        <time>2021-09-05T07:57:32.000Z</time>
      </trkpt>
      <trkpt lat="50.64261" lon="5.17104">
        <ele>145.80000305176</ele>
        <time>2021-09-05T07:57:35.000Z</time>
      </trkpt>
      <trkpt lat="50.64287" lon="5.17082">
        <ele>145.80000305176</ele>
        <time>2021-09-05T07:57:40.000Z</time>
      </trkpt>
      <trkpt lat="50.64316" lon="5.17055">
        <ele>146</ele>
        <time>2021-09-05T07:57:47.000Z</time>
      </trkpt>
      <trkpt lat="50.64323" lon="5.17047">
        <ele>146</ele>
        <time>2021-09-05T07:57:51.000Z</time>
      </trkpt>
      <trkpt lat="50.64333" lon="5.17029">
        <ele>146.19999694824</ele>
        <time>2021-09-05T07:57:55.000Z</time>
      </trkpt>
      <trkpt lat="50.6436" lon="5.1699">
        <ele>146.39999389648</ele>
        <time>2021-09-05T07:58:02.000Z</time>
      </trkpt>
      <trkpt lat="50.64398" lon="5.16936">
        <ele>146.19999694824</ele>
        <time>2021-09-05T07:58:10.000Z</time>
      </trkpt>
      <trkpt lat="50.64434" lon="5.16885">
        <ele>145.19999694824</ele>
        <time>2021-09-05T07:58:17.000Z</time>
      </trkpt>
      <trkpt lat="50.64445" lon="5.16869">
        <ele>145</ele>
        <time>2021-09-05T07:58:19.000Z</time>
      </trkpt>
      <trkpt lat="50.64471" lon="5.16829">
        <ele>144.19999694824</ele>
        <time>2021-09-05T07:58:24.000Z</time>
      </trkpt>
      <trkpt lat="50.64477" lon="5.16821">
        <ele>144.19999694824</ele>
        <time>2021-09-05T07:58:25.000Z</time>
      </trkpt>
      <trkpt lat="50.6451" lon="5.16772">
        <ele>143.39999389648</ele>
        <time>2021-09-05T07:58:31.000Z</time>
      </trkpt>
      <trkpt lat="50.64527" lon="5.16748">
        <ele>142.60000610352</ele>
        <time>2021-09-05T07:58:34.000Z</time>
      </trkpt>
      <trkpt lat="50.64563" lon="5.16703">
        <ele>141.60000610352</ele>
        <time>2021-09-05T07:58:40.000Z</time>
      </trkpt>
      <trkpt lat="50.64581" lon="5.1668">
        <ele>141</ele>
        <time>2021-09-05T07:58:43.000Z</time>
      </trkpt>
      <trkpt lat="50.64599" lon="5.16657">
        <ele>140.39999389648</ele>
        <time>2021-09-05T07:58:46.000Z</time>
      </trkpt>
      <trkpt lat="50.64642" lon="5.16604">
        <ele>139.39999389648</ele>
        <time>2021-09-05T07:58:53.000Z</time>
      </trkpt>
      <trkpt lat="50.64683" lon="5.16554">
        <ele>138.19999694824</ele>
        <time>2021-09-05T07:59:00.000Z</time>
      </trkpt>
      <trkpt lat="50.64701" lon="5.16532">
        <ele>137.80000305176</ele>
        <time>2021-09-05T07:59:03.000Z</time>
      </trkpt>
      <trkpt lat="50.64732" lon="5.165">
        <ele>137.80000305176</ele>
        <time>2021-09-05T07:59:08.000Z</time>
      </trkpt>
      <trkpt lat="50.64738" lon="5.16495">
        <ele>137.60000610352</ele>
        <time>2021-09-05T07:59:09.000Z</time>
      </trkpt>
      <trkpt lat="50.64745" lon="5.1649">
        <ele>137.39999389648</ele>
        <time>2021-09-05T07:59:10.000Z</time>
      </trkpt>
      <trkpt lat="50.648" lon="5.16453">
        <ele>137</ele>
        <time>2021-09-05T07:59:19.000Z</time>
      </trkpt>
      <trkpt lat="50.64849" lon="5.16419">
        <ele>137.39999389648</ele>
        <time>2021-09-05T07:59:27.000Z</time>
      </trkpt>
      <trkpt lat="50.64873" lon="5.16402">
        <ele>137.60000610352</ele>
        <time>2021-09-05T07:59:31.000Z</time>
      </trkpt>
      <trkpt lat="50.64908" lon="5.16378">
        <ele>138</ele>
        <time>2021-09-05T07:59:37.000Z</time>
      </trkpt>
      <trkpt lat="50.64936" lon="5.16354">
        <ele>138.60000610352</ele>
        <time>2021-09-05T07:59:42.000Z</time>
      </trkpt>
      <trkpt lat="50.64963" lon="5.16328">
        <ele>139</ele>
        <time>2021-09-05T07:59:47.000Z</time>
      </trkpt>
      <trkpt lat="50.65006" lon="5.16285">
        <ele>140</ele>
        <time>2021-09-05T07:59:55.000Z</time>
      </trkpt>
      <trkpt lat="50.65052" lon="5.16232">
        <ele>141.39999389648</ele>
        <time>2021-09-05T08:00:04.000Z</time>
      </trkpt>
      <trkpt lat="50.65063" lon="5.16218">
        <ele>141.60000610352</ele>
        <time>2021-09-05T08:00:06.000Z</time>
      </trkpt>
      <trkpt lat="50.65073" lon="5.16205">
        <ele>141.60000610352</ele>
        <time>2021-09-05T08:00:08.000Z</time>
      </trkpt>
      <trkpt lat="50.65116" lon="5.16149">
        <ele>141.39999389648</ele>
        <time>2021-09-05T08:00:16.000Z</time>
      </trkpt>
      <trkpt lat="50.65122" lon="5.16142">
        <ele>141.39999389648</ele>
        <time>2021-09-05T08:00:17.000Z</time>
      </trkpt>
      <trkpt lat="50.65133" lon="5.1613">
        <ele>141</ele>
        <time>2021-09-05T08:00:19.000Z</time>
      </trkpt>
      <trkpt lat="50.65158" lon="5.16108">
        <ele>140.60000610352</ele>
        <time>2021-09-05T08:00:23.000Z</time>
      </trkpt>
      <trkpt lat="50.65171" lon="5.16098">
        <ele>140.39999389648</ele>
        <time>2021-09-05T08:00:25.000Z</time>
      </trkpt>
      <trkpt lat="50.65222" lon="5.16058">
        <ele>139.19999694824</ele>
        <time>2021-09-05T08:00:33.000Z</time>
      </trkpt>
      <trkpt lat="50.65241" lon="5.16043">
        <ele>139</ele>
        <time>2021-09-05T08:00:36.000Z</time>
      </trkpt>
      <trkpt lat="50.65254" lon="5.16032">
        <ele>139</ele>
        <time>2021-09-05T08:00:38.000Z</time>
      </trkpt>
      <trkpt lat="50.65304" lon="5.15988">
        <ele>137.80000305176</ele>
        <time>2021-09-05T08:00:46.000Z</time>
      </trkpt>
      <trkpt lat="50.65322" lon="5.1597">
        <ele>137.60000610352</ele>
        <time>2021-09-05T08:00:49.000Z</time>
      </trkpt>
      <trkpt lat="50.65328" lon="5.15964">
        <ele>137.60000610352</ele>
        <time>2021-09-05T08:00:50.000Z</time>
      </trkpt>
      <trkpt lat="50.65347" lon="5.15946">
        <ele>136.80000305176</ele>
        <time>2021-09-05T08:00:53.000Z</time>
      </trkpt>
      <trkpt lat="50.65395" lon="5.15899">
        <ele>136.19999694824</ele>
        <time>2021-09-05T08:01:01.000Z</time>
      </trkpt>
      <trkpt lat="50.65413" lon="5.15881">
        <ele>135.60000610352</ele>
        <time>2021-09-05T08:01:04.000Z</time>
      </trkpt>
      <trkpt lat="50.65425" lon="5.15869">
        <ele>135.39999389648</ele>
        <time>2021-09-05T08:01:06.000Z</time>
      </trkpt>
      <trkpt lat="50.65461" lon="5.15833">
        <ele>134.80000305176</ele>
        <time>2021-09-05T08:01:12.000Z</time>
      </trkpt>
      <trkpt lat="50.65479" lon="5.15814">
        <ele>134.39999389648</ele>
        <time>2021-09-05T08:01:15.000Z</time>
      </trkpt>
      <trkpt lat="50.65496" lon="5.15794">
        <ele>133.80000305176</ele>
        <time>2021-09-05T08:01:18.000Z</time>
      </trkpt>
      <trkpt lat="50.65542" lon="5.1574">
        <ele>133</ele>
        <time>2021-09-05T08:01:26.000Z</time>
      </trkpt>
      <trkpt lat="50.65559" lon="5.1572">
        <ele>132.39999389648</ele>
        <time>2021-09-05T08:01:29.000Z</time>
      </trkpt>
      <trkpt lat="50.65564" lon="5.15714">
        <ele>132.39999389648</ele>
        <time>2021-09-05T08:01:30.000Z</time>
      </trkpt>
      <trkpt lat="50.6561" lon="5.15659">
        <ele>131.39999389648</ele>
        <time>2021-09-05T08:01:38.000Z</time>
      </trkpt>
      <trkpt lat="50.65632" lon="5.15634">
        <ele>131.19999694824</ele>
        <time>2021-09-05T08:01:42.000Z</time>
      </trkpt>
      <trkpt lat="50.65679" lon="5.15581">
        <ele>131.19999694824</ele>
        <time>2021-09-05T08:01:51.000Z</time>
      </trkpt>
      <trkpt lat="50.65691" lon="5.15572">
        <ele>131.19999694824</ele>
        <time>2021-09-05T08:01:53.000Z</time>
      </trkpt>
      <trkpt lat="50.65738" lon="5.15548">
        <ele>131.80000305176</ele>
        <time>2021-09-05T08:02:01.000Z</time>
      </trkpt>
      <trkpt lat="50.65744" lon="5.15545">
        <ele>132</ele>
        <time>2021-09-05T08:02:02.000Z</time>
      </trkpt>
      <trkpt lat="50.65796" lon="5.1552">
        <ele>133</ele>
        <time>2021-09-05T08:02:11.000Z</time>
      </trkpt>
      <trkpt lat="50.65814" lon="5.15512">
        <ele>133.39999389648</ele>
        <time>2021-09-05T08:02:14.000Z</time>
      </trkpt>
      <trkpt lat="50.65857" lon="5.155">
        <ele>134</ele>
        <time>2021-09-05T08:02:21.000Z</time>
      </trkpt>
      <trkpt lat="50.65911" lon="5.15496">
        <ele>134.39999389648</ele>
        <time>2021-09-05T08:02:29.000Z</time>
      </trkpt>
      <trkpt lat="50.65938" lon="5.15493">
        <ele>134.19999694824</ele>
        <time>2021-09-05T08:02:33.000Z</time>
      </trkpt>
      <trkpt lat="50.65992" lon="5.15489">
        <ele>133</ele>
        <time>2021-09-05T08:02:41.000Z</time>
      </trkpt>
      <trkpt lat="50.66026" lon="5.15486">
        <ele>132.80000305176</ele>
        <time>2021-09-05T08:02:46.000Z</time>
      </trkpt>
      <trkpt lat="50.66054" lon="5.15485">
        <ele>132.19999694824</ele>
        <time>2021-09-05T08:02:50.000Z</time>
      </trkpt>
      <trkpt lat="50.66067" lon="5.1549">
        <ele>132</ele>
        <time>2021-09-05T08:02:52.000Z</time>
      </trkpt>
      <trkpt lat="50.66074" lon="5.15494">
        <ele>132</ele>
        <time>2021-09-05T08:02:53.000Z</time>
      </trkpt>
      <trkpt lat="50.6609" lon="5.15512">
        <ele>131.80000305176</ele>
        <time>2021-09-05T08:02:56.000Z</time>
      </trkpt>
      <trkpt lat="50.66123" lon="5.15564">
        <ele>131</ele>
        <time>2021-09-05T08:03:03.000Z</time>
      </trkpt>
      <trkpt lat="50.66137" lon="5.15589">
        <ele>130.80000305176</ele>
        <time>2021-09-05T08:03:06.000Z</time>
      </trkpt>
      <trkpt lat="50.66149" lon="5.15616">
        <ele>130.39999389648</ele>
        <time>2021-09-05T08:03:09.000Z</time>
      </trkpt>
      <trkpt lat="50.66166" lon="5.15657">
        <ele>130.19999694824</ele>
        <time>2021-09-05T08:03:14.000Z</time>
      </trkpt>
      <trkpt lat="50.66172" lon="5.15661">
        <ele>130</ele>
        <time>2021-09-05T08:03:15.000Z</time>
      </trkpt>
      <trkpt lat="50.66178" lon="5.15662">
        <ele>129.80000305176</ele>
        <time>2021-09-05T08:03:16.000Z</time>
      </trkpt>
      <trkpt lat="50.66184" lon="5.1566">
        <ele>129.80000305176</ele>
        <time>2021-09-05T08:03:17.000Z</time>
      </trkpt>
      <trkpt lat="50.6619" lon="5.15656">
        <ele>129.60000610352</ele>
        <time>2021-09-05T08:03:18.000Z</time>
      </trkpt>
      <trkpt lat="50.66209" lon="5.15642">
        <ele>129.19999694824</ele>
        <time>2021-09-05T08:03:21.000Z</time>
      </trkpt>
      <trkpt lat="50.66229" lon="5.15626">
        <ele>129</ele>
        <time>2021-09-05T08:03:24.000Z</time>
      </trkpt>
      <trkpt lat="50.66242" lon="5.15615">
        <ele>128.80000305176</ele>
        <time>2021-09-05T08:03:26.000Z</time>
      </trkpt>
      <trkpt lat="50.6628" lon="5.15584">
        <ele>127</ele>
        <time>2021-09-05T08:03:32.000Z</time>
      </trkpt>
      <trkpt lat="50.66292" lon="5.15576">
        <ele>126.59999847412</ele>
        <time>2021-09-05T08:03:34.000Z</time>
      </trkpt>
      <trkpt lat="50.66311" lon="5.1557">
        <ele>126.19999694824</ele>
        <time>2021-09-05T08:03:37.000Z</time>
      </trkpt>
      <trkpt lat="50.66317" lon="5.15569">
        <ele>126.19999694824</ele>
        <time>2021-09-05T08:03:38.000Z</time>
      </trkpt>
      <trkpt lat="50.66328" lon="5.1557">
        <ele>125.80000305176</ele>
        <time>2021-09-05T08:03:40.000Z</time>
      </trkpt>
      <trkpt lat="50.66334" lon="5.15571">
        <ele>125.80000305176</ele>
        <time>2021-09-05T08:03:41.000Z</time>
      </trkpt>
      <trkpt lat="50.66351" lon="5.15574">
        <ele>125.80000305176</ele>
        <time>2021-09-05T08:03:44.000Z</time>
      </trkpt>
      <trkpt lat="50.66362" lon="5.15571">
        <ele>125.40000152588</ele>
        <time>2021-09-05T08:03:46.000Z</time>
      </trkpt>
      <trkpt lat="50.66374" lon="5.15562">
        <ele>125.19999694824</ele>
        <time>2021-09-05T08:03:48.000Z</time>
      </trkpt>
      <trkpt lat="50.66385" lon="5.15551">
        <ele>124.80000305176</ele>
        <time>2021-09-05T08:03:50.000Z</time>
      </trkpt>
      <trkpt lat="50.66436" lon="5.15501">
        <ele>124.40000152588</ele>
        <time>2021-09-05T08:03:59.000Z</time>
      </trkpt>
      <trkpt lat="50.66457" lon="5.1546">
        <ele>124.19999694824</ele>
        <time>2021-09-05T08:04:04.000Z</time>
      </trkpt>
      <trkpt lat="50.66471" lon="5.15411">
        <ele>124.40000152588</ele>
        <time>2021-09-05T08:04:09.000Z</time>
      </trkpt>
      <trkpt lat="50.66488" lon="5.15338">
        <ele>124.19999694824</ele>
        <time>2021-09-05T08:04:16.000Z</time>
      </trkpt>
      <trkpt lat="50.66497" lon="5.15308">
        <ele>124.19999694824</ele>
        <time>2021-09-05T08:04:19.000Z</time>
      </trkpt>
      <trkpt lat="50.66506" lon="5.15291">
        <ele>124</ele>
        <time>2021-09-05T08:04:21.000Z</time>
      </trkpt>
      <trkpt lat="50.66516" lon="5.15276">
        <ele>124</ele>
        <time>2021-09-05T08:04:23.000Z</time>
      </trkpt>
      <trkpt lat="50.66528" lon="5.15266">
        <ele>123.80000305176</ele>
        <time>2021-09-05T08:04:25.000Z</time>
      </trkpt>
      <trkpt lat="50.66534" lon="5.15262">
        <ele>123.80000305176</ele>
        <time>2021-09-05T08:04:26.000Z</time>
      </trkpt>
      <trkpt lat="50.66589" lon="5.15231">
        <ele>124</ele>
        <time>2021-09-05T08:04:35.000Z</time>
      </trkpt>
      <trkpt lat="50.66613" lon="5.15217">
        <ele>124.19999694824</ele>
        <time>2021-09-05T08:04:39.000Z</time>
      </trkpt>
      <trkpt lat="50.66661" lon="5.1519">
        <ele>125.19999694824</ele>
        <time>2021-09-05T08:04:47.000Z</time>
      </trkpt>
      <trkpt lat="50.66685" lon="5.15176">
        <ele>125.40000152588</ele>
        <time>2021-09-05T08:04:51.000Z</time>
      </trkpt>
      <trkpt lat="50.66715" lon="5.15162">
        <ele>125.80000305176</ele>
        <time>2021-09-05T08:04:56.000Z</time>
      </trkpt>
      <trkpt lat="50.66726" lon="5.15158">
        <ele>125.80000305176</ele>
        <time>2021-09-05T08:04:58.000Z</time>
      </trkpt>
      <trkpt lat="50.66744" lon="5.15155">
        <ele>126.40000152588</ele>
        <time>2021-09-05T08:05:01.000Z</time>
      </trkpt>
      <trkpt lat="50.66767" lon="5.1515">
        <ele>126.59999847412</ele>
        <time>2021-09-05T08:05:05.000Z</time>
      </trkpt>
      <trkpt lat="50.66784" lon="5.15145">
        <ele>126.80000305176</ele>
        <time>2021-09-05T08:05:08.000Z</time>
      </trkpt>
      <trkpt lat="50.66825" lon="5.15133">
        <ele>127.59999847412</ele>
        <time>2021-09-05T08:05:15.000Z</time>
      </trkpt>
      <trkpt lat="50.66843" lon="5.15128">
        <ele>128</ele>
        <time>2021-09-05T08:05:18.000Z</time>
      </trkpt>
      <trkpt lat="50.66878" lon="5.15117">
        <ele>128.60000610352</ele>
        <time>2021-09-05T08:05:24.000Z</time>
      </trkpt>
      <trkpt lat="50.66906" lon="5.1511">
        <ele>129.60000610352</ele>
        <time>2021-09-05T08:05:29.000Z</time>
      </trkpt>
      <trkpt lat="50.66935" lon="5.15103">
        <ele>130.39999389648</ele>
        <time>2021-09-05T08:05:34.000Z</time>
      </trkpt>
      <trkpt lat="50.66962" lon="5.15092">
        <ele>130.60000610352</ele>
        <time>2021-09-05T08:05:39.000Z</time>
      </trkpt>
      <trkpt lat="50.66978" lon="5.15081">
        <ele>131.19999694824</ele>
        <time>2021-09-05T08:05:42.000Z</time>
      </trkpt>
      <trkpt lat="50.67006" lon="5.1506">
        <ele>131.60000610352</ele>
        <time>2021-09-05T08:05:47.000Z</time>
      </trkpt>
      <trkpt lat="50.6703" lon="5.15041">
        <ele>131.80000305176</ele>
        <time>2021-09-05T08:05:51.000Z</time>
      </trkpt>
      <trkpt lat="50.67062" lon="5.1502">
        <ele>131.80000305176</ele>
        <time>2021-09-05T08:05:56.000Z</time>
      </trkpt>
      <trkpt lat="50.67087" lon="5.15008">
        <ele>131.60000610352</ele>
        <time>2021-09-05T08:06:00.000Z</time>
      </trkpt>
      <trkpt lat="50.67111" lon="5.14995">
        <ele>130.80000305176</ele>
        <time>2021-09-05T08:06:04.000Z</time>
      </trkpt>
      <trkpt lat="50.67147" lon="5.14986">
        <ele>130.80000305176</ele>
        <time>2021-09-05T08:06:10.000Z</time>
      </trkpt>
      <trkpt lat="50.67202" lon="5.14973">
        <ele>131</ele>
        <time>2021-09-05T08:06:19.000Z</time>
      </trkpt>
      <trkpt lat="50.67208" lon="5.14969">
        <ele>131</ele>
        <time>2021-09-05T08:06:20.000Z</time>
      </trkpt>
      <trkpt lat="50.6722" lon="5.1496">
        <ele>131.19999694824</ele>
        <time>2021-09-05T08:06:22.000Z</time>
      </trkpt>
      <trkpt lat="50.67239" lon="5.14943">
        <ele>131.19999694824</ele>
        <time>2021-09-05T08:06:25.000Z</time>
      </trkpt>
      <trkpt lat="50.67245" lon="5.14937">
        <ele>131</ele>
        <time>2021-09-05T08:06:26.000Z</time>
      </trkpt>
      <trkpt lat="50.67294" lon="5.14892">
        <ele>130</ele>
        <time>2021-09-05T08:06:34.000Z</time>
      </trkpt>
      <trkpt lat="50.67335" lon="5.14855">
        <ele>129</ele>
        <time>2021-09-05T08:06:41.000Z</time>
      </trkpt>
      <trkpt lat="50.67378" lon="5.14812">
        <ele>129</ele>
        <time>2021-09-05T08:06:49.000Z</time>
      </trkpt>
      <trkpt lat="50.67395" lon="5.14798">
        <ele>129</ele>
        <time>2021-09-05T08:06:52.000Z</time>
      </trkpt>
      <trkpt lat="50.67426" lon="5.14768">
        <ele>129.39999389648</ele>
        <time>2021-09-05T08:06:58.000Z</time>
      </trkpt>
      <trkpt lat="50.67441" lon="5.14754">
        <ele>129.80000305176</ele>
        <time>2021-09-05T08:07:01.000Z</time>
      </trkpt>
      <trkpt lat="50.6747" lon="5.14725">
        <ele>130.39999389648</ele>
        <time>2021-09-05T08:07:07.000Z</time>
      </trkpt>
      <trkpt lat="50.67475" lon="5.1472">
        <ele>130.60000610352</ele>
        <time>2021-09-05T08:07:08.000Z</time>
      </trkpt>
      <trkpt lat="50.67497" lon="5.14696">
        <ele>131.60000610352</ele>
        <time>2021-09-05T08:07:13.000Z</time>
      </trkpt>
      <trkpt lat="50.67515" lon="5.14677">
        <ele>132.19999694824</ele>
        <time>2021-09-05T08:07:17.000Z</time>
      </trkpt>
      <trkpt lat="50.67529" lon="5.14663">
        <ele>132.80000305176</ele>
        <time>2021-09-05T08:07:20.000Z</time>
      </trkpt>
      <trkpt lat="50.67533" lon="5.14659">
        <ele>133.19999694824</ele>
        <time>2021-09-05T08:07:21.000Z</time>
      </trkpt>
      <trkpt lat="50.67553" lon="5.14646">
        <ele>134</ele>
        <time>2021-09-05T08:07:25.000Z</time>
      </trkpt>
      <trkpt lat="50.67558" lon="5.14644">
        <ele>134.39999389648</ele>
        <time>2021-09-05T08:07:26.000Z</time>
      </trkpt>
      <trkpt lat="50.67589" lon="5.14641">
        <ele>135.60000610352</ele>
        <time>2021-09-05T08:07:32.000Z</time>
      </trkpt>
      <trkpt lat="50.67595" lon="5.14641">
        <ele>135.80000305176</ele>
        <time>2021-09-05T08:07:33.000Z</time>
      </trkpt>
      <trkpt lat="50.67636" lon="5.14643">
        <ele>137.60000610352</ele>
        <time>2021-09-05T08:07:40.000Z</time>
      </trkpt>
      <trkpt lat="50.67682" lon="5.14646">
        <ele>138.60000610352</ele>
        <time>2021-09-05T08:07:48.000Z</time>
      </trkpt>
      <trkpt lat="50.67736" lon="5.14647">
        <ele>138.80000305176</ele>
        <time>2021-09-05T08:07:57.000Z</time>
      </trkpt>
      <trkpt lat="50.67742" lon="5.14645">
        <ele>138.80000305176</ele>
        <time>2021-09-05T08:07:58.000Z</time>
      </trkpt>
      <trkpt lat="50.67755" lon="5.14636">
        <ele>138.80000305176</ele>
        <time>2021-09-05T08:08:00.000Z</time>
      </trkpt>
      <trkpt lat="50.67761" lon="5.1463">
        <ele>139</ele>
        <time>2021-09-05T08:08:01.000Z</time>
      </trkpt>
      <trkpt lat="50.67793" lon="5.14585">
        <ele>138.60000610352</ele>
        <time>2021-09-05T08:08:07.000Z</time>
      </trkpt>
      <trkpt lat="50.67833" lon="5.14524">
        <ele>137.60000610352</ele>
        <time>2021-09-05T08:08:15.000Z</time>
      </trkpt>
      <trkpt lat="50.67838" lon="5.14516">
        <ele>137.39999389648</ele>
        <time>2021-09-05T08:08:16.000Z</time>
      </trkpt>
      <trkpt lat="50.67848" lon="5.14501">
        <ele>137.19999694824</ele>
        <time>2021-09-05T08:08:18.000Z</time>
      </trkpt>
      <trkpt lat="50.67877" lon="5.14459">
        <ele>136.80000305176</ele>
        <time>2021-09-05T08:08:24.000Z</time>
      </trkpt>
      <trkpt lat="50.6789" lon="5.14439">
        <ele>136.80000305176</ele>
        <time>2021-09-05T08:08:27.000Z</time>
      </trkpt>
      <trkpt lat="50.67907" lon="5.14413">
        <ele>137</ele>
        <time>2021-09-05T08:08:31.000Z</time>
      </trkpt>
      <trkpt lat="50.67929" lon="5.14382">
        <ele>137.60000610352</ele>
        <time>2021-09-05T08:08:36.000Z</time>
      </trkpt>
      <trkpt lat="50.67937" lon="5.14369">
        <ele>138</ele>
        <time>2021-09-05T08:08:38.000Z</time>
      </trkpt>
      <trkpt lat="50.67954" lon="5.14343">
        <ele>138.60000610352</ele>
        <time>2021-09-05T08:08:42.000Z</time>
      </trkpt>
      <trkpt lat="50.6798" lon="5.14305">
        <ele>140</ele>
        <time>2021-09-05T08:08:48.000Z</time>
      </trkpt>
      <trkpt lat="50.68019" lon="5.14247">
        <ele>140.80000305176</ele>
        <time>2021-09-05T08:08:56.000Z</time>
      </trkpt>
      <trkpt lat="50.68056" lon="5.14192">
        <ele>140.80000305176</ele>
        <time>2021-09-05T08:09:03.000Z</time>
      </trkpt>
      <trkpt lat="50.68067" lon="5.14176">
        <ele>140.60000610352</ele>
        <time>2021-09-05T08:09:05.000Z</time>
      </trkpt>
      <trkpt lat="50.68094" lon="5.14135">
        <ele>140</ele>
        <time>2021-09-05T08:09:10.000Z</time>
      </trkpt>
      <trkpt lat="50.68127" lon="5.14086">
        <ele>139.19999694824</ele>
        <time>2021-09-05T08:09:16.000Z</time>
      </trkpt>
      <trkpt lat="50.68167" lon="5.14027">
        <ele>138.39999389648</ele>
        <time>2021-09-05T08:09:24.000Z</time>
      </trkpt>
      <trkpt lat="50.68176" lon="5.14013">
        <ele>138.39999389648</ele>
        <time>2021-09-05T08:09:26.000Z</time>
      </trkpt>
      <trkpt lat="50.68181" lon="5.14006">
        <ele>138.39999389648</ele>
        <time>2021-09-05T08:09:27.000Z</time>
      </trkpt>
      <trkpt lat="50.68208" lon="5.13965">
        <ele>138.80000305176</ele>
        <time>2021-09-05T08:09:33.000Z</time>
      </trkpt>
      <trkpt lat="50.6822" lon="5.13942">
        <ele>139.19999694824</ele>
        <time>2021-09-05T08:09:36.000Z</time>
      </trkpt>
      <trkpt lat="50.68231" lon="5.13919">
        <ele>139.60000610352</ele>
        <time>2021-09-05T08:09:39.000Z</time>
      </trkpt>
      <trkpt lat="50.68256" lon="5.13866">
        <ele>141</ele>
        <time>2021-09-05T08:09:46.000Z</time>
      </trkpt>
      <trkpt lat="50.68285" lon="5.13806">
        <ele>141.39999389648</ele>
        <time>2021-09-05T08:09:53.000Z</time>
      </trkpt>
      <trkpt lat="50.68289" lon="5.13796">
        <ele>141.39999389648</ele>
        <time>2021-09-05T08:09:54.000Z</time>
      </trkpt>
      <trkpt lat="50.68303" lon="5.13767">
        <ele>141.39999389648</ele>
        <time>2021-09-05T08:09:57.000Z</time>
      </trkpt>
      <trkpt lat="50.68321" lon="5.13725">
        <ele>140.80000305176</ele>
        <time>2021-09-05T08:10:01.000Z</time>
      </trkpt>
      <trkpt lat="50.68326" lon="5.13714">
        <ele>140.60000610352</ele>
        <time>2021-09-05T08:10:02.000Z</time>
      </trkpt>
      <trkpt lat="50.68338" lon="5.13679">
        <ele>139.60000610352</ele>
        <time>2021-09-05T08:10:05.000Z</time>
      </trkpt>
      <trkpt lat="50.68355" lon="5.13633">
        <ele>138.80000305176</ele>
        <time>2021-09-05T08:10:09.000Z</time>
      </trkpt>
      <trkpt lat="50.68372" lon="5.13587">
        <ele>137.60000610352</ele>
        <time>2021-09-05T08:10:13.000Z</time>
      </trkpt>
      <trkpt lat="50.68388" lon="5.13542">
        <ele>136.60000610352</ele>
        <time>2021-09-05T08:10:17.000Z</time>
      </trkpt>
      <trkpt lat="50.68396" lon="5.1352">
        <ele>135.60000610352</ele>
        <time>2021-09-05T08:10:19.000Z</time>
      </trkpt>
      <trkpt lat="50.68412" lon="5.13477">
        <ele>135.19999694824</ele>
        <time>2021-09-05T08:10:23.000Z</time>
      </trkpt>
      <trkpt lat="50.6843" lon="5.13413">
        <ele>133.60000610352</ele>
        <time>2021-09-05T08:10:29.000Z</time>
      </trkpt>
      <trkpt lat="50.68443" lon="5.13334">
        <ele>132.80000305176</ele>
        <time>2021-09-05T08:10:36.000Z</time>
      </trkpt>
      <trkpt lat="50.68449" lon="5.133">
        <ele>132.60000610352</ele>
        <time>2021-09-05T08:10:39.000Z</time>
      </trkpt>
      <trkpt lat="50.68459" lon="5.13233">
        <ele>132</ele>
        <time>2021-09-05T08:10:45.000Z</time>
      </trkpt>
      <trkpt lat="50.68469" lon="5.13167">
        <ele>131.19999694824</ele>
        <time>2021-09-05T08:10:51.000Z</time>
      </trkpt>
      <trkpt lat="50.68483" lon="5.13082">
        <ele>131</ele>
        <time>2021-09-05T08:10:59.000Z</time>
      </trkpt>
      <trkpt lat="50.68493" lon="5.13021">
        <ele>131</ele>
        <time>2021-09-05T08:11:05.000Z</time>
      </trkpt>
      <trkpt lat="50.68498" lon="5.1299">
        <ele>131.19999694824</ele>
        <time>2021-09-05T08:11:08.000Z</time>
      </trkpt>
      <trkpt lat="50.68506" lon="5.12938">
        <ele>131.39999389648</ele>
        <time>2021-09-05T08:11:13.000Z</time>
      </trkpt>
      <trkpt lat="50.6851" lon="5.12917">
        <ele>131.80000305176</ele>
        <time>2021-09-05T08:11:15.000Z</time>
      </trkpt>
      <trkpt lat="50.68524" lon="5.12859">
        <ele>132.60000610352</ele>
        <time>2021-09-05T08:11:21.000Z</time>
      </trkpt>
      <trkpt lat="50.68551" lon="5.12803">
        <ele>132.80000305176</ele>
        <time>2021-09-05T08:11:28.000Z</time>
      </trkpt>
      <trkpt lat="50.68555" lon="5.12795">
        <ele>133</ele>
        <time>2021-09-05T08:11:29.000Z</time>
      </trkpt>
      <trkpt lat="50.68584" lon="5.12743">
        <ele>133.60000610352</ele>
        <time>2021-09-05T08:11:36.000Z</time>
      </trkpt>
      <trkpt lat="50.68592" lon="5.12729">
        <ele>134</ele>
        <time>2021-09-05T08:11:38.000Z</time>
      </trkpt>
      <trkpt lat="50.6863" lon="5.12655">
        <ele>135</ele>
        <time>2021-09-05T08:11:47.000Z</time>
      </trkpt>
      <trkpt lat="50.68648" lon="5.12607">
        <ele>135</ele>
        <time>2021-09-05T08:11:52.000Z</time>
      </trkpt>
      <trkpt lat="50.68659" lon="5.12578">
        <ele>135</ele>
        <time>2021-09-05T08:11:55.000Z</time>
      </trkpt>
      <trkpt lat="50.68681" lon="5.12515">
        <ele>134</ele>
        <time>2021-09-05T08:12:02.000Z</time>
      </trkpt>
      <trkpt lat="50.68693" lon="5.12482">
        <ele>133.19999694824</ele>
        <time>2021-09-05T08:12:06.000Z</time>
      </trkpt>
      <trkpt lat="50.68702" lon="5.12459">
        <ele>133.19999694824</ele>
        <time>2021-09-05T08:12:09.000Z</time>
      </trkpt>
      <trkpt lat="50.68705" lon="5.1245">
        <ele>133</ele>
        <time>2021-09-05T08:12:10.000Z</time>
      </trkpt>
      <trkpt lat="50.68717" lon="5.12414">
        <ele>132.19999694824</ele>
        <time>2021-09-05T08:12:14.000Z</time>
      </trkpt>
      <trkpt lat="50.6872" lon="5.12404">
        <ele>132</ele>
        <time>2021-09-05T08:12:15.000Z</time>
      </trkpt>
      <trkpt lat="50.68735" lon="5.12362">
        <ele>131.39999389648</ele>
        <time>2021-09-05T08:12:19.000Z</time>
      </trkpt>
      <trkpt lat="50.68746" lon="5.12328">
        <ele>130.80000305176</ele>
        <time>2021-09-05T08:12:22.000Z</time>
      </trkpt>
      <trkpt lat="50.68754" lon="5.12292">
        <ele>130.19999694824</ele>
        <time>2021-09-05T08:12:25.000Z</time>
      </trkpt>
      <trkpt lat="50.68771" lon="5.1222">
        <ele>127.80000305176</ele>
        <time>2021-09-05T08:12:31.000Z</time>
      </trkpt>
      <trkpt lat="50.68773" lon="5.12208">
        <ele>127.80000305176</ele>
        <time>2021-09-05T08:12:32.000Z</time>
      </trkpt>
      <trkpt lat="50.68788" lon="5.12142">
        <ele>126.40000152588</ele>
        <time>2021-09-05T08:12:38.000Z</time>
      </trkpt>
      <trkpt lat="50.68793" lon="5.12121">
        <ele>126.19999694824</ele>
        <time>2021-09-05T08:12:40.000Z</time>
      </trkpt>
      <trkpt lat="50.68811" lon="5.12048">
        <ele>125.19999694824</ele>
        <time>2021-09-05T08:12:47.000Z</time>
      </trkpt>
      <trkpt lat="50.68817" lon="5.12016">
        <ele>125</ele>
        <time>2021-09-05T08:12:50.000Z</time>
      </trkpt>
      <trkpt lat="50.68832" lon="5.11956">
        <ele>124.80000305176</ele>
        <time>2021-09-05T08:12:56.000Z</time>
      </trkpt>
      <trkpt lat="50.68838" lon="5.11927">
        <ele>125.19999694824</ele>
        <time>2021-09-05T08:12:59.000Z</time>
      </trkpt>
      <trkpt lat="50.6885" lon="5.11868">
        <ele>126.19999694824</ele>
        <time>2021-09-05T08:13:05.000Z</time>
      </trkpt>
      <trkpt lat="50.6886" lon="5.11831">
        <ele>126.19999694824</ele>
        <time>2021-09-05T08:13:09.000Z</time>
      </trkpt>
      <trkpt lat="50.68866" lon="5.11803">
        <ele>126.59999847412</ele>
        <time>2021-09-05T08:13:12.000Z</time>
      </trkpt>
      <trkpt lat="50.68871" lon="5.11775">
        <ele>127</ele>
        <time>2021-09-05T08:13:15.000Z</time>
      </trkpt>
      <trkpt lat="50.68881" lon="5.11711">
        <ele>128</ele>
        <time>2021-09-05T08:13:22.000Z</time>
      </trkpt>
      <trkpt lat="50.68883" lon="5.11702">
        <ele>128.19999694824</ele>
        <time>2021-09-05T08:13:23.000Z</time>
      </trkpt>
      <trkpt lat="50.6889" lon="5.11658">
        <ele>129</ele>
        <time>2021-09-05T08:13:28.000Z</time>
      </trkpt>
      <trkpt lat="50.68895" lon="5.11622">
        <ele>129.80000305176</ele>
        <time>2021-09-05T08:13:32.000Z</time>
      </trkpt>
      <trkpt lat="50.68898" lon="5.11604">
        <ele>130</ele>
        <time>2021-09-05T08:13:34.000Z</time>
      </trkpt>
      <trkpt lat="50.68904" lon="5.11569">
        <ele>130.80000305176</ele>
        <time>2021-09-05T08:13:38.000Z</time>
      </trkpt>
      <trkpt lat="50.68916" lon="5.11507">
        <ele>132.60000610352</ele>
        <time>2021-09-05T08:13:45.000Z</time>
      </trkpt>
      <trkpt lat="50.68932" lon="5.11423">
        <ele>134.19999694824</ele>
        <time>2021-09-05T08:13:54.000Z</time>
      </trkpt>
      <trkpt lat="50.68933" lon="5.11413">
        <ele>134.19999694824</ele>
        <time>2021-09-05T08:13:55.000Z</time>
      </trkpt>
      <trkpt lat="50.68938" lon="5.1137">
        <ele>134</ele>
        <time>2021-09-05T08:13:59.000Z</time>
      </trkpt>
      <trkpt lat="50.68942" lon="5.11336">
        <ele>134</ele>
        <time>2021-09-05T08:14:02.000Z</time>
      </trkpt>
      <trkpt lat="50.68943" lon="5.11324">
        <ele>134.19999694824</ele>
        <time>2021-09-05T08:14:03.000Z</time>
      </trkpt>
      <trkpt lat="50.68949" lon="5.11267">
        <ele>133</ele>
        <time>2021-09-05T08:14:08.000Z</time>
      </trkpt>
      <trkpt lat="50.68954" lon="5.11209">
        <ele>131.60000610352</ele>
        <time>2021-09-05T08:14:13.000Z</time>
      </trkpt>
      <trkpt lat="50.68955" lon="5.11198">
        <ele>131.39999389648</ele>
        <time>2021-09-05T08:14:14.000Z</time>
      </trkpt>
      <trkpt lat="50.68963" lon="5.11115">
        <ele>129.80000305176</ele>
        <time>2021-09-05T08:14:21.000Z</time>
      </trkpt>
      <trkpt lat="50.68968" lon="5.11067">
        <ele>129.19999694824</ele>
        <time>2021-09-05T08:14:25.000Z</time>
      </trkpt>
      <trkpt lat="50.68972" lon="5.1103">
        <ele>128.80000305176</ele>
        <time>2021-09-05T08:14:28.000Z</time>
      </trkpt>
      <trkpt lat="50.68979" lon="5.10958">
        <ele>127.40000152588</ele>
        <time>2021-09-05T08:14:34.000Z</time>
      </trkpt>
      <trkpt lat="50.68981" lon="5.10934">
        <ele>127</ele>
        <time>2021-09-05T08:14:36.000Z</time>
      </trkpt>
      <trkpt lat="50.68985" lon="5.10899">
        <ele>126.19999694824</ele>
        <time>2021-09-05T08:14:39.000Z</time>
      </trkpt>
      <trkpt lat="50.68995" lon="5.10818">
        <ele>124.59999847412</ele>
        <time>2021-09-05T08:14:46.000Z</time>
      </trkpt>
      <trkpt lat="50.68997" lon="5.10806">
        <ele>124.40000152588</ele>
        <time>2021-09-05T08:14:47.000Z</time>
      </trkpt>
      <trkpt lat="50.69012" lon="5.10714">
        <ele>123</ele>
        <time>2021-09-05T08:14:55.000Z</time>
      </trkpt>
      <trkpt lat="50.69016" lon="5.10691">
        <ele>122.80000305176</ele>
        <time>2021-09-05T08:14:57.000Z</time>
      </trkpt>
      <trkpt lat="50.69021" lon="5.10669">
        <ele>122.19999694824</ele>
        <time>2021-09-05T08:14:59.000Z</time>
      </trkpt>
      <trkpt lat="50.69029" lon="5.10648">
        <ele>122</ele>
        <time>2021-09-05T08:15:01.000Z</time>
      </trkpt>
      <trkpt lat="50.69053" lon="5.10603">
        <ele>121.59999847412</ele>
        <time>2021-09-05T08:15:06.000Z</time>
      </trkpt>
      <trkpt lat="50.69092" lon="5.10539">
        <ele>121.19999694824</ele>
        <time>2021-09-05T08:15:14.000Z</time>
      </trkpt>
      <trkpt lat="50.69101" lon="5.10522">
        <ele>121</ele>
        <time>2021-09-05T08:15:16.000Z</time>
      </trkpt>
      <trkpt lat="50.69139" lon="5.10457">
        <ele>121</ele>
        <time>2021-09-05T08:15:24.000Z</time>
      </trkpt>
      <trkpt lat="50.69147" lon="5.10441">
        <ele>121</ele>
        <time>2021-09-05T08:15:26.000Z</time>
      </trkpt>
      <trkpt lat="50.69177" lon="5.10367">
        <ele>121.19999694824</ele>
        <time>2021-09-05T08:15:34.000Z</time>
      </trkpt>
      <trkpt lat="50.69196" lon="5.10289">
        <ele>121.40000152588</ele>
        <time>2021-09-05T08:15:42.000Z</time>
      </trkpt>
      <trkpt lat="50.69204" lon="5.1025">
        <ele>121.59999847412</ele>
        <time>2021-09-05T08:15:46.000Z</time>
      </trkpt>
      <trkpt lat="50.69222" lon="5.10162">
        <ele>122.19999694824</ele>
        <time>2021-09-05T08:15:55.000Z</time>
      </trkpt>
      <trkpt lat="50.69228" lon="5.10133">
        <ele>122.59999847412</ele>
        <time>2021-09-05T08:15:58.000Z</time>
      </trkpt>
      <trkpt lat="50.69245" lon="5.10046">
        <ele>123.59999847412</ele>
        <time>2021-09-05T08:16:07.000Z</time>
      </trkpt>
      <trkpt lat="50.69247" lon="5.10036">
        <ele>123.80000305176</ele>
        <time>2021-09-05T08:16:08.000Z</time>
      </trkpt>
      <trkpt lat="50.69249" lon="5.10027">
        <ele>123.80000305176</ele>
        <time>2021-09-05T08:16:09.000Z</time>
      </trkpt>
      <trkpt lat="50.69266" lon="5.09942">
        <ele>124.59999847412</ele>
        <time>2021-09-05T08:16:18.000Z</time>
      </trkpt>
      <trkpt lat="50.69272" lon="5.09912">
        <ele>125</ele>
        <time>2021-09-05T08:16:21.000Z</time>
      </trkpt>
      <trkpt lat="50.6929" lon="5.09828">
        <ele>125.19999694824</ele>
        <time>2021-09-05T08:16:29.000Z</time>
      </trkpt>
      <trkpt lat="50.69292" lon="5.09818">
        <ele>125.19999694824</ele>
        <time>2021-09-05T08:16:30.000Z</time>
      </trkpt>
      <trkpt lat="50.69306" lon="5.09747">
        <ele>125</ele>
        <time>2021-09-05T08:16:37.000Z</time>
      </trkpt>
      <trkpt lat="50.69308" lon="5.09736">
        <ele>125</ele>
        <time>2021-09-05T08:16:38.000Z</time>
      </trkpt>
      <trkpt lat="50.6931" lon="5.09703">
        <ele>124.59999847412</ele>
        <time>2021-09-05T08:16:41.000Z</time>
      </trkpt>
      <trkpt lat="50.69309" lon="5.0968">
        <ele>124.40000152588</ele>
        <time>2021-09-05T08:16:43.000Z</time>
      </trkpt>
      <trkpt lat="50.69303" lon="5.09603">
        <ele>123.80000305176</ele>
        <time>2021-09-05T08:16:50.000Z</time>
      </trkpt>
      <trkpt lat="50.693" lon="5.09571">
        <ele>123.59999847412</ele>
        <time>2021-09-05T08:16:53.000Z</time>
      </trkpt>
      <trkpt lat="50.69295" lon="5.09551">
        <ele>123.40000152588</ele>
        <time>2021-09-05T08:16:55.000Z</time>
      </trkpt>
      <trkpt lat="50.69288" lon="5.09531">
        <ele>123.19999694824</ele>
        <time>2021-09-05T08:16:57.000Z</time>
      </trkpt>
      <trkpt lat="50.69264" lon="5.09482">
        <ele>122.80000305176</ele>
        <time>2021-09-05T08:17:03.000Z</time>
      </trkpt>
      <trkpt lat="50.69251" lon="5.09452">
        <ele>122.19999694824</ele>
        <time>2021-09-05T08:17:07.000Z</time>
      </trkpt>
      <trkpt lat="50.69249" lon="5.09443">
        <ele>122</ele>
        <time>2021-09-05T08:17:08.000Z</time>
      </trkpt>
      <trkpt lat="50.6925" lon="5.09434">
        <ele>121.80000305176</ele>
        <time>2021-09-05T08:17:09.000Z</time>
      </trkpt>
      <trkpt lat="50.69256" lon="5.09417">
        <ele>121.59999847412</ele>
        <time>2021-09-05T08:17:11.000Z</time>
      </trkpt>
      <trkpt lat="50.69287" lon="5.09373">
        <ele>121</ele>
        <time>2021-09-05T08:17:17.000Z</time>
      </trkpt>
      <trkpt lat="50.69329" lon="5.0931">
        <ele>119.80000305176</ele>
        <time>2021-09-05T08:17:25.000Z</time>
      </trkpt>
      <trkpt lat="50.69339" lon="5.09293">
        <ele>119.59999847412</ele>
        <time>2021-09-05T08:17:27.000Z</time>
      </trkpt>
      <trkpt lat="50.69358" lon="5.0926">
        <ele>119</ele>
        <time>2021-09-05T08:17:31.000Z</time>
      </trkpt>
      <trkpt lat="50.69374" lon="5.09234">
        <ele>118.59999847412</ele>
        <time>2021-09-05T08:17:34.000Z</time>
      </trkpt>
      <trkpt lat="50.69384" lon="5.09216">
        <ele>118.19999694824</ele>
        <time>2021-09-05T08:17:36.000Z</time>
      </trkpt>
      <trkpt lat="50.69417" lon="5.09166">
        <ele>117</ele>
        <time>2021-09-05T08:17:42.000Z</time>
      </trkpt>
      <trkpt lat="50.69422" lon="5.09158">
        <ele>116.80000305176</ele>
        <time>2021-09-05T08:17:43.000Z</time>
      </trkpt>
      <trkpt lat="50.69429" lon="5.09151">
        <ele>116.59999847412</ele>
        <time>2021-09-05T08:17:44.000Z</time>
      </trkpt>
      <trkpt lat="50.69442" lon="5.0914">
        <ele>116.19999694824</ele>
        <time>2021-09-05T08:17:46.000Z</time>
      </trkpt>
      <trkpt lat="50.69456" lon="5.09133">
        <ele>116.19999694824</ele>
        <time>2021-09-05T08:17:48.000Z</time>
      </trkpt>
      <trkpt lat="50.69471" lon="5.09132">
        <ele>115.80000305176</ele>
        <time>2021-09-05T08:17:50.000Z</time>
      </trkpt>
      <trkpt lat="50.69485" lon="5.09133">
        <ele>115.59999847412</ele>
        <time>2021-09-05T08:17:52.000Z</time>
      </trkpt>
      <trkpt lat="50.69513" lon="5.09137">
        <ele>115</ele>
        <time>2021-09-05T08:17:56.000Z</time>
      </trkpt>
      <trkpt lat="50.69527" lon="5.09132">
        <ele>114.80000305176</ele>
        <time>2021-09-05T08:17:58.000Z</time>
      </trkpt>
      <trkpt lat="50.69532" lon="5.09125">
        <ele>114.59999847412</ele>
        <time>2021-09-05T08:17:59.000Z</time>
      </trkpt>
      <trkpt lat="50.69536" lon="5.09117">
        <ele>114.59999847412</ele>
        <time>2021-09-05T08:18:00.000Z</time>
      </trkpt>
      <trkpt lat="50.69539" lon="5.09096">
        <ele>114</ele>
        <time>2021-09-05T08:18:02.000Z</time>
      </trkpt>
      <trkpt lat="50.69535" lon="5.09076">
        <ele>113.59999847412</ele>
        <time>2021-09-05T08:18:04.000Z</time>
      </trkpt>
      <trkpt lat="50.69531" lon="5.09067">
        <ele>113.59999847412</ele>
        <time>2021-09-05T08:18:05.000Z</time>
      </trkpt>
      <trkpt lat="50.695" lon="5.09007">
        <ele>113.40000152588</ele>
        <time>2021-09-05T08:18:12.000Z</time>
      </trkpt>
      <trkpt lat="50.69476" lon="5.08947">
        <ele>113.40000152588</ele>
        <time>2021-09-05T08:18:19.000Z</time>
      </trkpt>
      <trkpt lat="50.69471" lon="5.08931">
        <ele>113.59999847412</ele>
        <time>2021-09-05T08:18:21.000Z</time>
      </trkpt>
      <trkpt lat="50.69471" lon="5.08914">
        <ele>113.40000152588</ele>
        <time>2021-09-05T08:18:23.000Z</time>
      </trkpt>
      <trkpt lat="50.69479" lon="5.08901">
        <ele>113.59999847412</ele>
        <time>2021-09-05T08:18:25.000Z</time>
      </trkpt>
      <trkpt lat="50.69483" lon="5.08895">
        <ele>113.59999847412</ele>
        <time>2021-09-05T08:18:26.000Z</time>
      </trkpt>
      <trkpt lat="50.69489" lon="5.08891">
        <ele>113.40000152588</ele>
        <time>2021-09-05T08:18:27.000Z</time>
      </trkpt>
      <trkpt lat="50.69507" lon="5.08878">
        <ele>112.80000305176</ele>
        <time>2021-09-05T08:18:30.000Z</time>
      </trkpt>
      <trkpt lat="50.69536" lon="5.08851">
        <ele>112.19999694824</ele>
        <time>2021-09-05T08:18:35.000Z</time>
      </trkpt>
      <trkpt lat="50.69542" lon="5.08848">
        <ele>112</ele>
        <time>2021-09-05T08:18:36.000Z</time>
      </trkpt>
      <trkpt lat="50.69562" lon="5.08842">
        <ele>112</ele>
        <time>2021-09-05T08:18:39.000Z</time>
      </trkpt>
      <trkpt lat="50.69575" lon="5.08835">
        <ele>111.80000305176</ele>
        <time>2021-09-05T08:18:41.000Z</time>
      </trkpt>
      <trkpt lat="50.69619" lon="5.08808">
        <ele>111.80000305176</ele>
        <time>2021-09-05T08:18:48.000Z</time>
      </trkpt>
      <trkpt lat="50.69636" lon="5.088">
        <ele>111.80000305176</ele>
        <time>2021-09-05T08:18:51.000Z</time>
      </trkpt>
      <trkpt lat="50.69651" lon="5.0879">
        <ele>112.19999694824</ele>
        <time>2021-09-05T08:18:54.000Z</time>
      </trkpt>
      <trkpt lat="50.69658" lon="5.0878">
        <ele>112.40000152588</ele>
        <time>2021-09-05T08:18:56.000Z</time>
      </trkpt>
      <trkpt lat="50.69659" lon="5.08773">
        <ele>112.59999847412</ele>
        <time>2021-09-05T08:18:57.000Z</time>
      </trkpt>
      <trkpt lat="50.6966" lon="5.08764">
        <ele>112.59999847412</ele>
        <time>2021-09-05T08:18:58.000Z</time>
      </trkpt>
      <trkpt lat="50.69659" lon="5.08748">
        <ele>113</ele>
        <time>2021-09-05T08:19:00.000Z</time>
      </trkpt>
      <trkpt lat="50.69657" lon="5.0874">
        <ele>113.19999694824</ele>
        <time>2021-09-05T08:19:01.000Z</time>
      </trkpt>
      <trkpt lat="50.69653" lon="5.08724">
        <ele>113.19999694824</ele>
        <time>2021-09-05T08:19:03.000Z</time>
      </trkpt>
      <trkpt lat="50.69647" lon="5.08693">
        <ele>113.59999847412</ele>
        <time>2021-09-05T08:19:07.000Z</time>
      </trkpt>
      <trkpt lat="50.69644" lon="5.08678">
        <ele>114.19999694824</ele>
        <time>2021-09-05T08:19:09.000Z</time>
      </trkpt>
      <trkpt lat="50.69642" lon="5.08662">
        <ele>114.80000305176</ele>
        <time>2021-09-05T08:19:11.000Z</time>
      </trkpt>
      <trkpt lat="50.69637" lon="5.08621">
        <ele>116</ele>
        <time>2021-09-05T08:19:16.000Z</time>
      </trkpt>
      <trkpt lat="50.69635" lon="5.08603">
        <ele>116.40000152588</ele>
        <time>2021-09-05T08:19:18.000Z</time>
      </trkpt>
      <trkpt lat="50.69629" lon="5.08571">
        <ele>117.59999847412</ele>
        <time>2021-09-05T08:19:22.000Z</time>
      </trkpt>
      <trkpt lat="50.69628" lon="5.08564">
        <ele>117.80000305176</ele>
        <time>2021-09-05T08:19:23.000Z</time>
      </trkpt>
      <trkpt lat="50.69624" lon="5.08541">
        <ele>118.40000152588</ele>
        <time>2021-09-05T08:19:26.000Z</time>
      </trkpt>
      <trkpt lat="50.6962" lon="5.0851">
        <ele>119.40000152588</ele>
        <time>2021-09-05T08:19:30.000Z</time>
      </trkpt>
      <trkpt lat="50.69613" lon="5.08481">
        <ele>120.59999847412</ele>
        <time>2021-09-05T08:19:34.000Z</time>
      </trkpt>
      <trkpt lat="50.69604" lon="5.08452">
        <ele>121.80000305176</ele>
        <time>2021-09-05T08:19:38.000Z</time>
      </trkpt>
      <trkpt lat="50.69582" lon="5.08393">
        <ele>123.40000152588</ele>
        <time>2021-09-05T08:19:45.000Z</time>
      </trkpt>
      <trkpt lat="50.6956" lon="5.08343">
        <ele>123.40000152588</ele>
        <time>2021-09-05T08:19:51.000Z</time>
      </trkpt>
      <trkpt lat="50.69549" lon="5.08317">
        <ele>123.59999847412</ele>
        <time>2021-09-05T08:19:54.000Z</time>
      </trkpt>
      <trkpt lat="50.69542" lon="5.083">
        <ele>123</ele>
        <time>2021-09-05T08:19:56.000Z</time>
      </trkpt>
      <trkpt lat="50.69514" lon="5.08234">
        <ele>122</ele>
        <time>2021-09-05T08:20:04.000Z</time>
      </trkpt>
      <trkpt lat="50.69505" lon="5.08211">
        <ele>121.19999694824</ele>
        <time>2021-09-05T08:20:08.000Z</time>
      </trkpt>
      <trkpt lat="50.69502" lon="5.08199">
        <ele>120.80000305176</ele>
        <time>2021-09-05T08:20:13.000Z</time>
      </trkpt>
      <trkpt lat="50.69502" lon="5.08196">
        <ele>120.40000152588</ele>
        <time>2021-09-05T08:20:55.000Z</time>
      </trkpt>
      <trkpt lat="50.69499" lon="5.08189">
        <ele>120.59999847412</ele>
        <time>2021-09-05T08:20:57.000Z</time>
      </trkpt>
      <trkpt lat="50.69492" lon="5.08178">
        <ele>120.40000152588</ele>
        <time>2021-09-05T08:21:00.000Z</time>
      </trkpt>
      <trkpt lat="50.69489" lon="5.08172">
        <ele>120.40000152588</ele>
        <time>2021-09-05T08:21:01.000Z</time>
      </trkpt>
      <trkpt lat="50.69476" lon="5.08141">
        <ele>120.40000152588</ele>
        <time>2021-09-05T08:21:05.000Z</time>
      </trkpt>
      <trkpt lat="50.69468" lon="5.08124">
        <ele>120.40000152588</ele>
        <time>2021-09-05T08:21:07.000Z</time>
      </trkpt>
      <trkpt lat="50.69461" lon="5.08105">
        <ele>119.80000305176</ele>
        <time>2021-09-05T08:21:09.000Z</time>
      </trkpt>
      <trkpt lat="50.69441" lon="5.08054">
        <ele>118.80000305176</ele>
        <time>2021-09-05T08:21:14.000Z</time>
      </trkpt>
      <trkpt lat="50.6943" lon="5.08009">
        <ele>117.59999847412</ele>
        <time>2021-09-05T08:21:18.000Z</time>
      </trkpt>
      <trkpt lat="50.69424" lon="5.07986">
        <ele>117</ele>
        <time>2021-09-05T08:21:20.000Z</time>
      </trkpt>
      <trkpt lat="50.69413" lon="5.0794">
        <ele>116.19999694824</ele>
        <time>2021-09-05T08:21:24.000Z</time>
      </trkpt>
      <trkpt lat="50.69408" lon="5.07905">
        <ele>115</ele>
        <time>2021-09-05T08:21:27.000Z</time>
      </trkpt>
      <trkpt lat="50.69407" lon="5.07886">
        <ele>114.40000152588</ele>
        <time>2021-09-05T08:21:29.000Z</time>
      </trkpt>
      <trkpt lat="50.69408" lon="5.07878">
        <ele>114.19999694824</ele>
        <time>2021-09-05T08:21:30.000Z</time>
      </trkpt>
      <trkpt lat="50.69411" lon="5.07872">
        <ele>113.80000305176</ele>
        <time>2021-09-05T08:21:31.000Z</time>
      </trkpt>
      <trkpt lat="50.69423" lon="5.07867">
        <ele>113.19999694824</ele>
        <time>2021-09-05T08:21:33.000Z</time>
      </trkpt>
      <trkpt lat="50.6946" lon="5.07852">
        <ele>111</ele>
        <time>2021-09-05T08:21:39.000Z</time>
      </trkpt>
      <trkpt lat="50.69491" lon="5.07825">
        <ele>110.80000305176</ele>
        <time>2021-09-05T08:21:44.000Z</time>
      </trkpt>
      <trkpt lat="50.69497" lon="5.07818">
        <ele>110.59999847412</ele>
        <time>2021-09-05T08:21:45.000Z</time>
      </trkpt>
      <trkpt lat="50.69534" lon="5.07774">
        <ele>110.59999847412</ele>
        <time>2021-09-05T08:21:51.000Z</time>
      </trkpt>
      <trkpt lat="50.69545" lon="5.07757">
        <ele>110.19999694824</ele>
        <time>2021-09-05T08:21:53.000Z</time>
      </trkpt>
      <trkpt lat="50.69563" lon="5.07727">
        <ele>109.40000152588</ele>
        <time>2021-09-05T08:21:57.000Z</time>
      </trkpt>
      <trkpt lat="50.69566" lon="5.0772">
        <ele>109.19999694824</ele>
        <time>2021-09-05T08:21:58.000Z</time>
      </trkpt>
      <trkpt lat="50.69571" lon="5.07702">
        <ele>108.80000305176</ele>
        <time>2021-09-05T08:22:00.000Z</time>
      </trkpt>
      <trkpt lat="50.69571" lon="5.07691">
        <ele>108.59999847412</ele>
        <time>2021-09-05T08:22:01.000Z</time>
      </trkpt>
      <trkpt lat="50.69573" lon="5.07659">
        <ele>108.40000152588</ele>
        <time>2021-09-05T08:22:04.000Z</time>
      </trkpt>
      <trkpt lat="50.69577" lon="5.07615">
        <ele>108</ele>
        <time>2021-09-05T08:22:08.000Z</time>
      </trkpt>
      <trkpt lat="50.69579" lon="5.07583">
        <ele>107.80000305176</ele>
        <time>2021-09-05T08:22:11.000Z</time>
      </trkpt>
      <trkpt lat="50.69582" lon="5.0755">
        <ele>107.40000152588</ele>
        <time>2021-09-05T08:22:14.000Z</time>
      </trkpt>
      <trkpt lat="50.69597" lon="5.0748">
        <ele>106.80000305176</ele>
        <time>2021-09-05T08:22:21.000Z</time>
      </trkpt>
      <trkpt lat="50.69606" lon="5.07454">
        <ele>106.80000305176</ele>
        <time>2021-09-05T08:22:24.000Z</time>
      </trkpt>
      <trkpt lat="50.69616" lon="5.0743">
        <ele>106.80000305176</ele>
        <time>2021-09-05T08:22:27.000Z</time>
      </trkpt>
      <trkpt lat="50.69621" lon="5.07413">
        <ele>107</ele>
        <time>2021-09-05T08:22:29.000Z</time>
      </trkpt>
      <trkpt lat="50.69623" lon="5.07404">
        <ele>107.19999694824</ele>
        <time>2021-09-05T08:22:30.000Z</time>
      </trkpt>
      <trkpt lat="50.69623" lon="5.07395">
        <ele>107.40000152588</ele>
        <time>2021-09-05T08:22:31.000Z</time>
      </trkpt>
      <trkpt lat="50.69623" lon="5.07386">
        <ele>107.59999847412</ele>
        <time>2021-09-05T08:22:32.000Z</time>
      </trkpt>
      <trkpt lat="50.69623" lon="5.07377">
        <ele>107.80000305176</ele>
        <time>2021-09-05T08:22:33.000Z</time>
      </trkpt>
      <trkpt lat="50.69616" lon="5.07342">
        <ele>107.80000305176</ele>
        <time>2021-09-05T08:22:37.000Z</time>
      </trkpt>
      <trkpt lat="50.69614" lon="5.07334">
        <ele>108</ele>
        <time>2021-09-05T08:22:38.000Z</time>
      </trkpt>
      <trkpt lat="50.69594" lon="5.07251">
        <ele>109</ele>
        <time>2021-09-05T08:22:48.000Z</time>
      </trkpt>
      <trkpt lat="50.69594" lon="5.07242">
        <ele>109</ele>
        <time>2021-09-05T08:22:49.000Z</time>
      </trkpt>
      <trkpt lat="50.69594" lon="5.07215">
        <ele>109.19999694824</ele>
        <time>2021-09-05T08:22:52.000Z</time>
      </trkpt>
      <trkpt lat="50.69595" lon="5.07207">
        <ele>109.40000152588</ele>
        <time>2021-09-05T08:22:53.000Z</time>
      </trkpt>
      <trkpt lat="50.69603" lon="5.07149">
        <ele>110.19999694824</ele>
        <time>2021-09-05T08:23:00.000Z</time>
      </trkpt>
      <trkpt lat="50.69608" lon="5.07115">
        <ele>110.80000305176</ele>
        <time>2021-09-05T08:23:04.000Z</time>
      </trkpt>
      <trkpt lat="50.69614" lon="5.07067">
        <ele>112.19999694824</ele>
        <time>2021-09-05T08:23:10.000Z</time>
      </trkpt>
      <trkpt lat="50.69619" lon="5.07035">
        <ele>112.59999847412</ele>
        <time>2021-09-05T08:23:14.000Z</time>
      </trkpt>
      <trkpt lat="50.69623" lon="5.07003">
        <ele>113.19999694824</ele>
        <time>2021-09-05T08:23:18.000Z</time>
      </trkpt>
      <trkpt lat="50.69625" lon="5.06987">
        <ele>113.59999847412</ele>
        <time>2021-09-05T08:23:20.000Z</time>
      </trkpt>
      <trkpt lat="50.69633" lon="5.06933">
        <ele>115.19999694824</ele>
        <time>2021-09-05T08:23:27.000Z</time>
      </trkpt>
      <trkpt lat="50.69637" lon="5.0691">
        <ele>115.80000305176</ele>
        <time>2021-09-05T08:23:30.000Z</time>
      </trkpt>
      <trkpt lat="50.6964" lon="5.06887">
        <ele>116.40000152588</ele>
        <time>2021-09-05T08:23:33.000Z</time>
      </trkpt>
      <trkpt lat="50.69644" lon="5.06841">
        <ele>117.59999847412</ele>
        <time>2021-09-05T08:23:39.000Z</time>
      </trkpt>
      <trkpt lat="50.69643" lon="5.06833">
        <ele>117.80000305176</ele>
        <time>2021-09-05T08:23:40.000Z</time>
      </trkpt>
      <trkpt lat="50.69642" lon="5.06818">
        <ele>118.59999847412</ele>
        <time>2021-09-05T08:23:42.000Z</time>
      </trkpt>
      <trkpt lat="50.69638" lon="5.06784">
        <ele>119.19999694824</ele>
        <time>2021-09-05T08:23:46.000Z</time>
      </trkpt>
      <trkpt lat="50.6963" lon="5.06717">
        <ele>120.40000152588</ele>
        <time>2021-09-05T08:23:53.000Z</time>
      </trkpt>
      <trkpt lat="50.69626" lon="5.06688">
        <ele>120.40000152588</ele>
        <time>2021-09-05T08:23:56.000Z</time>
      </trkpt>
      <trkpt lat="50.69624" lon="5.06621">
        <ele>120.40000152588</ele>
        <time>2021-09-05T08:24:03.000Z</time>
      </trkpt>
      <trkpt lat="50.69625" lon="5.06612">
        <ele>120.40000152588</ele>
        <time>2021-09-05T08:24:04.000Z</time>
      </trkpt>
      <trkpt lat="50.69632" lon="5.0653">
        <ele>121</ele>
        <time>2021-09-05T08:24:13.000Z</time>
      </trkpt>
      <trkpt lat="50.69632" lon="5.06521">
        <ele>121</ele>
        <time>2021-09-05T08:24:14.000Z</time>
      </trkpt>
      <trkpt lat="50.69634" lon="5.0645">
        <ele>122</ele>
        <time>2021-09-05T08:24:22.000Z</time>
      </trkpt>
      <trkpt lat="50.69629" lon="5.06366">
        <ele>122.40000152588</ele>
        <time>2021-09-05T08:24:30.000Z</time>
      </trkpt>
      <trkpt lat="50.69628" lon="5.06355">
        <ele>122.19999694824</ele>
        <time>2021-09-05T08:24:31.000Z</time>
      </trkpt>
      <trkpt lat="50.69624" lon="5.06288">
        <ele>121.80000305176</ele>
        <time>2021-09-05T08:24:37.000Z</time>
      </trkpt>
      <trkpt lat="50.69622" lon="5.06243">
        <ele>121.40000152588</ele>
        <time>2021-09-05T08:24:41.000Z</time>
      </trkpt>
      <trkpt lat="50.6962" lon="5.06221">
        <ele>121</ele>
        <time>2021-09-05T08:24:43.000Z</time>
      </trkpt>
      <trkpt lat="50.69616" lon="5.06147">
        <ele>119.59999847412</ele>
        <time>2021-09-05T08:24:50.000Z</time>
      </trkpt>
      <trkpt lat="50.69613" lon="5.06096">
        <ele>119.40000152588</ele>
        <time>2021-09-05T08:24:55.000Z</time>
      </trkpt>
      <trkpt lat="50.6961" lon="5.06058">
        <ele>119.19999694824</ele>
        <time>2021-09-05T08:24:59.000Z</time>
      </trkpt>
      <trkpt lat="50.69609" lon="5.06049">
        <ele>119.19999694824</ele>
        <time>2021-09-05T08:25:00.000Z</time>
      </trkpt>
      <trkpt lat="50.69599" lon="5.06006">
        <ele>120</ele>
        <time>2021-09-05T08:25:05.000Z</time>
      </trkpt>
      <trkpt lat="50.69594" lon="5.0599">
        <ele>120.80000305176</ele>
        <time>2021-09-05T08:25:07.000Z</time>
      </trkpt>
      <trkpt lat="50.69574" lon="5.05909">
        <ele>122.40000152588</ele>
        <time>2021-09-05T08:25:16.000Z</time>
      </trkpt>
      <trkpt lat="50.69563" lon="5.05865">
        <ele>122.80000305176</ele>
        <time>2021-09-05T08:25:21.000Z</time>
      </trkpt>
      <trkpt lat="50.69552" lon="5.0582">
        <ele>123.40000152588</ele>
        <time>2021-09-05T08:25:26.000Z</time>
      </trkpt>
      <trkpt lat="50.69547" lon="5.05802">
        <ele>123.40000152588</ele>
        <time>2021-09-05T08:25:28.000Z</time>
      </trkpt>
      <trkpt lat="50.69529" lon="5.05733">
        <ele>124.19999694824</ele>
        <time>2021-09-05T08:25:36.000Z</time>
      </trkpt>
      <trkpt lat="50.69525" lon="5.05716">
        <ele>124.40000152588</ele>
        <time>2021-09-05T08:25:38.000Z</time>
      </trkpt>
      <trkpt lat="50.69512" lon="5.05665">
        <ele>124.80000305176</ele>
        <time>2021-09-05T08:25:44.000Z</time>
      </trkpt>
      <trkpt lat="50.69502" lon="5.05621">
        <ele>125.19999694824</ele>
        <time>2021-09-05T08:25:49.000Z</time>
      </trkpt>
      <trkpt lat="50.69494" lon="5.05566">
        <ele>125.80000305176</ele>
        <time>2021-09-05T08:25:55.000Z</time>
      </trkpt>
      <trkpt lat="50.69489" lon="5.0553">
        <ele>126</ele>
        <time>2021-09-05T08:25:59.000Z</time>
      </trkpt>
      <trkpt lat="50.69482" lon="5.05485">
        <ele>125.59999847412</ele>
        <time>2021-09-05T08:26:04.000Z</time>
      </trkpt>
      <trkpt lat="50.69477" lon="5.05444">
        <ele>125</ele>
        <time>2021-09-05T08:26:09.000Z</time>
      </trkpt>
      <trkpt lat="50.69475" lon="5.05425">
        <ele>124.40000152588</ele>
        <time>2021-09-05T08:26:13.000Z</time>
      </trkpt>
      <trkpt lat="50.69474" lon="5.0542">
        <ele>124</ele>
        <time>2021-09-05T08:26:15.000Z</time>
      </trkpt>
      <trkpt lat="50.69474" lon="5.05417">
        <ele>123.80000305176</ele>
        <time>2021-09-05T08:26:17.000Z</time>
      </trkpt>
      <trkpt lat="50.69472" lon="5.05393">
        <ele>123</ele>
        <time>2021-09-05T08:26:22.000Z</time>
      </trkpt>
      <trkpt lat="50.69469" lon="5.05337">
        <ele>122.80000305176</ele>
        <time>2021-09-05T08:26:28.000Z</time>
      </trkpt>
      <trkpt lat="50.69465" lon="5.05261">
        <ele>122.59999847412</ele>
        <time>2021-09-05T08:26:35.000Z</time>
      </trkpt>
      <trkpt lat="50.69463" lon="5.05238">
        <ele>122.19999694824</ele>
        <time>2021-09-05T08:26:37.000Z</time>
      </trkpt>
      <trkpt lat="50.69462" lon="5.05216">
        <ele>121.59999847412</ele>
        <time>2021-09-05T08:26:39.000Z</time>
      </trkpt>
      <trkpt lat="50.69459" lon="5.05169">
        <ele>120.80000305176</ele>
        <time>2021-09-05T08:26:43.000Z</time>
      </trkpt>
      <trkpt lat="50.69458" lon="5.05132">
        <ele>120</ele>
        <time>2021-09-05T08:26:46.000Z</time>
      </trkpt>
      <trkpt lat="50.69457" lon="5.05119">
        <ele>119.80000305176</ele>
        <time>2021-09-05T08:26:47.000Z</time>
      </trkpt>
      <trkpt lat="50.69454" lon="5.05057">
        <ele>118.59999847412</ele>
        <time>2021-09-05T08:26:52.000Z</time>
      </trkpt>
      <trkpt lat="50.69451" lon="5.05007">
        <ele>117.59999847412</ele>
        <time>2021-09-05T08:26:56.000Z</time>
      </trkpt>
      <trkpt lat="50.69451" lon="5.04994">
        <ele>117.40000152588</ele>
        <time>2021-09-05T08:26:57.000Z</time>
      </trkpt>
      <trkpt lat="50.69447" lon="5.0493">
        <ele>116.19999694824</ele>
        <time>2021-09-05T08:27:02.000Z</time>
      </trkpt>
      <trkpt lat="50.69445" lon="5.04882">
        <ele>115.40000152588</ele>
        <time>2021-09-05T08:27:06.000Z</time>
      </trkpt>
      <trkpt lat="50.69441" lon="5.04823">
        <ele>113.80000305176</ele>
        <time>2021-09-05T08:27:11.000Z</time>
      </trkpt>
      <trkpt lat="50.69435" lon="5.04731">
        <ele>112.80000305176</ele>
        <time>2021-09-05T08:27:19.000Z</time>
      </trkpt>
      <trkpt lat="50.69433" lon="5.04674">
        <ele>112</ele>
        <time>2021-09-05T08:27:24.000Z</time>
      </trkpt>
      <trkpt lat="50.69434" lon="5.04602">
        <ele>111.19999694824</ele>
        <time>2021-09-05T08:27:30.000Z</time>
      </trkpt>
      <trkpt lat="50.69437" lon="5.04591">
        <ele>111.19999694824</ele>
        <time>2021-09-05T08:27:31.000Z</time>
      </trkpt>
      <trkpt lat="50.6944" lon="5.0458">
        <ele>111.19999694824</ele>
        <time>2021-09-05T08:27:32.000Z</time>
      </trkpt>
      <trkpt lat="50.69444" lon="5.0457">
        <ele>111.19999694824</ele>
        <time>2021-09-05T08:27:33.000Z</time>
      </trkpt>
      <trkpt lat="50.69449" lon="5.04561">
        <ele>111</ele>
        <time>2021-09-05T08:27:34.000Z</time>
      </trkpt>
      <trkpt lat="50.69455" lon="5.04552">
        <ele>110.80000305176</ele>
        <time>2021-09-05T08:27:35.000Z</time>
      </trkpt>
      <trkpt lat="50.69467" lon="5.04536">
        <ele>110.80000305176</ele>
        <time>2021-09-05T08:27:37.000Z</time>
      </trkpt>
      <trkpt lat="50.69473" lon="5.04527">
        <ele>110.59999847412</ele>
        <time>2021-09-05T08:27:38.000Z</time>
      </trkpt>
      <trkpt lat="50.69482" lon="5.04506">
        <ele>110.59999847412</ele>
        <time>2021-09-05T08:27:40.000Z</time>
      </trkpt>
      <trkpt lat="50.69485" lon="5.04494">
        <ele>110</ele>
        <time>2021-09-05T08:27:41.000Z</time>
      </trkpt>
      <trkpt lat="50.69487" lon="5.04481">
        <ele>110</ele>
        <time>2021-09-05T08:27:42.000Z</time>
      </trkpt>
      <trkpt lat="50.69487" lon="5.04453">
        <ele>109.59999847412</ele>
        <time>2021-09-05T08:27:44.000Z</time>
      </trkpt>
      <trkpt lat="50.69487" lon="5.04424">
        <ele>109.19999694824</ele>
        <time>2021-09-05T08:27:46.000Z</time>
      </trkpt>
      <trkpt lat="50.69487" lon="5.04379">
        <ele>108.59999847412</ele>
        <time>2021-09-05T08:27:49.000Z</time>
      </trkpt>
      <trkpt lat="50.69486" lon="5.04363">
        <ele>108.40000152588</ele>
        <time>2021-09-05T08:27:50.000Z</time>
      </trkpt>
      <trkpt lat="50.69486" lon="5.04317">
        <ele>107.19999694824</ele>
        <time>2021-09-05T08:27:53.000Z</time>
      </trkpt>
      <trkpt lat="50.69486" lon="5.04286">
        <ele>106.80000305176</ele>
        <time>2021-09-05T08:27:55.000Z</time>
      </trkpt>
      <trkpt lat="50.69487" lon="5.04255">
        <ele>105.19999694824</ele>
        <time>2021-09-05T08:27:57.000Z</time>
      </trkpt>
      <trkpt lat="50.69488" lon="5.04224">
        <ele>104</ele>
        <time>2021-09-05T08:27:59.000Z</time>
      </trkpt>
      <trkpt lat="50.69489" lon="5.04182">
        <ele>102.19999694824</ele>
        <time>2021-09-05T08:28:02.000Z</time>
      </trkpt>
      <trkpt lat="50.69489" lon="5.04168">
        <ele>101.40000152588</ele>
        <time>2021-09-05T08:28:03.000Z</time>
      </trkpt>
      <trkpt lat="50.69489" lon="5.04154">
        <ele>100.59999847412</ele>
        <time>2021-09-05T08:28:04.000Z</time>
      </trkpt>
      <trkpt lat="50.69488" lon="5.0414">
        <ele>100.19999694824</ele>
        <time>2021-09-05T08:28:05.000Z</time>
      </trkpt>
      <trkpt lat="50.69485" lon="5.04112">
        <ele>99.400001525879</ele>
        <time>2021-09-05T08:28:07.000Z</time>
      </trkpt>
      <trkpt lat="50.69483" lon="5.041">
        <ele>98.599998474121</ele>
        <time>2021-09-05T08:28:08.000Z</time>
      </trkpt>
      <trkpt lat="50.69476" lon="5.04076">
        <ele>97.400001525879</ele>
        <time>2021-09-05T08:28:10.000Z</time>
      </trkpt>
      <trkpt lat="50.69469" lon="5.04055">
        <ele>96</ele>
        <time>2021-09-05T08:28:12.000Z</time>
      </trkpt>
      <trkpt lat="50.69465" lon="5.04044">
        <ele>95.400001525879</ele>
        <time>2021-09-05T08:28:13.000Z</time>
      </trkpt>
      <trkpt lat="50.69457" lon="5.0402">
        <ele>94.199996948242</ele>
        <time>2021-09-05T08:28:15.000Z</time>
      </trkpt>
      <trkpt lat="50.6944" lon="5.03971">
        <ele>93.400001525879</ele>
        <time>2021-09-05T08:28:19.000Z</time>
      </trkpt>
      <trkpt lat="50.69433" lon="5.03947">
        <ele>92</ele>
        <time>2021-09-05T08:28:21.000Z</time>
      </trkpt>
      <trkpt lat="50.69428" lon="5.03909">
        <ele>90.400001525879</ele>
        <time>2021-09-05T08:28:24.000Z</time>
      </trkpt>
      <trkpt lat="50.69421" lon="5.03827">
        <ele>89</ele>
        <time>2021-09-05T08:28:31.000Z</time>
      </trkpt>
      <trkpt lat="50.69418" lon="5.03784">
        <ele>89</ele>
        <time>2021-09-05T08:28:35.000Z</time>
      </trkpt>
      <trkpt lat="50.69416" lon="5.03753">
        <ele>89.400001525879</ele>
        <time>2021-09-05T08:28:38.000Z</time>
      </trkpt>
      <trkpt lat="50.69414" lon="5.03723">
        <ele>90</ele>
        <time>2021-09-05T08:28:41.000Z</time>
      </trkpt>
      <trkpt lat="50.6941" lon="5.03674">
        <ele>91</ele>
        <time>2021-09-05T08:28:46.000Z</time>
      </trkpt>
      <trkpt lat="50.69409" lon="5.03655">
        <ele>91.400001525879</ele>
        <time>2021-09-05T08:28:48.000Z</time>
      </trkpt>
      <trkpt lat="50.69407" lon="5.03626">
        <ele>91.800003051758</ele>
        <time>2021-09-05T08:28:51.000Z</time>
      </trkpt>
      <trkpt lat="50.69404" lon="5.03598">
        <ele>92.800003051758</ele>
        <time>2021-09-05T08:28:54.000Z</time>
      </trkpt>
      <trkpt lat="50.694" lon="5.03571">
        <ele>93.599998474121</ele>
        <time>2021-09-05T08:28:57.000Z</time>
      </trkpt>
      <trkpt lat="50.69386" lon="5.03504">
        <ele>95.400001525879</ele>
        <time>2021-09-05T08:29:04.000Z</time>
      </trkpt>
      <trkpt lat="50.6937" lon="5.03422">
        <ele>95.800003051758</ele>
        <time>2021-09-05T08:29:12.000Z</time>
      </trkpt>
      <trkpt lat="50.6936" lon="5.03368">
        <ele>95.800003051758</ele>
        <time>2021-09-05T08:29:17.000Z</time>
      </trkpt>
      <trkpt lat="50.6935" lon="5.03313">
        <ele>95.199996948242</ele>
        <time>2021-09-05T08:29:22.000Z</time>
      </trkpt>
      <trkpt lat="50.69347" lon="5.03303">
        <ele>95</ele>
        <time>2021-09-05T08:29:23.000Z</time>
      </trkpt>
      <trkpt lat="50.69339" lon="5.03283">
        <ele>94.599998474121</ele>
        <time>2021-09-05T08:29:25.000Z</time>
      </trkpt>
      <trkpt lat="50.69333" lon="5.03275">
        <ele>94.599998474121</ele>
        <time>2021-09-05T08:29:26.000Z</time>
      </trkpt>
      <trkpt lat="50.6929" lon="5.03217">
        <ele>93</ele>
        <time>2021-09-05T08:29:34.000Z</time>
      </trkpt>
      <trkpt lat="50.69283" lon="5.03211">
        <ele>93</ele>
        <time>2021-09-05T08:29:35.000Z</time>
      </trkpt>
      <trkpt lat="50.6927" lon="5.03203">
        <ele>92.800003051758</ele>
        <time>2021-09-05T08:29:37.000Z</time>
      </trkpt>
      <trkpt lat="50.69263" lon="5.03201">
        <ele>92.800003051758</ele>
        <time>2021-09-05T08:29:38.000Z</time>
      </trkpt>
      <trkpt lat="50.69249" lon="5.03197">
        <ele>92.800003051758</ele>
        <time>2021-09-05T08:29:40.000Z</time>
      </trkpt>
      <trkpt lat="50.69217" lon="5.03187">
        <ele>92.800003051758</ele>
        <time>2021-09-05T08:29:45.000Z</time>
      </trkpt>
      <trkpt lat="50.69211" lon="5.03184">
        <ele>92.800003051758</ele>
        <time>2021-09-05T08:29:46.000Z</time>
      </trkpt>
      <trkpt lat="50.69201" lon="5.03172">
        <ele>92.800003051758</ele>
        <time>2021-09-05T08:29:48.000Z</time>
      </trkpt>
      <trkpt lat="50.69171" lon="5.03114">
        <ele>93</ele>
        <time>2021-09-05T08:29:55.000Z</time>
      </trkpt>
      <trkpt lat="50.69147" lon="5.03046">
        <ele>93.199996948242</ele>
        <time>2021-09-05T08:30:02.000Z</time>
      </trkpt>
      <trkpt lat="50.69133" lon="5.02987">
        <ele>93.400001525879</ele>
        <time>2021-09-05T08:30:08.000Z</time>
      </trkpt>
      <trkpt lat="50.69115" lon="5.02909">
        <ele>93.599998474121</ele>
        <time>2021-09-05T08:30:16.000Z</time>
      </trkpt>
      <trkpt lat="50.69108" lon="5.0288">
        <ele>93.599998474121</ele>
        <time>2021-09-05T08:30:19.000Z</time>
      </trkpt>
      <trkpt lat="50.69088" lon="5.02794">
        <ele>94</ele>
        <time>2021-09-05T08:30:28.000Z</time>
      </trkpt>
      <trkpt lat="50.69085" lon="5.02785">
        <ele>94.199996948242</ele>
        <time>2021-09-05T08:30:29.000Z</time>
      </trkpt>
      <trkpt lat="50.69059" lon="5.02711">
        <ele>94.400001525879</ele>
        <time>2021-09-05T08:30:37.000Z</time>
      </trkpt>
      <trkpt lat="50.69052" lon="5.02693">
        <ele>94.400001525879</ele>
        <time>2021-09-05T08:30:39.000Z</time>
      </trkpt>
      <trkpt lat="50.6903" lon="5.02647">
        <ele>93.800003051758</ele>
        <time>2021-09-05T08:30:44.000Z</time>
      </trkpt>
      <trkpt lat="50.69022" lon="5.02628">
        <ele>93.599998474121</ele>
        <time>2021-09-05T08:30:46.000Z</time>
      </trkpt>
      <trkpt lat="50.68988" lon="5.02558">
        <ele>92.199996948242</ele>
        <time>2021-09-05T08:30:54.000Z</time>
      </trkpt>
      <trkpt lat="50.68984" lon="5.02549">
        <ele>92.199996948242</ele>
        <time>2021-09-05T08:30:55.000Z</time>
      </trkpt>
      <trkpt lat="50.68969" lon="5.02517">
        <ele>92.199996948242</ele>
        <time>2021-09-05T08:30:59.000Z</time>
      </trkpt>
      <trkpt lat="50.68942" lon="5.02464">
        <ele>92.400001525879</ele>
        <time>2021-09-05T08:31:06.000Z</time>
      </trkpt>
      <trkpt lat="50.68919" lon="5.02415">
        <ele>93.599998474121</ele>
        <time>2021-09-05T08:31:12.000Z</time>
      </trkpt>
      <trkpt lat="50.68896" lon="5.02349">
        <ele>94.199996948242</ele>
        <time>2021-09-05T08:31:19.000Z</time>
      </trkpt>
      <trkpt lat="50.68881" lon="5.02303">
        <ele>94.199996948242</ele>
        <time>2021-09-05T08:31:24.000Z</time>
      </trkpt>
      <trkpt lat="50.68871" lon="5.02268">
        <ele>94.599998474121</ele>
        <time>2021-09-05T08:31:28.000Z</time>
      </trkpt>
      <trkpt lat="50.6886" lon="5.02235">
        <ele>95.199996948242</ele>
        <time>2021-09-05T08:31:32.000Z</time>
      </trkpt>
      <trkpt lat="50.6885" lon="5.02214">
        <ele>95.400001525879</ele>
        <time>2021-09-05T08:31:35.000Z</time>
      </trkpt>
      <trkpt lat="50.68818" lon="5.02154">
        <ele>96.599998474121</ele>
        <time>2021-09-05T08:31:43.000Z</time>
      </trkpt>
      <trkpt lat="50.68811" lon="5.02134">
        <ele>96.599998474121</ele>
        <time>2021-09-05T08:31:45.000Z</time>
      </trkpt>
      <trkpt lat="50.68808" lon="5.02123">
        <ele>96.800003051758</ele>
        <time>2021-09-05T08:31:46.000Z</time>
      </trkpt>
      <trkpt lat="50.68805" lon="5.02111">
        <ele>96.800003051758</ele>
        <time>2021-09-05T08:31:47.000Z</time>
      </trkpt>
      <trkpt lat="50.68801" lon="5.02085">
        <ele>96.800003051758</ele>
        <time>2021-09-05T08:31:49.000Z</time>
      </trkpt>
      <trkpt lat="50.68796" lon="5.02059">
        <ele>96.599998474121</ele>
        <time>2021-09-05T08:31:51.000Z</time>
      </trkpt>
      <trkpt lat="50.68792" lon="5.02031">
        <ele>96.400001525879</ele>
        <time>2021-09-05T08:31:53.000Z</time>
      </trkpt>
      <trkpt lat="50.68791" lon="5.01987">
        <ele>95.199996948242</ele>
        <time>2021-09-05T08:31:56.000Z</time>
      </trkpt>
      <trkpt lat="50.68791" lon="5.01973">
        <ele>95</ele>
        <time>2021-09-05T08:31:57.000Z</time>
      </trkpt>
      <trkpt lat="50.68792" lon="5.01932">
        <ele>93.599998474121</ele>
        <time>2021-09-05T08:32:00.000Z</time>
      </trkpt>
      <trkpt lat="50.6879" lon="5.01905">
        <ele>92.599998474121</ele>
        <time>2021-09-05T08:32:02.000Z</time>
      </trkpt>
      <trkpt lat="50.68789" lon="5.01892">
        <ele>92</ele>
        <time>2021-09-05T08:32:03.000Z</time>
      </trkpt>
      <trkpt lat="50.68784" lon="5.01866">
        <ele>91.199996948242</ele>
        <time>2021-09-05T08:32:05.000Z</time>
      </trkpt>
      <trkpt lat="50.68774" lon="5.01799">
        <ele>90.400001525879</ele>
        <time>2021-09-05T08:32:10.000Z</time>
      </trkpt>
      <trkpt lat="50.6876" lon="5.01718">
        <ele>88.800003051758</ele>
        <time>2021-09-05T08:32:17.000Z</time>
      </trkpt>
      <trkpt lat="50.68752" lon="5.01675">
        <ele>88.599998474121</ele>
        <time>2021-09-05T08:32:21.000Z</time>
      </trkpt>
      <trkpt lat="50.68749" lon="5.01665">
        <ele>88.400001525879</ele>
        <time>2021-09-05T08:32:22.000Z</time>
      </trkpt>
      <trkpt lat="50.68741" lon="5.01634">
        <ele>88.400001525879</ele>
        <time>2021-09-05T08:32:25.000Z</time>
      </trkpt>
      <trkpt lat="50.68721" lon="5.01551">
        <ele>88.199996948242</ele>
        <time>2021-09-05T08:32:33.000Z</time>
      </trkpt>
      <trkpt lat="50.68718" lon="5.0154">
        <ele>88.199996948242</ele>
        <time>2021-09-05T08:32:34.000Z</time>
      </trkpt>
      <trkpt lat="50.68716" lon="5.01529">
        <ele>88</ele>
        <time>2021-09-05T08:32:35.000Z</time>
      </trkpt>
      <trkpt lat="50.68707" lon="5.01463">
        <ele>87.800003051758</ele>
        <time>2021-09-05T08:32:41.000Z</time>
      </trkpt>
      <trkpt lat="50.68706" lon="5.01434">
        <ele>87.800003051758</ele>
        <time>2021-09-05T08:32:44.000Z</time>
      </trkpt>
      <trkpt lat="50.68706" lon="5.01396">
        <ele>87.800003051758</ele>
        <time>2021-09-05T08:32:48.000Z</time>
      </trkpt>
      <trkpt lat="50.6871" lon="5.0136">
        <ele>88.199996948242</ele>
        <time>2021-09-05T08:32:52.000Z</time>
      </trkpt>
      <trkpt lat="50.68715" lon="5.01344">
        <ele>88.599998474121</ele>
        <time>2021-09-05T08:32:54.000Z</time>
      </trkpt>
      <trkpt lat="50.68734" lon="5.01316">
        <ele>89.400001525879</ele>
        <time>2021-09-05T08:32:58.000Z</time>
      </trkpt>
      <trkpt lat="50.68769" lon="5.01263">
        <ele>89.599998474121</ele>
        <time>2021-09-05T08:33:05.000Z</time>
      </trkpt>
      <trkpt lat="50.688" lon="5.01197">
        <ele>89.400001525879</ele>
        <time>2021-09-05T08:33:12.000Z</time>
      </trkpt>
      <trkpt lat="50.68811" lon="5.01165">
        <ele>88.599998474121</ele>
        <time>2021-09-05T08:33:15.000Z</time>
      </trkpt>
      <trkpt lat="50.68821" lon="5.01131">
        <ele>88.199996948242</ele>
        <time>2021-09-05T08:33:18.000Z</time>
      </trkpt>
      <trkpt lat="50.6883" lon="5.01086">
        <ele>87.400001525879</ele>
        <time>2021-09-05T08:33:22.000Z</time>
      </trkpt>
      <trkpt lat="50.68836" lon="5.01051">
        <ele>86.199996948242</ele>
        <time>2021-09-05T08:33:25.000Z</time>
      </trkpt>
      <trkpt lat="50.68847" lon="5.0098">
        <ele>85.199996948242</ele>
        <time>2021-09-05T08:33:31.000Z</time>
      </trkpt>
      <trkpt lat="50.68859" lon="5.00909">
        <ele>84.400001525879</ele>
        <time>2021-09-05T08:33:37.000Z</time>
      </trkpt>
      <trkpt lat="50.68866" lon="5.00859">
        <ele>83.599998474121</ele>
        <time>2021-09-05T08:33:41.000Z</time>
      </trkpt>
      <trkpt lat="50.68877" lon="5.00795">
        <ele>82.599998474121</ele>
        <time>2021-09-05T08:33:46.000Z</time>
      </trkpt>
      <trkpt lat="50.68881" lon="5.00769">
        <ele>81.800003051758</ele>
        <time>2021-09-05T08:33:48.000Z</time>
      </trkpt>
      <trkpt lat="50.68891" lon="5.00704">
        <ele>80.400001525879</ele>
        <time>2021-09-05T08:33:53.000Z</time>
      </trkpt>
      <trkpt lat="50.68899" lon="5.00651">
        <ele>79.199996948242</ele>
        <time>2021-09-05T08:33:57.000Z</time>
      </trkpt>
      <trkpt lat="50.68903" lon="5.00625">
        <ele>78.800003051758</ele>
        <time>2021-09-05T08:33:59.000Z</time>
      </trkpt>
      <trkpt lat="50.68908" lon="5.00585">
        <ele>78.199996948242</ele>
        <time>2021-09-05T08:34:02.000Z</time>
      </trkpt>
      <trkpt lat="50.68909" lon="5.00532">
        <ele>76.800003051758</ele>
        <time>2021-09-05T08:34:06.000Z</time>
      </trkpt>
      <trkpt lat="50.68908" lon="5.00493">
        <ele>75.800003051758</ele>
        <time>2021-09-05T08:34:09.000Z</time>
      </trkpt>
      <trkpt lat="50.68902" lon="5.00441">
        <ele>74.800003051758</ele>
        <time>2021-09-05T08:34:13.000Z</time>
      </trkpt>
      <trkpt lat="50.689" lon="5.00416">
        <ele>74.599998474121</ele>
        <time>2021-09-05T08:34:15.000Z</time>
      </trkpt>
      <trkpt lat="50.68894" lon="5.00366">
        <ele>74</ele>
        <time>2021-09-05T08:34:19.000Z</time>
      </trkpt>
      <trkpt lat="50.68893" lon="5.00353">
        <ele>74</ele>
        <time>2021-09-05T08:34:20.000Z</time>
      </trkpt>
      <trkpt lat="50.68886" lon="5.00306">
        <ele>73.800003051758</ele>
        <time>2021-09-05T08:34:24.000Z</time>
      </trkpt>
      <trkpt lat="50.68882" lon="5.00284">
        <ele>73.400001525879</ele>
        <time>2021-09-05T08:34:26.000Z</time>
      </trkpt>
      <trkpt lat="50.68875" lon="5.00262">
        <ele>73</ele>
        <time>2021-09-05T08:34:28.000Z</time>
      </trkpt>
      <trkpt lat="50.68871" lon="5.00253">
        <ele>73</ele>
        <time>2021-09-05T08:34:29.000Z</time>
      </trkpt>
      <trkpt lat="50.68847" lon="5.00211">
        <ele>72.199996948242</ele>
        <time>2021-09-05T08:34:34.000Z</time>
      </trkpt>
      <trkpt lat="50.68817" lon="5.00183">
        <ele>71.599998474121</ele>
        <time>2021-09-05T08:34:39.000Z</time>
      </trkpt>
      <trkpt lat="50.68804" lon="5.00176">
        <ele>71.400001525879</ele>
        <time>2021-09-05T08:34:41.000Z</time>
      </trkpt>
      <trkpt lat="50.68791" lon="5.00174">
        <ele>71.599998474121</ele>
        <time>2021-09-05T08:34:43.000Z</time>
      </trkpt>
      <trkpt lat="50.68748" lon="5.00187">
        <ele>71.400001525879</ele>
        <time>2021-09-05T08:34:49.000Z</time>
      </trkpt>
      <trkpt lat="50.68742" lon="5.00189">
        <ele>71.599998474121</ele>
        <time>2021-09-05T08:34:50.000Z</time>
      </trkpt>
      <trkpt lat="50.68735" lon="5.00191">
        <ele>71.599998474121</ele>
        <time>2021-09-05T08:34:51.000Z</time>
      </trkpt>
      <trkpt lat="50.68696" lon="5.00203">
        <ele>71.800003051758</ele>
        <time>2021-09-05T08:34:57.000Z</time>
      </trkpt>
      <trkpt lat="50.68679" lon="5.00209">
        <ele>72.400001525879</ele>
        <time>2021-09-05T08:35:00.000Z</time>
      </trkpt>
      <trkpt lat="50.68644" lon="5.00219">
        <ele>73.199996948242</ele>
        <time>2021-09-05T08:35:06.000Z</time>
      </trkpt>
      <trkpt lat="50.68633" lon="5.00222">
        <ele>73.599998474121</ele>
        <time>2021-09-05T08:35:08.000Z</time>
      </trkpt>
      <trkpt lat="50.68627" lon="5.00224">
        <ele>74</ele>
        <time>2021-09-05T08:35:09.000Z</time>
      </trkpt>
      <trkpt lat="50.686" lon="5.00232">
        <ele>74.599998474121</ele>
        <time>2021-09-05T08:35:14.000Z</time>
      </trkpt>
      <trkpt lat="50.68595" lon="5.00234">
        <ele>74.800003051758</ele>
        <time>2021-09-05T08:35:15.000Z</time>
      </trkpt>
      <trkpt lat="50.68579" lon="5.0024">
        <ele>75.599998474121</ele>
        <time>2021-09-05T08:35:18.000Z</time>
      </trkpt>
      <trkpt lat="50.68548" lon="5.0025">
        <ele>76.800003051758</ele>
        <time>2021-09-05T08:35:24.000Z</time>
      </trkpt>
      <trkpt lat="50.68532" lon="5.00258">
        <ele>77.599998474121</ele>
        <time>2021-09-05T08:35:27.000Z</time>
      </trkpt>
      <trkpt lat="50.68523" lon="5.00264">
        <ele>78</ele>
        <time>2021-09-05T08:35:29.000Z</time>
      </trkpt>
      <trkpt lat="50.68503" lon="5.00279">
        <ele>78.599998474121</ele>
        <time>2021-09-05T08:35:33.000Z</time>
      </trkpt>
      <trkpt lat="50.68498" lon="5.00284">
        <ele>78.599998474121</ele>
        <time>2021-09-05T08:35:34.000Z</time>
      </trkpt>
      <trkpt lat="50.68478" lon="5.00307">
        <ele>79.800003051758</ele>
        <time>2021-09-05T08:35:38.000Z</time>
      </trkpt>
      <trkpt lat="50.68469" lon="5.00321">
        <ele>80</ele>
        <time>2021-09-05T08:35:40.000Z</time>
      </trkpt>
      <trkpt lat="50.68438" lon="5.00369">
        <ele>80.800003051758</ele>
        <time>2021-09-05T08:35:47.000Z</time>
      </trkpt>
      <trkpt lat="50.68433" lon="5.00376">
        <ele>80.800003051758</ele>
        <time>2021-09-05T08:35:48.000Z</time>
      </trkpt>
      <trkpt lat="50.68398" lon="5.00431">
        <ele>81.800003051758</ele>
        <time>2021-09-05T08:35:56.000Z</time>
      </trkpt>
      <trkpt lat="50.6836" lon="5.00493">
        <ele>82.199996948242</ele>
        <time>2021-09-05T08:36:05.000Z</time>
      </trkpt>
      <trkpt lat="50.68351" lon="5.00507">
        <ele>82.400001525879</ele>
        <time>2021-09-05T08:36:07.000Z</time>
      </trkpt>
      <trkpt lat="50.6832" lon="5.00556">
        <ele>82.800003051758</ele>
        <time>2021-09-05T08:36:14.000Z</time>
      </trkpt>
      <trkpt lat="50.68307" lon="5.00578">
        <ele>83.199996948242</ele>
        <time>2021-09-05T08:36:17.000Z</time>
      </trkpt>
      <trkpt lat="50.68275" lon="5.00628">
        <ele>84</ele>
        <time>2021-09-05T08:36:24.000Z</time>
      </trkpt>
      <trkpt lat="50.68271" lon="5.00635">
        <ele>84.199996948242</ele>
        <time>2021-09-05T08:36:25.000Z</time>
      </trkpt>
      <trkpt lat="50.68232" lon="5.007">
        <ele>84.800003051758</ele>
        <time>2021-09-05T08:36:34.000Z</time>
      </trkpt>
      <trkpt lat="50.68219" lon="5.00722">
        <ele>85.199996948242</ele>
        <time>2021-09-05T08:36:37.000Z</time>
      </trkpt>
      <trkpt lat="50.68189" lon="5.00776">
        <ele>85.599998474121</ele>
        <time>2021-09-05T08:36:44.000Z</time>
      </trkpt>
      <trkpt lat="50.68151" lon="5.00839">
        <ele>85.400001525879</ele>
        <time>2021-09-05T08:36:52.000Z</time>
      </trkpt>
      <trkpt lat="50.68146" lon="5.00847">
        <ele>85.599998474121</ele>
        <time>2021-09-05T08:36:53.000Z</time>
      </trkpt>
      <trkpt lat="50.68116" lon="5.00891">
        <ele>85.199996948242</ele>
        <time>2021-09-05T08:36:59.000Z</time>
      </trkpt>
      <trkpt lat="50.68092" lon="5.0091">
        <ele>85</ele>
        <time>2021-09-05T08:37:03.000Z</time>
      </trkpt>
      <trkpt lat="50.68086" lon="5.00913">
        <ele>84.800003051758</ele>
        <time>2021-09-05T08:37:04.000Z</time>
      </trkpt>
      <trkpt lat="50.68062" lon="5.00922">
        <ele>85</ele>
        <time>2021-09-05T08:37:08.000Z</time>
      </trkpt>
      <trkpt lat="50.6805" lon="5.00923">
        <ele>85</ele>
        <time>2021-09-05T08:37:10.000Z</time>
      </trkpt>
      <trkpt lat="50.68009" lon="5.00923">
        <ele>85.800003051758</ele>
        <time>2021-09-05T08:37:17.000Z</time>
      </trkpt>
      <trkpt lat="50.68004" lon="5.00923">
        <ele>86</ele>
        <time>2021-09-05T08:37:18.000Z</time>
      </trkpt>
      <trkpt lat="50.67987" lon="5.00924">
        <ele>86.400001525879</ele>
        <time>2021-09-05T08:37:21.000Z</time>
      </trkpt>
      <trkpt lat="50.67958" lon="5.00928">
        <ele>87</ele>
        <time>2021-09-05T08:37:26.000Z</time>
      </trkpt>
      <trkpt lat="50.67948" lon="5.00936">
        <ele>87.400001525879</ele>
        <time>2021-09-05T08:37:28.000Z</time>
      </trkpt>
      <trkpt lat="50.67938" lon="5.00949">
        <ele>88</ele>
        <time>2021-09-05T08:37:30.000Z</time>
      </trkpt>
      <trkpt lat="50.67921" lon="5.00979">
        <ele>88.800003051758</ele>
        <time>2021-09-05T08:37:34.000Z</time>
      </trkpt>
      <trkpt lat="50.67907" lon="5.01004">
        <ele>88.800003051758</ele>
        <time>2021-09-05T08:37:37.000Z</time>
      </trkpt>
      <trkpt lat="50.67903" lon="5.01012">
        <ele>89</ele>
        <time>2021-09-05T08:37:38.000Z</time>
      </trkpt>
      <trkpt lat="50.67889" lon="5.01037">
        <ele>88.800003051758</ele>
        <time>2021-09-05T08:37:41.000Z</time>
      </trkpt>
      <trkpt lat="50.67878" lon="5.0105">
        <ele>88.800003051758</ele>
        <time>2021-09-05T08:37:43.000Z</time>
      </trkpt>
      <trkpt lat="50.67852" lon="5.01072">
        <ele>88.400001525879</ele>
        <time>2021-09-05T08:37:48.000Z</time>
      </trkpt>
      <trkpt lat="50.67848" lon="5.01077">
        <ele>88.400001525879</ele>
        <time>2021-09-05T08:37:49.000Z</time>
      </trkpt>
      <trkpt lat="50.67843" lon="5.01082">
        <ele>88.599998474121</ele>
        <time>2021-09-05T08:37:50.000Z</time>
      </trkpt>
      <trkpt lat="50.67835" lon="5.01094">
        <ele>88.400001525879</ele>
        <time>2021-09-05T08:37:52.000Z</time>
      </trkpt>
      <trkpt lat="50.67831" lon="5.01101">
        <ele>88.400001525879</ele>
        <time>2021-09-05T08:37:53.000Z</time>
      </trkpt>
      <trkpt lat="50.67817" lon="5.01133">
        <ele>89.199996948242</ele>
        <time>2021-09-05T08:37:57.000Z</time>
      </trkpt>
      <trkpt lat="50.67806" lon="5.01156">
        <ele>89.800003051758</ele>
        <time>2021-09-05T08:38:00.000Z</time>
      </trkpt>
      <trkpt lat="50.67779" lon="5.01216">
        <ele>91.199996948242</ele>
        <time>2021-09-05T08:38:08.000Z</time>
      </trkpt>
      <trkpt lat="50.67775" lon="5.01232">
        <ele>91.599998474121</ele>
        <time>2021-09-05T08:38:10.000Z</time>
      </trkpt>
      <trkpt lat="50.67775" lon="5.0124">
        <ele>91.400001525879</ele>
        <time>2021-09-05T08:38:11.000Z</time>
      </trkpt>
      <trkpt lat="50.67777" lon="5.01249">
        <ele>91.599998474121</ele>
        <time>2021-09-05T08:38:12.000Z</time>
      </trkpt>
      <trkpt lat="50.67784" lon="5.01273">
        <ele>91.800003051758</ele>
        <time>2021-09-05T08:38:15.000Z</time>
      </trkpt>
      <trkpt lat="50.67804" lon="5.01326">
        <ele>92.199996948242</ele>
        <time>2021-09-05T08:38:21.000Z</time>
      </trkpt>
      <trkpt lat="50.67808" lon="5.01336">
        <ele>92.199996948242</ele>
        <time>2021-09-05T08:38:22.000Z</time>
      </trkpt>
      <trkpt lat="50.67823" lon="5.01377">
        <ele>92.400001525879</ele>
        <time>2021-09-05T08:38:26.000Z</time>
      </trkpt>
      <trkpt lat="50.67831" lon="5.01398">
        <ele>92.400001525879</ele>
        <time>2021-09-05T08:38:28.000Z</time>
      </trkpt>
      <trkpt lat="50.67843" lon="5.0143">
        <ele>91.599998474121</ele>
        <time>2021-09-05T08:38:31.000Z</time>
      </trkpt>
      <trkpt lat="50.67866" lon="5.01493">
        <ele>89.599998474121</ele>
        <time>2021-09-05T08:38:37.000Z</time>
      </trkpt>
      <trkpt lat="50.67868" lon="5.01503">
        <ele>89.199996948242</ele>
        <time>2021-09-05T08:38:38.000Z</time>
      </trkpt>
      <trkpt lat="50.67869" lon="5.01524">
        <ele>88.800003051758</ele>
        <time>2021-09-05T08:38:40.000Z</time>
      </trkpt>
      <trkpt lat="50.67867" lon="5.01545">
        <ele>88.800003051758</ele>
        <time>2021-09-05T08:38:42.000Z</time>
      </trkpt>
      <trkpt lat="50.67858" lon="5.01608">
        <ele>88.800003051758</ele>
        <time>2021-09-05T08:38:48.000Z</time>
      </trkpt>
      <trkpt lat="50.67853" lon="5.01638">
        <ele>88.800003051758</ele>
        <time>2021-09-05T08:38:51.000Z</time>
      </trkpt>
      <trkpt lat="50.67846" lon="5.01689">
        <ele>89.199996948242</ele>
        <time>2021-09-05T08:38:56.000Z</time>
      </trkpt>
      <trkpt lat="50.67834" lon="5.01775">
        <ele>90</ele>
        <time>2021-09-05T08:39:04.000Z</time>
      </trkpt>
      <trkpt lat="50.67832" lon="5.01786">
        <ele>89.800003051758</ele>
        <time>2021-09-05T08:39:05.000Z</time>
      </trkpt>
      <trkpt lat="50.67825" lon="5.01829">
        <ele>89.800003051758</ele>
        <time>2021-09-05T08:39:09.000Z</time>
      </trkpt>
      <trkpt lat="50.67819" lon="5.01848">
        <ele>89.800003051758</ele>
        <time>2021-09-05T08:39:11.000Z</time>
      </trkpt>
      <trkpt lat="50.67798" lon="5.0189">
        <ele>89.800003051758</ele>
        <time>2021-09-05T08:39:16.000Z</time>
      </trkpt>
      <trkpt lat="50.67789" lon="5.01906">
        <ele>89.800003051758</ele>
        <time>2021-09-05T08:39:18.000Z</time>
      </trkpt>
      <trkpt lat="50.67762" lon="5.01958">
        <ele>90.400001525879</ele>
        <time>2021-09-05T08:39:25.000Z</time>
      </trkpt>
      <trkpt lat="50.67734" lon="5.01997">
        <ele>91.400001525879</ele>
        <time>2021-09-05T08:39:31.000Z</time>
      </trkpt>
      <trkpt lat="50.67695" lon="5.02028">
        <ele>92.599998474121</ele>
        <time>2021-09-05T08:39:38.000Z</time>
      </trkpt>
      <trkpt lat="50.6769" lon="5.02033">
        <ele>92.599998474121</ele>
        <time>2021-09-05T08:39:39.000Z</time>
      </trkpt>
      <trkpt lat="50.67662" lon="5.02054">
        <ele>93.400001525879</ele>
        <time>2021-09-05T08:39:44.000Z</time>
      </trkpt>
      <trkpt lat="50.67645" lon="5.02067">
        <ele>93.599998474121</ele>
        <time>2021-09-05T08:39:47.000Z</time>
      </trkpt>
      <trkpt lat="50.67623" lon="5.02084">
        <ele>94.800003051758</ele>
        <time>2021-09-05T08:39:51.000Z</time>
      </trkpt>
      <trkpt lat="50.67596" lon="5.02106">
        <ele>95.800003051758</ele>
        <time>2021-09-05T08:39:56.000Z</time>
      </trkpt>
      <trkpt lat="50.67575" lon="5.02123">
        <ele>96.400001525879</ele>
        <time>2021-09-05T08:40:00.000Z</time>
      </trkpt>
      <trkpt lat="50.67529" lon="5.0216">
        <ele>97.599998474121</ele>
        <time>2021-09-05T08:40:08.000Z</time>
      </trkpt>
      <trkpt lat="50.67506" lon="5.02179">
        <ele>97.599998474121</ele>
        <time>2021-09-05T08:40:12.000Z</time>
      </trkpt>
      <trkpt lat="50.67491" lon="5.0219">
        <ele>97.400001525879</ele>
        <time>2021-09-05T08:40:15.000Z</time>
      </trkpt>
      <trkpt lat="50.67482" lon="5.02195">
        <ele>96.599998474121</ele>
        <time>2021-09-05T08:40:19.000Z</time>
      </trkpt>
      <trkpt lat="50.6748" lon="5.02195">
        <ele>96</ele>
        <time>2021-09-05T08:40:21.000Z</time>
      </trkpt>
      <trkpt lat="50.67477" lon="5.02198">
        <ele>95.400001525879</ele>
        <time>2021-09-05T08:40:33.000Z</time>
      </trkpt>
      <trkpt lat="50.67476" lon="5.022">
        <ele>95.400001525879</ele>
        <time>2021-09-05T08:40:34.000Z</time>
      </trkpt>
      <trkpt lat="50.67473" lon="5.02223">
        <ele>95.400001525879</ele>
        <time>2021-09-05T08:40:39.000Z</time>
      </trkpt>
      <trkpt lat="50.67472" lon="5.02252">
        <ele>95.599998474121</ele>
        <time>2021-09-05T08:40:43.000Z</time>
      </trkpt>
      <trkpt lat="50.67472" lon="5.0226">
        <ele>95.599998474121</ele>
        <time>2021-09-05T08:40:44.000Z</time>
      </trkpt>
      <trkpt lat="50.67473" lon="5.02267">
        <ele>95.599998474121</ele>
        <time>2021-09-05T08:40:45.000Z</time>
      </trkpt>
      <trkpt lat="50.67474" lon="5.02298">
        <ele>95.800003051758</ele>
        <time>2021-09-05T08:40:49.000Z</time>
      </trkpt>
      <trkpt lat="50.67476" lon="5.02338">
        <ele>96.599998474121</ele>
        <time>2021-09-05T08:40:54.000Z</time>
      </trkpt>
      <trkpt lat="50.67479" lon="5.02369">
        <ele>97.400001525879</ele>
        <time>2021-09-05T08:40:58.000Z</time>
      </trkpt>
      <trkpt lat="50.67484" lon="5.02401">
        <ele>98.599998474121</ele>
        <time>2021-09-05T08:41:02.000Z</time>
      </trkpt>
      <trkpt lat="50.67486" lon="5.02409">
        <ele>98.800003051758</ele>
        <time>2021-09-05T08:41:03.000Z</time>
      </trkpt>
      <trkpt lat="50.67491" lon="5.02433">
        <ele>99.599998474121</ele>
        <time>2021-09-05T08:41:06.000Z</time>
      </trkpt>
      <trkpt lat="50.67495" lon="5.02456">
        <ele>100.59999847412</ele>
        <time>2021-09-05T08:41:09.000Z</time>
      </trkpt>
      <trkpt lat="50.67496" lon="5.02463">
        <ele>101</ele>
        <time>2021-09-05T08:41:10.000Z</time>
      </trkpt>
      <trkpt lat="50.67502" lon="5.02493">
        <ele>101.80000305176</ele>
        <time>2021-09-05T08:41:14.000Z</time>
      </trkpt>
      <trkpt lat="50.67509" lon="5.0253">
        <ele>103.40000152588</ele>
        <time>2021-09-05T08:41:19.000Z</time>
      </trkpt>
      <trkpt lat="50.6751" lon="5.02537">
        <ele>103.59999847412</ele>
        <time>2021-09-05T08:41:20.000Z</time>
      </trkpt>
      <trkpt lat="50.67514" lon="5.02558">
        <ele>104.40000152588</ele>
        <time>2021-09-05T08:41:23.000Z</time>
      </trkpt>
      <trkpt lat="50.6752" lon="5.02586">
        <ele>105.40000152588</ele>
        <time>2021-09-05T08:41:27.000Z</time>
      </trkpt>
      <trkpt lat="50.67524" lon="5.02606">
        <ele>106.40000152588</ele>
        <time>2021-09-05T08:41:30.000Z</time>
      </trkpt>
      <trkpt lat="50.67531" lon="5.02632">
        <ele>107.59999847412</ele>
        <time>2021-09-05T08:41:34.000Z</time>
      </trkpt>
      <trkpt lat="50.67534" lon="5.02645">
        <ele>108.19999694824</ele>
        <time>2021-09-05T08:41:36.000Z</time>
      </trkpt>
      <trkpt lat="50.67535" lon="5.02651">
        <ele>108.40000152588</ele>
        <time>2021-09-05T08:41:37.000Z</time>
      </trkpt>
      <trkpt lat="50.67533" lon="5.02658">
        <ele>108.59999847412</ele>
        <time>2021-09-05T08:41:38.000Z</time>
      </trkpt>
      <trkpt lat="50.67528" lon="5.0267">
        <ele>109.19999694824</ele>
        <time>2021-09-05T08:41:40.000Z</time>
      </trkpt>
      <trkpt lat="50.67521" lon="5.02683">
        <ele>109.80000305176</ele>
        <time>2021-09-05T08:41:42.000Z</time>
      </trkpt>
      <trkpt lat="50.67515" lon="5.02699">
        <ele>110.19999694824</ele>
        <time>2021-09-05T08:41:44.000Z</time>
      </trkpt>
      <trkpt lat="50.67498" lon="5.02772">
        <ele>111.40000152588</ele>
        <time>2021-09-05T08:41:52.000Z</time>
      </trkpt>
      <trkpt lat="50.67471" lon="5.02854">
        <ele>111.80000305176</ele>
        <time>2021-09-05T08:42:01.000Z</time>
      </trkpt>
      <trkpt lat="50.67465" lon="5.02872">
        <ele>111.59999847412</ele>
        <time>2021-09-05T08:42:03.000Z</time>
      </trkpt>
      <trkpt lat="50.67438" lon="5.02947">
        <ele>111.80000305176</ele>
        <time>2021-09-05T08:42:11.000Z</time>
      </trkpt>
      <trkpt lat="50.67428" lon="5.02976">
        <ele>112</ele>
        <time>2021-09-05T08:42:14.000Z</time>
      </trkpt>
      <trkpt lat="50.67405" lon="5.03053">
        <ele>112</ele>
        <time>2021-09-05T08:42:22.000Z</time>
      </trkpt>
      <trkpt lat="50.67399" lon="5.03073">
        <ele>111.80000305176</ele>
        <time>2021-09-05T08:42:24.000Z</time>
      </trkpt>
      <trkpt lat="50.67378" lon="5.03158">
        <ele>112.19999694824</ele>
        <time>2021-09-05T08:42:32.000Z</time>
      </trkpt>
      <trkpt lat="50.67375" lon="5.03169">
        <ele>112.19999694824</ele>
        <time>2021-09-05T08:42:33.000Z</time>
      </trkpt>
      <trkpt lat="50.6736" lon="5.03232">
        <ele>112.19999694824</ele>
        <time>2021-09-05T08:42:39.000Z</time>
      </trkpt>
      <trkpt lat="50.67353" lon="5.03262">
        <ele>112.59999847412</ele>
        <time>2021-09-05T08:42:42.000Z</time>
      </trkpt>
      <trkpt lat="50.67333" lon="5.03343">
        <ele>113</ele>
        <time>2021-09-05T08:42:50.000Z</time>
      </trkpt>
      <trkpt lat="50.67328" lon="5.03364">
        <ele>113</ele>
        <time>2021-09-05T08:42:52.000Z</time>
      </trkpt>
      <trkpt lat="50.6732" lon="5.03396">
        <ele>113.19999694824</ele>
        <time>2021-09-05T08:42:55.000Z</time>
      </trkpt>
      <trkpt lat="50.67307" lon="5.03439">
        <ele>113.19999694824</ele>
        <time>2021-09-05T08:42:59.000Z</time>
      </trkpt>
      <trkpt lat="50.67275" lon="5.03505">
        <ele>113.40000152588</ele>
        <time>2021-09-05T08:43:06.000Z</time>
      </trkpt>
      <trkpt lat="50.6724" lon="5.03573">
        <ele>113.80000305176</ele>
        <time>2021-09-05T08:43:14.000Z</time>
      </trkpt>
      <trkpt lat="50.67236" lon="5.03582">
        <ele>113.59999847412</ele>
        <time>2021-09-05T08:43:15.000Z</time>
      </trkpt>
      <trkpt lat="50.67228" lon="5.036">
        <ele>113.59999847412</ele>
        <time>2021-09-05T08:43:17.000Z</time>
      </trkpt>
      <trkpt lat="50.67206" lon="5.03654">
        <ele>114</ele>
        <time>2021-09-05T08:43:23.000Z</time>
      </trkpt>
      <trkpt lat="50.67195" lon="5.03682">
        <ele>114.40000152588</ele>
        <time>2021-09-05T08:43:26.000Z</time>
      </trkpt>
      <trkpt lat="50.6717" lon="5.03746">
        <ele>115.19999694824</ele>
        <time>2021-09-05T08:43:33.000Z</time>
      </trkpt>
      <trkpt lat="50.67157" lon="5.03782">
        <ele>115.80000305176</ele>
        <time>2021-09-05T08:43:37.000Z</time>
      </trkpt>
      <trkpt lat="50.67143" lon="5.03829">
        <ele>116.40000152588</ele>
        <time>2021-09-05T08:43:42.000Z</time>
      </trkpt>
      <trkpt lat="50.67136" lon="5.03858">
        <ele>117</ele>
        <time>2021-09-05T08:43:45.000Z</time>
      </trkpt>
      <trkpt lat="50.67129" lon="5.03908">
        <ele>117.59999847412</ele>
        <time>2021-09-05T08:43:50.000Z</time>
      </trkpt>
      <trkpt lat="50.67121" lon="5.0399">
        <ele>118.59999847412</ele>
        <time>2021-09-05T08:43:58.000Z</time>
      </trkpt>
      <trkpt lat="50.67119" lon="5.04033">
        <ele>119.59999847412</ele>
        <time>2021-09-05T08:44:02.000Z</time>
      </trkpt>
      <trkpt lat="50.67115" lon="5.04099">
        <ele>120.40000152588</ele>
        <time>2021-09-05T08:44:08.000Z</time>
      </trkpt>
      <trkpt lat="50.67107" lon="5.04185">
        <ele>120.59999847412</ele>
        <time>2021-09-05T08:44:16.000Z</time>
      </trkpt>
      <trkpt lat="50.67106" lon="5.04195">
        <ele>120.59999847412</ele>
        <time>2021-09-05T08:44:17.000Z</time>
      </trkpt>
      <trkpt lat="50.67102" lon="5.04215">
        <ele>120.59999847412</ele>
        <time>2021-09-05T08:44:19.000Z</time>
      </trkpt>
      <trkpt lat="50.67092" lon="5.04254">
        <ele>120.80000305176</ele>
        <time>2021-09-05T08:44:23.000Z</time>
      </trkpt>
      <trkpt lat="50.67075" lon="5.04318">
        <ele>121.80000305176</ele>
        <time>2021-09-05T08:44:30.000Z</time>
      </trkpt>
      <trkpt lat="50.67053" lon="5.04398">
        <ele>122.40000152588</ele>
        <time>2021-09-05T08:44:38.000Z</time>
      </trkpt>
      <trkpt lat="50.67031" lon="5.0448">
        <ele>122.40000152588</ele>
        <time>2021-09-05T08:44:46.000Z</time>
      </trkpt>
      <trkpt lat="50.67023" lon="5.0451">
        <ele>122.40000152588</ele>
        <time>2021-09-05T08:44:49.000Z</time>
      </trkpt>
      <trkpt lat="50.67" lon="5.04596">
        <ele>122</ele>
        <time>2021-09-05T08:44:57.000Z</time>
      </trkpt>
      <trkpt lat="50.66997" lon="5.04607">
        <ele>122</ele>
        <time>2021-09-05T08:44:58.000Z</time>
      </trkpt>
      <trkpt lat="50.66976" lon="5.04687">
        <ele>121.40000152588</ele>
        <time>2021-09-05T08:45:05.000Z</time>
      </trkpt>
      <trkpt lat="50.66963" lon="5.04733">
        <ele>120.40000152588</ele>
        <time>2021-09-05T08:45:09.000Z</time>
      </trkpt>
      <trkpt lat="50.6694" lon="5.04822">
        <ele>119.80000305176</ele>
        <time>2021-09-05T08:45:17.000Z</time>
      </trkpt>
      <trkpt lat="50.66935" lon="5.04844">
        <ele>119.80000305176</ele>
        <time>2021-09-05T08:45:19.000Z</time>
      </trkpt>
      <trkpt lat="50.66913" lon="5.04925">
        <ele>120.19999694824</ele>
        <time>2021-09-05T08:45:27.000Z</time>
      </trkpt>
      <trkpt lat="50.66893" lon="5.05007">
        <ele>121.19999694824</ele>
        <time>2021-09-05T08:45:35.000Z</time>
      </trkpt>
      <trkpt lat="50.66891" lon="5.05017">
        <ele>121.19999694824</ele>
        <time>2021-09-05T08:45:36.000Z</time>
      </trkpt>
      <trkpt lat="50.66879" lon="5.05109">
        <ele>121.80000305176</ele>
        <time>2021-09-05T08:45:44.000Z</time>
      </trkpt>
      <trkpt lat="50.66874" lon="5.05171">
        <ele>121.80000305176</ele>
        <time>2021-09-05T08:45:49.000Z</time>
      </trkpt>
      <trkpt lat="50.66876" lon="5.05258">
        <ele>121.19999694824</ele>
        <time>2021-09-05T08:45:56.000Z</time>
      </trkpt>
      <trkpt lat="50.66877" lon="5.05295">
        <ele>121.19999694824</ele>
        <time>2021-09-05T08:45:59.000Z</time>
      </trkpt>
      <trkpt lat="50.66878" lon="5.05378">
        <ele>121.19999694824</ele>
        <time>2021-09-05T08:46:06.000Z</time>
      </trkpt>
      <trkpt lat="50.66879" lon="5.05423">
        <ele>121.40000152588</ele>
        <time>2021-09-05T08:46:10.000Z</time>
      </trkpt>
      <trkpt lat="50.66879" lon="5.05477">
        <ele>122</ele>
        <time>2021-09-05T08:46:15.000Z</time>
      </trkpt>
      <trkpt lat="50.66881" lon="5.05541">
        <ele>123</ele>
        <time>2021-09-05T08:46:21.000Z</time>
      </trkpt>
      <trkpt lat="50.66881" lon="5.05585">
        <ele>123.59999847412</ele>
        <time>2021-09-05T08:46:25.000Z</time>
      </trkpt>
      <trkpt lat="50.66882" lon="5.05653">
        <ele>124.40000152588</ele>
        <time>2021-09-05T08:46:31.000Z</time>
      </trkpt>
      <trkpt lat="50.66883" lon="5.05709">
        <ele>125</ele>
        <time>2021-09-05T08:46:36.000Z</time>
      </trkpt>
      <trkpt lat="50.66885" lon="5.05775">
        <ele>125.40000152588</ele>
        <time>2021-09-05T08:46:42.000Z</time>
      </trkpt>
      <trkpt lat="50.66886" lon="5.05866">
        <ele>126</ele>
        <time>2021-09-05T08:46:51.000Z</time>
      </trkpt>
      <trkpt lat="50.66886" lon="5.05901">
        <ele>126.19999694824</ele>
        <time>2021-09-05T08:46:55.000Z</time>
      </trkpt>
      <trkpt lat="50.66886" lon="5.05916">
        <ele>126.40000152588</ele>
        <time>2021-09-05T08:46:57.000Z</time>
      </trkpt>
      <trkpt lat="50.66886" lon="5.05957">
        <ele>126.80000305176</ele>
        <time>2021-09-05T08:47:04.000Z</time>
      </trkpt>
      <trkpt lat="50.66885" lon="5.05965">
        <ele>127.40000152588</ele>
        <time>2021-09-05T08:47:08.000Z</time>
      </trkpt>
      <trkpt lat="50.66887" lon="5.05961">
        <ele>127.80000305176</ele>
        <time>2021-09-05T08:49:33.000Z</time>
      </trkpt>
      <trkpt lat="50.66888" lon="5.0597">
        <ele>127.59999847412</ele>
        <time>2021-09-05T08:49:36.000Z</time>
      </trkpt>
      <trkpt lat="50.66887" lon="5.06">
        <ele>127.59999847412</ele>
        <time>2021-09-05T08:49:42.000Z</time>
      </trkpt>
      <trkpt lat="50.66888" lon="5.06043">
        <ele>127.80000305176</ele>
        <time>2021-09-05T08:49:49.000Z</time>
      </trkpt>
      <trkpt lat="50.66889" lon="5.0609">
        <ele>128.19999694824</ele>
        <time>2021-09-05T08:49:56.000Z</time>
      </trkpt>
      <trkpt lat="50.66889" lon="5.06113">
        <ele>128.39999389648</ele>
        <time>2021-09-05T08:49:59.000Z</time>
      </trkpt>
      <trkpt lat="50.6689" lon="5.06154">
        <ele>128.60000610352</ele>
        <time>2021-09-05T08:50:04.000Z</time>
      </trkpt>
      <trkpt lat="50.66891" lon="5.06216">
        <ele>129</ele>
        <time>2021-09-05T08:50:11.000Z</time>
      </trkpt>
      <trkpt lat="50.66891" lon="5.06252">
        <ele>129.80000305176</ele>
        <time>2021-09-05T08:50:15.000Z</time>
      </trkpt>
      <trkpt lat="50.66893" lon="5.06342">
        <ele>130</ele>
        <time>2021-09-05T08:50:25.000Z</time>
      </trkpt>
      <trkpt lat="50.66893" lon="5.06351">
        <ele>130.19999694824</ele>
        <time>2021-09-05T08:50:26.000Z</time>
      </trkpt>
      <trkpt lat="50.66894" lon="5.0636">
        <ele>130.39999389648</ele>
        <time>2021-09-05T08:50:27.000Z</time>
      </trkpt>
      <trkpt lat="50.66895" lon="5.06422">
        <ele>131</ele>
        <time>2021-09-05T08:50:34.000Z</time>
      </trkpt>
      <trkpt lat="50.66897" lon="5.06485">
        <ele>131.39999389648</ele>
        <time>2021-09-05T08:50:41.000Z</time>
      </trkpt>
      <trkpt lat="50.66898" lon="5.06522">
        <ele>132</ele>
        <time>2021-09-05T08:50:45.000Z</time>
      </trkpt>
      <trkpt lat="50.66899" lon="5.06615">
        <ele>132.60000610352</ele>
        <time>2021-09-05T08:50:55.000Z</time>
      </trkpt>
      <trkpt lat="50.66899" lon="5.06624">
        <ele>132.60000610352</ele>
        <time>2021-09-05T08:50:56.000Z</time>
      </trkpt>
      <trkpt lat="50.66899" lon="5.06702">
        <ele>133.39999389648</ele>
        <time>2021-09-05T08:51:04.000Z</time>
      </trkpt>
      <trkpt lat="50.66901" lon="5.06795">
        <ele>134</ele>
        <time>2021-09-05T08:51:13.000Z</time>
      </trkpt>
      <trkpt lat="50.66901" lon="5.06805">
        <ele>133.80000305176</ele>
        <time>2021-09-05T08:51:14.000Z</time>
      </trkpt>
      <trkpt lat="50.66902" lon="5.0687">
        <ele>134.39999389648</ele>
        <time>2021-09-05T08:51:20.000Z</time>
      </trkpt>
      <trkpt lat="50.66904" lon="5.06914">
        <ele>134.39999389648</ele>
        <time>2021-09-05T08:51:24.000Z</time>
      </trkpt>
      <trkpt lat="50.66905" lon="5.07003">
        <ele>134.39999389648</ele>
        <time>2021-09-05T08:51:32.000Z</time>
      </trkpt>
      <trkpt lat="50.66906" lon="5.07072">
        <ele>134.19999694824</ele>
        <time>2021-09-05T08:51:38.000Z</time>
      </trkpt>
      <trkpt lat="50.66907" lon="5.07128">
        <ele>134</ele>
        <time>2021-09-05T08:51:43.000Z</time>
      </trkpt>
      <trkpt lat="50.66906" lon="5.07215">
        <ele>133.80000305176</ele>
        <time>2021-09-05T08:51:51.000Z</time>
      </trkpt>
      <trkpt lat="50.669" lon="5.07231">
        <ele>133.80000305176</ele>
        <time>2021-09-05T08:51:54.000Z</time>
      </trkpt>
      <trkpt lat="50.66899" lon="5.07233">
        <ele>133.60000610352</ele>
        <time>2021-09-05T08:51:56.000Z</time>
      </trkpt>
      <trkpt lat="50.66896" lon="5.0724">
        <ele>132.80000305176</ele>
        <time>2021-09-05T08:52:03.000Z</time>
      </trkpt>
      <trkpt lat="50.669" lon="5.07252">
        <ele>132.80000305176</ele>
        <time>2021-09-05T08:52:06.000Z</time>
      </trkpt>
      <trkpt lat="50.66915" lon="5.07276">
        <ele>132.80000305176</ele>
        <time>2021-09-05T08:52:11.000Z</time>
      </trkpt>
      <trkpt lat="50.66933" lon="5.07299">
        <ele>132.80000305176</ele>
        <time>2021-09-05T08:52:15.000Z</time>
      </trkpt>
      <trkpt lat="50.66937" lon="5.07305">
        <ele>132.80000305176</ele>
        <time>2021-09-05T08:52:16.000Z</time>
      </trkpt>
      <trkpt lat="50.66981" lon="5.07362">
        <ele>133.60000610352</ele>
        <time>2021-09-05T08:52:25.000Z</time>
      </trkpt>
      <trkpt lat="50.66991" lon="5.07376">
        <ele>133.80000305176</ele>
        <time>2021-09-05T08:52:27.000Z</time>
      </trkpt>
      <trkpt lat="50.66996" lon="5.07395">
        <ele>133.80000305176</ele>
        <time>2021-09-05T08:52:29.000Z</time>
      </trkpt>
      <trkpt lat="50.66997" lon="5.07404">
        <ele>133.80000305176</ele>
        <time>2021-09-05T08:52:30.000Z</time>
      </trkpt>
      <trkpt lat="50.67" lon="5.07413">
        <ele>133.80000305176</ele>
        <time>2021-09-05T08:52:31.000Z</time>
      </trkpt>
      <trkpt lat="50.67005" lon="5.07418">
        <ele>134</ele>
        <time>2021-09-05T08:52:32.000Z</time>
      </trkpt>
      <trkpt lat="50.67011" lon="5.07421">
        <ele>134</ele>
        <time>2021-09-05T08:52:33.000Z</time>
      </trkpt>
      <trkpt lat="50.67024" lon="5.07421">
        <ele>134.19999694824</ele>
        <time>2021-09-05T08:52:35.000Z</time>
      </trkpt>
      <trkpt lat="50.6703" lon="5.07423">
        <ele>134.19999694824</ele>
        <time>2021-09-05T08:52:36.000Z</time>
      </trkpt>
      <trkpt lat="50.67042" lon="5.07431">
        <ele>134.60000610352</ele>
        <time>2021-09-05T08:52:38.000Z</time>
      </trkpt>
      <trkpt lat="50.67048" lon="5.07436">
        <ele>134.80000305176</ele>
        <time>2021-09-05T08:52:39.000Z</time>
      </trkpt>
      <trkpt lat="50.67073" lon="5.07469">
        <ele>135</ele>
        <time>2021-09-05T08:52:44.000Z</time>
      </trkpt>
      <trkpt lat="50.67077" lon="5.07477">
        <ele>135.19999694824</ele>
        <time>2021-09-05T08:52:45.000Z</time>
      </trkpt>
      <trkpt lat="50.67098" lon="5.0752">
        <ele>135.19999694824</ele>
        <time>2021-09-05T08:52:50.000Z</time>
      </trkpt>
      <trkpt lat="50.6713" lon="5.07577">
        <ele>135.19999694824</ele>
        <time>2021-09-05T08:52:57.000Z</time>
      </trkpt>
      <trkpt lat="50.67156" lon="5.07629">
        <ele>135.19999694824</ele>
        <time>2021-09-05T08:53:03.000Z</time>
      </trkpt>
      <trkpt lat="50.67164" lon="5.07648">
        <ele>135.19999694824</ele>
        <time>2021-09-05T08:53:05.000Z</time>
      </trkpt>
      <trkpt lat="50.67187" lon="5.07707">
        <ele>134.60000610352</ele>
        <time>2021-09-05T08:53:11.000Z</time>
      </trkpt>
      <trkpt lat="50.67191" lon="5.07716">
        <ele>134.19999694824</ele>
        <time>2021-09-05T08:53:12.000Z</time>
      </trkpt>
      <trkpt lat="50.6721" lon="5.0776">
        <ele>133.39999389648</ele>
        <time>2021-09-05T08:53:17.000Z</time>
      </trkpt>
      <trkpt lat="50.67224" lon="5.07799">
        <ele>140</ele>
        <time>2021-09-05T08:54:22.000Z</time>
        <extensions>
          <visugpx:TrkExtension xmlns:visugpx="https://www.visugpx.com/editgpx/">
            <visugpx:etape>Les Copains d'abord à  Hannut. </visugpx:etape>
            </visugpx:TrkExtension>
        </extensions>
      </trkpt>
      <trkpt lat="50.67214" lon="5.07788">
        <ele>131.80000305176</ele>
        <time>2021-09-05T09:19:25.000Z</time>
      </trkpt>
      <trkpt lat="50.67204" lon="5.07804">
        <ele>131.60000610352</ele>
        <time>2021-09-05T09:19:30.000Z</time>
      </trkpt>
      <trkpt lat="50.67186" lon="5.07831">
        <ele>131.60000610352</ele>
        <time>2021-09-05T09:19:36.000Z</time>
      </trkpt>
      <trkpt lat="50.67184" lon="5.07836">
        <ele>131.60000610352</ele>
        <time>2021-09-05T09:19:37.000Z</time>
      </trkpt>
      <trkpt lat="50.67166" lon="5.0787">
        <ele>131.80000305176</ele>
        <time>2021-09-05T09:19:43.000Z</time>
      </trkpt>
      <trkpt lat="50.67163" lon="5.07876">
        <ele>131.80000305176</ele>
        <time>2021-09-05T09:19:44.000Z</time>
      </trkpt>
      <trkpt lat="50.67156" lon="5.07887">
        <ele>131.60000610352</ele>
        <time>2021-09-05T09:19:46.000Z</time>
      </trkpt>
      <trkpt lat="50.67146" lon="5.07904">
        <ele>131.80000305176</ele>
        <time>2021-09-05T09:19:49.000Z</time>
      </trkpt>
      <trkpt lat="50.67135" lon="5.07928">
        <ele>131.80000305176</ele>
        <time>2021-09-05T09:19:53.000Z</time>
      </trkpt>
      <trkpt lat="50.67129" lon="5.0794">
        <ele>131.60000610352</ele>
        <time>2021-09-05T09:19:55.000Z</time>
      </trkpt>
      <trkpt lat="50.67129" lon="5.07947">
        <ele>131.60000610352</ele>
        <time>2021-09-05T09:19:56.000Z</time>
      </trkpt>
      <trkpt lat="50.67131" lon="5.07959">
        <ele>131.80000305176</ele>
        <time>2021-09-05T09:19:59.000Z</time>
      </trkpt>
      <trkpt lat="50.67133" lon="5.07961">
        <ele>131.60000610352</ele>
        <time>2021-09-05T09:20:01.000Z</time>
      </trkpt>
      <trkpt lat="50.67137" lon="5.07963">
        <ele>131.39999389648</ele>
        <time>2021-09-05T09:20:27.000Z</time>
      </trkpt>
      <trkpt lat="50.6714" lon="5.07965">
        <ele>131.60000610352</ele>
        <time>2021-09-05T09:20:28.000Z</time>
      </trkpt>
      <trkpt lat="50.67161" lon="5.07979">
        <ele>131.39999389648</ele>
        <time>2021-09-05T09:20:35.000Z</time>
      </trkpt>
      <trkpt lat="50.67184" lon="5.07991">
        <ele>131.39999389648</ele>
        <time>2021-09-05T09:20:40.000Z</time>
      </trkpt>
      <trkpt lat="50.67232" lon="5.08007">
        <ele>131.19999694824</ele>
        <time>2021-09-05T09:20:49.000Z</time>
      </trkpt>
      <trkpt lat="50.67241" lon="5.08007">
        <ele>131</ele>
        <time>2021-09-05T09:20:51.000Z</time>
      </trkpt>
      <trkpt lat="50.67248" lon="5.08013">
        <ele>131.19999694824</ele>
        <time>2021-09-05T09:20:53.000Z</time>
      </trkpt>
      <trkpt lat="50.6725" lon="5.08018">
        <ele>131.19999694824</ele>
        <time>2021-09-05T09:20:54.000Z</time>
      </trkpt>
      <trkpt lat="50.6726" lon="5.08047">
        <ele>131.19999694824</ele>
        <time>2021-09-05T09:20:59.000Z</time>
      </trkpt>
      <trkpt lat="50.67282" lon="5.08092">
        <ele>131.19999694824</ele>
        <time>2021-09-05T09:21:06.000Z</time>
      </trkpt>
      <trkpt lat="50.67311" lon="5.08149">
        <ele>131.60000610352</ele>
        <time>2021-09-05T09:21:14.000Z</time>
      </trkpt>
      <trkpt lat="50.67339" lon="5.08189">
        <ele>131.60000610352</ele>
        <time>2021-09-05T09:21:20.000Z</time>
      </trkpt>
      <trkpt lat="50.67344" lon="5.08196">
        <ele>131.39999389648</ele>
        <time>2021-09-05T09:21:21.000Z</time>
      </trkpt>
      <trkpt lat="50.67385" lon="5.08249">
        <ele>130.80000305176</ele>
        <time>2021-09-05T09:21:30.000Z</time>
      </trkpt>
      <trkpt lat="50.67419" lon="5.08294">
        <ele>130.19999694824</ele>
        <time>2021-09-05T09:21:38.000Z</time>
      </trkpt>
      <trkpt lat="50.67428" lon="5.08305">
        <ele>130</ele>
        <time>2021-09-05T09:21:40.000Z</time>
      </trkpt>
      <trkpt lat="50.67444" lon="5.08327">
        <ele>130</ele>
        <time>2021-09-05T09:21:44.000Z</time>
      </trkpt>
      <trkpt lat="50.67446" lon="5.08332">
        <ele>129.80000305176</ele>
        <time>2021-09-05T09:21:45.000Z</time>
      </trkpt>
      <trkpt lat="50.67447" lon="5.08339">
        <ele>129.80000305176</ele>
        <time>2021-09-05T09:21:46.000Z</time>
      </trkpt>
      <trkpt lat="50.67444" lon="5.08345">
        <ele>129.80000305176</ele>
        <time>2021-09-05T09:21:47.000Z</time>
      </trkpt>
      <trkpt lat="50.67441" lon="5.08351">
        <ele>129.60000610352</ele>
        <time>2021-09-05T09:21:48.000Z</time>
      </trkpt>
      <trkpt lat="50.67429" lon="5.08369">
        <ele>129.60000610352</ele>
        <time>2021-09-05T09:21:51.000Z</time>
      </trkpt>
      <trkpt lat="50.67409" lon="5.084">
        <ele>129.39999389648</ele>
        <time>2021-09-05T09:21:56.000Z</time>
      </trkpt>
      <trkpt lat="50.67407" lon="5.08407">
        <ele>129.39999389648</ele>
        <time>2021-09-05T09:21:57.000Z</time>
      </trkpt>
      <trkpt lat="50.67407" lon="5.08416">
        <ele>129.39999389648</ele>
        <time>2021-09-05T09:21:58.000Z</time>
      </trkpt>
      <trkpt lat="50.6741" lon="5.08434">
        <ele>129.39999389648</ele>
        <time>2021-09-05T09:22:00.000Z</time>
      </trkpt>
      <trkpt lat="50.6741" lon="5.08444">
        <ele>129.19999694824</ele>
        <time>2021-09-05T09:22:01.000Z</time>
      </trkpt>
      <trkpt lat="50.67409" lon="5.08486">
        <ele>129.39999389648</ele>
        <time>2021-09-05T09:22:05.000Z</time>
      </trkpt>
      <trkpt lat="50.67415" lon="5.08541">
        <ele>128.80000305176</ele>
        <time>2021-09-05T09:22:10.000Z</time>
      </trkpt>
      <trkpt lat="50.67433" lon="5.08627">
        <ele>128</ele>
        <time>2021-09-05T09:22:18.000Z</time>
      </trkpt>
      <trkpt lat="50.67437" lon="5.08648">
        <ele>128</ele>
        <time>2021-09-05T09:22:20.000Z</time>
      </trkpt>
      <trkpt lat="50.67452" lon="5.08717">
        <ele>127.19999694824</ele>
        <time>2021-09-05T09:22:27.000Z</time>
      </trkpt>
      <trkpt lat="50.67464" lon="5.08771">
        <ele>126.80000305176</ele>
        <time>2021-09-05T09:22:33.000Z</time>
      </trkpt>
      <trkpt lat="50.67466" lon="5.0879">
        <ele>126.80000305176</ele>
        <time>2021-09-05T09:22:35.000Z</time>
      </trkpt>
      <trkpt lat="50.67464" lon="5.08809">
        <ele>126.59999847412</ele>
        <time>2021-09-05T09:22:37.000Z</time>
      </trkpt>
      <trkpt lat="50.67462" lon="5.08818">
        <ele>126.59999847412</ele>
        <time>2021-09-05T09:22:38.000Z</time>
      </trkpt>
      <trkpt lat="50.67459" lon="5.08827">
        <ele>126.59999847412</ele>
        <time>2021-09-05T09:22:39.000Z</time>
      </trkpt>
      <trkpt lat="50.67442" lon="5.08869">
        <ele>126.40000152588</ele>
        <time>2021-09-05T09:22:44.000Z</time>
      </trkpt>
      <trkpt lat="50.67417" lon="5.08935">
        <ele>126</ele>
        <time>2021-09-05T09:22:52.000Z</time>
      </trkpt>
      <trkpt lat="50.67408" lon="5.08948">
        <ele>126.19999694824</ele>
        <time>2021-09-05T09:22:54.000Z</time>
      </trkpt>
      <trkpt lat="50.67402" lon="5.08951">
        <ele>126</ele>
        <time>2021-09-05T09:22:55.000Z</time>
      </trkpt>
      <trkpt lat="50.67396" lon="5.08952">
        <ele>126</ele>
        <time>2021-09-05T09:22:56.000Z</time>
      </trkpt>
      <trkpt lat="50.67385" lon="5.08949">
        <ele>126.19999694824</ele>
        <time>2021-09-05T09:22:58.000Z</time>
      </trkpt>
      <trkpt lat="50.67374" lon="5.08942">
        <ele>126</ele>
        <time>2021-09-05T09:23:00.000Z</time>
      </trkpt>
      <trkpt lat="50.67362" lon="5.08937">
        <ele>126.19999694824</ele>
        <time>2021-09-05T09:23:02.000Z</time>
      </trkpt>
      <trkpt lat="50.67356" lon="5.08935">
        <ele>126.19999694824</ele>
        <time>2021-09-05T09:23:03.000Z</time>
      </trkpt>
      <trkpt lat="50.67313" lon="5.08934">
        <ele>126.59999847412</ele>
        <time>2021-09-05T09:23:10.000Z</time>
      </trkpt>
      <trkpt lat="50.67303" lon="5.08935">
        <ele>126.59999847412</ele>
        <time>2021-09-05T09:23:12.000Z</time>
      </trkpt>
      <trkpt lat="50.67298" lon="5.08936">
        <ele>126.80000305176</ele>
        <time>2021-09-05T09:23:13.000Z</time>
      </trkpt>
      <trkpt lat="50.6729" lon="5.08941">
        <ele>127</ele>
        <time>2021-09-05T09:23:15.000Z</time>
      </trkpt>
      <trkpt lat="50.67288" lon="5.08946">
        <ele>127.19999694824</ele>
        <time>2021-09-05T09:23:16.000Z</time>
      </trkpt>
      <trkpt lat="50.67287" lon="5.08952">
        <ele>127.19999694824</ele>
        <time>2021-09-05T09:23:17.000Z</time>
      </trkpt>
      <trkpt lat="50.67287" lon="5.08959">
        <ele>127.19999694824</ele>
        <time>2021-09-05T09:23:18.000Z</time>
      </trkpt>
      <trkpt lat="50.6729" lon="5.09006">
        <ele>128</ele>
        <time>2021-09-05T09:23:24.000Z</time>
      </trkpt>
      <trkpt lat="50.67291" lon="5.09015">
        <ele>128.19999694824</ele>
        <time>2021-09-05T09:23:25.000Z</time>
      </trkpt>
      <trkpt lat="50.67293" lon="5.09041">
        <ele>128.60000610352</ele>
        <time>2021-09-05T09:23:28.000Z</time>
      </trkpt>
      <trkpt lat="50.67297" lon="5.09058">
        <ele>128.80000305176</ele>
        <time>2021-09-05T09:23:30.000Z</time>
      </trkpt>
      <trkpt lat="50.67315" lon="5.091">
        <ele>129.39999389648</ele>
        <time>2021-09-05T09:23:36.000Z</time>
      </trkpt>
      <trkpt lat="50.67323" lon="5.09117">
        <ele>129.39999389648</ele>
        <time>2021-09-05T09:23:40.000Z</time>
      </trkpt>
      <trkpt lat="50.67325" lon="5.09121">
        <ele>129.60000610352</ele>
        <time>2021-09-05T09:23:43.000Z</time>
      </trkpt>
      <trkpt lat="50.67327" lon="5.09123">
        <ele>129.39999389648</ele>
        <time>2021-09-05T09:24:16.000Z</time>
      </trkpt>
      <trkpt lat="50.67333" lon="5.0914">
        <ele>129.39999389648</ele>
        <time>2021-09-05T09:24:21.000Z</time>
      </trkpt>
      <trkpt lat="50.67336" lon="5.0915">
        <ele>129.60000610352</ele>
        <time>2021-09-05T09:24:23.000Z</time>
      </trkpt>
      <trkpt lat="50.67339" lon="5.09156">
        <ele>129.60000610352</ele>
        <time>2021-09-05T09:24:24.000Z</time>
      </trkpt>
      <trkpt lat="50.67344" lon="5.09168">
        <ele>129.60000610352</ele>
        <time>2021-09-05T09:24:26.000Z</time>
      </trkpt>
      <trkpt lat="50.6736" lon="5.09204">
        <ele>129.80000305176</ele>
        <time>2021-09-05T09:24:31.000Z</time>
      </trkpt>
      <trkpt lat="50.67378" lon="5.09246">
        <ele>130.19999694824</ele>
        <time>2021-09-05T09:24:36.000Z</time>
      </trkpt>
      <trkpt lat="50.67392" lon="5.09279">
        <ele>130.39999389648</ele>
        <time>2021-09-05T09:24:40.000Z</time>
      </trkpt>
      <trkpt lat="50.67423" lon="5.09353">
        <ele>131.19999694824</ele>
        <time>2021-09-05T09:24:49.000Z</time>
      </trkpt>
      <trkpt lat="50.67429" lon="5.09369">
        <ele>131.39999389648</ele>
        <time>2021-09-05T09:24:51.000Z</time>
      </trkpt>
      <trkpt lat="50.67436" lon="5.09385">
        <ele>131.60000610352</ele>
        <time>2021-09-05T09:24:53.000Z</time>
      </trkpt>
      <trkpt lat="50.67466" lon="5.09457">
        <ele>132.60000610352</ele>
        <time>2021-09-05T09:25:02.000Z</time>
      </trkpt>
      <trkpt lat="50.67469" lon="5.09466">
        <ele>132.60000610352</ele>
        <time>2021-09-05T09:25:03.000Z</time>
      </trkpt>
      <trkpt lat="50.67484" lon="5.095">
        <ele>133</ele>
        <time>2021-09-05T09:25:07.000Z</time>
      </trkpt>
      <trkpt lat="50.67502" lon="5.09544">
        <ele>133.19999694824</ele>
        <time>2021-09-05T09:25:12.000Z</time>
      </trkpt>
      <trkpt lat="50.67535" lon="5.09623">
        <ele>133.80000305176</ele>
        <time>2021-09-05T09:25:21.000Z</time>
      </trkpt>
      <trkpt lat="50.67562" lon="5.09698">
        <ele>134</ele>
        <time>2021-09-05T09:25:29.000Z</time>
      </trkpt>
      <trkpt lat="50.67568" lon="5.09717">
        <ele>134</ele>
        <time>2021-09-05T09:25:31.000Z</time>
      </trkpt>
      <trkpt lat="50.67593" lon="5.09792">
        <ele>134</ele>
        <time>2021-09-05T09:25:39.000Z</time>
      </trkpt>
      <trkpt lat="50.676" lon="5.09811">
        <ele>134.19999694824</ele>
        <time>2021-09-05T09:25:41.000Z</time>
      </trkpt>
      <trkpt lat="50.67626" lon="5.09887">
        <ele>134.19999694824</ele>
        <time>2021-09-05T09:25:49.000Z</time>
      </trkpt>
      <trkpt lat="50.67632" lon="5.09907">
        <ele>134</ele>
        <time>2021-09-05T09:25:51.000Z</time>
      </trkpt>
      <trkpt lat="50.67648" lon="5.09979">
        <ele>134.19999694824</ele>
        <time>2021-09-05T09:25:58.000Z</time>
      </trkpt>
      <trkpt lat="50.67658" lon="5.10032">
        <ele>134.19999694824</ele>
        <time>2021-09-05T09:26:03.000Z</time>
      </trkpt>
      <trkpt lat="50.67669" lon="5.10084">
        <ele>134.39999389648</ele>
        <time>2021-09-05T09:26:08.000Z</time>
      </trkpt>
      <trkpt lat="50.67673" lon="5.10105">
        <ele>134.39999389648</ele>
        <time>2021-09-05T09:26:10.000Z</time>
      </trkpt>
      <trkpt lat="50.67689" lon="5.10189">
        <ele>134.80000305176</ele>
        <time>2021-09-05T09:26:18.000Z</time>
      </trkpt>
      <trkpt lat="50.67695" lon="5.1022">
        <ele>135</ele>
        <time>2021-09-05T09:26:21.000Z</time>
      </trkpt>
      <trkpt lat="50.67706" lon="5.10309">
        <ele>135</ele>
        <time>2021-09-05T09:26:29.000Z</time>
      </trkpt>
      <trkpt lat="50.67707" lon="5.1032">
        <ele>135.19999694824</ele>
        <time>2021-09-05T09:26:30.000Z</time>
      </trkpt>
      <trkpt lat="50.67708" lon="5.104">
        <ele>135</ele>
        <time>2021-09-05T09:26:37.000Z</time>
      </trkpt>
      <trkpt lat="50.67703" lon="5.10469">
        <ele>134.80000305176</ele>
        <time>2021-09-05T09:26:43.000Z</time>
      </trkpt>
      <trkpt lat="50.677" lon="5.10492">
        <ele>134.60000610352</ele>
        <time>2021-09-05T09:26:45.000Z</time>
      </trkpt>
      <trkpt lat="50.67696" lon="5.10541">
        <ele>134.19999694824</ele>
        <time>2021-09-05T09:26:49.000Z</time>
      </trkpt>
      <trkpt lat="50.67689" lon="5.10626">
        <ele>133.39999389648</ele>
        <time>2021-09-05T09:26:56.000Z</time>
      </trkpt>
      <trkpt lat="50.67688" lon="5.10638">
        <ele>133.60000610352</ele>
        <time>2021-09-05T09:26:57.000Z</time>
      </trkpt>
      <trkpt lat="50.67683" lon="5.10702">
        <ele>133</ele>
        <time>2021-09-05T09:27:02.000Z</time>
      </trkpt>
      <trkpt lat="50.67681" lon="5.1074">
        <ele>132.60000610352</ele>
        <time>2021-09-05T09:27:05.000Z</time>
      </trkpt>
      <trkpt lat="50.67678" lon="5.10778">
        <ele>132</ele>
        <time>2021-09-05T09:27:08.000Z</time>
      </trkpt>
      <trkpt lat="50.67675" lon="5.1083">
        <ele>131.19999694824</ele>
        <time>2021-09-05T09:27:12.000Z</time>
      </trkpt>
      <trkpt lat="50.67672" lon="5.10868">
        <ele>130.80000305176</ele>
        <time>2021-09-05T09:27:15.000Z</time>
      </trkpt>
      <trkpt lat="50.67667" lon="5.10942">
        <ele>129.60000610352</ele>
        <time>2021-09-05T09:27:21.000Z</time>
      </trkpt>
      <trkpt lat="50.67665" lon="5.10967">
        <ele>129</ele>
        <time>2021-09-05T09:27:23.000Z</time>
      </trkpt>
      <trkpt lat="50.67663" lon="5.10992">
        <ele>128.80000305176</ele>
        <time>2021-09-05T09:27:25.000Z</time>
      </trkpt>
      <trkpt lat="50.67659" lon="5.11018">
        <ele>128.39999389648</ele>
        <time>2021-09-05T09:27:27.000Z</time>
      </trkpt>
      <trkpt lat="50.67652" lon="5.11042">
        <ele>128.19999694824</ele>
        <time>2021-09-05T09:27:29.000Z</time>
      </trkpt>
      <trkpt lat="50.67629" lon="5.11111">
        <ele>126.59999847412</ele>
        <time>2021-09-05T09:27:35.000Z</time>
      </trkpt>
      <trkpt lat="50.67619" lon="5.11132">
        <ele>126.40000152588</ele>
        <time>2021-09-05T09:27:37.000Z</time>
      </trkpt>
      <trkpt lat="50.67589" lon="5.11174">
        <ele>126</ele>
        <time>2021-09-05T09:27:42.000Z</time>
      </trkpt>
      <trkpt lat="50.67547" lon="5.11231">
        <ele>125.19999694824</ele>
        <time>2021-09-05T09:27:49.000Z</time>
      </trkpt>
      <trkpt lat="50.67539" lon="5.11253">
        <ele>125</ele>
        <time>2021-09-05T09:27:51.000Z</time>
      </trkpt>
      <trkpt lat="50.67537" lon="5.11265">
        <ele>125</ele>
        <time>2021-09-05T09:27:52.000Z</time>
      </trkpt>
      <trkpt lat="50.67533" lon="5.11338">
        <ele>125</ele>
        <time>2021-09-05T09:27:58.000Z</time>
      </trkpt>
      <trkpt lat="50.67526" lon="5.11433">
        <ele>125</ele>
        <time>2021-09-05T09:28:06.000Z</time>
      </trkpt>
      <trkpt lat="50.67515" lon="5.11521">
        <ele>125</ele>
        <time>2021-09-05T09:28:14.000Z</time>
      </trkpt>
      <trkpt lat="50.67513" lon="5.11542">
        <ele>125.40000152588</ele>
        <time>2021-09-05T09:28:16.000Z</time>
      </trkpt>
      <trkpt lat="50.67506" lon="5.11598">
        <ele>125.59999847412</ele>
        <time>2021-09-05T09:28:22.000Z</time>
      </trkpt>
      <trkpt lat="50.67506" lon="5.11607">
        <ele>125.59999847412</ele>
        <time>2021-09-05T09:28:23.000Z</time>
      </trkpt>
      <trkpt lat="50.67507" lon="5.11615">
        <ele>125.59999847412</ele>
        <time>2021-09-05T09:28:24.000Z</time>
      </trkpt>
      <trkpt lat="50.67515" lon="5.11628">
        <ele>126</ele>
        <time>2021-09-05T09:28:26.000Z</time>
      </trkpt>
      <trkpt lat="50.67527" lon="5.11636">
        <ele>126.19999694824</ele>
        <time>2021-09-05T09:28:28.000Z</time>
      </trkpt>
      <trkpt lat="50.67539" lon="5.11642">
        <ele>126.19999694824</ele>
        <time>2021-09-05T09:28:30.000Z</time>
      </trkpt>
      <trkpt lat="50.67563" lon="5.11652">
        <ele>126.59999847412</ele>
        <time>2021-09-05T09:28:34.000Z</time>
      </trkpt>
      <trkpt lat="50.6757" lon="5.11664">
        <ele>126.59999847412</ele>
        <time>2021-09-05T09:28:36.000Z</time>
      </trkpt>
      <trkpt lat="50.67566" lon="5.1168">
        <ele>126.40000152588</ele>
        <time>2021-09-05T09:28:38.000Z</time>
      </trkpt>
      <trkpt lat="50.67548" lon="5.11731">
        <ele>126.80000305176</ele>
        <time>2021-09-05T09:28:44.000Z</time>
      </trkpt>
      <trkpt lat="50.67542" lon="5.11761">
        <ele>126.80000305176</ele>
        <time>2021-09-05T09:28:47.000Z</time>
      </trkpt>
      <trkpt lat="50.67541" lon="5.11782">
        <ele>127</ele>
        <time>2021-09-05T09:28:49.000Z</time>
      </trkpt>
      <trkpt lat="50.67541" lon="5.11825">
        <ele>127.40000152588</ele>
        <time>2021-09-05T09:28:53.000Z</time>
      </trkpt>
      <trkpt lat="50.67542" lon="5.11846">
        <ele>127.19999694824</ele>
        <time>2021-09-05T09:28:55.000Z</time>
      </trkpt>
      <trkpt lat="50.67546" lon="5.1194">
        <ele>127</ele>
        <time>2021-09-05T09:29:04.000Z</time>
      </trkpt>
      <trkpt lat="50.67548" lon="5.11991">
        <ele>127.19999694824</ele>
        <time>2021-09-05T09:29:09.000Z</time>
      </trkpt>
      <trkpt lat="50.6755" lon="5.12042">
        <ele>127.19999694824</ele>
        <time>2021-09-05T09:29:14.000Z</time>
      </trkpt>
      <trkpt lat="50.67553" lon="5.1209">
        <ele>127.59999847412</ele>
        <time>2021-09-05T09:29:19.000Z</time>
      </trkpt>
      <trkpt lat="50.67555" lon="5.12135">
        <ele>128.39999389648</ele>
        <time>2021-09-05T09:29:24.000Z</time>
      </trkpt>
      <trkpt lat="50.67557" lon="5.12161">
        <ele>128.80000305176</ele>
        <time>2021-09-05T09:29:27.000Z</time>
      </trkpt>
      <trkpt lat="50.67562" lon="5.12222">
        <ele>130</ele>
        <time>2021-09-05T09:29:34.000Z</time>
      </trkpt>
      <trkpt lat="50.67563" lon="5.12231">
        <ele>130.19999694824</ele>
        <time>2021-09-05T09:29:35.000Z</time>
      </trkpt>
      <trkpt lat="50.6757" lon="5.12285">
        <ele>131.39999389648</ele>
        <time>2021-09-05T09:29:41.000Z</time>
      </trkpt>
      <trkpt lat="50.67573" lon="5.12312">
        <ele>132.19999694824</ele>
        <time>2021-09-05T09:29:44.000Z</time>
      </trkpt>
      <trkpt lat="50.67584" lon="5.12387">
        <ele>133.39999389648</ele>
        <time>2021-09-05T09:29:52.000Z</time>
      </trkpt>
      <trkpt lat="50.67585" lon="5.12397">
        <ele>133.60000610352</ele>
        <time>2021-09-05T09:29:53.000Z</time>
      </trkpt>
      <trkpt lat="50.67596" lon="5.1247">
        <ele>133.80000305176</ele>
        <time>2021-09-05T09:30:00.000Z</time>
      </trkpt>
      <trkpt lat="50.67601" lon="5.12503">
        <ele>134</ele>
        <time>2021-09-05T09:30:03.000Z</time>
      </trkpt>
      <trkpt lat="50.67611" lon="5.12571">
        <ele>133.19999694824</ele>
        <time>2021-09-05T09:30:09.000Z</time>
      </trkpt>
      <trkpt lat="50.67618" lon="5.12618">
        <ele>132.60000610352</ele>
        <time>2021-09-05T09:30:13.000Z</time>
      </trkpt>
      <trkpt lat="50.67623" lon="5.12654">
        <ele>132.39999389648</ele>
        <time>2021-09-05T09:30:16.000Z</time>
      </trkpt>
      <trkpt lat="50.67635" lon="5.12738">
        <ele>131.19999694824</ele>
        <time>2021-09-05T09:30:23.000Z</time>
      </trkpt>
      <trkpt lat="50.67637" lon="5.1275">
        <ele>131.19999694824</ele>
        <time>2021-09-05T09:30:24.000Z</time>
      </trkpt>
      <trkpt lat="50.67646" lon="5.12834">
        <ele>130.60000610352</ele>
        <time>2021-09-05T09:30:31.000Z</time>
      </trkpt>
      <trkpt lat="50.67646" lon="5.12882">
        <ele>130.39999389648</ele>
        <time>2021-09-05T09:30:35.000Z</time>
      </trkpt>
      <trkpt lat="50.67644" lon="5.12918">
        <ele>130.19999694824</ele>
        <time>2021-09-05T09:30:38.000Z</time>
      </trkpt>
      <trkpt lat="50.67637" lon="5.13012">
        <ele>129.60000610352</ele>
        <time>2021-09-05T09:30:46.000Z</time>
      </trkpt>
      <trkpt lat="50.67632" lon="5.13058">
        <ele>129.60000610352</ele>
        <time>2021-09-05T09:30:50.000Z</time>
      </trkpt>
      <trkpt lat="50.67621" lon="5.1315">
        <ele>129.39999389648</ele>
        <time>2021-09-05T09:30:58.000Z</time>
      </trkpt>
      <trkpt lat="50.67617" lon="5.13184">
        <ele>129.39999389648</ele>
        <time>2021-09-05T09:31:01.000Z</time>
      </trkpt>
      <trkpt lat="50.6761" lon="5.13238">
        <ele>130</ele>
        <time>2021-09-05T09:31:06.000Z</time>
      </trkpt>
      <trkpt lat="50.67602" lon="5.13298">
        <ele>130.60000610352</ele>
        <time>2021-09-05T09:31:12.000Z</time>
      </trkpt>
      <trkpt lat="50.676" lon="5.13317">
        <ele>131.19999694824</ele>
        <time>2021-09-05T09:31:14.000Z</time>
      </trkpt>
      <trkpt lat="50.67598" lon="5.13336">
        <ele>131.60000610352</ele>
        <time>2021-09-05T09:31:16.000Z</time>
      </trkpt>
      <trkpt lat="50.67593" lon="5.13384">
        <ele>133.19999694824</ele>
        <time>2021-09-05T09:31:21.000Z</time>
      </trkpt>
      <trkpt lat="50.67586" lon="5.13441">
        <ele>134.80000305176</ele>
        <time>2021-09-05T09:31:27.000Z</time>
      </trkpt>
      <trkpt lat="50.67577" lon="5.13514">
        <ele>136.60000610352</ele>
        <time>2021-09-05T09:31:35.000Z</time>
      </trkpt>
      <trkpt lat="50.67573" lon="5.1355">
        <ele>137.60000610352</ele>
        <time>2021-09-05T09:31:39.000Z</time>
      </trkpt>
      <trkpt lat="50.67569" lon="5.13586">
        <ele>138.39999389648</ele>
        <time>2021-09-05T09:31:43.000Z</time>
      </trkpt>
      <trkpt lat="50.67564" lon="5.13625">
        <ele>139.19999694824</ele>
        <time>2021-09-05T09:31:47.000Z</time>
      </trkpt>
      <trkpt lat="50.67553" lon="5.13707">
        <ele>139.80000305176</ele>
        <time>2021-09-05T09:31:55.000Z</time>
      </trkpt>
      <trkpt lat="50.67538" lon="5.13792">
        <ele>139.80000305176</ele>
        <time>2021-09-05T09:32:03.000Z</time>
      </trkpt>
      <trkpt lat="50.67534" lon="5.13813">
        <ele>139.80000305176</ele>
        <time>2021-09-05T09:32:05.000Z</time>
      </trkpt>
      <trkpt lat="50.67524" lon="5.13855">
        <ele>139.60000610352</ele>
        <time>2021-09-05T09:32:09.000Z</time>
      </trkpt>
      <trkpt lat="50.67508" lon="5.13916">
        <ele>139.19999694824</ele>
        <time>2021-09-05T09:32:15.000Z</time>
      </trkpt>
      <trkpt lat="50.67485" lon="5.13994">
        <ele>139.19999694824</ele>
        <time>2021-09-05T09:32:23.000Z</time>
      </trkpt>
      <trkpt lat="50.67475" lon="5.14029">
        <ele>139</ele>
        <time>2021-09-05T09:32:27.000Z</time>
      </trkpt>
      <trkpt lat="50.6747" lon="5.14047">
        <ele>138.80000305176</ele>
        <time>2021-09-05T09:32:29.000Z</time>
      </trkpt>
      <trkpt lat="50.67464" lon="5.14067">
        <ele>138.80000305176</ele>
        <time>2021-09-05T09:32:31.000Z</time>
      </trkpt>
      <trkpt lat="50.67454" lon="5.141">
        <ele>138.39999389648</ele>
        <time>2021-09-05T09:32:34.000Z</time>
      </trkpt>
      <trkpt lat="50.67447" lon="5.14123">
        <ele>138.19999694824</ele>
        <time>2021-09-05T09:32:36.000Z</time>
      </trkpt>
      <trkpt lat="50.67434" lon="5.1417">
        <ele>137.19999694824</ele>
        <time>2021-09-05T09:32:40.000Z</time>
      </trkpt>
      <trkpt lat="50.67427" lon="5.14194">
        <ele>136.60000610352</ele>
        <time>2021-09-05T09:32:42.000Z</time>
      </trkpt>
      <trkpt lat="50.67416" lon="5.1423">
        <ele>135.80000305176</ele>
        <time>2021-09-05T09:32:45.000Z</time>
      </trkpt>
      <trkpt lat="50.67413" lon="5.14242">
        <ele>135.80000305176</ele>
        <time>2021-09-05T09:32:46.000Z</time>
      </trkpt>
      <trkpt lat="50.67398" lon="5.14291">
        <ele>134.39999389648</ele>
        <time>2021-09-05T09:32:50.000Z</time>
      </trkpt>
      <trkpt lat="50.67384" lon="5.14326">
        <ele>133.80000305176</ele>
        <time>2021-09-05T09:32:53.000Z</time>
      </trkpt>
      <trkpt lat="50.67372" lon="5.14346">
        <ele>133.19999694824</ele>
        <time>2021-09-05T09:32:55.000Z</time>
      </trkpt>
      <trkpt lat="50.67359" lon="5.14363">
        <ele>132.39999389648</ele>
        <time>2021-09-05T09:32:57.000Z</time>
      </trkpt>
      <trkpt lat="50.67309" lon="5.14413">
        <ele>130.39999389648</ele>
        <time>2021-09-05T09:33:04.000Z</time>
      </trkpt>
      <trkpt lat="50.67302" lon="5.14419">
        <ele>130.19999694824</ele>
        <time>2021-09-05T09:33:05.000Z</time>
      </trkpt>
      <trkpt lat="50.67294" lon="5.14424">
        <ele>130</ele>
        <time>2021-09-05T09:33:06.000Z</time>
      </trkpt>
      <trkpt lat="50.6724" lon="5.14462">
        <ele>129</ele>
        <time>2021-09-05T09:33:13.000Z</time>
      </trkpt>
      <trkpt lat="50.67232" lon="5.14467">
        <ele>128.39999389648</ele>
        <time>2021-09-05T09:33:14.000Z</time>
      </trkpt>
      <trkpt lat="50.67182" lon="5.14503">
        <ele>127.40000152588</ele>
        <time>2021-09-05T09:33:21.000Z</time>
      </trkpt>
      <trkpt lat="50.67158" lon="5.14519">
        <ele>126.19999694824</ele>
        <time>2021-09-05T09:33:25.000Z</time>
      </trkpt>
      <trkpt lat="50.67154" lon="5.14524">
        <ele>126.19999694824</ele>
        <time>2021-09-05T09:33:26.000Z</time>
      </trkpt>
      <trkpt lat="50.67152" lon="5.14531">
        <ele>126.19999694824</ele>
        <time>2021-09-05T09:33:27.000Z</time>
      </trkpt>
      <trkpt lat="50.67154" lon="5.14547">
        <ele>125.80000305176</ele>
        <time>2021-09-05T09:33:29.000Z</time>
      </trkpt>
      <trkpt lat="50.67168" lon="5.1458">
        <ele>125.80000305176</ele>
        <time>2021-09-05T09:33:33.000Z</time>
      </trkpt>
      <trkpt lat="50.67181" lon="5.14607">
        <ele>125.59999847412</ele>
        <time>2021-09-05T09:33:36.000Z</time>
      </trkpt>
      <trkpt lat="50.67186" lon="5.14617">
        <ele>125.40000152588</ele>
        <time>2021-09-05T09:33:37.000Z</time>
      </trkpt>
      <trkpt lat="50.67204" lon="5.14654">
        <ele>125.19999694824</ele>
        <time>2021-09-05T09:33:41.000Z</time>
      </trkpt>
      <trkpt lat="50.6724" lon="5.14729">
        <ele>124.80000305176</ele>
        <time>2021-09-05T09:33:49.000Z</time>
      </trkpt>
      <trkpt lat="50.67244" lon="5.14738">
        <ele>124.59999847412</ele>
        <time>2021-09-05T09:33:50.000Z</time>
      </trkpt>
      <trkpt lat="50.6726" lon="5.14774">
        <ele>124.59999847412</ele>
        <time>2021-09-05T09:33:54.000Z</time>
      </trkpt>
      <trkpt lat="50.67271" lon="5.14802">
        <ele>124.59999847412</ele>
        <time>2021-09-05T09:33:57.000Z</time>
      </trkpt>
      <trkpt lat="50.67288" lon="5.14849">
        <ele>124.40000152588</ele>
        <time>2021-09-05T09:34:02.000Z</time>
      </trkpt>
      <trkpt lat="50.67292" lon="5.14857">
        <ele>124.40000152588</ele>
        <time>2021-09-05T09:34:03.000Z</time>
      </trkpt>
      <trkpt lat="50.67297" lon="5.14871">
        <ele>124.40000152588</ele>
        <time>2021-09-05T09:34:05.000Z</time>
      </trkpt>
      <trkpt lat="50.673" lon="5.14881">
        <ele>124.19999694824</ele>
        <time>2021-09-05T09:34:07.000Z</time>
      </trkpt>
      <trkpt lat="50.673" lon="5.14886">
        <ele>124.19999694824</ele>
        <time>2021-09-05T09:34:08.000Z</time>
      </trkpt>
      <trkpt lat="50.67297" lon="5.1489">
        <ele>124.19999694824</ele>
        <time>2021-09-05T09:34:09.000Z</time>
      </trkpt>
      <trkpt lat="50.6729" lon="5.14898">
        <ele>124</ele>
        <time>2021-09-05T09:34:11.000Z</time>
      </trkpt>
      <trkpt lat="50.67264" lon="5.14922">
        <ele>124</ele>
        <time>2021-09-05T09:34:16.000Z</time>
      </trkpt>
      <trkpt lat="50.67227" lon="5.14956">
        <ele>124.19999694824</ele>
        <time>2021-09-05T09:34:22.000Z</time>
      </trkpt>
      <trkpt lat="50.67215" lon="5.14967">
        <ele>124.19999694824</ele>
        <time>2021-09-05T09:34:24.000Z</time>
      </trkpt>
      <trkpt lat="50.67203" lon="5.14976">
        <ele>124.40000152588</ele>
        <time>2021-09-05T09:34:26.000Z</time>
      </trkpt>
      <trkpt lat="50.67197" lon="5.14979">
        <ele>124.40000152588</ele>
        <time>2021-09-05T09:34:27.000Z</time>
      </trkpt>
      <trkpt lat="50.67191" lon="5.14981">
        <ele>124.59999847412</ele>
        <time>2021-09-05T09:34:28.000Z</time>
      </trkpt>
      <trkpt lat="50.67184" lon="5.14983">
        <ele>124.59999847412</ele>
        <time>2021-09-05T09:34:29.000Z</time>
      </trkpt>
      <trkpt lat="50.67132" lon="5.14993">
        <ele>126.19999694824</ele>
        <time>2021-09-05T09:34:37.000Z</time>
      </trkpt>
      <trkpt lat="50.67117" lon="5.14996">
        <ele>126.40000152588</ele>
        <time>2021-09-05T09:34:39.000Z</time>
      </trkpt>
      <trkpt lat="50.67083" lon="5.1501">
        <ele>126.19999694824</ele>
        <time>2021-09-05T09:34:44.000Z</time>
      </trkpt>
      <trkpt lat="50.67027" lon="5.15041">
        <ele>126</ele>
        <time>2021-09-05T09:34:52.000Z</time>
      </trkpt>
      <trkpt lat="50.67021" lon="5.15046">
        <ele>125.80000305176</ele>
        <time>2021-09-05T09:34:53.000Z</time>
      </trkpt>
      <trkpt lat="50.6699" lon="5.15069">
        <ele>125.80000305176</ele>
        <time>2021-09-05T09:34:58.000Z</time>
      </trkpt>
      <trkpt lat="50.66966" lon="5.15087">
        <ele>126</ele>
        <time>2021-09-05T09:35:02.000Z</time>
      </trkpt>
      <trkpt lat="50.66926" lon="5.15105">
        <ele>126.59999847412</ele>
        <time>2021-09-05T09:35:08.000Z</time>
      </trkpt>
      <trkpt lat="50.66877" lon="5.15119">
        <ele>126.80000305176</ele>
        <time>2021-09-05T09:35:15.000Z</time>
      </trkpt>
      <trkpt lat="50.6687" lon="5.15121">
        <ele>126.80000305176</ele>
        <time>2021-09-05T09:35:16.000Z</time>
      </trkpt>
      <trkpt lat="50.66814" lon="5.15136">
        <ele>126.19999694824</ele>
        <time>2021-09-05T09:35:23.000Z</time>
      </trkpt>
      <trkpt lat="50.66806" lon="5.15138">
        <ele>126</ele>
        <time>2021-09-05T09:35:24.000Z</time>
      </trkpt>
      <trkpt lat="50.66757" lon="5.1515">
        <ele>125</ele>
        <time>2021-09-05T09:35:30.000Z</time>
      </trkpt>
      <trkpt lat="50.66741" lon="5.15155">
        <ele>124.59999847412</ele>
        <time>2021-09-05T09:35:32.000Z</time>
      </trkpt>
      <trkpt lat="50.66684" lon="5.15173">
        <ele>123.40000152588</ele>
        <time>2021-09-05T09:35:39.000Z</time>
      </trkpt>
      <trkpt lat="50.66645" lon="5.15196">
        <ele>122.40000152588</ele>
        <time>2021-09-05T09:35:44.000Z</time>
      </trkpt>
      <trkpt lat="50.66614" lon="5.15215">
        <ele>121.80000305176</ele>
        <time>2021-09-05T09:35:48.000Z</time>
      </trkpt>
      <trkpt lat="50.66593" lon="5.15229">
        <ele>121.19999694824</ele>
        <time>2021-09-05T09:35:51.000Z</time>
      </trkpt>
      <trkpt lat="50.66571" lon="5.15242">
        <ele>121</ele>
        <time>2021-09-05T09:35:55.000Z</time>
      </trkpt>
      <trkpt lat="50.66564" lon="5.15245">
        <ele>121</ele>
        <time>2021-09-05T09:35:56.000Z</time>
      </trkpt>
      <trkpt lat="50.66519" lon="5.15271">
        <ele>120</ele>
        <time>2021-09-05T09:36:02.000Z</time>
      </trkpt>
      <trkpt lat="50.66505" lon="5.15284">
        <ele>119.40000152588</ele>
        <time>2021-09-05T09:36:04.000Z</time>
      </trkpt>
      <trkpt lat="50.66493" lon="5.15303">
        <ele>119.40000152588</ele>
        <time>2021-09-05T09:36:06.000Z</time>
      </trkpt>
      <trkpt lat="50.66485" lon="5.15326">
        <ele>119</ele>
        <time>2021-09-05T09:36:08.000Z</time>
      </trkpt>
      <trkpt lat="50.66482" lon="5.15338">
        <ele>118.80000305176</ele>
        <time>2021-09-05T09:36:09.000Z</time>
      </trkpt>
      <trkpt lat="50.66463" lon="5.15419">
        <ele>118.40000152588</ele>
        <time>2021-09-05T09:36:16.000Z</time>
      </trkpt>
      <trkpt lat="50.66458" lon="5.15441">
        <ele>118.40000152588</ele>
        <time>2021-09-05T09:36:18.000Z</time>
      </trkpt>
      <trkpt lat="50.66438" lon="5.15492">
        <ele>118.40000152588</ele>
        <time>2021-09-05T09:36:23.000Z</time>
      </trkpt>
      <trkpt lat="50.66415" lon="5.15521">
        <ele>118.59999847412</ele>
        <time>2021-09-05T09:36:27.000Z</time>
      </trkpt>
      <trkpt lat="50.66376" lon="5.15557">
        <ele>118.80000305176</ele>
        <time>2021-09-05T09:36:34.000Z</time>
      </trkpt>
      <trkpt lat="50.66362" lon="5.15571">
        <ele>119</ele>
        <time>2021-09-05T09:36:38.000Z</time>
      </trkpt>
      <trkpt lat="50.66359" lon="5.15579">
        <ele>119</ele>
        <time>2021-09-05T09:36:40.000Z</time>
      </trkpt>
      <trkpt lat="50.66359" lon="5.15585">
        <ele>119</ele>
        <time>2021-09-05T09:36:41.000Z</time>
      </trkpt>
      <trkpt lat="50.6636" lon="5.15591">
        <ele>119</ele>
        <time>2021-09-05T09:36:42.000Z</time>
      </trkpt>
      <trkpt lat="50.66366" lon="5.15605">
        <ele>119.19999694824</ele>
        <time>2021-09-05T09:36:44.000Z</time>
      </trkpt>
      <trkpt lat="50.66385" lon="5.15649">
        <ele>119.19999694824</ele>
        <time>2021-09-05T09:36:49.000Z</time>
      </trkpt>
      <trkpt lat="50.66389" lon="5.15658">
        <ele>119.19999694824</ele>
        <time>2021-09-05T09:36:50.000Z</time>
      </trkpt>
      <trkpt lat="50.66424" lon="5.15736">
        <ele>119.19999694824</ele>
        <time>2021-09-05T09:36:58.000Z</time>
      </trkpt>
      <trkpt lat="50.66467" lon="5.15804">
        <ele>119.19999694824</ele>
        <time>2021-09-05T09:37:06.000Z</time>
      </trkpt>
      <trkpt lat="50.6651" lon="5.15871">
        <ele>119</ele>
        <time>2021-09-05T09:37:14.000Z</time>
      </trkpt>
      <trkpt lat="50.66521" lon="5.15888">
        <ele>119.19999694824</ele>
        <time>2021-09-05T09:37:16.000Z</time>
      </trkpt>
      <trkpt lat="50.66525" lon="5.15898">
        <ele>119.19999694824</ele>
        <time>2021-09-05T09:37:17.000Z</time>
      </trkpt>
      <trkpt lat="50.66529" lon="5.15909">
        <ele>119</ele>
        <time>2021-09-05T09:37:18.000Z</time>
      </trkpt>
      <trkpt lat="50.66538" lon="5.15944">
        <ele>119.19999694824</ele>
        <time>2021-09-05T09:37:21.000Z</time>
      </trkpt>
      <trkpt lat="50.66558" lon="5.16035">
        <ele>118</ele>
        <time>2021-09-05T09:37:29.000Z</time>
      </trkpt>
      <trkpt lat="50.66566" lon="5.16067">
        <ele>117.59999847412</ele>
        <time>2021-09-05T09:37:32.000Z</time>
      </trkpt>
      <trkpt lat="50.66588" lon="5.16126">
        <ele>117.59999847412</ele>
        <time>2021-09-05T09:37:38.000Z</time>
      </trkpt>
      <trkpt lat="50.66623" lon="5.16201">
        <ele>117.40000152588</ele>
        <time>2021-09-05T09:37:46.000Z</time>
      </trkpt>
      <trkpt lat="50.66636" lon="5.16229">
        <ele>117.59999847412</ele>
        <time>2021-09-05T09:37:49.000Z</time>
      </trkpt>
      <trkpt lat="50.66671" lon="5.16305">
        <ele>117.59999847412</ele>
        <time>2021-09-05T09:37:57.000Z</time>
      </trkpt>
      <trkpt lat="50.66681" lon="5.16325">
        <ele>117.40000152588</ele>
        <time>2021-09-05T09:37:59.000Z</time>
      </trkpt>
      <trkpt lat="50.66694" lon="5.16353">
        <ele>117.19999694824</ele>
        <time>2021-09-05T09:38:02.000Z</time>
      </trkpt>
      <trkpt lat="50.66732" lon="5.1643">
        <ele>116.80000305176</ele>
        <time>2021-09-05T09:38:10.000Z</time>
      </trkpt>
      <trkpt lat="50.6674" lon="5.1645">
        <ele>117</ele>
        <time>2021-09-05T09:38:12.000Z</time>
      </trkpt>
      <trkpt lat="50.66774" lon="5.16531">
        <ele>116.80000305176</ele>
        <time>2021-09-05T09:38:20.000Z</time>
      </trkpt>
      <trkpt lat="50.66779" lon="5.16541">
        <ele>116.59999847412</ele>
        <time>2021-09-05T09:38:21.000Z</time>
      </trkpt>
      <trkpt lat="50.66808" lon="5.16613">
        <ele>116.59999847412</ele>
        <time>2021-09-05T09:38:28.000Z</time>
      </trkpt>
      <trkpt lat="50.66816" lon="5.16632">
        <ele>116.59999847412</ele>
        <time>2021-09-05T09:38:30.000Z</time>
      </trkpt>
      <trkpt lat="50.66824" lon="5.1665">
        <ele>116.59999847412</ele>
        <time>2021-09-05T09:38:32.000Z</time>
      </trkpt>
      <trkpt lat="50.6685" lon="5.16712">
        <ele>116.80000305176</ele>
        <time>2021-09-05T09:38:39.000Z</time>
      </trkpt>
      <trkpt lat="50.66879" lon="5.1678">
        <ele>118</ele>
        <time>2021-09-05T09:38:47.000Z</time>
      </trkpt>
      <trkpt lat="50.66893" lon="5.16813">
        <ele>118.59999847412</ele>
        <time>2021-09-05T09:38:51.000Z</time>
      </trkpt>
      <trkpt lat="50.66896" lon="5.16821">
        <ele>118.80000305176</ele>
        <time>2021-09-05T09:38:52.000Z</time>
      </trkpt>
      <trkpt lat="50.66909" lon="5.16855">
        <ele>119</ele>
        <time>2021-09-05T09:38:56.000Z</time>
      </trkpt>
      <trkpt lat="50.66913" lon="5.16875">
        <ele>119.59999847412</ele>
        <time>2021-09-05T09:38:58.000Z</time>
      </trkpt>
      <trkpt lat="50.66915" lon="5.16907">
        <ele>120.40000152588</ele>
        <time>2021-09-05T09:39:01.000Z</time>
      </trkpt>
      <trkpt lat="50.66916" lon="5.16931">
        <ele>120.59999847412</ele>
        <time>2021-09-05T09:39:03.000Z</time>
      </trkpt>
      <trkpt lat="50.66917" lon="5.17024">
        <ele>120.80000305176</ele>
        <time>2021-09-05T09:39:11.000Z</time>
      </trkpt>
      <trkpt lat="50.66916" lon="5.17112">
        <ele>120.80000305176</ele>
        <time>2021-09-05T09:39:19.000Z</time>
      </trkpt>
      <trkpt lat="50.66916" lon="5.17196">
        <ele>121.40000152588</ele>
        <time>2021-09-05T09:39:27.000Z</time>
      </trkpt>
      <trkpt lat="50.66925" lon="5.17268">
        <ele>122</ele>
        <time>2021-09-05T09:39:34.000Z</time>
      </trkpt>
      <trkpt lat="50.66933" lon="5.17322">
        <ele>122</ele>
        <time>2021-09-05T09:39:39.000Z</time>
      </trkpt>
      <trkpt lat="50.66937" lon="5.17345">
        <ele>122</ele>
        <time>2021-09-05T09:39:41.000Z</time>
      </trkpt>
      <trkpt lat="50.66943" lon="5.17379">
        <ele>122</ele>
        <time>2021-09-05T09:39:44.000Z</time>
      </trkpt>
      <trkpt lat="50.6695" lon="5.17411">
        <ele>121.59999847412</ele>
        <time>2021-09-05T09:39:47.000Z</time>
      </trkpt>
      <trkpt lat="50.66951" lon="5.1742">
        <ele>121.40000152588</ele>
        <time>2021-09-05T09:39:48.000Z</time>
      </trkpt>
      <trkpt lat="50.6695" lon="5.1743">
        <ele>121.19999694824</ele>
        <time>2021-09-05T09:39:49.000Z</time>
      </trkpt>
      <trkpt lat="50.66947" lon="5.17438">
        <ele>121</ele>
        <time>2021-09-05T09:39:50.000Z</time>
      </trkpt>
      <trkpt lat="50.66935" lon="5.17448">
        <ele>120.80000305176</ele>
        <time>2021-09-05T09:39:52.000Z</time>
      </trkpt>
      <trkpt lat="50.66929" lon="5.17452">
        <ele>120.59999847412</ele>
        <time>2021-09-05T09:39:53.000Z</time>
      </trkpt>
      <trkpt lat="50.66922" lon="5.17455">
        <ele>120</ele>
        <time>2021-09-05T09:39:54.000Z</time>
      </trkpt>
      <trkpt lat="50.66878" lon="5.1748">
        <ele>118.40000152588</ele>
        <time>2021-09-05T09:40:00.000Z</time>
      </trkpt>
      <trkpt lat="50.66832" lon="5.17493">
        <ele>117</ele>
        <time>2021-09-05T09:40:06.000Z</time>
      </trkpt>
      <trkpt lat="50.668" lon="5.17493">
        <ele>116.40000152588</ele>
        <time>2021-09-05T09:40:10.000Z</time>
      </trkpt>
      <trkpt lat="50.66784" lon="5.17491">
        <ele>116</ele>
        <time>2021-09-05T09:40:12.000Z</time>
      </trkpt>
      <trkpt lat="50.66729" lon="5.17479">
        <ele>115.59999847412</ele>
        <time>2021-09-05T09:40:19.000Z</time>
      </trkpt>
      <trkpt lat="50.66678" lon="5.17469">
        <ele>115</ele>
        <time>2021-09-05T09:40:26.000Z</time>
      </trkpt>
      <trkpt lat="50.66626" lon="5.17458">
        <ele>115.19999694824</ele>
        <time>2021-09-05T09:40:33.000Z</time>
      </trkpt>
      <trkpt lat="50.66577" lon="5.17448">
        <ele>115.40000152588</ele>
        <time>2021-09-05T09:40:40.000Z</time>
      </trkpt>
      <trkpt lat="50.66556" lon="5.17449">
        <ele>115.40000152588</ele>
        <time>2021-09-05T09:40:43.000Z</time>
      </trkpt>
      <trkpt lat="50.66522" lon="5.17447">
        <ele>116</ele>
        <time>2021-09-05T09:40:48.000Z</time>
      </trkpt>
      <trkpt lat="50.66501" lon="5.17445">
        <ele>116</ele>
        <time>2021-09-05T09:40:51.000Z</time>
      </trkpt>
      <trkpt lat="50.66452" lon="5.1744">
        <ele>117</ele>
        <time>2021-09-05T09:40:58.000Z</time>
      </trkpt>
      <trkpt lat="50.66445" lon="5.1744">
        <ele>117</ele>
        <time>2021-09-05T09:40:59.000Z</time>
      </trkpt>
      <trkpt lat="50.66417" lon="5.1744">
        <ele>117.80000305176</ele>
        <time>2021-09-05T09:41:03.000Z</time>
      </trkpt>
      <trkpt lat="50.66384" lon="5.17445">
        <ele>118.40000152588</ele>
        <time>2021-09-05T09:41:08.000Z</time>
      </trkpt>
      <trkpt lat="50.66338" lon="5.17457">
        <ele>120</ele>
        <time>2021-09-05T09:41:15.000Z</time>
      </trkpt>
      <trkpt lat="50.66311" lon="5.17465">
        <ele>121</ele>
        <time>2021-09-05T09:41:19.000Z</time>
      </trkpt>
      <trkpt lat="50.66251" lon="5.17484">
        <ele>121.59999847412</ele>
        <time>2021-09-05T09:41:27.000Z</time>
      </trkpt>
      <trkpt lat="50.66244" lon="5.17488">
        <ele>121.80000305176</ele>
        <time>2021-09-05T09:41:28.000Z</time>
      </trkpt>
      <trkpt lat="50.66236" lon="5.17492">
        <ele>121.59999847412</ele>
        <time>2021-09-05T09:41:29.000Z</time>
      </trkpt>
      <trkpt lat="50.66185" lon="5.17523">
        <ele>121.40000152588</ele>
        <time>2021-09-05T09:41:36.000Z</time>
      </trkpt>
      <trkpt lat="50.66133" lon="5.17552">
        <ele>120.80000305176</ele>
        <time>2021-09-05T09:41:43.000Z</time>
      </trkpt>
      <trkpt lat="50.66123" lon="5.17561">
        <ele>120.59999847412</ele>
        <time>2021-09-05T09:41:45.000Z</time>
      </trkpt>
      <trkpt lat="50.66095" lon="5.17575">
        <ele>120.40000152588</ele>
        <time>2021-09-05T09:41:50.000Z</time>
      </trkpt>
      <trkpt lat="50.66062" lon="5.17591">
        <ele>120.40000152588</ele>
        <time>2021-09-05T09:41:55.000Z</time>
      </trkpt>
      <trkpt lat="50.66055" lon="5.17592">
        <ele>120.40000152588</ele>
        <time>2021-09-05T09:41:56.000Z</time>
      </trkpt>
      <trkpt lat="50.66047" lon="5.17592">
        <ele>120.40000152588</ele>
        <time>2021-09-05T09:41:57.000Z</time>
      </trkpt>
      <trkpt lat="50.6602" lon="5.17584">
        <ele>120.40000152588</ele>
        <time>2021-09-05T09:42:01.000Z</time>
      </trkpt>
      <trkpt lat="50.65989" lon="5.17574">
        <ele>120.19999694824</ele>
        <time>2021-09-05T09:42:06.000Z</time>
      </trkpt>
      <trkpt lat="50.65984" lon="5.17575">
        <ele>120.40000152588</ele>
        <time>2021-09-05T09:42:07.000Z</time>
      </trkpt>
      <trkpt lat="50.65978" lon="5.1758">
        <ele>120.19999694824</ele>
        <time>2021-09-05T09:42:08.000Z</time>
      </trkpt>
      <trkpt lat="50.65969" lon="5.17595">
        <ele>120.19999694824</ele>
        <time>2021-09-05T09:42:10.000Z</time>
      </trkpt>
      <trkpt lat="50.65956" lon="5.17623">
        <ele>120.19999694824</ele>
        <time>2021-09-05T09:42:13.000Z</time>
      </trkpt>
      <trkpt lat="50.65935" lon="5.17671">
        <ele>120.40000152588</ele>
        <time>2021-09-05T09:42:18.000Z</time>
      </trkpt>
      <trkpt lat="50.6591" lon="5.17724">
        <ele>120.40000152588</ele>
        <time>2021-09-05T09:42:24.000Z</time>
      </trkpt>
      <trkpt lat="50.65907" lon="5.17732">
        <ele>120.40000152588</ele>
        <time>2021-09-05T09:42:25.000Z</time>
      </trkpt>
      <trkpt lat="50.65904" lon="5.1774">
        <ele>120.40000152588</ele>
        <time>2021-09-05T09:42:26.000Z</time>
      </trkpt>
      <trkpt lat="50.659" lon="5.17755">
        <ele>120.40000152588</ele>
        <time>2021-09-05T09:42:28.000Z</time>
      </trkpt>
      <trkpt lat="50.65899" lon="5.17763">
        <ele>120.40000152588</ele>
        <time>2021-09-05T09:42:29.000Z</time>
      </trkpt>
      <trkpt lat="50.65898" lon="5.17772">
        <ele>120.80000305176</ele>
        <time>2021-09-05T09:42:30.000Z</time>
      </trkpt>
      <trkpt lat="50.65902" lon="5.17802">
        <ele>120.80000305176</ele>
        <time>2021-09-05T09:42:33.000Z</time>
      </trkpt>
      <trkpt lat="50.65912" lon="5.17862">
        <ele>121.19999694824</ele>
        <time>2021-09-05T09:42:39.000Z</time>
      </trkpt>
      <trkpt lat="50.65918" lon="5.179">
        <ele>121.80000305176</ele>
        <time>2021-09-05T09:42:43.000Z</time>
      </trkpt>
      <trkpt lat="50.65927" lon="5.17937">
        <ele>122.59999847412</ele>
        <time>2021-09-05T09:42:47.000Z</time>
      </trkpt>
      <trkpt lat="50.65931" lon="5.17945">
        <ele>122.59999847412</ele>
        <time>2021-09-05T09:42:48.000Z</time>
      </trkpt>
      <trkpt lat="50.65959" lon="5.17997">
        <ele>123.19999694824</ele>
        <time>2021-09-05T09:42:54.000Z</time>
      </trkpt>
      <trkpt lat="50.65978" lon="5.18032">
        <ele>123.19999694824</ele>
        <time>2021-09-05T09:42:58.000Z</time>
      </trkpt>
      <trkpt lat="50.65997" lon="5.18067">
        <ele>122.80000305176</ele>
        <time>2021-09-05T09:43:02.000Z</time>
      </trkpt>
      <trkpt lat="50.66027" lon="5.18115">
        <ele>122.19999694824</ele>
        <time>2021-09-05T09:43:08.000Z</time>
      </trkpt>
      <trkpt lat="50.66046" lon="5.18133">
        <ele>122.19999694824</ele>
        <time>2021-09-05T09:43:11.000Z</time>
      </trkpt>
      <trkpt lat="50.6607" lon="5.18156">
        <ele>121.80000305176</ele>
        <time>2021-09-05T09:43:15.000Z</time>
      </trkpt>
      <trkpt lat="50.66113" lon="5.18194">
        <ele>121</ele>
        <time>2021-09-05T09:43:22.000Z</time>
      </trkpt>
      <trkpt lat="50.66135" lon="5.18214">
        <ele>120.80000305176</ele>
        <time>2021-09-05T09:43:26.000Z</time>
      </trkpt>
      <trkpt lat="50.66144" lon="5.18224">
        <ele>120.59999847412</ele>
        <time>2021-09-05T09:43:28.000Z</time>
      </trkpt>
      <trkpt lat="50.66145" lon="5.18237">
        <ele>120.59999847412</ele>
        <time>2021-09-05T09:43:30.000Z</time>
      </trkpt>
      <trkpt lat="50.66138" lon="5.18248">
        <ele>120.40000152588</ele>
        <time>2021-09-05T09:43:32.000Z</time>
      </trkpt>
      <trkpt lat="50.66133" lon="5.18252">
        <ele>120.19999694824</ele>
        <time>2021-09-05T09:43:33.000Z</time>
      </trkpt>
      <trkpt lat="50.66095" lon="5.18289">
        <ele>120.19999694824</ele>
        <time>2021-09-05T09:43:40.000Z</time>
      </trkpt>
      <trkpt lat="50.66046" lon="5.1834">
        <ele>120.40000152588</ele>
        <time>2021-09-05T09:43:49.000Z</time>
      </trkpt>
      <trkpt lat="50.66016" lon="5.18385">
        <ele>120.59999847412</ele>
        <time>2021-09-05T09:43:55.000Z</time>
      </trkpt>
      <trkpt lat="50.65984" lon="5.18463">
        <ele>121.19999694824</ele>
        <time>2021-09-05T09:44:03.000Z</time>
      </trkpt>
      <trkpt lat="50.65969" lon="5.185">
        <ele>121.19999694824</ele>
        <time>2021-09-05T09:44:07.000Z</time>
      </trkpt>
      <trkpt lat="50.65944" lon="5.18564">
        <ele>121.59999847412</ele>
        <time>2021-09-05T09:44:14.000Z</time>
      </trkpt>
      <trkpt lat="50.65923" lon="5.18616">
        <ele>122.40000152588</ele>
        <time>2021-09-05T09:44:20.000Z</time>
      </trkpt>
      <trkpt lat="50.65906" lon="5.18661">
        <ele>123.40000152588</ele>
        <time>2021-09-05T09:44:25.000Z</time>
      </trkpt>
      <trkpt lat="50.65895" lon="5.18688">
        <ele>123.80000305176</ele>
        <time>2021-09-05T09:44:28.000Z</time>
      </trkpt>
      <trkpt lat="50.65866" lon="5.18762">
        <ele>125</ele>
        <time>2021-09-05T09:44:36.000Z</time>
      </trkpt>
      <trkpt lat="50.65859" lon="5.18781">
        <ele>125</ele>
        <time>2021-09-05T09:44:38.000Z</time>
      </trkpt>
      <trkpt lat="50.65827" lon="5.18862">
        <ele>124.80000305176</ele>
        <time>2021-09-05T09:44:46.000Z</time>
      </trkpt>
      <trkpt lat="50.65811" lon="5.18902">
        <ele>124.40000152588</ele>
        <time>2021-09-05T09:44:50.000Z</time>
      </trkpt>
      <trkpt lat="50.65787" lon="5.18962">
        <ele>123.59999847412</ele>
        <time>2021-09-05T09:44:56.000Z</time>
      </trkpt>
      <trkpt lat="50.65761" lon="5.19029">
        <ele>123.40000152588</ele>
        <time>2021-09-05T09:45:03.000Z</time>
      </trkpt>
      <trkpt lat="50.65743" lon="5.19074">
        <ele>123.59999847412</ele>
        <time>2021-09-05T09:45:08.000Z</time>
      </trkpt>
      <trkpt lat="50.65735" lon="5.19093">
        <ele>123.59999847412</ele>
        <time>2021-09-05T09:45:10.000Z</time>
      </trkpt>
      <trkpt lat="50.65706" lon="5.19167">
        <ele>124.80000305176</ele>
        <time>2021-09-05T09:45:18.000Z</time>
      </trkpt>
      <trkpt lat="50.65702" lon="5.19177">
        <ele>125.19999694824</ele>
        <time>2021-09-05T09:45:19.000Z</time>
      </trkpt>
      <trkpt lat="50.65675" lon="5.19246">
        <ele>125.40000152588</ele>
        <time>2021-09-05T09:45:26.000Z</time>
      </trkpt>
      <trkpt lat="50.65667" lon="5.19267">
        <ele>125.59999847412</ele>
        <time>2021-09-05T09:45:28.000Z</time>
      </trkpt>
      <trkpt lat="50.65663" lon="5.19278">
        <ele>125.40000152588</ele>
        <time>2021-09-05T09:45:29.000Z</time>
      </trkpt>
      <trkpt lat="50.65645" lon="5.19324">
        <ele>125.19999694824</ele>
        <time>2021-09-05T09:45:33.000Z</time>
      </trkpt>
      <trkpt lat="50.6563" lon="5.1936">
        <ele>124.40000152588</ele>
        <time>2021-09-05T09:45:36.000Z</time>
      </trkpt>
      <trkpt lat="50.65607" lon="5.1942">
        <ele>122.80000305176</ele>
        <time>2021-09-05T09:45:41.000Z</time>
      </trkpt>
      <trkpt lat="50.65584" lon="5.19477">
        <ele>120.80000305176</ele>
        <time>2021-09-05T09:45:46.000Z</time>
      </trkpt>
      <trkpt lat="50.65555" lon="5.19551">
        <ele>119.80000305176</ele>
        <time>2021-09-05T09:45:53.000Z</time>
      </trkpt>
      <trkpt lat="50.65547" lon="5.19571">
        <ele>120</ele>
        <time>2021-09-05T09:45:55.000Z</time>
      </trkpt>
      <trkpt lat="50.65538" lon="5.19591">
        <ele>120</ele>
        <time>2021-09-05T09:45:57.000Z</time>
      </trkpt>
      <trkpt lat="50.65512" lon="5.19645">
        <ele>120.19999694824</ele>
        <time>2021-09-05T09:46:03.000Z</time>
      </trkpt>
      <trkpt lat="50.65507" lon="5.19654">
        <ele>120.19999694824</ele>
        <time>2021-09-05T09:46:04.000Z</time>
      </trkpt>
      <trkpt lat="50.65478" lon="5.19711">
        <ele>120.80000305176</ele>
        <time>2021-09-05T09:46:11.000Z</time>
      </trkpt>
      <trkpt lat="50.65474" lon="5.19717">
        <ele>121</ele>
        <time>2021-09-05T09:46:12.000Z</time>
      </trkpt>
      <trkpt lat="50.6545" lon="5.19751">
        <ele>122</ele>
        <time>2021-09-05T09:46:18.000Z</time>
      </trkpt>
      <trkpt lat="50.65427" lon="5.19785">
        <ele>122.80000305176</ele>
        <time>2021-09-05T09:46:23.000Z</time>
      </trkpt>
      <trkpt lat="50.65413" lon="5.19806">
        <ele>123.19999694824</ele>
        <time>2021-09-05T09:46:26.000Z</time>
      </trkpt>
      <trkpt lat="50.65395" lon="5.19834">
        <ele>123.19999694824</ele>
        <time>2021-09-05T09:46:30.000Z</time>
      </trkpt>
      <trkpt lat="50.65362" lon="5.19885">
        <ele>124.40000152588</ele>
        <time>2021-09-05T09:46:37.000Z</time>
      </trkpt>
      <trkpt lat="50.65352" lon="5.19898">
        <ele>124.80000305176</ele>
        <time>2021-09-05T09:46:39.000Z</time>
      </trkpt>
      <trkpt lat="50.65327" lon="5.19932">
        <ele>125.40000152588</ele>
        <time>2021-09-05T09:46:44.000Z</time>
      </trkpt>
      <trkpt lat="50.653" lon="5.19964">
        <ele>125.80000305176</ele>
        <time>2021-09-05T09:46:49.000Z</time>
      </trkpt>
      <trkpt lat="50.65294" lon="5.19971">
        <ele>126</ele>
        <time>2021-09-05T09:46:50.000Z</time>
      </trkpt>
      <trkpt lat="50.65273" lon="5.19996">
        <ele>126.59999847412</ele>
        <time>2021-09-05T09:46:54.000Z</time>
      </trkpt>
      <trkpt lat="50.65268" lon="5.20002">
        <ele>126.80000305176</ele>
        <time>2021-09-05T09:46:55.000Z</time>
      </trkpt>
      <trkpt lat="50.65258" lon="5.20015">
        <ele>127</ele>
        <time>2021-09-05T09:46:57.000Z</time>
      </trkpt>
      <trkpt lat="50.65252" lon="5.20021">
        <ele>127.19999694824</ele>
        <time>2021-09-05T09:46:58.000Z</time>
      </trkpt>
      <trkpt lat="50.65231" lon="5.20047">
        <ele>127.59999847412</ele>
        <time>2021-09-05T09:47:02.000Z</time>
      </trkpt>
      <trkpt lat="50.65226" lon="5.20053">
        <ele>127.59999847412</ele>
        <time>2021-09-05T09:47:03.000Z</time>
      </trkpt>
      <trkpt lat="50.65221" lon="5.2006">
        <ele>128</ele>
        <time>2021-09-05T09:47:04.000Z</time>
      </trkpt>
      <trkpt lat="50.65216" lon="5.20066">
        <ele>127.80000305176</ele>
        <time>2021-09-05T09:47:05.000Z</time>
      </trkpt>
      <trkpt lat="50.65177" lon="5.20118">
        <ele>129.19999694824</ele>
        <time>2021-09-05T09:47:13.000Z</time>
      </trkpt>
      <trkpt lat="50.6517" lon="5.20132">
        <ele>129.60000610352</ele>
        <time>2021-09-05T09:47:15.000Z</time>
      </trkpt>
      <trkpt lat="50.65161" lon="5.20149">
        <ele>130.39999389648</ele>
        <time>2021-09-05T09:47:18.000Z</time>
      </trkpt>
      <trkpt lat="50.65152" lon="5.20159">
        <ele>130.80000305176</ele>
        <time>2021-09-05T09:47:22.000Z</time>
      </trkpt>
      <trkpt lat="50.6515" lon="5.20159">
        <ele>131</ele>
        <time>2021-09-05T09:47:23.000Z</time>
      </trkpt>
      <trkpt lat="50.65148" lon="5.20156">
        <ele>131.80000305176</ele>
        <time>2021-09-05T09:47:25.000Z</time>
      </trkpt>
      <trkpt lat="50.65147" lon="5.20155">
        <ele>132</ele>
        <time>2021-09-05T09:47:26.000Z</time>
      </trkpt>
      <trkpt lat="50.65147" lon="5.20154">
        <ele>132</ele>
        <time>2021-09-05T09:47:27.000Z</time>
      </trkpt>
      <trkpt lat="50.65145" lon="5.20151">
        <ele>132.39999389648</ele>
        <time>2021-09-05T09:47:30.000Z</time>
      </trkpt>
      <trkpt lat="50.65143" lon="5.20146">
        <ele>132.60000610352</ele>
        <time>2021-09-05T09:47:32.000Z</time>
      </trkpt>
      <trkpt lat="50.65135" lon="5.20121">
        <ele>132.80000305176</ele>
        <time>2021-09-05T09:47:37.000Z</time>
      </trkpt>
      <trkpt lat="50.65122" lon="5.20077">
        <ele>133</ele>
        <time>2021-09-05T09:47:43.000Z</time>
      </trkpt>
      <trkpt lat="50.65114" lon="5.20043">
        <ele>133.19999694824</ele>
        <time>2021-09-05T09:47:47.000Z</time>
      </trkpt>
      <trkpt lat="50.65105" lon="5.20007">
        <ele>133.39999389648</ele>
        <time>2021-09-05T09:47:51.000Z</time>
      </trkpt>
      <trkpt lat="50.65089" lon="5.19919">
        <ele>133.80000305176</ele>
        <time>2021-09-05T09:48:00.000Z</time>
      </trkpt>
      <trkpt lat="50.65084" lon="5.199">
        <ele>133.80000305176</ele>
        <time>2021-09-05T09:48:02.000Z</time>
      </trkpt>
      <trkpt lat="50.65079" lon="5.19894">
        <ele>133.80000305176</ele>
        <time>2021-09-05T09:48:03.000Z</time>
      </trkpt>
      <trkpt lat="50.65072" lon="5.19892">
        <ele>133.80000305176</ele>
        <time>2021-09-05T09:48:04.000Z</time>
      </trkpt>
      <trkpt lat="50.65066" lon="5.19893">
        <ele>133.80000305176</ele>
        <time>2021-09-05T09:48:05.000Z</time>
      </trkpt>
      <trkpt lat="50.65026" lon="5.19906">
        <ele>133.80000305176</ele>
        <time>2021-09-05T09:48:12.000Z</time>
      </trkpt>
      <trkpt lat="50.6502" lon="5.19907">
        <ele>133.80000305176</ele>
        <time>2021-09-05T09:48:13.000Z</time>
      </trkpt>
      <trkpt lat="50.64968" lon="5.19925">
        <ele>134.80000305176</ele>
        <time>2021-09-05T09:48:22.000Z</time>
      </trkpt>
      <trkpt lat="50.64963" lon="5.19928">
        <ele>135</ele>
        <time>2021-09-05T09:48:23.000Z</time>
      </trkpt>
      <trkpt lat="50.64935" lon="5.19948">
        <ele>135.39999389648</ele>
        <time>2021-09-05T09:48:28.000Z</time>
      </trkpt>
      <trkpt lat="50.64905" lon="5.19988">
        <ele>135.80000305176</ele>
        <time>2021-09-05T09:48:34.000Z</time>
      </trkpt>
      <trkpt lat="50.64865" lon="5.20048">
        <ele>136</ele>
        <time>2021-09-05T09:48:42.000Z</time>
      </trkpt>
      <trkpt lat="50.6485" lon="5.20072">
        <ele>136.39999389648</ele>
        <time>2021-09-05T09:48:45.000Z</time>
      </trkpt>
      <trkpt lat="50.6481" lon="5.20136">
        <ele>136.39999389648</ele>
        <time>2021-09-05T09:48:53.000Z</time>
      </trkpt>
      <trkpt lat="50.6479" lon="5.20169">
        <ele>136.39999389648</ele>
        <time>2021-09-05T09:48:57.000Z</time>
      </trkpt>
      <trkpt lat="50.6475" lon="5.20236">
        <ele>136.19999694824</ele>
        <time>2021-09-05T09:49:05.000Z</time>
      </trkpt>
      <trkpt lat="50.6473" lon="5.20268">
        <ele>136.19999694824</ele>
        <time>2021-09-05T09:49:09.000Z</time>
      </trkpt>
      <trkpt lat="50.6472" lon="5.20284">
        <ele>136</ele>
        <time>2021-09-05T09:49:11.000Z</time>
      </trkpt>
      <trkpt lat="50.64679" lon="5.20344">
        <ele>136.80000305176</ele>
        <time>2021-09-05T09:49:19.000Z</time>
      </trkpt>
      <trkpt lat="50.64633" lon="5.204">
        <ele>136.80000305176</ele>
        <time>2021-09-05T09:49:27.000Z</time>
      </trkpt>
      <trkpt lat="50.6461" lon="5.20428">
        <ele>136.80000305176</ele>
        <time>2021-09-05T09:49:31.000Z</time>
      </trkpt>
      <trkpt lat="50.64566" lon="5.20485">
        <ele>136.60000610352</ele>
        <time>2021-09-05T09:49:39.000Z</time>
      </trkpt>
      <trkpt lat="50.64526" lon="5.20547">
        <ele>137</ele>
        <time>2021-09-05T09:49:47.000Z</time>
      </trkpt>
      <trkpt lat="50.64521" lon="5.20554">
        <ele>137</ele>
        <time>2021-09-05T09:49:48.000Z</time>
      </trkpt>
      <trkpt lat="50.64488" lon="5.20613">
        <ele>137.39999389648</ele>
        <time>2021-09-05T09:49:55.000Z</time>
      </trkpt>
      <trkpt lat="50.64484" lon="5.20622">
        <ele>137.39999389648</ele>
        <time>2021-09-05T09:49:56.000Z</time>
      </trkpt>
      <trkpt lat="50.6446" lon="5.20689">
        <ele>137.60000610352</ele>
        <time>2021-09-05T09:50:03.000Z</time>
      </trkpt>
      <trkpt lat="50.64457" lon="5.20699">
        <ele>137.80000305176</ele>
        <time>2021-09-05T09:50:04.000Z</time>
      </trkpt>
      <trkpt lat="50.64431" lon="5.20774">
        <ele>138.60000610352</ele>
        <time>2021-09-05T09:50:12.000Z</time>
      </trkpt>
      <trkpt lat="50.64428" lon="5.20784">
        <ele>138.80000305176</ele>
        <time>2021-09-05T09:50:13.000Z</time>
      </trkpt>
      <trkpt lat="50.64399" lon="5.20867">
        <ele>139.80000305176</ele>
        <time>2021-09-05T09:50:22.000Z</time>
      </trkpt>
      <trkpt lat="50.64383" lon="5.20914">
        <ele>140.39999389648</ele>
        <time>2021-09-05T09:50:27.000Z</time>
      </trkpt>
      <trkpt lat="50.64377" lon="5.20932">
        <ele>140.80000305176</ele>
        <time>2021-09-05T09:50:29.000Z</time>
      </trkpt>
      <trkpt lat="50.64352" lon="5.21004">
        <ele>142.19999694824</ele>
        <time>2021-09-05T09:50:37.000Z</time>
      </trkpt>
      <trkpt lat="50.64339" lon="5.21041">
        <ele>142.60000610352</ele>
        <time>2021-09-05T09:50:41.000Z</time>
      </trkpt>
      <trkpt lat="50.6432" lon="5.21096">
        <ele>143.19999694824</ele>
        <time>2021-09-05T09:50:47.000Z</time>
      </trkpt>
      <trkpt lat="50.64293" lon="5.21158">
        <ele>143.80000305176</ele>
        <time>2021-09-05T09:50:54.000Z</time>
      </trkpt>
      <trkpt lat="50.64255" lon="5.21231">
        <ele>144</ele>
        <time>2021-09-05T09:51:03.000Z</time>
      </trkpt>
      <trkpt lat="50.64251" lon="5.21238">
        <ele>144</ele>
        <time>2021-09-05T09:51:04.000Z</time>
      </trkpt>
      <trkpt lat="50.64228" lon="5.21278">
        <ele>144.60000610352</ele>
        <time>2021-09-05T09:51:10.000Z</time>
      </trkpt>
      <trkpt lat="50.64224" lon="5.21285">
        <ele>144.39999389648</ele>
        <time>2021-09-05T09:51:11.000Z</time>
      </trkpt>
      <trkpt lat="50.64196" lon="5.21339">
        <ele>145.39999389648</ele>
        <time>2021-09-05T09:51:18.000Z</time>
      </trkpt>
      <trkpt lat="50.64165" lon="5.21409">
        <ele>146.60000610352</ele>
        <time>2021-09-05T09:51:26.000Z</time>
      </trkpt>
      <trkpt lat="50.64156" lon="5.21427">
        <ele>146.39999389648</ele>
        <time>2021-09-05T09:51:28.000Z</time>
      </trkpt>
      <trkpt lat="50.64152" lon="5.21436">
        <ele>146.60000610352</ele>
        <time>2021-09-05T09:51:29.000Z</time>
      </trkpt>
      <trkpt lat="50.6414" lon="5.21462">
        <ele>146.80000305176</ele>
        <time>2021-09-05T09:51:32.000Z</time>
      </trkpt>
      <trkpt lat="50.64118" lon="5.21518">
        <ele>147</ele>
        <time>2021-09-05T09:51:38.000Z</time>
      </trkpt>
      <trkpt lat="50.64101" lon="5.21564">
        <ele>147.60000610352</ele>
        <time>2021-09-05T09:51:43.000Z</time>
      </trkpt>
      <trkpt lat="50.64085" lon="5.21613">
        <ele>148</ele>
        <time>2021-09-05T09:51:48.000Z</time>
      </trkpt>
      <trkpt lat="50.6406" lon="5.2169">
        <ele>148.19999694824</ele>
        <time>2021-09-05T09:51:56.000Z</time>
      </trkpt>
      <trkpt lat="50.64054" lon="5.21708">
        <ele>148.19999694824</ele>
        <time>2021-09-05T09:51:58.000Z</time>
      </trkpt>
      <trkpt lat="50.64044" lon="5.21735">
        <ele>148.19999694824</ele>
        <time>2021-09-05T09:52:01.000Z</time>
      </trkpt>
      <trkpt lat="50.64035" lon="5.21749">
        <ele>148.19999694824</ele>
        <time>2021-09-05T09:52:03.000Z</time>
      </trkpt>
      <trkpt lat="50.64022" lon="5.21768">
        <ele>148</ele>
        <time>2021-09-05T09:52:06.000Z</time>
      </trkpt>
      <trkpt lat="50.64018" lon="5.21775">
        <ele>148</ele>
        <time>2021-09-05T09:52:07.000Z</time>
      </trkpt>
      <trkpt lat="50.64011" lon="5.21792">
        <ele>148</ele>
        <time>2021-09-05T09:52:09.000Z</time>
      </trkpt>
      <trkpt lat="50.63988" lon="5.21873">
        <ele>147.60000610352</ele>
        <time>2021-09-05T09:52:17.000Z</time>
      </trkpt>
      <trkpt lat="50.6398" lon="5.21915">
        <ele>147.19999694824</ele>
        <time>2021-09-05T09:52:21.000Z</time>
      </trkpt>
      <trkpt lat="50.63977" lon="5.21936">
        <ele>147</ele>
        <time>2021-09-05T09:52:23.000Z</time>
      </trkpt>
      <trkpt lat="50.63964" lon="5.21989">
        <ele>146.60000610352</ele>
        <time>2021-09-05T09:52:28.000Z</time>
      </trkpt>
      <trkpt lat="50.6394" lon="5.22046">
        <ele>145.80000305176</ele>
        <time>2021-09-05T09:52:34.000Z</time>
      </trkpt>
      <trkpt lat="50.63906" lon="5.22116">
        <ele>145.39999389648</ele>
        <time>2021-09-05T09:52:42.000Z</time>
      </trkpt>
      <trkpt lat="50.63901" lon="5.22124">
        <ele>145.60000610352</ele>
        <time>2021-09-05T09:52:43.000Z</time>
      </trkpt>
      <trkpt lat="50.63866" lon="5.22191">
        <ele>145.39999389648</ele>
        <time>2021-09-05T09:52:51.000Z</time>
      </trkpt>
      <trkpt lat="50.63857" lon="5.22208">
        <ele>145.39999389648</ele>
        <time>2021-09-05T09:52:53.000Z</time>
      </trkpt>
      <trkpt lat="50.6382" lon="5.22271">
        <ele>145.80000305176</ele>
        <time>2021-09-05T09:53:01.000Z</time>
      </trkpt>
      <trkpt lat="50.63815" lon="5.22279">
        <ele>145.80000305176</ele>
        <time>2021-09-05T09:53:02.000Z</time>
      </trkpt>
      <trkpt lat="50.63796" lon="5.22308">
        <ele>146</ele>
        <time>2021-09-05T09:53:06.000Z</time>
      </trkpt>
      <trkpt lat="50.63791" lon="5.22314">
        <ele>146</ele>
        <time>2021-09-05T09:53:07.000Z</time>
      </trkpt>
      <trkpt lat="50.63782" lon="5.22328">
        <ele>146.39999389648</ele>
        <time>2021-09-05T09:53:09.000Z</time>
      </trkpt>
      <trkpt lat="50.63778" lon="5.22348">
        <ele>146.60000610352</ele>
        <time>2021-09-05T09:53:11.000Z</time>
      </trkpt>
      <trkpt lat="50.63786" lon="5.22378">
        <ele>146.80000305176</ele>
        <time>2021-09-05T09:53:14.000Z</time>
      </trkpt>
      <trkpt lat="50.63806" lon="5.22447">
        <ele>147</ele>
        <time>2021-09-05T09:53:21.000Z</time>
      </trkpt>
      <trkpt lat="50.63809" lon="5.22457">
        <ele>147.19999694824</ele>
        <time>2021-09-05T09:53:22.000Z</time>
      </trkpt>
      <trkpt lat="50.63819" lon="5.22496">
        <ele>147.39999389648</ele>
        <time>2021-09-05T09:53:26.000Z</time>
      </trkpt>
      <trkpt lat="50.6382" lon="5.22507">
        <ele>147.39999389648</ele>
        <time>2021-09-05T09:53:27.000Z</time>
      </trkpt>
      <trkpt lat="50.6382" lon="5.22517">
        <ele>147.80000305176</ele>
        <time>2021-09-05T09:53:28.000Z</time>
      </trkpt>
      <trkpt lat="50.63812" lon="5.22576">
        <ele>148.60000610352</ele>
        <time>2021-09-05T09:53:34.000Z</time>
      </trkpt>
      <trkpt lat="50.63804" lon="5.22634">
        <ele>149.80000305176</ele>
        <time>2021-09-05T09:53:40.000Z</time>
      </trkpt>
      <trkpt lat="50.63799" lon="5.22671">
        <ele>150.19999694824</ele>
        <time>2021-09-05T09:53:44.000Z</time>
      </trkpt>
      <trkpt lat="50.63797" lon="5.2268">
        <ele>150.39999389648</ele>
        <time>2021-09-05T09:53:45.000Z</time>
      </trkpt>
      <trkpt lat="50.63795" lon="5.2269">
        <ele>150.80000305176</ele>
        <time>2021-09-05T09:53:46.000Z</time>
      </trkpt>
      <trkpt lat="50.63789" lon="5.22705">
        <ele>151</ele>
        <time>2021-09-05T09:53:48.000Z</time>
      </trkpt>
      <trkpt lat="50.63785" lon="5.22711">
        <ele>151.19999694824</ele>
        <time>2021-09-05T09:53:49.000Z</time>
      </trkpt>
      <trkpt lat="50.6378" lon="5.22716">
        <ele>151.60000610352</ele>
        <time>2021-09-05T09:53:50.000Z</time>
      </trkpt>
      <trkpt lat="50.63762" lon="5.2273">
        <ele>152</ele>
        <time>2021-09-05T09:53:53.000Z</time>
      </trkpt>
      <trkpt lat="50.63713" lon="5.22768">
        <ele>153</ele>
        <time>2021-09-05T09:54:01.000Z</time>
      </trkpt>
      <trkpt lat="50.63706" lon="5.22773">
        <ele>153</ele>
        <time>2021-09-05T09:54:02.000Z</time>
      </trkpt>
      <trkpt lat="50.63679" lon="5.22795">
        <ele>153.19999694824</ele>
        <time>2021-09-05T09:54:06.000Z</time>
      </trkpt>
      <trkpt lat="50.63651" lon="5.22818">
        <ele>152.80000305176</ele>
        <time>2021-09-05T09:54:10.000Z</time>
      </trkpt>
      <trkpt lat="50.63628" lon="5.22834">
        <ele>152.39999389648</ele>
        <time>2021-09-05T09:54:13.000Z</time>
      </trkpt>
      <trkpt lat="50.63621" lon="5.22839">
        <ele>152</ele>
        <time>2021-09-05T09:54:14.000Z</time>
      </trkpt>
      <trkpt lat="50.63585" lon="5.22867">
        <ele>150.60000610352</ele>
        <time>2021-09-05T09:54:19.000Z</time>
      </trkpt>
      <trkpt lat="50.63572" lon="5.22879">
        <ele>149.80000305176</ele>
        <time>2021-09-05T09:54:21.000Z</time>
      </trkpt>
      <trkpt lat="50.63565" lon="5.22897">
        <ele>149.39999389648</ele>
        <time>2021-09-05T09:54:23.000Z</time>
      </trkpt>
      <trkpt lat="50.63569" lon="5.22918">
        <ele>149</ele>
        <time>2021-09-05T09:54:25.000Z</time>
      </trkpt>
      <trkpt lat="50.63604" lon="5.22984">
        <ele>148.80000305176</ele>
        <time>2021-09-05T09:54:32.000Z</time>
      </trkpt>
      <trkpt lat="50.63619" lon="5.23013">
        <ele>148.80000305176</ele>
        <time>2021-09-05T09:54:35.000Z</time>
      </trkpt>
      <trkpt lat="50.63648" lon="5.2307">
        <ele>148.19999694824</ele>
        <time>2021-09-05T09:54:41.000Z</time>
      </trkpt>
      <trkpt lat="50.63674" lon="5.2312">
        <ele>147.39999389648</ele>
        <time>2021-09-05T09:54:47.000Z</time>
      </trkpt>
      <trkpt lat="50.63686" lon="5.23146">
        <ele>147.19999694824</ele>
        <time>2021-09-05T09:54:50.000Z</time>
      </trkpt>
      <trkpt lat="50.63688" lon="5.23166">
        <ele>147</ele>
        <time>2021-09-05T09:54:52.000Z</time>
      </trkpt>
      <trkpt lat="50.63677" lon="5.23192">
        <ele>147.19999694824</ele>
        <time>2021-09-05T09:54:55.000Z</time>
      </trkpt>
      <trkpt lat="50.63647" lon="5.23254">
        <ele>147</ele>
        <time>2021-09-05T09:55:02.000Z</time>
      </trkpt>
      <trkpt lat="50.63614" lon="5.23324">
        <ele>147.60000610352</ele>
        <time>2021-09-05T09:55:10.000Z</time>
      </trkpt>
      <trkpt lat="50.6361" lon="5.23333">
        <ele>147.80000305176</ele>
        <time>2021-09-05T09:55:11.000Z</time>
      </trkpt>
      <trkpt lat="50.63593" lon="5.23367">
        <ele>148.19999694824</ele>
        <time>2021-09-05T09:55:15.000Z</time>
      </trkpt>
      <trkpt lat="50.63581" lon="5.23392">
        <ele>148.39999389648</ele>
        <time>2021-09-05T09:55:18.000Z</time>
      </trkpt>
      <trkpt lat="50.63574" lon="5.2341">
        <ele>148.80000305176</ele>
        <time>2021-09-05T09:55:20.000Z</time>
      </trkpt>
      <trkpt lat="50.63563" lon="5.23438">
        <ele>149.19999694824</ele>
        <time>2021-09-05T09:55:23.000Z</time>
      </trkpt>
      <trkpt lat="50.6355" lon="5.23477">
        <ele>149.80000305176</ele>
        <time>2021-09-05T09:55:27.000Z</time>
      </trkpt>
      <trkpt lat="50.63547" lon="5.23487">
        <ele>150.39999389648</ele>
        <time>2021-09-05T09:55:28.000Z</time>
      </trkpt>
      <trkpt lat="50.63526" lon="5.23554">
        <ele>151.19999694824</ele>
        <time>2021-09-05T09:55:35.000Z</time>
      </trkpt>
      <trkpt lat="50.63517" lon="5.23583">
        <ele>152</ele>
        <time>2021-09-05T09:55:38.000Z</time>
      </trkpt>
      <trkpt lat="50.63504" lon="5.23625">
        <ele>152.19999694824</ele>
        <time>2021-09-05T09:55:42.000Z</time>
      </trkpt>
      <trkpt lat="50.63494" lon="5.23658">
        <ele>152.19999694824</ele>
        <time>2021-09-05T09:55:45.000Z</time>
      </trkpt>
      <trkpt lat="50.6349" lon="5.2367">
        <ele>152.19999694824</ele>
        <time>2021-09-05T09:55:46.000Z</time>
      </trkpt>
      <trkpt lat="50.63472" lon="5.23729">
        <ele>152.19999694824</ele>
        <time>2021-09-05T09:55:51.000Z</time>
      </trkpt>
      <trkpt lat="50.63458" lon="5.23775">
        <ele>150.80000305176</ele>
        <time>2021-09-05T09:55:55.000Z</time>
      </trkpt>
      <trkpt lat="50.63434" lon="5.23851">
        <ele>149.39999389648</ele>
        <time>2021-09-05T09:56:02.000Z</time>
      </trkpt>
      <trkpt lat="50.63428" lon="5.23872">
        <ele>149.19999694824</ele>
        <time>2021-09-05T09:56:04.000Z</time>
      </trkpt>
      <trkpt lat="50.63411" lon="5.23923">
        <ele>149</ele>
        <time>2021-09-05T09:56:09.000Z</time>
      </trkpt>
      <trkpt lat="50.63396" lon="5.23971">
        <ele>149.19999694824</ele>
        <time>2021-09-05T09:56:14.000Z</time>
      </trkpt>
      <trkpt lat="50.63393" lon="5.23981">
        <ele>149.19999694824</ele>
        <time>2021-09-05T09:56:15.000Z</time>
      </trkpt>
      <trkpt lat="50.63382" lon="5.24017">
        <ele>149.60000610352</ele>
        <time>2021-09-05T09:56:19.000Z</time>
      </trkpt>
      <trkpt lat="50.63368" lon="5.24061">
        <ele>151.19999694824</ele>
        <time>2021-09-05T09:56:24.000Z</time>
      </trkpt>
      <trkpt lat="50.63365" lon="5.2407">
        <ele>151.39999389648</ele>
        <time>2021-09-05T09:56:25.000Z</time>
      </trkpt>
      <trkpt lat="50.6334" lon="5.2415">
        <ele>154</ele>
        <time>2021-09-05T09:56:34.000Z</time>
      </trkpt>
      <trkpt lat="50.63336" lon="5.24159">
        <ele>154</ele>
        <time>2021-09-05T09:56:35.000Z</time>
      </trkpt>
      <trkpt lat="50.63311" lon="5.24197">
        <ele>154.60000610352</ele>
        <time>2021-09-05T09:56:40.000Z</time>
      </trkpt>
      <trkpt lat="50.63292" lon="5.24224">
        <ele>154.60000610352</ele>
        <time>2021-09-05T09:56:44.000Z</time>
      </trkpt>
      <trkpt lat="50.63289" lon="5.24232">
        <ele>154.39999389648</ele>
        <time>2021-09-05T09:56:45.000Z</time>
      </trkpt>
      <trkpt lat="50.63288" lon="5.24241">
        <ele>154.39999389648</ele>
        <time>2021-09-05T09:56:46.000Z</time>
      </trkpt>
      <trkpt lat="50.63289" lon="5.2425">
        <ele>154.39999389648</ele>
        <time>2021-09-05T09:56:47.000Z</time>
      </trkpt>
      <trkpt lat="50.63291" lon="5.24259">
        <ele>154.60000610352</ele>
        <time>2021-09-05T09:56:48.000Z</time>
      </trkpt>
      <trkpt lat="50.63307" lon="5.24307">
        <ele>153.39999389648</ele>
        <time>2021-09-05T09:56:53.000Z</time>
      </trkpt>
      <trkpt lat="50.6332" lon="5.24332">
        <ele>153.19999694824</ele>
        <time>2021-09-05T09:56:56.000Z</time>
      </trkpt>
      <trkpt lat="50.63326" lon="5.24338">
        <ele>153</ele>
        <time>2021-09-05T09:56:57.000Z</time>
      </trkpt>
      <trkpt lat="50.63332" lon="5.24342">
        <ele>152.80000305176</ele>
        <time>2021-09-05T09:56:58.000Z</time>
      </trkpt>
      <trkpt lat="50.63347" lon="5.24344">
        <ele>152.19999694824</ele>
        <time>2021-09-05T09:57:00.000Z</time>
      </trkpt>
      <trkpt lat="50.63361" lon="5.24346">
        <ele>152</ele>
        <time>2021-09-05T09:57:02.000Z</time>
      </trkpt>
      <trkpt lat="50.63381" lon="5.24356">
        <ele>152</ele>
        <time>2021-09-05T09:57:05.000Z</time>
      </trkpt>
      <trkpt lat="50.63418" lon="5.24386">
        <ele>151.39999389648</ele>
        <time>2021-09-05T09:57:11.000Z</time>
      </trkpt>
      <trkpt lat="50.63436" lon="5.24406">
        <ele>151.19999694824</ele>
        <time>2021-09-05T09:57:14.000Z</time>
      </trkpt>
      <trkpt lat="50.63476" lon="5.24451">
        <ele>151</ele>
        <time>2021-09-05T09:57:21.000Z</time>
      </trkpt>
      <trkpt lat="50.63503" lon="5.24482">
        <ele>151</ele>
        <time>2021-09-05T09:57:26.000Z</time>
      </trkpt>
      <trkpt lat="50.63519" lon="5.24503">
        <ele>151</ele>
        <time>2021-09-05T09:57:29.000Z</time>
      </trkpt>
      <trkpt lat="50.63554" lon="5.24558">
        <ele>151</ele>
        <time>2021-09-05T09:57:36.000Z</time>
      </trkpt>
      <trkpt lat="50.63559" lon="5.24567">
        <ele>151</ele>
        <time>2021-09-05T09:57:37.000Z</time>
      </trkpt>
      <trkpt lat="50.63567" lon="5.24586">
        <ele>150.80000305176</ele>
        <time>2021-09-05T09:57:39.000Z</time>
      </trkpt>
      <trkpt lat="50.63588" lon="5.24635">
        <ele>150.80000305176</ele>
        <time>2021-09-05T09:57:44.000Z</time>
      </trkpt>
      <trkpt lat="50.63601" lon="5.24666">
        <ele>150</ele>
        <time>2021-09-05T09:57:47.000Z</time>
      </trkpt>
      <trkpt lat="50.63625" lon="5.24727">
        <ele>148.39999389648</ele>
        <time>2021-09-05T09:57:53.000Z</time>
      </trkpt>
      <trkpt lat="50.63654" lon="5.24798">
        <ele>147.19999694824</ele>
        <time>2021-09-05T09:58:00.000Z</time>
      </trkpt>
      <trkpt lat="50.63662" lon="5.24818">
        <ele>147.19999694824</ele>
        <time>2021-09-05T09:58:02.000Z</time>
      </trkpt>
      <trkpt lat="50.63694" lon="5.24896">
        <ele>146.60000610352</ele>
        <time>2021-09-05T09:58:10.000Z</time>
      </trkpt>
      <trkpt lat="50.63701" lon="5.24916">
        <ele>146.19999694824</ele>
        <time>2021-09-05T09:58:12.000Z</time>
      </trkpt>
      <trkpt lat="50.63724" lon="5.24981">
        <ele>145.60000610352</ele>
        <time>2021-09-05T09:58:19.000Z</time>
      </trkpt>
      <trkpt lat="50.63726" lon="5.2499">
        <ele>145.60000610352</ele>
        <time>2021-09-05T09:58:20.000Z</time>
      </trkpt>
      <trkpt lat="50.63741" lon="5.25039">
        <ele>145.39999389648</ele>
        <time>2021-09-05T09:58:25.000Z</time>
      </trkpt>
      <trkpt lat="50.63762" lon="5.25107">
        <ele>145</ele>
        <time>2021-09-05T09:58:32.000Z</time>
      </trkpt>
      <trkpt lat="50.63777" lon="5.25155">
        <ele>145</ele>
        <time>2021-09-05T09:58:37.000Z</time>
      </trkpt>
      <trkpt lat="50.63801" lon="5.2523">
        <ele>145.60000610352</ele>
        <time>2021-09-05T09:58:45.000Z</time>
      </trkpt>
      <trkpt lat="50.63804" lon="5.25239">
        <ele>145.80000305176</ele>
        <time>2021-09-05T09:58:46.000Z</time>
      </trkpt>
      <trkpt lat="50.6383" lon="5.25323">
        <ele>146.80000305176</ele>
        <time>2021-09-05T09:58:55.000Z</time>
      </trkpt>
      <trkpt lat="50.63833" lon="5.25332">
        <ele>147</ele>
        <time>2021-09-05T09:58:56.000Z</time>
      </trkpt>
      <trkpt lat="50.63839" lon="5.25351">
        <ele>147</ele>
        <time>2021-09-05T09:58:58.000Z</time>
      </trkpt>
      <trkpt lat="50.63864" lon="5.25434">
        <ele>148.39999389648</ele>
        <time>2021-09-05T09:59:07.000Z</time>
      </trkpt>
      <trkpt lat="50.63873" lon="5.25461">
        <ele>148.80000305176</ele>
        <time>2021-09-05T09:59:10.000Z</time>
      </trkpt>
      <trkpt lat="50.63879" lon="5.2548">
        <ele>149.19999694824</ele>
        <time>2021-09-05T09:59:12.000Z</time>
      </trkpt>
      <trkpt lat="50.63902" lon="5.25554">
        <ele>149.60000610352</ele>
        <time>2021-09-05T09:59:20.000Z</time>
      </trkpt>
      <trkpt lat="50.63914" lon="5.25591">
        <ele>150.19999694824</ele>
        <time>2021-09-05T09:59:24.000Z</time>
      </trkpt>
      <trkpt lat="50.63935" lon="5.25657">
        <ele>150.60000610352</ele>
        <time>2021-09-05T09:59:31.000Z</time>
      </trkpt>
      <trkpt lat="50.63949" lon="5.25703">
        <ele>151.19999694824</ele>
        <time>2021-09-05T09:59:36.000Z</time>
      </trkpt>
      <trkpt lat="50.63973" lon="5.25777">
        <ele>151.80000305176</ele>
        <time>2021-09-05T09:59:44.000Z</time>
      </trkpt>
      <trkpt lat="50.63992" lon="5.2584">
        <ele>152</ele>
        <time>2021-09-05T09:59:51.000Z</time>
      </trkpt>
      <trkpt lat="50.64009" lon="5.25894">
        <ele>152.60000610352</ele>
        <time>2021-09-05T09:59:57.000Z</time>
      </trkpt>
      <trkpt lat="50.64018" lon="5.25932">
        <ele>152.60000610352</ele>
        <time>2021-09-05T10:00:01.000Z</time>
      </trkpt>
      <trkpt lat="50.64022" lon="5.25962">
        <ele>152.80000305176</ele>
        <time>2021-09-05T10:00:04.000Z</time>
      </trkpt>
      <trkpt lat="50.64024" lon="5.25983">
        <ele>153</ele>
        <time>2021-09-05T10:00:06.000Z</time>
      </trkpt>
      <trkpt lat="50.64026" lon="5.26018">
        <ele>153.19999694824</ele>
        <time>2021-09-05T10:00:09.000Z</time>
      </trkpt>
      <trkpt lat="50.64027" lon="5.26042">
        <ele>153.19999694824</ele>
        <time>2021-09-05T10:00:11.000Z</time>
      </trkpt>
      <trkpt lat="50.64029" lon="5.26067">
        <ele>153.19999694824</ele>
        <time>2021-09-05T10:00:13.000Z</time>
      </trkpt>
      <trkpt lat="50.64035" lon="5.26144">
        <ele>152.39999389648</ele>
        <time>2021-09-05T10:00:19.000Z</time>
      </trkpt>
      <trkpt lat="50.64042" lon="5.26196">
        <ele>151</ele>
        <time>2021-09-05T10:00:23.000Z</time>
      </trkpt>
      <trkpt lat="50.64049" lon="5.26235">
        <ele>150.39999389648</ele>
        <time>2021-09-05T10:00:26.000Z</time>
      </trkpt>
      <trkpt lat="50.64057" lon="5.26274">
        <ele>149.60000610352</ele>
        <time>2021-09-05T10:00:29.000Z</time>
      </trkpt>
      <trkpt lat="50.64065" lon="5.26326">
        <ele>148.80000305176</ele>
        <time>2021-09-05T10:00:33.000Z</time>
      </trkpt>
      <trkpt lat="50.64065" lon="5.26339">
        <ele>148.60000610352</ele>
        <time>2021-09-05T10:00:34.000Z</time>
      </trkpt>
      <trkpt lat="50.64065" lon="5.26353">
        <ele>148.39999389648</ele>
        <time>2021-09-05T10:00:35.000Z</time>
      </trkpt>
      <trkpt lat="50.64059" lon="5.2639">
        <ele>147.19999694824</ele>
        <time>2021-09-05T10:00:38.000Z</time>
      </trkpt>
      <trkpt lat="50.64046" lon="5.26474">
        <ele>145.19999694824</ele>
        <time>2021-09-05T10:00:45.000Z</time>
      </trkpt>
      <trkpt lat="50.64044" lon="5.26485">
        <ele>145.19999694824</ele>
        <time>2021-09-05T10:00:46.000Z</time>
      </trkpt>
      <trkpt lat="50.64041" lon="5.26495">
        <ele>145.19999694824</ele>
        <time>2021-09-05T10:00:47.000Z</time>
      </trkpt>
      <trkpt lat="50.64033" lon="5.26523">
        <ele>145</ele>
        <time>2021-09-05T10:00:50.000Z</time>
      </trkpt>
      <trkpt lat="50.64034" lon="5.26532">
        <ele>145</ele>
        <time>2021-09-05T10:00:51.000Z</time>
      </trkpt>
      <trkpt lat="50.64037" lon="5.2654">
        <ele>145.19999694824</ele>
        <time>2021-09-05T10:00:52.000Z</time>
      </trkpt>
      <trkpt lat="50.64065" lon="5.26586">
        <ele>145.39999389648</ele>
        <time>2021-09-05T10:00:58.000Z</time>
      </trkpt>
      <trkpt lat="50.64095" lon="5.26634">
        <ele>146</ele>
        <time>2021-09-05T10:01:04.000Z</time>
      </trkpt>
      <trkpt lat="50.64098" lon="5.26644">
        <ele>146</ele>
        <time>2021-09-05T10:01:05.000Z</time>
      </trkpt>
      <trkpt lat="50.641" lon="5.26655">
        <ele>146</ele>
        <time>2021-09-05T10:01:06.000Z</time>
      </trkpt>
      <trkpt lat="50.64102" lon="5.26688">
        <ele>146</ele>
        <time>2021-09-05T10:01:09.000Z</time>
      </trkpt>
      <trkpt lat="50.64107" lon="5.26763">
        <ele>146.19999694824</ele>
        <time>2021-09-05T10:01:16.000Z</time>
      </trkpt>
      <trkpt lat="50.64109" lon="5.26772">
        <ele>146.19999694824</ele>
        <time>2021-09-05T10:01:17.000Z</time>
      </trkpt>
      <trkpt lat="50.64119" lon="5.26818">
        <ele>146.80000305176</ele>
        <time>2021-09-05T10:01:22.000Z</time>
      </trkpt>
      <trkpt lat="50.6412" lon="5.26827">
        <ele>146.80000305176</ele>
        <time>2021-09-05T10:01:23.000Z</time>
      </trkpt>
      <trkpt lat="50.64129" lon="5.26865">
        <ele>147.39999389648</ele>
        <time>2021-09-05T10:01:28.000Z</time>
      </trkpt>
      <trkpt lat="50.6413" lon="5.26871">
        <ele>147.80000305176</ele>
        <time>2021-09-05T10:01:29.000Z</time>
      </trkpt>
      <trkpt lat="50.64125" lon="5.26894">
        <ele>148.60000610352</ele>
        <time>2021-09-05T10:01:33.000Z</time>
      </trkpt>
      <trkpt lat="50.64125" lon="5.26909">
        <ele>149</ele>
        <time>2021-09-05T10:01:35.000Z</time>
      </trkpt>
      <trkpt lat="50.64127" lon="5.26916">
        <ele>149.19999694824</ele>
        <time>2021-09-05T10:01:36.000Z</time>
      </trkpt>
      <trkpt lat="50.64131" lon="5.26924">
        <ele>149.60000610352</ele>
        <time>2021-09-05T10:01:37.000Z</time>
      </trkpt>
      <trkpt lat="50.64138" lon="5.26939">
        <ele>150</ele>
        <time>2021-09-05T10:01:39.000Z</time>
      </trkpt>
      <trkpt lat="50.64141" lon="5.26948">
        <ele>150.19999694824</ele>
        <time>2021-09-05T10:01:40.000Z</time>
      </trkpt>
      <trkpt lat="50.6416" lon="5.27025">
        <ele>150.60000610352</ele>
        <time>2021-09-05T10:01:48.000Z</time>
      </trkpt>
      <trkpt lat="50.64168" lon="5.27063">
        <ele>150.80000305176</ele>
        <time>2021-09-05T10:01:52.000Z</time>
      </trkpt>
      <trkpt lat="50.64174" lon="5.27092">
        <ele>150.80000305176</ele>
        <time>2021-09-05T10:01:55.000Z</time>
      </trkpt>
      <trkpt lat="50.64184" lon="5.2714">
        <ele>151.19999694824</ele>
        <time>2021-09-05T10:02:00.000Z</time>
      </trkpt>
      <trkpt lat="50.64189" lon="5.27168">
        <ele>151.39999389648</ele>
        <time>2021-09-05T10:02:03.000Z</time>
      </trkpt>
      <trkpt lat="50.64198" lon="5.27217">
        <ele>151.80000305176</ele>
        <time>2021-09-05T10:02:08.000Z</time>
      </trkpt>
      <trkpt lat="50.64206" lon="5.27266">
        <ele>152.39999389648</ele>
        <time>2021-09-05T10:02:13.000Z</time>
      </trkpt>
      <trkpt lat="50.64225" lon="5.27333">
        <ele>152.80000305176</ele>
        <time>2021-09-05T10:02:20.000Z</time>
      </trkpt>
      <trkpt lat="50.64246" lon="5.27378">
        <ele>153</ele>
        <time>2021-09-05T10:02:25.000Z</time>
      </trkpt>
      <trkpt lat="50.64259" lon="5.27408">
        <ele>152.60000610352</ele>
        <time>2021-09-05T10:02:28.000Z</time>
      </trkpt>
      <trkpt lat="50.64289" lon="5.27477">
        <ele>151.60000610352</ele>
        <time>2021-09-05T10:02:35.000Z</time>
      </trkpt>
      <trkpt lat="50.64293" lon="5.27488">
        <ele>151.19999694824</ele>
        <time>2021-09-05T10:02:36.000Z</time>
      </trkpt>
      <trkpt lat="50.64326" lon="5.27566">
        <ele>150.39999389648</ele>
        <time>2021-09-05T10:02:44.000Z</time>
      </trkpt>
      <trkpt lat="50.64342" lon="5.27603">
        <ele>150.39999389648</ele>
        <time>2021-09-05T10:02:48.000Z</time>
      </trkpt>
      <trkpt lat="50.64353" lon="5.27631">
        <ele>150.19999694824</ele>
        <time>2021-09-05T10:02:51.000Z</time>
      </trkpt>
      <trkpt lat="50.64384" lon="5.27703">
        <ele>150.39999389648</ele>
        <time>2021-09-05T10:02:59.000Z</time>
      </trkpt>
      <trkpt lat="50.64392" lon="5.27721">
        <ele>150.60000610352</ele>
        <time>2021-09-05T10:03:01.000Z</time>
      </trkpt>
      <trkpt lat="50.64422" lon="5.27792">
        <ele>150.80000305176</ele>
        <time>2021-09-05T10:03:09.000Z</time>
      </trkpt>
      <trkpt lat="50.64429" lon="5.27811">
        <ele>150.80000305176</ele>
        <time>2021-09-05T10:03:11.000Z</time>
      </trkpt>
      <trkpt lat="50.64451" lon="5.27879">
        <ele>150.80000305176</ele>
        <time>2021-09-05T10:03:18.000Z</time>
      </trkpt>
      <trkpt lat="50.64467" lon="5.27941">
        <ele>150.60000610352</ele>
        <time>2021-09-05T10:03:24.000Z</time>
      </trkpt>
      <trkpt lat="50.64486" lon="5.28013">
        <ele>150.19999694824</ele>
        <time>2021-09-05T10:03:31.000Z</time>
      </trkpt>
      <trkpt lat="50.64495" lon="5.28044">
        <ele>150</ele>
        <time>2021-09-05T10:03:34.000Z</time>
      </trkpt>
      <trkpt lat="50.64517" lon="5.28127">
        <ele>149.19999694824</ele>
        <time>2021-09-05T10:03:42.000Z</time>
      </trkpt>
      <trkpt lat="50.64522" lon="5.28148">
        <ele>149</ele>
        <time>2021-09-05T10:03:44.000Z</time>
      </trkpt>
      <trkpt lat="50.64545" lon="5.28231">
        <ele>148</ele>
        <time>2021-09-05T10:03:52.000Z</time>
      </trkpt>
      <trkpt lat="50.64556" lon="5.28275">
        <ele>147.80000305176</ele>
        <time>2021-09-05T10:03:56.000Z</time>
      </trkpt>
      <trkpt lat="50.64565" lon="5.28309">
        <ele>147.39999389648</ele>
        <time>2021-09-05T10:03:59.000Z</time>
      </trkpt>
      <trkpt lat="50.64584" lon="5.2838">
        <ele>146.39999389648</ele>
        <time>2021-09-05T10:04:05.000Z</time>
      </trkpt>
      <trkpt lat="50.64587" lon="5.28392">
        <ele>146.19999694824</ele>
        <time>2021-09-05T10:04:06.000Z</time>
      </trkpt>
      <trkpt lat="50.64597" lon="5.28439">
        <ele>145.39999389648</ele>
        <time>2021-09-05T10:04:10.000Z</time>
      </trkpt>
      <trkpt lat="50.64601" lon="5.28462">
        <ele>144.80000305176</ele>
        <time>2021-09-05T10:04:12.000Z</time>
      </trkpt>
      <trkpt lat="50.64602" lon="5.28473">
        <ele>144.60000610352</ele>
        <time>2021-09-05T10:04:13.000Z</time>
      </trkpt>
      <trkpt lat="50.64606" lon="5.2854">
        <ele>144</ele>
        <time>2021-09-05T10:04:19.000Z</time>
      </trkpt>
      <trkpt lat="50.64606" lon="5.28551">
        <ele>144.19999694824</ele>
        <time>2021-09-05T10:04:20.000Z</time>
      </trkpt>
      <trkpt lat="50.64603" lon="5.28614">
        <ele>144.39999389648</ele>
        <time>2021-09-05T10:04:26.000Z</time>
      </trkpt>
      <trkpt lat="50.64601" lon="5.28644">
        <ele>144.80000305176</ele>
        <time>2021-09-05T10:04:29.000Z</time>
      </trkpt>
      <trkpt lat="50.64599" lon="5.28685">
        <ele>145.39999389648</ele>
        <time>2021-09-05T10:04:33.000Z</time>
      </trkpt>
      <trkpt lat="50.64594" lon="5.28767">
        <ele>147.19999694824</ele>
        <time>2021-09-05T10:04:41.000Z</time>
      </trkpt>
      <trkpt lat="50.64592" lon="5.28808">
        <ele>147.80000305176</ele>
        <time>2021-09-05T10:04:45.000Z</time>
      </trkpt>
      <trkpt lat="50.64591" lon="5.28838">
        <ele>148.19999694824</ele>
        <time>2021-09-05T10:04:48.000Z</time>
      </trkpt>
      <trkpt lat="50.6459" lon="5.28848">
        <ele>148.19999694824</ele>
        <time>2021-09-05T10:04:49.000Z</time>
      </trkpt>
      <trkpt lat="50.64588" lon="5.28908">
        <ele>149.19999694824</ele>
        <time>2021-09-05T10:04:55.000Z</time>
      </trkpt>
      <trkpt lat="50.64585" lon="5.28956">
        <ele>150.60000610352</ele>
        <time>2021-09-05T10:05:00.000Z</time>
      </trkpt>
      <trkpt lat="50.64583" lon="5.29004">
        <ele>151.19999694824</ele>
        <time>2021-09-05T10:05:05.000Z</time>
      </trkpt>
      <trkpt lat="50.64579" lon="5.2907">
        <ele>151.80000305176</ele>
        <time>2021-09-05T10:05:12.000Z</time>
      </trkpt>
      <trkpt lat="50.64578" lon="5.2908">
        <ele>151.80000305176</ele>
        <time>2021-09-05T10:05:13.000Z</time>
      </trkpt>
      <trkpt lat="50.64576" lon="5.29089">
        <ele>152</ele>
        <time>2021-09-05T10:05:14.000Z</time>
      </trkpt>
      <trkpt lat="50.64568" lon="5.29117">
        <ele>152.39999389648</ele>
        <time>2021-09-05T10:05:17.000Z</time>
      </trkpt>
      <trkpt lat="50.6454" lon="5.292">
        <ele>153.19999694824</ele>
        <time>2021-09-05T10:05:26.000Z</time>
      </trkpt>
      <trkpt lat="50.64537" lon="5.2921">
        <ele>153.19999694824</ele>
        <time>2021-09-05T10:05:27.000Z</time>
      </trkpt>
      <trkpt lat="50.64512" lon="5.29285">
        <ele>153.39999389648</ele>
        <time>2021-09-05T10:05:35.000Z</time>
      </trkpt>
      <trkpt lat="50.64499" lon="5.29323">
        <ele>153.19999694824</ele>
        <time>2021-09-05T10:05:39.000Z</time>
      </trkpt>
      <trkpt lat="50.64472" lon="5.29404">
        <ele>153.39999389648</ele>
        <time>2021-09-05T10:05:48.000Z</time>
      </trkpt>
      <trkpt lat="50.6444" lon="5.29482">
        <ele>154</ele>
        <time>2021-09-05T10:05:57.000Z</time>
      </trkpt>
      <trkpt lat="50.64409" lon="5.29559">
        <ele>154.19999694824</ele>
        <time>2021-09-05T10:06:06.000Z</time>
      </trkpt>
      <trkpt lat="50.64405" lon="5.29569">
        <ele>154.19999694824</ele>
        <time>2021-09-05T10:06:07.000Z</time>
      </trkpt>
      <trkpt lat="50.64374" lon="5.29642">
        <ele>153.80000305176</ele>
        <time>2021-09-05T10:06:14.000Z</time>
      </trkpt>
      <trkpt lat="50.64366" lon="5.29663">
        <ele>153.19999694824</ele>
        <time>2021-09-05T10:06:16.000Z</time>
      </trkpt>
      <trkpt lat="50.64357" lon="5.29683">
        <ele>152.39999389648</ele>
        <time>2021-09-05T10:06:18.000Z</time>
      </trkpt>
      <trkpt lat="50.64338" lon="5.29731">
        <ele>151.80000305176</ele>
        <time>2021-09-05T10:06:23.000Z</time>
      </trkpt>
      <trkpt lat="50.64307" lon="5.29803">
        <ele>151</ele>
        <time>2021-09-05T10:06:31.000Z</time>
      </trkpt>
      <trkpt lat="50.64303" lon="5.29812">
        <ele>151.19999694824</ele>
        <time>2021-09-05T10:06:32.000Z</time>
      </trkpt>
      <trkpt lat="50.643" lon="5.29821">
        <ele>151.19999694824</ele>
        <time>2021-09-05T10:06:33.000Z</time>
      </trkpt>
      <trkpt lat="50.64271" lon="5.29894">
        <ele>151.39999389648</ele>
        <time>2021-09-05T10:06:41.000Z</time>
      </trkpt>
      <trkpt lat="50.6425" lon="5.29963">
        <ele>152</ele>
        <time>2021-09-05T10:06:48.000Z</time>
      </trkpt>
      <trkpt lat="50.64236" lon="5.30039">
        <ele>152.39999389648</ele>
        <time>2021-09-05T10:06:55.000Z</time>
      </trkpt>
      <trkpt lat="50.64234" lon="5.30051">
        <ele>152.19999694824</ele>
        <time>2021-09-05T10:06:56.000Z</time>
      </trkpt>
      <trkpt lat="50.64221" lon="5.30133">
        <ele>152</ele>
        <time>2021-09-05T10:07:03.000Z</time>
      </trkpt>
      <trkpt lat="50.64217" lon="5.30158">
        <ele>151.39999389648</ele>
        <time>2021-09-05T10:07:05.000Z</time>
      </trkpt>
      <trkpt lat="50.64212" lon="5.30194">
        <ele>151</ele>
        <time>2021-09-05T10:07:08.000Z</time>
      </trkpt>
      <trkpt lat="50.64204" lon="5.30242">
        <ele>150.39999389648</ele>
        <time>2021-09-05T10:07:12.000Z</time>
      </trkpt>
      <trkpt lat="50.64197" lon="5.30291">
        <ele>149.60000610352</ele>
        <time>2021-09-05T10:07:16.000Z</time>
      </trkpt>
      <trkpt lat="50.64185" lon="5.30375">
        <ele>148.60000610352</ele>
        <time>2021-09-05T10:07:23.000Z</time>
      </trkpt>
      <trkpt lat="50.64182" lon="5.30398">
        <ele>148.39999389648</ele>
        <time>2021-09-05T10:07:25.000Z</time>
      </trkpt>
      <trkpt lat="50.64178" lon="5.30455">
        <ele>148.39999389648</ele>
        <time>2021-09-05T10:07:30.000Z</time>
      </trkpt>
      <trkpt lat="50.64172" lon="5.30521">
        <ele>148.80000305176</ele>
        <time>2021-09-05T10:07:36.000Z</time>
      </trkpt>
      <trkpt lat="50.64171" lon="5.30543">
        <ele>149</ele>
        <time>2021-09-05T10:07:38.000Z</time>
      </trkpt>
      <trkpt lat="50.64164" lon="5.30629">
        <ele>149.80000305176</ele>
        <time>2021-09-05T10:07:46.000Z</time>
      </trkpt>
      <trkpt lat="50.64164" lon="5.3064">
        <ele>150</ele>
        <time>2021-09-05T10:07:47.000Z</time>
      </trkpt>
      <trkpt lat="50.64159" lon="5.30711">
        <ele>150.60000610352</ele>
        <time>2021-09-05T10:07:54.000Z</time>
      </trkpt>
      <trkpt lat="50.64156" lon="5.30741">
        <ele>150.60000610352</ele>
        <time>2021-09-05T10:07:57.000Z</time>
      </trkpt>
      <trkpt lat="50.64149" lon="5.3083">
        <ele>151.60000610352</ele>
        <time>2021-09-05T10:08:06.000Z</time>
      </trkpt>
      <trkpt lat="50.64148" lon="5.3084">
        <ele>151.60000610352</ele>
        <time>2021-09-05T10:08:07.000Z</time>
      </trkpt>
      <trkpt lat="50.64136" lon="5.30916">
        <ele>152.39999389648</ele>
        <time>2021-09-05T10:08:15.000Z</time>
      </trkpt>
      <trkpt lat="50.64117" lon="5.30999">
        <ele>152.60000610352</ele>
        <time>2021-09-05T10:08:23.000Z</time>
      </trkpt>
      <trkpt lat="50.64115" lon="5.31009">
        <ele>152.60000610352</ele>
        <time>2021-09-05T10:08:24.000Z</time>
      </trkpt>
      <trkpt lat="50.64105" lon="5.31053">
        <ele>152.60000610352</ele>
        <time>2021-09-05T10:08:28.000Z</time>
      </trkpt>
      <trkpt lat="50.64097" lon="5.31086">
        <ele>152</ele>
        <time>2021-09-05T10:08:31.000Z</time>
      </trkpt>
      <trkpt lat="50.64094" lon="5.31096">
        <ele>151.80000305176</ele>
        <time>2021-09-05T10:08:32.000Z</time>
      </trkpt>
      <trkpt lat="50.64092" lon="5.31107">
        <ele>151.80000305176</ele>
        <time>2021-09-05T10:08:33.000Z</time>
      </trkpt>
      <trkpt lat="50.64089" lon="5.31118">
        <ele>151.60000610352</ele>
        <time>2021-09-05T10:08:34.000Z</time>
      </trkpt>
      <trkpt lat="50.64085" lon="5.3114">
        <ele>150.80000305176</ele>
        <time>2021-09-05T10:08:36.000Z</time>
      </trkpt>
      <trkpt lat="50.64077" lon="5.31173">
        <ele>150.19999694824</ele>
        <time>2021-09-05T10:08:39.000Z</time>
      </trkpt>
      <trkpt lat="50.64069" lon="5.31206">
        <ele>149.60000610352</ele>
        <time>2021-09-05T10:08:42.000Z</time>
      </trkpt>
      <trkpt lat="50.64059" lon="5.31251">
        <ele>148.80000305176</ele>
        <time>2021-09-05T10:08:46.000Z</time>
      </trkpt>
      <trkpt lat="50.64054" lon="5.31273">
        <ele>148.60000610352</ele>
        <time>2021-09-05T10:08:48.000Z</time>
      </trkpt>
      <trkpt lat="50.64037" lon="5.31351">
        <ele>147.39999389648</ele>
        <time>2021-09-05T10:08:55.000Z</time>
      </trkpt>
      <trkpt lat="50.64035" lon="5.31362">
        <ele>146.80000305176</ele>
        <time>2021-09-05T10:08:56.000Z</time>
      </trkpt>
      <trkpt lat="50.64017" lon="5.31443">
        <ele>145.19999694824</ele>
        <time>2021-09-05T10:09:03.000Z</time>
      </trkpt>
      <trkpt lat="50.64013" lon="5.31467">
        <ele>145</ele>
        <time>2021-09-05T10:09:05.000Z</time>
      </trkpt>
      <trkpt lat="50.64004" lon="5.31516">
        <ele>144.19999694824</ele>
        <time>2021-09-05T10:09:09.000Z</time>
      </trkpt>
      <trkpt lat="50.64" lon="5.31605">
        <ele>142.80000305176</ele>
        <time>2021-09-05T10:09:16.000Z</time>
      </trkpt>
      <trkpt lat="50.63998" lon="5.31692">
        <ele>141</ele>
        <time>2021-09-05T10:09:23.000Z</time>
      </trkpt>
      <trkpt lat="50.63997" lon="5.31704">
        <ele>141</ele>
        <time>2021-09-05T10:09:24.000Z</time>
      </trkpt>
      <trkpt lat="50.63995" lon="5.31716">
        <ele>140.80000305176</ele>
        <time>2021-09-05T10:09:25.000Z</time>
      </trkpt>
      <trkpt lat="50.63989" lon="5.31739">
        <ele>140.39999389648</ele>
        <time>2021-09-05T10:09:27.000Z</time>
      </trkpt>
      <trkpt lat="50.6398" lon="5.3176">
        <ele>140.19999694824</ele>
        <time>2021-09-05T10:09:29.000Z</time>
      </trkpt>
      <trkpt lat="50.63944" lon="5.31824">
        <ele>139.80000305176</ele>
        <time>2021-09-05T10:09:36.000Z</time>
      </trkpt>
      <trkpt lat="50.63939" lon="5.31833">
        <ele>139.80000305176</ele>
        <time>2021-09-05T10:09:37.000Z</time>
      </trkpt>
      <trkpt lat="50.63904" lon="5.31895">
        <ele>139</ele>
        <time>2021-09-05T10:09:44.000Z</time>
      </trkpt>
      <trkpt lat="50.63884" lon="5.3193">
        <ele>139</ele>
        <time>2021-09-05T10:09:48.000Z</time>
      </trkpt>
      <trkpt lat="50.63855" lon="5.31978">
        <ele>138.60000610352</ele>
        <time>2021-09-05T10:09:54.000Z</time>
      </trkpt>
      <trkpt lat="50.63844" lon="5.31988">
        <ele>138.19999694824</ele>
        <time>2021-09-05T10:09:56.000Z</time>
      </trkpt>
      <trkpt lat="50.63834" lon="5.32">
        <ele>138.19999694824</ele>
        <time>2021-09-05T10:09:58.000Z</time>
      </trkpt>
      <trkpt lat="50.63834" lon="5.32016">
        <ele>138</ele>
        <time>2021-09-05T10:10:00.000Z</time>
      </trkpt>
      <trkpt lat="50.63837" lon="5.32023">
        <ele>138</ele>
        <time>2021-09-05T10:10:01.000Z</time>
      </trkpt>
      <trkpt lat="50.63845" lon="5.32044">
        <ele>138</ele>
        <time>2021-09-05T10:10:04.000Z</time>
      </trkpt>
      <trkpt lat="50.6385" lon="5.32087">
        <ele>138</ele>
        <time>2021-09-05T10:10:09.000Z</time>
      </trkpt>
      <trkpt lat="50.63857" lon="5.32152">
        <ele>138.19999694824</ele>
        <time>2021-09-05T10:10:16.000Z</time>
      </trkpt>
      <trkpt lat="50.63859" lon="5.3218">
        <ele>138.19999694824</ele>
        <time>2021-09-05T10:10:19.000Z</time>
      </trkpt>
      <trkpt lat="50.63866" lon="5.32235">
        <ele>138.60000610352</ele>
        <time>2021-09-05T10:10:25.000Z</time>
      </trkpt>
      <trkpt lat="50.63883" lon="5.32294">
        <ele>139</ele>
        <time>2021-09-05T10:10:32.000Z</time>
      </trkpt>
      <trkpt lat="50.63889" lon="5.3232">
        <ele>139.19999694824</ele>
        <time>2021-09-05T10:10:35.000Z</time>
      </trkpt>
      <trkpt lat="50.6389" lon="5.32339">
        <ele>139.19999694824</ele>
        <time>2021-09-05T10:10:37.000Z</time>
      </trkpt>
      <trkpt lat="50.6389" lon="5.32348">
        <ele>139.39999389648</ele>
        <time>2021-09-05T10:10:38.000Z</time>
      </trkpt>
      <trkpt lat="50.63889" lon="5.32358">
        <ele>139.39999389648</ele>
        <time>2021-09-05T10:10:39.000Z</time>
      </trkpt>
      <trkpt lat="50.63883" lon="5.32385">
        <ele>139.60000610352</ele>
        <time>2021-09-05T10:10:42.000Z</time>
      </trkpt>
      <trkpt lat="50.63868" lon="5.32438">
        <ele>140.19999694824</ele>
        <time>2021-09-05T10:10:48.000Z</time>
      </trkpt>
      <trkpt lat="50.63865" lon="5.32447">
        <ele>140.39999389648</ele>
        <time>2021-09-05T10:10:49.000Z</time>
      </trkpt>
      <trkpt lat="50.63858" lon="5.3248">
        <ele>140.60000610352</ele>
        <time>2021-09-05T10:10:53.000Z</time>
      </trkpt>
      <trkpt lat="50.63853" lon="5.32506">
        <ele>141</ele>
        <time>2021-09-05T10:10:56.000Z</time>
      </trkpt>
      <trkpt lat="50.63852" lon="5.32533">
        <ele>141.39999389648</ele>
        <time>2021-09-05T10:10:59.000Z</time>
      </trkpt>
      <trkpt lat="50.63853" lon="5.32559">
        <ele>142.19999694824</ele>
        <time>2021-09-05T10:11:02.000Z</time>
      </trkpt>
      <trkpt lat="50.63853" lon="5.32568">
        <ele>142.39999389648</ele>
        <time>2021-09-05T10:11:03.000Z</time>
      </trkpt>
      <trkpt lat="50.63858" lon="5.3261">
        <ele>143.80000305176</ele>
        <time>2021-09-05T10:11:08.000Z</time>
      </trkpt>
      <trkpt lat="50.63863" lon="5.32643">
        <ele>145</ele>
        <time>2021-09-05T10:11:12.000Z</time>
      </trkpt>
      <trkpt lat="50.63865" lon="5.32651">
        <ele>145.39999389648</ele>
        <time>2021-09-05T10:11:13.000Z</time>
      </trkpt>
      <trkpt lat="50.6387" lon="5.32693">
        <ele>146.19999694824</ele>
        <time>2021-09-05T10:11:18.000Z</time>
      </trkpt>
      <trkpt lat="50.63875" lon="5.32725">
        <ele>147.19999694824</ele>
        <time>2021-09-05T10:11:22.000Z</time>
      </trkpt>
      <trkpt lat="50.63877" lon="5.32734">
        <ele>147.19999694824</ele>
        <time>2021-09-05T10:11:23.000Z</time>
      </trkpt>
      <trkpt lat="50.63883" lon="5.32764">
        <ele>148.19999694824</ele>
        <time>2021-09-05T10:11:27.000Z</time>
      </trkpt>
      <trkpt lat="50.63884" lon="5.32779">
        <ele>148.60000610352</ele>
        <time>2021-09-05T10:11:29.000Z</time>
      </trkpt>
      <trkpt lat="50.63885" lon="5.32787">
        <ele>148.60000610352</ele>
        <time>2021-09-05T10:11:30.000Z</time>
      </trkpt>
      <trkpt lat="50.63885" lon="5.32795">
        <ele>149</ele>
        <time>2021-09-05T10:11:31.000Z</time>
      </trkpt>
      <trkpt lat="50.63888" lon="5.3281">
        <ele>149.60000610352</ele>
        <time>2021-09-05T10:11:33.000Z</time>
      </trkpt>
      <trkpt lat="50.63892" lon="5.32834">
        <ele>150.39999389648</ele>
        <time>2021-09-05T10:11:36.000Z</time>
      </trkpt>
      <trkpt lat="50.63893" lon="5.32842">
        <ele>150.80000305176</ele>
        <time>2021-09-05T10:11:37.000Z</time>
      </trkpt>
      <trkpt lat="50.63898" lon="5.32881">
        <ele>151.80000305176</ele>
        <time>2021-09-05T10:11:42.000Z</time>
      </trkpt>
      <trkpt lat="50.63903" lon="5.32912">
        <ele>152.80000305176</ele>
        <time>2021-09-05T10:11:46.000Z</time>
      </trkpt>
      <trkpt lat="50.63908" lon="5.32951">
        <ele>153.80000305176</ele>
        <time>2021-09-05T10:11:51.000Z</time>
      </trkpt>
      <trkpt lat="50.63913" lon="5.32991">
        <ele>154.60000610352</ele>
        <time>2021-09-05T10:11:56.000Z</time>
      </trkpt>
      <trkpt lat="50.63913" lon="5.32999">
        <ele>154.60000610352</ele>
        <time>2021-09-05T10:11:57.000Z</time>
      </trkpt>
      <trkpt lat="50.6391" lon="5.33014">
        <ele>155</ele>
        <time>2021-09-05T10:11:59.000Z</time>
      </trkpt>
      <trkpt lat="50.63906" lon="5.3302">
        <ele>155.19999694824</ele>
        <time>2021-09-05T10:12:00.000Z</time>
      </trkpt>
      <trkpt lat="50.63901" lon="5.33025">
        <ele>155.39999389648</ele>
        <time>2021-09-05T10:12:01.000Z</time>
      </trkpt>
      <trkpt lat="50.63892" lon="5.33034">
        <ele>155.60000610352</ele>
        <time>2021-09-05T10:12:03.000Z</time>
      </trkpt>
      <trkpt lat="50.63887" lon="5.33039">
        <ele>155.60000610352</ele>
        <time>2021-09-05T10:12:04.000Z</time>
      </trkpt>
      <trkpt lat="50.63846" lon="5.33081">
        <ele>156.80000305176</ele>
        <time>2021-09-05T10:12:13.000Z</time>
      </trkpt>
      <trkpt lat="50.63805" lon="5.33124">
        <ele>158.19999694824</ele>
        <time>2021-09-05T10:12:22.000Z</time>
      </trkpt>
      <trkpt lat="50.63796" lon="5.33133">
        <ele>158.80000305176</ele>
        <time>2021-09-05T10:12:24.000Z</time>
      </trkpt>
      <trkpt lat="50.63769" lon="5.33162">
        <ele>159.39999389648</ele>
        <time>2021-09-05T10:12:30.000Z</time>
      </trkpt>
      <trkpt lat="50.63756" lon="5.33177">
        <ele>160.60000610352</ele>
        <time>2021-09-05T10:12:33.000Z</time>
      </trkpt>
      <trkpt lat="50.63747" lon="5.33186">
        <ele>161</ele>
        <time>2021-09-05T10:12:35.000Z</time>
      </trkpt>
      <trkpt lat="50.63715" lon="5.3322">
        <ele>162.19999694824</ele>
        <time>2021-09-05T10:12:42.000Z</time>
      </trkpt>
      <trkpt lat="50.63711" lon="5.33224">
        <ele>162.39999389648</ele>
        <time>2021-09-05T10:12:43.000Z</time>
      </trkpt>
      <trkpt lat="50.6368" lon="5.33258">
        <ele>163.39999389648</ele>
        <time>2021-09-05T10:12:50.000Z</time>
      </trkpt>
      <trkpt lat="50.63661" lon="5.33277">
        <ele>164.39999389648</ele>
        <time>2021-09-05T10:12:54.000Z</time>
      </trkpt>
      <trkpt lat="50.63624" lon="5.3332">
        <ele>165.39999389648</ele>
        <time>2021-09-05T10:13:02.000Z</time>
      </trkpt>
      <trkpt lat="50.63614" lon="5.33332">
        <ele>165.39999389648</ele>
        <time>2021-09-05T10:13:04.000Z</time>
      </trkpt>
      <trkpt lat="50.6359" lon="5.33364">
        <ele>165.39999389648</ele>
        <time>2021-09-05T10:13:09.000Z</time>
      </trkpt>
      <trkpt lat="50.63571" lon="5.33391">
        <ele>165</ele>
        <time>2021-09-05T10:13:13.000Z</time>
      </trkpt>
      <trkpt lat="50.63554" lon="5.33417">
        <ele>164.80000305176</ele>
        <time>2021-09-05T10:13:17.000Z</time>
      </trkpt>
      <trkpt lat="50.63521" lon="5.33467">
        <ele>163.80000305176</ele>
        <time>2021-09-05T10:13:25.000Z</time>
      </trkpt>
      <trkpt lat="50.63517" lon="5.33473">
        <ele>163.80000305176</ele>
        <time>2021-09-05T10:13:26.000Z</time>
      </trkpt>
      <trkpt lat="50.63512" lon="5.3349">
        <ele>163.60000610352</ele>
        <time>2021-09-05T10:13:28.000Z</time>
      </trkpt>
      <trkpt lat="50.635" lon="5.33555">
        <ele>163.60000610352</ele>
        <time>2021-09-05T10:13:35.000Z</time>
      </trkpt>
      <trkpt lat="50.63488" lon="5.33639">
        <ele>163.60000610352</ele>
        <time>2021-09-05T10:13:44.000Z</time>
      </trkpt>
      <trkpt lat="50.63487" lon="5.33649">
        <ele>163.60000610352</ele>
        <time>2021-09-05T10:13:45.000Z</time>
      </trkpt>
      <trkpt lat="50.63483" lon="5.33725">
        <ele>164.39999389648</ele>
        <time>2021-09-05T10:13:53.000Z</time>
      </trkpt>
      <trkpt lat="50.63483" lon="5.33735">
        <ele>164.39999389648</ele>
        <time>2021-09-05T10:13:54.000Z</time>
      </trkpt>
      <trkpt lat="50.63482" lon="5.33811">
        <ele>165.19999694824</ele>
        <time>2021-09-05T10:14:02.000Z</time>
      </trkpt>
      <trkpt lat="50.63482" lon="5.33831">
        <ele>165.60000610352</ele>
        <time>2021-09-05T10:14:04.000Z</time>
      </trkpt>
      <trkpt lat="50.63481" lon="5.3392">
        <ele>166.60000610352</ele>
        <time>2021-09-05T10:14:13.000Z</time>
      </trkpt>
      <trkpt lat="50.63481" lon="5.3393">
        <ele>166.60000610352</ele>
        <time>2021-09-05T10:14:14.000Z</time>
      </trkpt>
      <trkpt lat="50.63481" lon="5.3394">
        <ele>166.60000610352</ele>
        <time>2021-09-05T10:14:15.000Z</time>
      </trkpt>
      <trkpt lat="50.6348" lon="5.3403">
        <ele>167.60000610352</ele>
        <time>2021-09-05T10:14:24.000Z</time>
      </trkpt>
      <trkpt lat="50.6348" lon="5.3404">
        <ele>167.60000610352</ele>
        <time>2021-09-05T10:14:25.000Z</time>
      </trkpt>
      <trkpt lat="50.6348" lon="5.34089">
        <ele>167.80000305176</ele>
        <time>2021-09-05T10:14:30.000Z</time>
      </trkpt>
      <trkpt lat="50.63477" lon="5.34148">
        <ele>168.60000610352</ele>
        <time>2021-09-05T10:14:36.000Z</time>
      </trkpt>
      <trkpt lat="50.63464" lon="5.34229">
        <ele>168.60000610352</ele>
        <time>2021-09-05T10:14:44.000Z</time>
      </trkpt>
      <trkpt lat="50.63458" lon="5.3426">
        <ele>168.60000610352</ele>
        <time>2021-09-05T10:14:47.000Z</time>
      </trkpt>
      <trkpt lat="50.63444" lon="5.34336">
        <ele>168.39999389648</ele>
        <time>2021-09-05T10:14:54.000Z</time>
      </trkpt>
      <trkpt lat="50.63433" lon="5.34403">
        <ele>167.80000305176</ele>
        <time>2021-09-05T10:15:00.000Z</time>
      </trkpt>
      <trkpt lat="50.63422" lon="5.34461">
        <ele>167</ele>
        <time>2021-09-05T10:15:05.000Z</time>
      </trkpt>
      <trkpt lat="50.63406" lon="5.34552">
        <ele>166.60000610352</ele>
        <time>2021-09-05T10:15:13.000Z</time>
      </trkpt>
      <trkpt lat="50.63404" lon="5.34563">
        <ele>166.80000305176</ele>
        <time>2021-09-05T10:15:14.000Z</time>
      </trkpt>
      <trkpt lat="50.63396" lon="5.34607">
        <ele>166.80000305176</ele>
        <time>2021-09-05T10:15:18.000Z</time>
      </trkpt>
      <trkpt lat="50.6338" lon="5.34695">
        <ele>167.39999389648</ele>
        <time>2021-09-05T10:15:26.000Z</time>
      </trkpt>
      <trkpt lat="50.63378" lon="5.34705">
        <ele>167.60000610352</ele>
        <time>2021-09-05T10:15:27.000Z</time>
      </trkpt>
      <trkpt lat="50.63363" lon="5.34789">
        <ele>168.60000610352</ele>
        <time>2021-09-05T10:15:35.000Z</time>
      </trkpt>
      <trkpt lat="50.63358" lon="5.3482">
        <ele>169</ele>
        <time>2021-09-05T10:15:38.000Z</time>
      </trkpt>
      <trkpt lat="50.63348" lon="5.34905">
        <ele>169.39999389648</ele>
        <time>2021-09-05T10:15:46.000Z</time>
      </trkpt>
      <trkpt lat="50.63347" lon="5.34916">
        <ele>169.39999389648</ele>
        <time>2021-09-05T10:15:47.000Z</time>
      </trkpt>
      <trkpt lat="50.63344" lon="5.34961">
        <ele>169.60000610352</ele>
        <time>2021-09-05T10:15:51.000Z</time>
      </trkpt>
      <trkpt lat="50.63338" lon="5.35043">
        <ele>169.60000610352</ele>
        <time>2021-09-05T10:15:58.000Z</time>
      </trkpt>
      <trkpt lat="50.63337" lon="5.35055">
        <ele>169.60000610352</ele>
        <time>2021-09-05T10:15:59.000Z</time>
      </trkpt>
      <trkpt lat="50.63335" lon="5.35079">
        <ele>169.19999694824</ele>
        <time>2021-09-05T10:16:01.000Z</time>
      </trkpt>
      <trkpt lat="50.6333" lon="5.35164">
        <ele>168.19999694824</ele>
        <time>2021-09-05T10:16:08.000Z</time>
      </trkpt>
      <trkpt lat="50.63328" lon="5.35189">
        <ele>167.80000305176</ele>
        <time>2021-09-05T10:16:10.000Z</time>
      </trkpt>
      <trkpt lat="50.63327" lon="5.3525">
        <ele>166.60000610352</ele>
        <time>2021-09-05T10:16:15.000Z</time>
      </trkpt>
      <trkpt lat="50.63325" lon="5.35298">
        <ele>166.39999389648</ele>
        <time>2021-09-05T10:16:19.000Z</time>
      </trkpt>
      <trkpt lat="50.63324" lon="5.35392">
        <ele>165.19999694824</ele>
        <time>2021-09-05T10:16:27.000Z</time>
      </trkpt>
      <trkpt lat="50.63323" lon="5.35425">
        <ele>165.19999694824</ele>
        <time>2021-09-05T10:16:30.000Z</time>
      </trkpt>
      <trkpt lat="50.63317" lon="5.35513">
        <ele>165.19999694824</ele>
        <time>2021-09-05T10:16:38.000Z</time>
      </trkpt>
      <trkpt lat="50.63316" lon="5.35524">
        <ele>165.19999694824</ele>
        <time>2021-09-05T10:16:39.000Z</time>
      </trkpt>
      <trkpt lat="50.63315" lon="5.35535">
        <ele>165.39999389648</ele>
        <time>2021-09-05T10:16:40.000Z</time>
      </trkpt>
      <trkpt lat="50.63306" lon="5.35621">
        <ele>166</ele>
        <time>2021-09-05T10:16:48.000Z</time>
      </trkpt>
      <trkpt lat="50.63304" lon="5.35643">
        <ele>166.19999694824</ele>
        <time>2021-09-05T10:16:50.000Z</time>
      </trkpt>
      <trkpt lat="50.63303" lon="5.35653">
        <ele>166.39999389648</ele>
        <time>2021-09-05T10:16:51.000Z</time>
      </trkpt>
      <trkpt lat="50.63294" lon="5.35737">
        <ele>167.19999694824</ele>
        <time>2021-09-05T10:16:59.000Z</time>
      </trkpt>
      <trkpt lat="50.63293" lon="5.35747">
        <ele>167.39999389648</ele>
        <time>2021-09-05T10:17:00.000Z</time>
      </trkpt>
      <trkpt lat="50.63292" lon="5.35758">
        <ele>167.39999389648</ele>
        <time>2021-09-05T10:17:01.000Z</time>
      </trkpt>
      <trkpt lat="50.63282" lon="5.35852">
        <ele>168.39999389648</ele>
        <time>2021-09-05T10:17:10.000Z</time>
      </trkpt>
      <trkpt lat="50.6328" lon="5.35873">
        <ele>168.60000610352</ele>
        <time>2021-09-05T10:17:12.000Z</time>
      </trkpt>
      <trkpt lat="50.6327" lon="5.35966">
        <ele>169.80000305176</ele>
        <time>2021-09-05T10:17:21.000Z</time>
      </trkpt>
      <trkpt lat="50.63268" lon="5.35986">
        <ele>169.80000305176</ele>
        <time>2021-09-05T10:17:23.000Z</time>
      </trkpt>
      <trkpt lat="50.63267" lon="5.35996">
        <ele>170</ele>
        <time>2021-09-05T10:17:24.000Z</time>
      </trkpt>
      <trkpt lat="50.63264" lon="5.36079">
        <ele>170.60000610352</ele>
        <time>2021-09-05T10:17:32.000Z</time>
      </trkpt>
      <trkpt lat="50.63271" lon="5.3614">
        <ele>171.39999389648</ele>
        <time>2021-09-05T10:17:38.000Z</time>
      </trkpt>
      <trkpt lat="50.63275" lon="5.36171">
        <ele>171.60000610352</ele>
        <time>2021-09-05T10:17:41.000Z</time>
      </trkpt>
      <trkpt lat="50.63286" lon="5.36258">
        <ele>172.19999694824</ele>
        <time>2021-09-05T10:17:50.000Z</time>
      </trkpt>
      <trkpt lat="50.63291" lon="5.36315">
        <ele>172.19999694824</ele>
        <time>2021-09-05T10:17:57.000Z</time>
      </trkpt>
      <trkpt lat="50.6329" lon="5.36331">
        <ele>172.19999694824</ele>
        <time>2021-09-05T10:18:01.000Z</time>
      </trkpt>
      <trkpt lat="50.63294" lon="5.36349">
        <ele>172.39999389648</ele>
        <time>2021-09-05T10:18:05.000Z</time>
      </trkpt>
      <trkpt lat="50.63295" lon="5.36355">
        <ele>172.39999389648</ele>
        <time>2021-09-05T10:18:06.000Z</time>
      </trkpt>
      <trkpt lat="50.63296" lon="5.36375">
        <ele>172.39999389648</ele>
        <time>2021-09-05T10:18:09.000Z</time>
      </trkpt>
      <trkpt lat="50.63295" lon="5.3643">
        <ele>172.39999389648</ele>
        <time>2021-09-05T10:18:16.000Z</time>
      </trkpt>
      <trkpt lat="50.63295" lon="5.36508">
        <ele>172.39999389648</ele>
        <time>2021-09-05T10:18:24.000Z</time>
      </trkpt>
      <trkpt lat="50.63294" lon="5.36596">
        <ele>172.19999694824</ele>
        <time>2021-09-05T10:18:32.000Z</time>
      </trkpt>
      <trkpt lat="50.63294" lon="5.36608">
        <ele>172.19999694824</ele>
        <time>2021-09-05T10:18:33.000Z</time>
      </trkpt>
      <trkpt lat="50.63295" lon="5.36699">
        <ele>171.39999389648</ele>
        <time>2021-09-05T10:18:41.000Z</time>
      </trkpt>
      <trkpt lat="50.63295" lon="5.3671">
        <ele>171</ele>
        <time>2021-09-05T10:18:42.000Z</time>
      </trkpt>
      <trkpt lat="50.63296" lon="5.368">
        <ele>170.19999694824</ele>
        <time>2021-09-05T10:18:50.000Z</time>
      </trkpt>
      <trkpt lat="50.63297" lon="5.36811">
        <ele>170.39999389648</ele>
        <time>2021-09-05T10:18:51.000Z</time>
      </trkpt>
      <trkpt lat="50.63304" lon="5.369">
        <ele>170.39999389648</ele>
        <time>2021-09-05T10:18:59.000Z</time>
      </trkpt>
      <trkpt lat="50.63308" lon="5.36955">
        <ele>170.39999389648</ele>
        <time>2021-09-05T10:19:04.000Z</time>
      </trkpt>
      <trkpt lat="50.63315" lon="5.37041">
        <ele>170.80000305176</ele>
        <time>2021-09-05T10:19:12.000Z</time>
      </trkpt>
      <trkpt lat="50.63317" lon="5.37063">
        <ele>171.19999694824</ele>
        <time>2021-09-05T10:19:14.000Z</time>
      </trkpt>
      <trkpt lat="50.63319" lon="5.37084">
        <ele>171.39999389648</ele>
        <time>2021-09-05T10:19:16.000Z</time>
      </trkpt>
      <trkpt lat="50.63326" lon="5.37173">
        <ele>171.39999389648</ele>
        <time>2021-09-05T10:19:24.000Z</time>
      </trkpt>
      <trkpt lat="50.63327" lon="5.37185">
        <ele>171.39999389648</ele>
        <time>2021-09-05T10:19:25.000Z</time>
      </trkpt>
      <trkpt lat="50.63334" lon="5.37268">
        <ele>170.80000305176</ele>
        <time>2021-09-05T10:19:32.000Z</time>
      </trkpt>
      <trkpt lat="50.63338" lon="5.37314">
        <ele>170</ele>
        <time>2021-09-05T10:19:36.000Z</time>
      </trkpt>
      <trkpt lat="50.63343" lon="5.37383">
        <ele>169.19999694824</ele>
        <time>2021-09-05T10:19:42.000Z</time>
      </trkpt>
      <trkpt lat="50.63349" lon="5.37463">
        <ele>169</ele>
        <time>2021-09-05T10:19:49.000Z</time>
      </trkpt>
      <trkpt lat="50.63352" lon="5.37496">
        <ele>168.80000305176</ele>
        <time>2021-09-05T10:19:52.000Z</time>
      </trkpt>
      <trkpt lat="50.63353" lon="5.37507">
        <ele>168.80000305176</ele>
        <time>2021-09-05T10:19:53.000Z</time>
      </trkpt>
      <trkpt lat="50.63358" lon="5.37574">
        <ele>168.60000610352</ele>
        <time>2021-09-05T10:19:59.000Z</time>
      </trkpt>
      <trkpt lat="50.63361" lon="5.37608">
        <ele>168.19999694824</ele>
        <time>2021-09-05T10:20:02.000Z</time>
      </trkpt>
      <trkpt lat="50.63364" lon="5.37655">
        <ele>168</ele>
        <time>2021-09-05T10:20:06.000Z</time>
      </trkpt>
      <trkpt lat="50.63368" lon="5.37715">
        <ele>167.60000610352</ele>
        <time>2021-09-05T10:20:11.000Z</time>
      </trkpt>
      <trkpt lat="50.63369" lon="5.37727">
        <ele>167.60000610352</ele>
        <time>2021-09-05T10:20:12.000Z</time>
      </trkpt>
      <trkpt lat="50.63373" lon="5.37778">
        <ele>166.60000610352</ele>
        <time>2021-09-05T10:20:16.000Z</time>
      </trkpt>
      <trkpt lat="50.63376" lon="5.37815">
        <ele>165.80000305176</ele>
        <time>2021-09-05T10:20:19.000Z</time>
      </trkpt>
      <trkpt lat="50.63379" lon="5.3785">
        <ele>165.19999694824</ele>
        <time>2021-09-05T10:20:22.000Z</time>
      </trkpt>
      <trkpt lat="50.63383" lon="5.37911">
        <ele>163.60000610352</ele>
        <time>2021-09-05T10:20:27.000Z</time>
      </trkpt>
      <trkpt lat="50.63391" lon="5.38007">
        <ele>162.19999694824</ele>
        <time>2021-09-05T10:20:35.000Z</time>
      </trkpt>
      <trkpt lat="50.63393" lon="5.38042">
        <ele>162</ele>
        <time>2021-09-05T10:20:38.000Z</time>
      </trkpt>
      <trkpt lat="50.63396" lon="5.38078">
        <ele>161.60000610352</ele>
        <time>2021-09-05T10:20:41.000Z</time>
      </trkpt>
      <trkpt lat="50.63403" lon="5.38163">
        <ele>161.19999694824</ele>
        <time>2021-09-05T10:20:48.000Z</time>
      </trkpt>
      <trkpt lat="50.63405" lon="5.38187">
        <ele>160.80000305176</ele>
        <time>2021-09-05T10:20:50.000Z</time>
      </trkpt>
      <trkpt lat="50.63408" lon="5.38236">
        <ele>159.80000305176</ele>
        <time>2021-09-05T10:20:54.000Z</time>
      </trkpt>
      <trkpt lat="50.63415" lon="5.3832">
        <ele>158.60000610352</ele>
        <time>2021-09-05T10:21:01.000Z</time>
      </trkpt>
      <trkpt lat="50.63417" lon="5.38343">
        <ele>158.19999694824</ele>
        <time>2021-09-05T10:21:03.000Z</time>
      </trkpt>
      <trkpt lat="50.63424" lon="5.38437">
        <ele>157.80000305176</ele>
        <time>2021-09-05T10:21:11.000Z</time>
      </trkpt>
      <trkpt lat="50.63426" lon="5.3846">
        <ele>157.60000610352</ele>
        <time>2021-09-05T10:21:13.000Z</time>
      </trkpt>
      <trkpt lat="50.63433" lon="5.38552">
        <ele>157.60000610352</ele>
        <time>2021-09-05T10:21:21.000Z</time>
      </trkpt>
      <trkpt lat="50.63435" lon="5.38576">
        <ele>157.60000610352</ele>
        <time>2021-09-05T10:21:23.000Z</time>
      </trkpt>
      <trkpt lat="50.63439" lon="5.38623">
        <ele>157.60000610352</ele>
        <time>2021-09-05T10:21:27.000Z</time>
      </trkpt>
      <trkpt lat="50.63445" lon="5.38706">
        <ele>157.19999694824</ele>
        <time>2021-09-05T10:21:34.000Z</time>
      </trkpt>
      <trkpt lat="50.63453" lon="5.38799">
        <ele>156.80000305176</ele>
        <time>2021-09-05T10:21:42.000Z</time>
      </trkpt>
      <trkpt lat="50.63458" lon="5.38856">
        <ele>156.60000610352</ele>
        <time>2021-09-05T10:21:47.000Z</time>
      </trkpt>
      <trkpt lat="50.63465" lon="5.38948">
        <ele>156.39999389648</ele>
        <time>2021-09-05T10:21:55.000Z</time>
      </trkpt>
      <trkpt lat="50.63468" lon="5.38982">
        <ele>156.39999389648</ele>
        <time>2021-09-05T10:21:58.000Z</time>
      </trkpt>
      <trkpt lat="50.63475" lon="5.39071">
        <ele>156.60000610352</ele>
        <time>2021-09-05T10:22:06.000Z</time>
      </trkpt>
      <trkpt lat="50.63475" lon="5.39082">
        <ele>156.80000305176</ele>
        <time>2021-09-05T10:22:07.000Z</time>
      </trkpt>
      <trkpt lat="50.63476" lon="5.39093">
        <ele>156.60000610352</ele>
        <time>2021-09-05T10:22:08.000Z</time>
      </trkpt>
      <trkpt lat="50.63483" lon="5.39183">
        <ele>157.60000610352</ele>
        <time>2021-09-05T10:22:16.000Z</time>
      </trkpt>
      <trkpt lat="50.63487" lon="5.39227">
        <ele>157.80000305176</ele>
        <time>2021-09-05T10:22:20.000Z</time>
      </trkpt>
      <trkpt lat="50.63494" lon="5.39313">
        <ele>158.19999694824</ele>
        <time>2021-09-05T10:22:28.000Z</time>
      </trkpt>
      <trkpt lat="50.63495" lon="5.39335">
        <ele>158.19999694824</ele>
        <time>2021-09-05T10:22:30.000Z</time>
      </trkpt>
      <trkpt lat="50.63502" lon="5.39425">
        <ele>158</ele>
        <time>2021-09-05T10:22:38.000Z</time>
      </trkpt>
      <trkpt lat="50.63504" lon="5.39448">
        <ele>158</ele>
        <time>2021-09-05T10:22:40.000Z</time>
      </trkpt>
      <trkpt lat="50.63511" lon="5.39539">
        <ele>157.60000610352</ele>
        <time>2021-09-05T10:22:48.000Z</time>
      </trkpt>
      <trkpt lat="50.63513" lon="5.3956">
        <ele>157.60000610352</ele>
        <time>2021-09-05T10:22:50.000Z</time>
      </trkpt>
      <trkpt lat="50.63515" lon="5.3959">
        <ele>157.39999389648</ele>
        <time>2021-09-05T10:22:53.000Z</time>
      </trkpt>
      <trkpt lat="50.63515" lon="5.396">
        <ele>157.39999389648</ele>
        <time>2021-09-05T10:22:54.000Z</time>
      </trkpt>
      <trkpt lat="50.63513" lon="5.39609">
        <ele>157.39999389648</ele>
        <time>2021-09-05T10:22:55.000Z</time>
      </trkpt>
      <trkpt lat="50.63501" lon="5.39643">
        <ele>157</ele>
        <time>2021-09-05T10:22:59.000Z</time>
      </trkpt>
      <trkpt lat="50.63497" lon="5.3965">
        <ele>157</ele>
        <time>2021-09-05T10:23:00.000Z</time>
      </trkpt>
      <trkpt lat="50.63487" lon="5.39662">
        <ele>157</ele>
        <time>2021-09-05T10:23:02.000Z</time>
      </trkpt>
      <trkpt lat="50.63449" lon="5.3971">
        <ele>156.60000610352</ele>
        <time>2021-09-05T10:23:09.000Z</time>
      </trkpt>
      <trkpt lat="50.63437" lon="5.39725">
        <ele>156.60000610352</ele>
        <time>2021-09-05T10:23:11.000Z</time>
      </trkpt>
      <trkpt lat="50.63407" lon="5.39762">
        <ele>156</ele>
        <time>2021-09-05T10:23:16.000Z</time>
      </trkpt>
      <trkpt lat="50.63359" lon="5.39822">
        <ele>155.19999694824</ele>
        <time>2021-09-05T10:23:24.000Z</time>
      </trkpt>
      <trkpt lat="50.63353" lon="5.3983">
        <ele>155.19999694824</ele>
        <time>2021-09-05T10:23:25.000Z</time>
      </trkpt>
      <trkpt lat="50.63347" lon="5.39838">
        <ele>155</ele>
        <time>2021-09-05T10:23:26.000Z</time>
      </trkpt>
      <trkpt lat="50.633" lon="5.399">
        <ele>154.60000610352</ele>
        <time>2021-09-05T10:23:34.000Z</time>
      </trkpt>
      <trkpt lat="50.6327" lon="5.39939">
        <ele>154.19999694824</ele>
        <time>2021-09-05T10:23:39.000Z</time>
      </trkpt>
      <trkpt lat="50.63252" lon="5.39961">
        <ele>154</ele>
        <time>2021-09-05T10:23:42.000Z</time>
      </trkpt>
      <trkpt lat="50.63206" lon="5.40021">
        <ele>152.80000305176</ele>
        <time>2021-09-05T10:23:50.000Z</time>
      </trkpt>
      <trkpt lat="50.63159" lon="5.40081">
        <ele>152</ele>
        <time>2021-09-05T10:23:58.000Z</time>
      </trkpt>
      <trkpt lat="50.63147" lon="5.40096">
        <ele>152</ele>
        <time>2021-09-05T10:24:00.000Z</time>
      </trkpt>
      <trkpt lat="50.63124" lon="5.40126">
        <ele>151.60000610352</ele>
        <time>2021-09-05T10:24:04.000Z</time>
      </trkpt>
      <trkpt lat="50.63082" lon="5.4018">
        <ele>150.60000610352</ele>
        <time>2021-09-05T10:24:11.000Z</time>
      </trkpt>
      <trkpt lat="50.63076" lon="5.40188">
        <ele>150.39999389648</ele>
        <time>2021-09-05T10:24:12.000Z</time>
      </trkpt>
      <trkpt lat="50.63064" lon="5.40203">
        <ele>150.39999389648</ele>
        <time>2021-09-05T10:24:14.000Z</time>
      </trkpt>
      <trkpt lat="50.63017" lon="5.40263">
        <ele>149.60000610352</ele>
        <time>2021-09-05T10:24:22.000Z</time>
      </trkpt>
      <trkpt lat="50.63011" lon="5.4027">
        <ele>149.60000610352</ele>
        <time>2021-09-05T10:24:23.000Z</time>
      </trkpt>
      <trkpt lat="50.6297" lon="5.40325">
        <ele>149.19999694824</ele>
        <time>2021-09-05T10:24:30.000Z</time>
      </trkpt>
      <trkpt lat="50.62964" lon="5.40333">
        <ele>149.19999694824</ele>
        <time>2021-09-05T10:24:31.000Z</time>
      </trkpt>
      <trkpt lat="50.62958" lon="5.40341">
        <ele>149</ele>
        <time>2021-09-05T10:24:32.000Z</time>
      </trkpt>
      <trkpt lat="50.62921" lon="5.4039">
        <ele>149</ele>
        <time>2021-09-05T10:24:38.000Z</time>
      </trkpt>
      <trkpt lat="50.62875" lon="5.40452">
        <ele>148.39999389648</ele>
        <time>2021-09-05T10:24:46.000Z</time>
      </trkpt>
      <trkpt lat="50.62859" lon="5.40473">
        <ele>154.9</ele>
        <extensions>
          <visugpx:TrkExtension xmlns:visugpx="https://www.visugpx.com/editgpx/">
            <visugpx:node>20</visugpx:node>
            </visugpx:TrkExtension>
        </extensions>
      </trkpt>
      <trkpt lat="50.6284" lon="5.40497">
        <ele>147.80000305176</ele>
        <time>2021-09-05T10:24:52.000Z</time>
      </trkpt>
      <trkpt lat="50.62819" lon="5.40524">
        <ele>148</ele>
        <time>2021-09-05T10:24:56.000Z</time>
      </trkpt>
      <trkpt lat="50.62793" lon="5.40556">
        <ele>147.80000305176</ele>
        <time>2021-09-05T10:25:01.000Z</time>
      </trkpt>
      <trkpt lat="50.62788" lon="5.40562">
        <ele>148.19999694824</ele>
        <time>2021-09-05T10:25:02.000Z</time>
        <extensions>
          <visugpx:TrkExtension xmlns:visugpx="https://www.visugpx.com/editgpx/">
            <visugpx:node>8</visugpx:node>
            </visugpx:TrkExtension>
        </extensions>
      </trkpt>
      <trkpt lat="50.62766" lon="5.4059">
        <ele>158.5</ele>
      </trkpt>
      <trkpt lat="50.62314" lon="5.41187">
        <ele>176.7</ele>
      </trkpt>
      <trkpt lat="50.62223" lon="5.4109">
        <ele>178</ele>
      </trkpt>
      <trkpt lat="50.62092" lon="5.4112">
        <ele>180.8</ele>
      </trkpt>
      <trkpt lat="50.61921" lon="5.41217">
        <ele>182.8</ele>
      </trkpt>
      <trkpt lat="50.62017" lon="5.41542">
        <ele>186</ele>
      </trkpt>
      <trkpt lat="50.61917" lon="5.41703">
        <ele>187</ele>
      </trkpt>
      <trkpt lat="50.61892" lon="5.41915">
        <ele>188</ele>
      </trkpt>
      <trkpt lat="50.61905" lon="5.42249">
        <ele>189.6</ele>
      </trkpt>
      <trkpt lat="50.61823" lon="5.42459">
        <ele>193.3</ele>
      </trkpt>
      <trkpt lat="50.61817" lon="5.42596">
        <ele>190.8</ele>
        <extensions>
          <visugpx:TrkExtension xmlns:visugpx="https://www.visugpx.com/editgpx/">
            <visugpx:node>14</visugpx:node>
            </visugpx:TrkExtension>
        </extensions>
      </trkpt>
      <trkpt lat="50.6181" lon="5.42609">
        <ele>183.19999694824</ele>
        <time>2021-09-05T10:30:11.000Z</time>
        <extensions>
          <visugpx:TrkExtension xmlns:visugpx="https://www.visugpx.com/editgpx/">
            <visugpx:node>15</visugpx:node>
            </visugpx:TrkExtension>
        </extensions>
      </trkpt>
      <trkpt lat="50.61816" lon="5.42641">
        <ele>182.80000305176</ele>
        <time>2021-09-05T10:30:14.000Z</time>
      </trkpt>
      <trkpt lat="50.61814" lon="5.42687">
        <ele>181.80000305176</ele>
        <time>2021-09-05T10:30:18.000Z</time>
      </trkpt>
      <trkpt lat="50.61803" lon="5.42748">
        <ele>180</ele>
        <time>2021-09-05T10:30:23.000Z</time>
      </trkpt>
      <trkpt lat="50.6179" lon="5.42793">
        <ele>179.39999389648</ele>
        <time>2021-09-05T10:30:27.000Z</time>
      </trkpt>
      <trkpt lat="50.61786" lon="5.42803">
        <ele>179</ele>
        <time>2021-09-05T10:30:28.000Z</time>
      </trkpt>
      <trkpt lat="50.61778" lon="5.42821">
        <ele>179</ele>
        <time>2021-09-05T10:30:30.000Z</time>
      </trkpt>
      <trkpt lat="50.61771" lon="5.42839">
        <ele>178.80000305176</ele>
        <time>2021-09-05T10:30:32.000Z</time>
      </trkpt>
      <trkpt lat="50.61768" lon="5.42848">
        <ele>178.80000305176</ele>
        <time>2021-09-05T10:30:33.000Z</time>
      </trkpt>
      <trkpt lat="50.61767" lon="5.42858">
        <ele>178.80000305176</ele>
        <time>2021-09-05T10:30:34.000Z</time>
      </trkpt>
      <trkpt lat="50.61768" lon="5.42878">
        <ele>178.80000305176</ele>
        <time>2021-09-05T10:30:36.000Z</time>
      </trkpt>
      <trkpt lat="50.61774" lon="5.42896">
        <ele>179</ele>
        <time>2021-09-05T10:30:38.000Z</time>
      </trkpt>
      <trkpt lat="50.61783" lon="5.42911">
        <ele>179.60000610352</ele>
        <time>2021-09-05T10:30:40.000Z</time>
      </trkpt>
      <trkpt lat="50.61788" lon="5.42918">
        <ele>179.80000305176</ele>
        <time>2021-09-05T10:30:41.000Z</time>
      </trkpt>
      <trkpt lat="50.61809" lon="5.4294">
        <ele>181</ele>
        <time>2021-09-05T10:30:45.000Z</time>
      </trkpt>
      <trkpt lat="50.61826" lon="5.42956">
        <ele>181.80000305176</ele>
        <time>2021-09-05T10:30:48.000Z</time>
      </trkpt>
      <trkpt lat="50.61847" lon="5.42978">
        <ele>182.19999694824</ele>
        <time>2021-09-05T10:30:52.000Z</time>
      </trkpt>
      <trkpt lat="50.6189" lon="5.43035">
        <ele>183.80000305176</ele>
        <time>2021-09-05T10:31:01.000Z</time>
      </trkpt>
      <trkpt lat="50.61933" lon="5.43096">
        <ele>183.80000305176</ele>
        <time>2021-09-05T10:31:10.000Z</time>
      </trkpt>
      <trkpt lat="50.61977" lon="5.43152">
        <ele>184</ele>
        <time>2021-09-05T10:31:19.000Z</time>
      </trkpt>
      <trkpt lat="50.61982" lon="5.43157">
        <ele>184</ele>
        <time>2021-09-05T10:31:20.000Z</time>
      </trkpt>
      <trkpt lat="50.62011" lon="5.43174">
        <ele>184.39999389648</ele>
        <time>2021-09-05T10:31:25.000Z</time>
      </trkpt>
      <trkpt lat="50.62035" lon="5.43188">
        <ele>184.60000610352</ele>
        <time>2021-09-05T10:31:29.000Z</time>
      </trkpt>
      <trkpt lat="50.62048" lon="5.43197">
        <ele>184.60000610352</ele>
        <time>2021-09-05T10:31:31.000Z</time>
      </trkpt>
      <trkpt lat="50.62053" lon="5.43204">
        <ele>184.39999389648</ele>
        <time>2021-09-05T10:31:32.000Z</time>
      </trkpt>
      <trkpt lat="50.6209" lon="5.43248">
        <ele>184.19999694824</ele>
        <time>2021-09-05T10:31:39.000Z</time>
      </trkpt>
      <trkpt lat="50.62124" lon="5.43282">
        <ele>184.19999694824</ele>
        <time>2021-09-05T10:31:46.000Z</time>
      </trkpt>
      <trkpt lat="50.62133" lon="5.43292">
        <ele>184.80000305176</ele>
        <time>2021-09-05T10:31:48.000Z</time>
      </trkpt>
      <trkpt lat="50.62147" lon="5.43309">
        <ele>185.19999694824</ele>
        <time>2021-09-05T10:31:51.000Z</time>
      </trkpt>
      <trkpt lat="50.62155" lon="5.43324">
        <ele>185.60000610352</ele>
        <time>2021-09-05T10:31:53.000Z</time>
      </trkpt>
      <trkpt lat="50.62172" lon="5.43371">
        <ele>185.60000610352</ele>
        <time>2021-09-05T10:31:58.000Z</time>
      </trkpt>
      <trkpt lat="50.62179" lon="5.43391">
        <ele>185.80000305176</ele>
        <time>2021-09-05T10:32:00.000Z</time>
      </trkpt>
      <trkpt lat="50.6219" lon="5.4342">
        <ele>185.39999389648</ele>
        <time>2021-09-05T10:32:03.000Z</time>
      </trkpt>
      <trkpt lat="50.62202" lon="5.43455">
        <ele>184.19999694824</ele>
        <time>2021-09-05T10:32:07.000Z</time>
      </trkpt>
      <trkpt lat="50.62207" lon="5.43471">
        <ele>183.60000610352</ele>
        <time>2021-09-05T10:32:09.000Z</time>
      </trkpt>
      <trkpt lat="50.6221" lon="5.43491">
        <ele>183.39999389648</ele>
        <time>2021-09-05T10:32:11.000Z</time>
      </trkpt>
      <trkpt lat="50.62216" lon="5.4351">
        <ele>183</ele>
        <time>2021-09-05T10:32:13.000Z</time>
      </trkpt>
      <trkpt lat="50.62222" lon="5.43516">
        <ele>182.80000305176</ele>
        <time>2021-09-05T10:32:14.000Z</time>
      </trkpt>
      <trkpt lat="50.62228" lon="5.43523">
        <ele>182.80000305176</ele>
        <time>2021-09-05T10:32:15.000Z</time>
      </trkpt>
      <trkpt lat="50.62241" lon="5.43549">
        <ele>182.39999389648</ele>
        <time>2021-09-05T10:32:18.000Z</time>
      </trkpt>
      <trkpt lat="50.62257" lon="5.43589">
        <ele>182.19999694824</ele>
        <time>2021-09-05T10:32:22.000Z</time>
      </trkpt>
      <trkpt lat="50.6227" lon="5.4362">
        <ele>181.80000305176</ele>
        <time>2021-09-05T10:32:25.000Z</time>
      </trkpt>
      <trkpt lat="50.62283" lon="5.43655">
        <ele>181.60000610352</ele>
        <time>2021-09-05T10:32:28.000Z</time>
      </trkpt>
      <trkpt lat="50.62287" lon="5.43666">
        <ele>181.19999694824</ele>
        <time>2021-09-05T10:32:29.000Z</time>
      </trkpt>
      <trkpt lat="50.62304" lon="5.43711">
        <ele>179.80000305176</ele>
        <time>2021-09-05T10:32:33.000Z</time>
      </trkpt>
      <trkpt lat="50.62325" lon="5.43767">
        <ele>178.39999389648</ele>
        <time>2021-09-05T10:32:38.000Z</time>
      </trkpt>
      <trkpt lat="50.62332" lon="5.43791">
        <ele>177.60000610352</ele>
        <time>2021-09-05T10:32:40.000Z</time>
      </trkpt>
      <trkpt lat="50.62349" lon="5.43868">
        <ele>175.80000305176</ele>
        <time>2021-09-05T10:32:47.000Z</time>
      </trkpt>
      <trkpt lat="50.62353" lon="5.43889">
        <ele>175.80000305176</ele>
        <time>2021-09-05T10:32:49.000Z</time>
      </trkpt>
      <trkpt lat="50.62365" lon="5.43949">
        <ele>176</ele>
        <time>2021-09-05T10:32:55.000Z</time>
      </trkpt>
      <trkpt lat="50.62367" lon="5.43959">
        <ele>176</ele>
        <time>2021-09-05T10:32:56.000Z</time>
      </trkpt>
      <trkpt lat="50.62371" lon="5.4399">
        <ele>176.39999389648</ele>
        <time>2021-09-05T10:32:59.000Z</time>
      </trkpt>
      <trkpt lat="50.62371" lon="5.44">
        <ele>176.60000610352</ele>
        <time>2021-09-05T10:33:00.000Z</time>
      </trkpt>
      <trkpt lat="50.62369" lon="5.4401">
        <ele>176.80000305176</ele>
        <time>2021-09-05T10:33:01.000Z</time>
      </trkpt>
      <trkpt lat="50.62362" lon="5.44029">
        <ele>177</ele>
        <time>2021-09-05T10:33:03.000Z</time>
      </trkpt>
      <trkpt lat="50.62329" lon="5.44089">
        <ele>177.60000610352</ele>
        <time>2021-09-05T10:33:10.000Z</time>
      </trkpt>
      <trkpt lat="50.62311" lon="5.44123">
        <ele>177.80000305176</ele>
        <time>2021-09-05T10:33:14.000Z</time>
      </trkpt>
      <trkpt lat="50.62305" lon="5.44143">
        <ele>177.80000305176</ele>
        <time>2021-09-05T10:33:16.000Z</time>
      </trkpt>
      <trkpt lat="50.62302" lon="5.44164">
        <ele>177.80000305176</ele>
        <time>2021-09-05T10:33:18.000Z</time>
      </trkpt>
      <trkpt lat="50.62301" lon="5.44174">
        <ele>177.80000305176</ele>
        <time>2021-09-05T10:33:19.000Z</time>
      </trkpt>
      <trkpt lat="50.62302" lon="5.44185">
        <ele>177.80000305176</ele>
        <time>2021-09-05T10:33:20.000Z</time>
      </trkpt>
      <trkpt lat="50.62309" lon="5.44225">
        <ele>178.39999389648</ele>
        <time>2021-09-05T10:33:24.000Z</time>
      </trkpt>
      <trkpt lat="50.62325" lon="5.44292">
        <ele>178.60000610352</ele>
        <time>2021-09-05T10:33:31.000Z</time>
      </trkpt>
      <trkpt lat="50.62333" lon="5.4433">
        <ele>179.39999389648</ele>
        <time>2021-09-05T10:33:35.000Z</time>
      </trkpt>
      <trkpt lat="50.6234" lon="5.44379">
        <ele>179.80000305176</ele>
        <time>2021-09-05T10:33:40.000Z</time>
      </trkpt>
      <trkpt lat="50.62345" lon="5.44416">
        <ele>180.39999389648</ele>
        <time>2021-09-05T10:33:44.000Z</time>
      </trkpt>
      <trkpt lat="50.62348" lon="5.44445">
        <ele>180.80000305176</ele>
        <time>2021-09-05T10:33:47.000Z</time>
      </trkpt>
      <trkpt lat="50.62352" lon="5.44502">
        <ele>181.60000610352</ele>
        <time>2021-09-05T10:33:53.000Z</time>
      </trkpt>
      <trkpt lat="50.62352" lon="5.44572">
        <ele>182.60000610352</ele>
        <time>2021-09-05T10:34:00.000Z</time>
      </trkpt>
      <trkpt lat="50.62352" lon="5.44592">
        <ele>182.80000305176</ele>
        <time>2021-09-05T10:34:02.000Z</time>
      </trkpt>
      <trkpt lat="50.62344" lon="5.44682">
        <ele>183.39999389648</ele>
        <time>2021-09-05T10:34:11.000Z</time>
      </trkpt>
      <trkpt lat="50.62343" lon="5.44692">
        <ele>183.60000610352</ele>
        <time>2021-09-05T10:34:12.000Z</time>
      </trkpt>
      <trkpt lat="50.62336" lon="5.44752">
        <ele>183.39999389648</ele>
        <time>2021-09-05T10:34:18.000Z</time>
      </trkpt>
      <trkpt lat="50.62324" lon="5.44868">
        <ele>189.9</ele>
        <time>2021-09-05T10:34:22.000Z</time>
      </trkpt>
    </trkseg>
  </trk>
</gpx>